ID TimeStamp Esp_TimeStamp Local PZ ID Fase Voltage - V Current - A Power -W/h Energy - KW/h Energy_P - KW/h Energy_ac - KW/h Frequency- HZ Pf Obs
1210341 2026-04-16 02:59:22 2026-04-16 02:59:17 Stelmat001 025 T 134.40 0.30 7.40 965.250 0.000 0.000 59.90 0.19
1210340 2026-04-16 02:59:21 2026-04-16 02:59:17 Stelmat001 024 S 133.70 1.00 119.70 3434.550 0.020 0.020 60.00 0.89
1210339 2026-04-16 02:59:20 2026-04-16 02:59:17 Stelmat001 023 R 134.20 1.05 82.00 18128.320 0.010 0.010 60.00 0.58
1210338 2026-04-16 02:58:32 2026-04-16 02:58:30 Stelmat001 065 T 133.90 1.75 152.70 2181.830 0.030 0.030 60.00 0.65
1210337 2026-04-16 02:58:31 2026-04-16 02:58:30 Stelmat001 064 S 147.80 6.84 561.50 3379.910 0.100 0.100 60.00 0.56
1210336 2026-04-16 02:58:30 2026-04-16 02:58:30 Stelmat001 063 R 134.30 0.46 18.70 1811.200 0.000 0.000 60.00 0.30
1210335 2026-04-16 02:58:05 2026-04-16 02:58:00 Stelmat001 022 T 134.00 1.37 114.80 6402.410 0.020 0.020 60.00 0.62
1210334 2026-04-16 02:58:04 2026-04-16 02:58:00 Stelmat001 021 S 134.30 1.20 139.10 4714.500 0.020 0.020 60.00 0.86
1210333 2026-04-16 02:58:04 2026-04-16 02:58:00 Stelmat001 020 R 134.40 0.27 14.50 456.730 0.000 0.000 60.00 0.39
1210332 2026-04-16 02:56:00 2026-04-16 02:55:56 Stelmat001 062 T 133.80 1.65 112.80 4545.250 0.020 0.020 60.00 0.51
1210331 2026-04-16 02:56:00 2026-04-16 02:55:55 Stelmat001 018 T 147.60 0.58 74.90 12123.130 0.030 0.030 60.00 0.87
1210330 2026-04-16 02:55:59 2026-04-16 02:55:56 Stelmat001 061 S 134.30 4.80 619.30 8328.570 0.110 0.110 59.90 0.96
1210329 2026-04-16 02:55:59 2026-04-16 02:55:55 Stelmat001 017 S 134.40 0.68 77.20 7041.400 0.020 0.020 59.90 0.84
1210328 2026-04-16 02:55:59 2026-04-16 02:55:56 Stelmat001 060 R 134.30 0.31 9.00 467.580 0.010 0.010 60.00 0.22
1210327 2026-04-16 02:55:59 2026-04-16 02:55:55 Stelmat001 016 R 133.80 0.68 15.30 16466.520 0.020 0.020 60.00 0.17
1210326 2026-04-16 02:53:47 2026-04-16 02:53:44 Stelmat001 012 T 134.20 3.14 185.00 3627.560 0.030 0.030 59.90 0.44
1210325 2026-04-16 02:53:46 2026-04-16 02:53:44 Stelmat001 011 S 133.80 2.33 225.00 5537.120 0.040 0.040 60.00 0.72
1210324 2026-04-16 02:53:46 2026-04-16 02:53:44 Stelmat001 010 R 134.20 1.17 91.30 4234.020 0.020 0.020 60.00 0.58
1210323 2026-04-16 02:53:44 2026-04-16 02:53:43 Stelmat002 102 S 134.15 6.91 2.04 25906.121 0.082 0.082 60.00 0.73
1210322 2026-04-16 02:53:41 2026-04-16 02:53:41 Stelmat002 101 R 134.09 11.01 3.80 27488.020 0.631 0.631 60.00 0.86
1210321 2026-04-16 02:53:06 2026-04-16 02:53:02 Stelmat001 034 T 133.70 0.65 53.50 422.180 0.020 0.020 60.00 0.62
1210320 2026-04-16 02:53:06 2026-04-16 02:53:02 Stelmat001 033 S 134.10 0.46 20.80 559.040 0.010 0.010 59.90 0.34
1210319 2026-04-16 02:53:05 2026-04-16 02:53:02 Stelmat001 032 R 147.50 0.51 55.80 590.290 0.010 0.010 59.90 0.74
1210318 2026-04-16 02:49:19 2026-04-16 02:49:15 Stelmat001 025 T 134.50 0.30 7.60 965.250 0.000 0.000 60.00 0.19
1210317 2026-04-16 02:49:19 2026-04-16 02:49:15 Stelmat001 024 S 133.90 0.99 119.40 3434.530 0.020 0.020 60.00 0.90
1210316 2026-04-16 02:49:18 2026-04-16 02:49:15 Stelmat001 023 R 134.40 1.07 83.00 18128.310 0.020 0.020 60.00 0.58
1210315 2026-04-16 02:48:32 2026-04-16 02:48:27 Stelmat001 065 T 133.80 1.76 153.40 2181.800 0.020 0.020 59.90 0.65
1210314 2026-04-16 02:48:31 2026-04-16 02:48:27 Stelmat001 064 S 147.70 6.84 561.40 3379.810 0.090 0.090 59.90 0.56
1210313 2026-04-16 02:48:30 2026-04-16 02:48:27 Stelmat001 063 R 134.40 0.46 18.60 1811.200 0.010 0.010 60.00 0.30
1210312 2026-04-16 02:48:05 2026-04-16 02:48:03 Stelmat001 022 T 133.80 1.38 115.30 6402.390 0.020 0.020 59.90 0.63
1210311 2026-04-16 02:48:04 2026-04-16 02:48:03 Stelmat001 021 S 134.10 1.13 129.30 4714.480 0.020 0.020 59.90 0.85
1210310 2026-04-16 02:48:04 2026-04-16 02:48:03 Stelmat001 020 R 134.30 0.27 14.30 456.730 0.000 0.000 59.90 0.39
1210309 2026-04-16 02:46:00 2026-04-16 02:45:58 Stelmat001 062 T 133.80 1.57 109.30 4545.230 0.010 0.010 60.00 0.52
1210308 2026-04-16 02:46:00 2026-04-16 02:45:58 Stelmat001 018 T 147.70 0.60 77.70 12123.100 0.020 0.020 59.90 0.87
1210307 2026-04-16 02:46:00 2026-04-16 02:45:58 Stelmat001 061 S 134.30 4.80 619.70 8328.460 0.100 0.100 60.00 0.96
1210306 2026-04-16 02:45:59 2026-04-16 02:45:58 Stelmat001 017 S 134.30 0.68 77.10 7041.380 0.010 0.010 60.00 0.85
1210305 2026-04-16 02:45:59 2026-04-16 02:45:58 Stelmat001 060 R 134.40 0.29 8.40 467.570 0.000 0.000 59.90 0.21
1210304 2026-04-16 02:45:59 2026-04-16 02:45:58 Stelmat001 016 R 133.80 0.68 12.40 16466.500 0.020 0.020 60.00 0.14
1210303 2026-04-16 02:43:47 2026-04-16 02:43:42 Stelmat001 012 T 134.30 3.11 184.20 3627.530 0.030 0.030 60.00 0.44
1210302 2026-04-16 02:43:46 2026-04-16 02:43:42 Stelmat001 011 S 133.80 2.30 223.50 5537.080 0.040 0.040 59.90 0.73
1210301 2026-04-16 02:43:45 2026-04-16 02:43:42 Stelmat001 010 R 134.20 1.49 157.90 4234.000 0.020 0.020 60.00 0.79
1210300 2026-04-16 02:43:41 2026-04-16 02:43:41 Stelmat002 102 S 134.17 5.67 1.48 25906.039 0.162 0.162 60.00 0.65
1210299 2026-04-16 02:43:39 2026-04-16 02:43:38 Stelmat002 101 R 134.12 10.44 3.58 27487.389 0.600 0.600 60.00 0.85
1210298 2026-04-16 02:39:20 2026-04-16 02:39:17 Stelmat001 025 T 134.40 0.36 6.20 965.250 0.000 0.000 60.00 0.13
1210297 2026-04-16 02:39:19 2026-04-16 02:39:17 Stelmat001 024 S 133.70 1.04 118.90 3434.510 0.020 0.020 59.90 0.85
1210296 2026-04-16 02:39:18 2026-04-16 02:39:17 Stelmat001 023 R 134.20 1.16 84.50 18128.290 0.010 0.010 59.90 0.54
1210295 2026-04-16 02:38:32 2026-04-16 02:38:30 Stelmat001 065 T 133.80 1.96 153.60 2181.780 0.030 0.030 60.00 0.59
1210294 2026-04-16 02:38:31 2026-04-16 02:38:30 Stelmat001 064 S 147.80 6.84 563.90 3379.720 0.090 0.090 60.00 0.56
1210293 2026-04-16 02:38:30 2026-04-16 02:38:30 Stelmat001 063 R 134.30 0.46 18.80 1811.190 0.000 0.000 60.00 0.30
1210292 2026-04-16 02:38:05 2026-04-16 02:38:00 Stelmat001 022 T 134.00 1.39 117.10 6402.370 0.020 0.020 60.00 0.63
1210291 2026-04-16 02:38:04 2026-04-16 02:38:00 Stelmat001 021 S 134.40 1.07 78.30 4714.460 0.010 0.010 60.00 0.55
1210290 2026-04-16 02:38:03 2026-04-16 02:38:00 Stelmat001 020 R 134.30 0.28 14.40 456.730 0.000 0.000 60.00 0.38
1210289 2026-04-16 02:36:00 2026-04-16 02:35:55 Stelmat001 062 T 133.80 1.59 110.20 4545.220 0.020 0.020 60.00 0.52
1210288 2026-04-16 02:36:00 2026-04-16 02:35:55 Stelmat001 018 T 147.80 0.60 77.90 12123.080 0.020 0.020 60.00 0.87
1210287 2026-04-16 02:35:59 2026-04-16 02:35:55 Stelmat001 061 S 134.30 4.79 619.90 8328.360 0.100 0.100 60.00 0.96
1210286 2026-04-16 02:35:59 2026-04-16 02:35:55 Stelmat001 017 S 134.40 0.68 77.20 7041.370 0.020 0.020 60.00 0.85
1210285 2026-04-16 02:35:59 2026-04-16 02:35:55 Stelmat001 060 R 134.40 0.29 8.30 467.570 0.000 0.000 60.00 0.21
1210284 2026-04-16 02:35:58 2026-04-16 02:35:55 Stelmat001 016 R 133.80 0.68 12.40 16466.480 0.000 0.000 60.00 0.14
1210283 2026-04-16 02:33:47 2026-04-16 02:33:44 Stelmat001 012 T 134.40 3.06 188.90 3627.500 0.040 0.040 60.00 0.46
1210282 2026-04-16 02:33:46 2026-04-16 02:33:44 Stelmat001 011 S 134.00 2.22 220.90 5537.040 0.030 0.030 60.00 0.74
1210281 2026-04-16 02:33:45 2026-04-16 02:33:44 Stelmat001 010 R 134.30 1.50 165.20 4233.980 0.030 0.030 60.00 0.82
1210280 2026-04-16 02:33:39 2026-04-16 02:33:38 Stelmat002 102 S 134.35 1.19 0.04 25905.877 0.172 0.172 60.04 0.08
1210279 2026-04-16 02:33:36 2026-04-16 02:33:35 Stelmat002 101 R 134.29 10.26 3.56 27486.789 0.672 0.672 60.04 0.86
1210278 2026-04-16 02:33:06 2026-04-16 02:33:02 Stelmat001 034 T 133.80 0.62 54.20 422.160 0.020 0.020 60.00 0.66
1210277 2026-04-16 02:33:06 2026-04-16 02:33:02 Stelmat001 033 S 134.20 0.42 20.90 559.030 0.010 0.010 59.90 0.37
1210276 2026-04-16 02:33:05 2026-04-16 02:33:02 Stelmat001 032 R 147.70 0.49 56.40 590.280 0.020 0.020 59.90 0.78
1210275 2026-04-16 02:29:19 2026-04-16 02:29:15 Stelmat001 025 T 134.50 0.32 6.80 965.250 0.010 0.010 60.00 0.16
1210274 2026-04-16 02:29:19 2026-04-16 02:29:15 Stelmat001 024 S 133.90 1.00 118.70 3434.490 0.020 0.020 60.00 0.89
1210273 2026-04-16 02:29:18 2026-04-16 02:29:15 Stelmat001 023 R 134.30 0.77 59.70 18128.280 0.010 0.010 60.00 0.58
1210272 2026-04-16 02:28:32 2026-04-16 02:28:27 Stelmat001 065 T 133.60 1.82 153.60 2181.750 0.020 0.020 59.90 0.63
1210271 2026-04-16 02:28:31 2026-04-16 02:28:27 Stelmat001 064 S 147.60 6.85 562.80 3379.630 0.100 0.100 59.90 0.56
1210270 2026-04-16 02:28:30 2026-04-16 02:28:27 Stelmat001 063 R 134.00 0.47 19.00 1811.190 0.000 0.000 59.90 0.30
1210269 2026-04-16 02:28:05 2026-04-16 02:28:03 Stelmat001 022 T 133.90 1.40 120.40 6402.350 0.020 0.020 60.00 0.64
1210268 2026-04-16 02:28:04 2026-04-16 02:28:03 Stelmat001 021 S 134.10 1.03 75.00 4714.450 0.020 0.020 60.00 0.54
1210267 2026-04-16 02:28:04 2026-04-16 02:28:03 Stelmat001 020 R 134.20 0.29 14.50 456.730 0.000 0.000 60.00 0.37
1210266 2026-04-16 02:26:00 2026-04-16 02:25:58 Stelmat001 062 T 133.60 1.68 114.30 4545.200 0.020 0.020 59.90 0.51
1210265 2026-04-16 02:26:00 2026-04-16 02:25:57 Stelmat001 018 T 147.50 0.59 74.90 12123.060 0.020 0.020 59.90 0.86
1210264 2026-04-16 02:25:59 2026-04-16 02:25:58 Stelmat001 061 S 134.00 4.81 620.10 8328.260 0.100 0.100 60.00 0.96
1210263 2026-04-16 02:25:59 2026-04-16 02:25:57 Stelmat001 017 S 134.10 0.69 76.90 7041.350 0.010 0.010 59.90 0.83
1210262 2026-04-16 02:25:59 2026-04-16 02:25:58 Stelmat001 060 R 134.20 0.31 8.90 467.570 0.000 0.000 60.00 0.21
1210261 2026-04-16 02:25:58 2026-04-16 02:25:57 Stelmat001 016 R 133.60 0.69 15.40 16466.480 0.020 0.020 60.00 0.17
1210260 2026-04-16 02:23:47 2026-04-16 02:23:42 Stelmat001 012 T 134.10 3.18 194.80 3627.460 0.030 0.030 60.00 0.46
1210259 2026-04-16 02:23:46 2026-04-16 02:23:42 Stelmat001 011 S 133.70 2.24 220.20 5537.010 0.040 0.040 60.00 0.74
1210258 2026-04-16 02:23:45 2026-04-16 02:23:42 Stelmat001 010 R 134.00 1.49 164.90 4233.950 0.030 0.030 59.90 0.83
1210257 2026-04-16 02:23:36 2026-04-16 02:23:36 Stelmat002 102 S 134.02 1.59 0.15 25905.705 0.045 0.045 59.98 0.23
1210256 2026-04-16 02:23:33 2026-04-16 02:23:33 Stelmat002 101 R 133.93 11.86 4.22 27486.117 0.705 0.705 59.98 0.89
1210255 2026-04-16 02:19:19 2026-04-16 02:19:17 Stelmat001 025 T 134.10 0.30 7.70 965.240 0.000 0.000 60.00 0.19
1210254 2026-04-16 02:19:19 2026-04-16 02:19:17 Stelmat001 024 S 133.60 0.98 118.20 3434.470 0.020 0.020 60.00 0.90
1210253 2026-04-16 02:19:18 2026-04-16 02:19:17 Stelmat001 023 R 134.10 0.05 1.00 18128.270 0.000 0.000 59.90 0.17
1210252 2026-04-16 02:18:32 2026-04-16 02:18:29 Stelmat001 065 T 133.50 1.75 152.80 2181.730 0.030 0.030 59.90 0.65
1210251 2026-04-16 02:18:31 2026-04-16 02:18:29 Stelmat001 064 S 147.30 6.85 560.80 3379.530 0.090 0.090 59.90 0.56
1210250 2026-04-16 02:18:30 2026-04-16 02:18:29 Stelmat001 063 R 134.00 0.47 18.70 1811.190 0.000 0.000 59.90 0.30
1210249 2026-04-16 02:18:05 2026-04-16 02:18:00 Stelmat001 022 T 133.60 1.42 125.20 6402.330 0.020 0.020 60.00 0.66
1210248 2026-04-16 02:18:04 2026-04-16 02:18:00 Stelmat001 021 S 133.90 1.12 128.00 4714.430 0.010 0.010 59.90 0.85
1210247 2026-04-16 02:18:03 2026-04-16 02:18:00 Stelmat001 020 R 134.00 0.27 14.50 456.730 0.010 0.010 59.90 0.40
1210246 2026-04-16 02:16:00 2026-04-16 02:15:55 Stelmat001 062 T 133.40 1.62 111.50 4545.180 0.020 0.020 59.90 0.51
1210245 2026-04-16 02:16:00 2026-04-16 02:15:55 Stelmat001 018 T 147.20 0.60 77.40 12123.040 0.030 0.030 59.90 0.88
1210244 2026-04-16 02:15:59 2026-04-16 02:15:55 Stelmat001 061 S 133.90 4.81 620.00 8328.160 0.110 0.110 59.90 0.96
1210243 2026-04-16 02:15:59 2026-04-16 02:15:55 Stelmat001 017 S 133.90 0.68 76.70 7041.340 0.010 0.010 59.90 0.85
1210242 2026-04-16 02:15:59 2026-04-16 02:15:55 Stelmat001 060 R 133.90 0.29 8.20 467.570 0.000 0.000 60.00 0.21
1210241 2026-04-16 02:15:58 2026-04-16 02:15:55 Stelmat001 016 R 133.40 0.70 14.40 16466.460 0.020 0.020 60.00 0.15
1210240 2026-04-16 02:13:47 2026-04-16 02:13:44 Stelmat001 012 T 134.10 3.05 179.50 3627.430 0.030 0.030 60.00 0.44
1210239 2026-04-16 02:13:46 2026-04-16 02:13:44 Stelmat001 011 S 133.60 2.30 223.60 5536.970 0.040 0.040 60.00 0.73
1210238 2026-04-16 02:13:45 2026-04-16 02:13:44 Stelmat001 010 R 133.90 1.53 165.60 4233.920 0.030 0.030 60.00 0.81
1210237 2026-04-16 02:13:33 2026-04-16 02:13:33 Stelmat002 102 S 133.94 5.42 1.35 25905.660 0.125 0.125 60.02 0.62
1210236 2026-04-16 02:13:31 2026-04-16 02:13:30 Stelmat002 101 R 133.82 12.06 4.24 27485.412 0.676 0.676 60.02 0.88
1210235 2026-04-16 02:13:06 2026-04-16 02:13:02 Stelmat001 034 T 133.50 0.64 54.00 422.140 0.010 0.010 60.00 0.63
1210234 2026-04-16 02:13:06 2026-04-16 02:13:02 Stelmat001 033 S 133.90 0.45 21.00 559.020 0.000 0.000 60.00 0.35
1210233 2026-04-16 02:13:05 2026-04-16 02:13:02 Stelmat001 032 R 147.30 0.50 56.10 590.260 0.020 0.020 60.00 0.76
1210232 2026-04-16 02:09:19 2026-04-16 02:09:16 Stelmat001 025 T 134.00 0.30 7.50 965.240 0.000 0.000 60.00 0.19
1210231 2026-04-16 02:09:18 2026-04-16 02:09:16 Stelmat001 024 S 133.50 0.96 115.90 3434.450 0.020 0.020 60.00 0.90
1210230 2026-04-16 02:09:18 2026-04-16 02:09:16 Stelmat001 023 R 133.80 0.05 1.00 18128.270 0.010 0.010 59.90 0.17
1210229 2026-04-16 02:08:32 2026-04-16 02:08:27 Stelmat001 065 T 133.50 1.77 153.00 2181.700 0.030 0.030 60.00 0.65
1210228 2026-04-16 02:08:31 2026-04-16 02:08:27 Stelmat001 064 S 147.40 6.86 561.20 3379.440 0.090 0.090 60.00 0.56
1210227 2026-04-16 02:08:30 2026-04-16 02:08:27 Stelmat001 063 R 133.90 0.47 18.80 1811.190 0.010 0.010 60.00 0.30
1210226 2026-04-16 02:08:02 2026-04-16 02:07:59 Stelmat001 022 T 133.50 0.49 44.90 6402.310 0.010 0.010 60.00 0.69
1210225 2026-04-16 02:08:02 2026-04-16 02:07:59 Stelmat001 021 S 133.80 0.95 73.20 4714.420 0.020 0.020 60.00 0.57
1210224 2026-04-16 02:08:01 2026-04-16 02:07:59 Stelmat001 020 R 133.80 0.27 14.40 456.720 0.000 0.000 59.90 0.39
1210223 2026-04-16 02:06:00 2026-04-16 02:05:58 Stelmat001 062 T 133.40 1.60 111.00 4545.160 0.020 0.020 60.00 0.52
1210222 2026-04-16 02:06:00 2026-04-16 02:05:57 Stelmat001 018 T 147.20 0.60 77.30 12123.010 0.010 0.010 60.00 0.87
1210221 2026-04-16 02:05:59 2026-04-16 02:05:58 Stelmat001 061 S 133.80 4.82 620.50 8328.050 0.100 0.100 59.90 0.96
1210220 2026-04-16 02:05:59 2026-04-16 02:05:57 Stelmat001 017 S 133.90 0.68 76.60 7041.330 0.020 0.020 60.00 0.85
1210219 2026-04-16 02:05:58 2026-04-16 02:05:58 Stelmat001 060 R 133.90 0.29 8.30 467.570 0.000 0.000 60.00 0.21
1210218 2026-04-16 02:05:58 2026-04-16 02:05:57 Stelmat001 016 R 133.40 0.68 12.30 16466.440 0.000 0.000 59.90 0.14
1210217 2026-04-16 02:03:46 2026-04-16 02:03:41 Stelmat001 012 T 133.80 3.10 188.50 3627.400 0.030 0.030 60.00 0.45
1210216 2026-04-16 02:03:46 2026-04-16 02:03:41 Stelmat001 011 S 133.40 2.22 218.40 5536.930 0.030 0.030 59.90 0.74
1210215 2026-04-16 02:03:45 2026-04-16 02:03:41 Stelmat001 010 R 133.80 1.54 171.50 4233.890 0.020 0.020 60.00 0.83
1210214 2026-04-16 02:03:31 2026-04-16 02:03:30 Stelmat002 102 S 133.75 1.20 0.04 25905.535 0.230 0.230 60.00 0.08
1210213 2026-04-16 02:03:28 2026-04-16 02:03:28 Stelmat002 101 R 133.65 11.43 4.04 27484.736 0.672 0.672 59.99 0.88
1210212 2026-04-16 01:59:18 2026-04-16 01:59:13 Stelmat001 025 T 133.90 0.32 6.50 965.240 0.000 0.000 60.00 0.15
1210211 2026-04-16 01:59:17 2026-04-16 01:59:13 Stelmat001 024 S 133.30 1.01 119.40 3434.430 0.020 0.020 60.00 0.88
1210210 2026-04-16 01:59:17 2026-04-16 01:59:13 Stelmat001 023 R 133.70 1.11 82.30 18128.260 0.020 0.020 60.00 0.56
1210209 2026-04-16 01:58:32 2026-04-16 01:58:29 Stelmat001 065 T 133.30 1.83 153.40 2181.670 0.020 0.020 59.90 0.63
1210208 2026-04-16 01:58:31 2026-04-16 01:58:29 Stelmat001 064 S 147.00 6.87 562.30 3379.350 0.100 0.100 60.00 0.56
1210207 2026-04-16 01:58:30 2026-04-16 01:58:29 Stelmat001 063 R 133.60 0.47 18.80 1811.180 0.030 0.030 60.00 0.30
1210206 2026-04-16 01:58:01 2026-04-16 01:57:56 Stelmat001 022 T 133.30 0.52 45.30 6402.300 0.010 0.010 59.90 0.65
1210205 2026-04-16 01:58:01 2026-04-16 01:57:56 Stelmat001 021 S 133.60 1.21 134.40 4714.400 0.030 0.030 59.90 0.83
1210204 2026-04-16 01:58:00 2026-04-16 01:57:56 Stelmat001 020 R 133.60 0.30 14.40 456.720 0.000 0.000 60.00 0.36
1210203 2026-04-16 01:56:00 2026-04-16 01:55:55 Stelmat001 062 T 133.40 1.69 114.80 4545.140 0.020 0.020 59.90 0.51
1210202 2026-04-16 01:56:00 2026-04-16 01:55:55 Stelmat001 018 T 147.00 0.59 74.30 12123.000 0.020 0.020 59.90 0.86
1210201 2026-04-16 01:55:59 2026-04-16 01:55:55 Stelmat001 061 S 133.80 4.82 620.50 8327.950 0.110 0.110 60.00 0.96
1210200 2026-04-16 01:55:59 2026-04-16 01:55:55 Stelmat001 017 S 133.80 0.68 76.50 7041.310 0.010 0.010 59.90 0.84
1210199 2026-04-16 01:55:58 2026-04-16 01:55:55 Stelmat001 060 R 133.70 0.31 9.00 467.570 0.000 0.000 59.90 0.22
1210198 2026-04-16 01:55:58 2026-04-16 01:55:55 Stelmat001 016 R 133.40 0.68 15.30 16466.440 0.020 0.020 60.00 0.17
1210197 2026-04-16 01:53:46 2026-04-16 01:53:44 Stelmat001 012 T 133.60 3.44 191.00 3627.370 0.030 0.030 60.00 0.42
1210196 2026-04-16 01:53:46 2026-04-16 01:53:44 Stelmat001 011 S 133.30 2.43 225.70 5536.900 0.040 0.040 59.90 0.70
1210195 2026-04-16 01:53:45 2026-04-16 01:53:44 Stelmat001 010 R 133.50 1.61 169.80 4233.870 0.030 0.030 60.00 0.79
1210194 2026-04-16 01:53:28 2026-04-16 01:53:27 Stelmat002 102 S 133.60 3.04 0.38 25905.305 0.194 0.194 60.00 0.39
1210193 2026-04-16 01:53:25 2026-04-16 01:53:25 Stelmat002 101 R 133.58 11.60 4.11 27484.064 0.752 0.752 60.00 0.88
1210192 2026-04-16 01:53:06 2026-04-16 01:53:02 Stelmat001 034 T 133.40 0.61 53.40 422.130 0.020 0.020 60.00 0.66
1210191 2026-04-16 01:53:06 2026-04-16 01:53:02 Stelmat001 033 S 133.60 0.42 20.80 559.020 0.010 0.010 60.00 0.37
1210190 2026-04-16 01:53:05 2026-04-16 01:53:02 Stelmat001 032 R 147.00 0.47 55.50 590.240 0.020 0.020 60.00 0.80
1210189 2026-04-16 01:49:16 2026-04-16 01:49:11 Stelmat001 025 T 133.70 0.30 7.40 965.240 0.000 0.000 60.00 0.19
1210188 2026-04-16 01:49:15 2026-04-16 01:49:11 Stelmat001 024 S 133.30 0.99 118.40 3434.410 0.020 0.020 60.00 0.90
1210187 2026-04-16 01:49:14 2026-04-16 01:49:11 Stelmat001 023 R 133.60 1.51 142.40 18128.240 0.010 0.010 59.90 0.70
1210186 2026-04-16 01:48:32 2026-04-16 01:48:27 Stelmat001 065 T 133.20 1.83 153.50 2181.650 0.030 0.030 59.90 0.63
1210185 2026-04-16 01:48:31 2026-04-16 01:48:27 Stelmat001 064 S 146.80 6.87 561.50 3379.250 0.090 0.090 59.90 0.56
1210184 2026-04-16 01:48:30 2026-04-16 01:48:27 Stelmat001 063 R 133.50 1.61 211.10 1811.150 0.040 0.040 60.00 0.98
1210183 2026-04-16 01:48:01 2026-04-16 01:47:59 Stelmat001 022 T 133.40 0.52 45.10 6402.290 0.000 0.000 60.00 0.65
1210182 2026-04-16 01:48:01 2026-04-16 01:47:59 Stelmat001 021 S 133.40 1.88 213.70 4714.370 0.020 0.020 60.00 0.85
1210181 2026-04-16 01:48:00 2026-04-16 01:47:59 Stelmat001 020 R 133.60 0.30 14.40 456.720 0.000 0.000 60.00 0.36
1210180 2026-04-16 01:46:00 2026-04-16 01:45:57 Stelmat001 062 T 133.10 1.67 114.30 4545.120 0.020 0.020 59.90 0.51
1210179 2026-04-16 01:46:00 2026-04-16 01:45:57 Stelmat001 018 T 146.80 0.60 74.00 12122.980 0.020 0.020 59.90 0.85
1210178 2026-04-16 01:45:59 2026-04-16 01:45:57 Stelmat001 061 S 133.50 4.84 620.50 8327.840 0.100 0.100 60.00 0.96
1210177 2026-04-16 01:45:59 2026-04-16 01:45:57 Stelmat001 017 S 133.50 0.69 76.10 7041.300 0.010 0.010 59.90 0.83
1210176 2026-04-16 01:45:58 2026-04-16 01:45:57 Stelmat001 060 R 133.50 0.31 9.10 467.570 0.010 0.010 60.00 0.22
1210175 2026-04-16 01:45:58 2026-04-16 01:45:57 Stelmat001 016 R 133.10 0.69 15.20 16466.420 0.020 0.020 59.90 0.17
1210174 2026-04-16 01:43:46 2026-04-16 01:43:41 Stelmat001 012 T 133.30 3.07 177.20 3627.340 0.030 0.030 59.90 0.43
1210173 2026-04-16 01:43:45 2026-04-16 01:43:41 Stelmat001 011 S 133.10 2.31 222.40 5536.860 0.040 0.040 59.90 0.72
1210172 2026-04-16 01:43:45 2026-04-16 01:43:41 Stelmat001 010 R 133.40 1.14 85.20 4233.840 0.010 0.010 59.90 0.56
1210171 2026-04-16 01:43:25 2026-04-16 01:43:25 Stelmat002 102 S 133.51 6.11 1.65 25905.111 0.191 0.191 60.00 0.67
1210170 2026-04-16 01:43:22 2026-04-16 01:43:22 Stelmat002 101 R 133.44 13.35 4.75 27483.312 0.796 0.796 59.99 0.89
1210169 2026-04-16 01:39:16 2026-04-16 01:39:13 Stelmat001 025 T 133.50 0.32 6.40 965.240 0.000 0.000 60.00 0.15
1210168 2026-04-16 01:39:15 2026-04-16 01:39:13 Stelmat001 024 S 133.10 1.00 117.30 3434.390 0.020 0.020 59.90 0.88
1210167 2026-04-16 01:39:14 2026-04-16 01:39:13 Stelmat001 023 R 133.50 1.13 84.40 18128.230 0.010 0.010 60.00 0.56
1210166 2026-04-16 01:38:31 2026-04-16 01:38:29 Stelmat001 065 T 133.10 1.97 153.40 2181.620 0.020 0.020 60.00 0.59
1210165 2026-04-16 01:38:31 2026-04-16 01:38:29 Stelmat001 064 S 147.00 6.87 562.60 3379.160 0.100 0.100 60.00 0.56
1210164 2026-04-16 01:38:30 2026-04-16 01:38:29 Stelmat001 063 R 133.60 1.62 212.30 1811.110 0.030 0.030 60.00 0.98
1210163 2026-04-16 01:38:01 2026-04-16 01:37:58 Stelmat001 022 T 133.30 0.57 45.20 6402.290 0.010 0.010 60.00 0.59
1210162 2026-04-16 01:38:00 2026-04-16 01:37:58 Stelmat001 021 S 133.60 1.09 79.30 4714.350 0.020 0.020 60.00 0.55
1210161 2026-04-16 01:38:00 2026-04-16 01:37:58 Stelmat001 020 R 133.70 0.32 14.40 456.720 0.010 0.010 60.00 0.34
1210160 2026-04-16 01:36:00 2026-04-16 01:35:55 Stelmat001 062 T 133.30 1.62 112.60 4545.100 0.020 0.020 60.00 0.52
1210159 2026-04-16 01:35:59 2026-04-16 01:35:55 Stelmat001 018 T 147.00 0.61 77.20 12122.960 0.020 0.020 60.00 0.87
1210158 2026-04-16 01:35:59 2026-04-16 01:35:55 Stelmat001 061 S 133.70 4.82 620.10 8327.740 0.100 0.100 60.00 0.96
1210157 2026-04-16 01:35:59 2026-04-16 01:35:55 Stelmat001 017 S 133.80 0.68 76.60 7041.290 0.020 0.020 60.00 0.85
1210156 2026-04-16 01:35:58 2026-04-16 01:35:55 Stelmat001 060 R 133.70 0.29 8.30 467.560 0.000 0.000 60.00 0.21
1210155 2026-04-16 01:35:58 2026-04-16 01:35:55 Stelmat001 016 R 133.30 0.68 12.20 16466.400 0.000 0.000 60.00 0.13
1210154 2026-04-16 01:33:46 2026-04-16 01:33:44 Stelmat001 012 T 133.60 3.02 181.90 3627.310 0.030 0.030 60.00 0.45
1210153 2026-04-16 01:33:45 2026-04-16 01:33:44 Stelmat001 011 S 133.30 2.23 219.30 5536.820 0.030 0.030 60.00 0.74
1210152 2026-04-16 01:33:45 2026-04-16 01:33:44 Stelmat001 010 R 133.60 1.05 83.90 4233.830 0.020 0.020 60.00 0.60
1210151 2026-04-16 01:33:22 2026-04-16 01:33:21 Stelmat002 102 S 133.64 3.33 0.05 25904.920 0.287 0.287 60.06 0.10
1210150 2026-04-16 01:33:19 2026-04-16 01:33:19 Stelmat002 101 R 133.55 13.41 4.78 27482.516 0.799 0.799 60.05 0.89
1210149 2026-04-16 01:33:06 2026-04-16 01:33:02 Stelmat001 034 T 133.10 0.64 53.60 422.110 0.020 0.020 60.00 0.63
1210148 2026-04-16 01:33:06 2026-04-16 01:33:02 Stelmat001 033 S 133.40 0.45 20.90 559.010 0.010 0.010 60.00 0.35
1210147 2026-04-16 01:33:05 2026-04-16 01:33:02 Stelmat001 032 R 146.90 0.50 55.80 590.220 0.020 0.020 60.00 0.75
1210146 2026-04-16 01:29:16 2026-04-16 01:29:11 Stelmat001 025 T 133.50 0.32 6.50 965.240 0.000 0.000 60.00 0.15
1210145 2026-04-16 01:29:15 2026-04-16 01:29:11 Stelmat001 024 S 133.10 1.00 117.10 3434.370 0.020 0.020 60.00 0.88
1210144 2026-04-16 01:29:14 2026-04-16 01:29:11 Stelmat001 023 R 133.50 0.05 1.00 18128.220 0.000 0.000 60.00 0.16
1210143 2026-04-16 01:28:31 2026-04-16 01:28:27 Stelmat001 065 T 133.10 1.83 152.90 2181.600 0.030 0.030 60.00 0.63
1210142 2026-04-16 01:28:31 2026-04-16 01:28:27 Stelmat001 064 S 146.80 6.87 561.90 3379.060 0.090 0.090 60.00 0.56
1210141 2026-04-16 01:28:30 2026-04-16 01:28:27 Stelmat001 063 R 133.60 1.61 212.10 1811.080 0.030 0.030 60.00 0.98
1210140 2026-04-16 01:28:00 2026-04-16 01:27:55 Stelmat001 022 T 133.20 0.52 44.70 6402.280 0.010 0.010 60.00 0.65
1210139 2026-04-16 01:27:59 2026-04-16 01:27:55 Stelmat001 021 S 133.40 1.03 74.70 4714.330 0.010 0.010 60.00 0.54
1210138 2026-04-16 01:27:59 2026-04-16 01:27:55 Stelmat001 020 R 133.50 0.29 14.30 456.710 0.000 0.000 60.00 0.37
1210137 2026-04-16 01:26:00 2026-04-16 01:25:57 Stelmat001 062 T 133.20 1.71 116.20 4545.080 0.020 0.020 60.00 0.51
1210136 2026-04-16 01:26:00 2026-04-16 01:25:57 Stelmat001 018 T 146.90 0.59 74.20 12122.940 0.020 0.020 60.00 0.86
1210135 2026-04-16 01:25:59 2026-04-16 01:25:57 Stelmat001 061 S 133.50 4.85 623.00 8327.640 0.110 0.110 60.00 0.96
1210134 2026-04-16 01:25:59 2026-04-16 01:25:57 Stelmat001 017 S 133.60 0.68 76.40 7041.270 0.010 0.010 60.00 0.84
1210133 2026-04-16 01:25:58 2026-04-16 01:25:57 Stelmat001 060 R 133.60 0.31 9.00 467.560 0.000 0.000 60.00 0.22
1210132 2026-04-16 01:25:58 2026-04-16 01:25:57 Stelmat001 016 R 133.10 0.68 15.20 16466.400 0.010 0.010 60.00 0.17
1210131 2026-04-16 01:23:46 2026-04-16 01:23:41 Stelmat001 012 T 133.50 3.31 192.90 3627.280 0.030 0.030 60.00 0.44
1210130 2026-04-16 01:23:45 2026-04-16 01:23:41 Stelmat001 011 S 133.10 2.32 223.90 5536.790 0.040 0.040 60.00 0.72
1210129 2026-04-16 01:23:44 2026-04-16 01:23:41 Stelmat001 010 R 133.50 1.12 84.20 4233.810 0.010 0.010 60.00 0.56
1210128 2026-04-16 01:23:19 2026-04-16 01:23:18 Stelmat002 102 S 133.48 6.41 1.78 25904.633 0.219 0.219 60.05 0.69
1210127 2026-04-16 01:23:16 2026-04-16 01:23:15 Stelmat002 101 R 133.43 13.47 4.79 27481.717 0.830 0.830 60.06 0.89
1210126 2026-04-16 01:19:16 2026-04-16 01:19:13 Stelmat001 025 T 133.50 0.30 7.30 965.240 0.000 0.000 60.00 0.18
1210125 2026-04-16 01:19:15 2026-04-16 01:19:13 Stelmat001 024 S 133.00 1.03 122.90 3434.350 0.020 0.020 60.00 0.89
1210124 2026-04-16 01:19:14 2026-04-16 01:19:13 Stelmat001 023 R 133.50 0.05 1.00 18128.220 0.010 0.010 60.00 0.16
1210123 2026-04-16 01:18:32 2026-04-16 01:18:29 Stelmat001 065 T 132.90 1.77 152.70 2181.570 0.020 0.020 60.00 0.65
1210122 2026-04-16 01:18:31 2026-04-16 01:18:29 Stelmat001 064 S 146.70 6.88 560.30 3378.970 0.090 0.090 60.00 0.56
1210121 2026-04-16 01:18:30 2026-04-16 01:18:29 Stelmat001 063 R 133.50 0.47 18.80 1811.050 0.000 0.000 60.00 0.30
1210120 2026-04-16 01:18:00 2026-04-16 01:17:57 Stelmat001 022 T 133.00 1.36 114.10 6402.270 0.020 0.020 60.00 0.63
1210119 2026-04-16 01:17:59 2026-04-16 01:17:57 Stelmat001 021 S 133.30 1.18 134.50 4714.320 0.020 0.020 60.00 0.85
1210118 2026-04-16 01:17:59 2026-04-16 01:17:57 Stelmat001 020 R 133.40 0.27 14.30 456.710 0.000 0.000 60.00 0.40
1210117 2026-04-16 01:16:00 2026-04-16 01:15:55 Stelmat001 062 T 132.70 1.70 115.10 4545.060 0.020 0.020 59.90 0.51
1210116 2026-04-16 01:15:59 2026-04-16 01:15:55 Stelmat001 018 T 146.50 0.59 73.70 12122.920 0.020 0.020 59.90 0.86
1210115 2026-04-16 01:15:59 2026-04-16 01:15:55 Stelmat001 017 S 133.30 0.68 75.80 7041.260 0.010 0.010 59.90 0.84
1210114 2026-04-16 01:15:59 2026-04-16 01:15:55 Stelmat001 061 S 133.20 4.84 619.70 8327.530 0.100 0.100 60.00 0.96
1210113 2026-04-16 01:15:58 2026-04-16 01:15:55 Stelmat001 060 R 133.30 0.31 9.10 467.560 0.000 0.000 60.00 0.22
1210112 2026-04-16 01:15:58 2026-04-16 01:15:55 Stelmat001 016 R 132.70 0.68 15.10 16466.390 0.010 0.010 60.00 0.17
1210111 2026-04-16 01:13:46 2026-04-16 01:13:43 Stelmat001 012 T 133.30 3.09 176.20 3627.250 0.030 0.030 60.00 0.43
1210110 2026-04-16 01:13:45 2026-04-16 01:13:43 Stelmat001 011 S 132.80 2.31 221.40 5536.750 0.040 0.040 60.00 0.72
1210109 2026-04-16 01:13:44 2026-04-16 01:13:43 Stelmat001 010 R 133.20 1.14 85.20 4233.800 0.020 0.020 60.00 0.56
1210108 2026-04-16 01:13:16 2026-04-16 01:13:15 Stelmat002 102 S 133.13 7.85 2.41 25904.414 0.250 0.250 59.99 0.77
1210107 2026-04-16 01:13:13 2026-04-16 01:13:12 Stelmat002 101 R 133.07 14.12 5.02 27480.887 0.838 0.838 59.99 0.89
1210106 2026-04-16 01:13:06 2026-04-16 01:13:02 Stelmat001 034 T 132.60 0.65 53.20 422.090 0.020 0.020 59.90 0.62
1210105 2026-04-16 01:13:06 2026-04-16 01:13:02 Stelmat001 033 S 133.10 0.46 20.90 559.000 0.010 0.010 59.90 0.35
1210104 2026-04-16 01:13:05 2026-04-16 01:13:02 Stelmat001 032 R 146.40 0.50 55.50 590.200 0.020 0.020 59.90 0.75
1210103 2026-04-16 01:09:15 2026-04-16 01:09:11 Stelmat001 025 T 133.30 0.32 6.60 965.240 0.000 0.000 59.90 0.16
1210102 2026-04-16 01:09:15 2026-04-16 01:09:11 Stelmat001 024 S 132.60 0.99 115.80 3434.330 0.020 0.020 60.00 0.88
1210101 2026-04-16 01:09:14 2026-04-16 01:09:11 Stelmat001 023 R 133.20 1.53 142.70 18128.210 0.030 0.030 59.90 0.70
1210100 2026-04-16 01:08:31 2026-04-16 01:08:26 Stelmat001 065 T 132.60 1.84 153.10 2181.550 0.030 0.030 59.90 0.63
1210099 2026-04-16 01:08:31 2026-04-16 01:08:26 Stelmat001 064 S 146.50 6.90 562.10 3378.880 0.100 0.100 59.90 0.56
1210098 2026-04-16 01:08:30 2026-04-16 01:08:26 Stelmat001 063 R 133.10 0.47 19.00 1811.050 0.010 0.010 60.00 0.30
1210097 2026-04-16 01:08:00 2026-04-16 01:07:55 Stelmat001 022 T 132.80 1.37 115.20 6402.250 0.020 0.020 59.90 0.64
1210096 2026-04-16 01:07:59 2026-04-16 01:07:55 Stelmat001 021 S 133.20 1.06 76.20 4714.300 0.010 0.010 59.90 0.54
1210095 2026-04-16 01:07:58 2026-04-16 01:07:55 Stelmat001 020 R 133.20 0.30 14.40 456.710 0.000 0.000 59.90 0.37
1210094 2026-04-16 01:06:00 2026-04-16 01:05:57 Stelmat001 018 T 146.40 6.34 500.00 12122.900 0.010 0.010 59.90 0.54
1210093 2026-04-16 01:05:59 2026-04-16 01:05:57 Stelmat001 062 T 132.60 1.74 115.40 4545.040 0.010 0.010 59.90 0.50
1210092 2026-04-16 01:05:59 2026-04-16 01:05:57 Stelmat001 017 S 133.20 6.36 138.90 7041.250 0.020 0.020 59.90 0.16
1210091 2026-04-16 01:05:59 2026-04-16 01:05:57 Stelmat001 061 S 133.20 4.86 622.60 8327.430 0.100 0.100 60.00 0.96
1210090 2026-04-16 01:05:58 2026-04-16 01:05:57 Stelmat001 016 R 132.60 6.31 605.00 16466.380 0.010 0.010 59.90 0.72
1210089 2026-04-16 01:05:58 2026-04-16 01:05:57 Stelmat001 060 R 133.20 0.33 9.30 467.560 0.000 0.000 60.00 0.21
1210088 2026-04-16 01:03:46 2026-04-16 01:03:41 Stelmat001 012 T 133.10 3.11 185.50 3627.220 0.040 0.040 60.00 0.45
1210087 2026-04-16 01:03:45 2026-04-16 01:03:41 Stelmat001 011 S 132.70 2.22 217.40 5536.710 0.040 0.040 60.00 0.74
1210086 2026-04-16 01:03:44 2026-04-16 01:03:41 Stelmat001 010 R 133.10 1.06 83.00 4233.780 0.010 0.010 60.00 0.59
1210085 2026-04-16 01:03:12 2026-04-16 01:03:12 Stelmat002 102 S 133.09 1.21 0.04 25904.164 0.225 0.225 60.00 0.08
1210084 2026-04-16 01:03:10 2026-04-16 01:03:09 Stelmat002 101 R 133.00 13.48 4.85 27480.049 0.740 0.740 60.00 0.90
1210083 2026-04-16 00:59:13 2026-04-16 00:59:09 Stelmat001 025 T 133.20 0.32 6.70 965.240 0.010 0.010 59.90 0.16
1210082 2026-04-16 00:59:13 2026-04-16 00:59:09 Stelmat001 024 S 132.50 0.99 116.00 3434.310 0.020 0.020 59.90 0.88
1210081 2026-04-16 00:59:12 2026-04-16 00:59:09 Stelmat001 023 R 133.00 2.34 259.20 18128.180 0.040 0.040 59.90 0.83
1210080 2026-04-16 00:58:31 2026-04-16 00:58:29 Stelmat001 065 T 132.60 1.83 153.30 2181.520 0.020 0.020 59.90 0.63
1210079 2026-04-16 00:58:31 2026-04-16 00:58:29 Stelmat001 064 S 146.40 6.90 561.60 3378.780 0.090 0.090 60.00 0.56
1210078 2026-04-16 00:58:30 2026-04-16 00:58:29 Stelmat001 063 R 133.10 0.47 18.70 1811.040 0.000 0.000 59.90 0.30
1210077 2026-04-16 00:58:00 2026-04-16 00:57:57 Stelmat001 022 T 132.80 1.38 118.10 6402.230 0.020 0.020 60.00 0.65
1210076 2026-04-16 00:57:59 2026-04-16 00:57:57 Stelmat001 021 S 133.10 1.03 74.30 4714.290 0.030 0.030 59.90 0.54
1210075 2026-04-16 00:57:58 2026-04-16 00:57:57 Stelmat001 020 R 133.10 0.29 14.30 456.710 0.010 0.010 60.00 0.36
1210074 2026-04-16 00:55:59 2026-04-16 00:55:54 Stelmat001 018 T 146.50 0.59 73.80 12122.890 0.020 0.020 60.00 0.86
1210073 2026-04-16 00:55:59 2026-04-16 00:55:55 Stelmat001 062 T 132.60 1.61 111.90 4545.030 0.020 0.020 60.00 0.52
1210072 2026-04-16 00:55:59 2026-04-16 00:55:55 Stelmat001 061 S 133.00 4.84 620.30 8327.330 0.110 0.110 60.00 0.96
1210071 2026-04-16 00:55:59 2026-04-16 00:55:54 Stelmat001 017 S 133.20 0.68 75.80 7041.230 0.010 0.010 60.00 0.84
1210070 2026-04-16 00:55:58 2026-04-16 00:55:54 Stelmat001 016 R 132.60 0.68 15.10 16466.370 0.020 0.020 60.00 0.17
1210069 2026-04-16 00:55:58 2026-04-16 00:55:55 Stelmat001 060 R 133.30 0.31 8.70 467.560 0.000 0.000 60.00 0.21
1210068 2026-04-16 00:53:46 2026-04-16 00:53:43 Stelmat001 012 T 134.60 3.12 187.60 3627.180 0.030 0.030 60.00 0.45
1210067 2026-04-16 00:53:45 2026-04-16 00:53:43 Stelmat001 011 S 134.20 2.29 223.60 5536.670 0.040 0.040 60.00 0.73
1210066 2026-04-16 00:53:44 2026-04-16 00:53:43 Stelmat001 010 R 134.50 1.12 84.80 4233.770 0.020 0.020 60.00 0.56
1210065 2026-04-16 00:53:09 2026-04-16 00:53:09 Stelmat002 102 S 134.54 6.10 1.66 25903.939 0.187 0.187 60.02 0.67
1210064 2026-04-16 00:53:06 2026-04-16 00:53:06 Stelmat002 101 R 134.48 10.49 3.58 27479.309 0.401 0.401 60.02 0.85
1210063 2026-04-16 00:53:06 2026-04-16 00:53:02 Stelmat001 034 T 134.10 0.64 54.40 422.070 0.020 0.020 60.00 0.63
1210062 2026-04-16 00:53:06 2026-04-16 00:53:02 Stelmat001 033 S 134.50 0.45 21.10 558.990 0.000 0.000 60.00 0.35
1210061 2026-04-16 00:53:05 2026-04-16 00:53:02 Stelmat001 032 R 148.00 0.51 56.50 590.180 0.020 0.020 60.00 0.75
1210060 2026-04-16 00:49:11 2026-04-16 00:49:08 Stelmat001 025 T 134.70 0.36 6.20 965.230 0.000 0.000 60.00 0.13
1210059 2026-04-16 00:49:10 2026-04-16 00:49:08 Stelmat001 024 S 134.00 1.04 119.60 3434.290 0.020 0.020 60.00 0.86
1210058 2026-04-16 00:49:10 2026-04-16 00:49:08 Stelmat001 023 R 134.50 2.37 262.80 18128.140 0.040 0.040 60.00 0.83
1210057 2026-04-16 00:48:31 2026-04-16 00:48:28 Stelmat001 065 T 134.10 1.94 153.00 2181.500 0.030 0.030 60.00 0.59
1210056 2026-04-16 00:48:30 2026-04-16 00:48:28 Stelmat001 064 S 147.90 6.84 563.20 3378.690 0.100 0.100 59.90 0.56
1210055 2026-04-16 00:48:30 2026-04-16 00:48:28 Stelmat001 063 R 134.50 0.47 19.00 1811.040 0.000 0.000 59.90 0.30
1210054 2026-04-16 00:48:00 2026-04-16 00:47:56 Stelmat001 022 T 134.20 1.43 123.40 6402.210 0.020 0.020 60.00 0.64
1210053 2026-04-16 00:47:59 2026-04-16 00:47:56 Stelmat001 021 S 134.50 1.82 201.50 4714.260 0.020 0.020 60.00 0.82
1210052 2026-04-16 00:47:58 2026-04-16 00:47:56 Stelmat001 020 R 134.60 0.30 14.40 456.700 0.000 0.000 60.00 0.35
1210051 2026-04-16 00:45:59 2026-04-16 00:45:57 Stelmat001 062 T 134.00 1.63 111.90 4545.010 0.020 0.020 59.90 0.51
1210050 2026-04-16 00:45:59 2026-04-16 00:45:57 Stelmat001 018 T 147.90 0.61 78.10 12122.870 0.020 0.020 59.90 0.87
1210049 2026-04-16 00:45:59 2026-04-16 00:45:57 Stelmat001 017 S 134.50 0.68 77.30 7041.220 0.010 0.010 59.90 0.84
1210048 2026-04-16 00:45:59 2026-04-16 00:45:57 Stelmat001 061 S 134.40 4.79 619.60 8327.220 0.100 0.100 59.90 0.96
1210047 2026-04-16 00:45:58 2026-04-16 00:45:57 Stelmat001 016 R 134.00 0.69 12.40 16466.350 0.000 0.000 59.90 0.13
1210046 2026-04-16 00:45:58 2026-04-16 00:45:57 Stelmat001 060 R 134.60 0.30 9.10 467.560 0.010 0.010 59.90 0.22
1210045 2026-04-16 00:43:45 2026-04-16 00:43:42 Stelmat001 012 T 134.40 3.16 198.60 3627.150 0.030 0.030 59.90 0.47
1210044 2026-04-16 00:43:45 2026-04-16 00:43:42 Stelmat001 011 S 134.00 2.22 218.90 5536.630 0.030 0.030 59.90 0.74
1210043 2026-04-16 00:43:44 2026-04-16 00:43:42 Stelmat001 010 R 134.30 1.06 83.90 4233.750 0.010 0.010 59.90 0.59
1210042 2026-04-16 00:43:07 2026-04-16 00:43:06 Stelmat002 102 S 134.35 5.08 1.38 25903.752 0.236 0.236 59.95 0.67
1210041 2026-04-16 00:43:04 2026-04-16 00:43:04 Stelmat002 101 R 134.30 1.33 0.04 27478.908 0.234 0.234 59.95 0.06
1210040 2026-04-16 00:39:10 2026-04-16 00:39:06 Stelmat001 025 T 134.40 0.35 6.40 965.230 0.000 0.000 60.00 0.13
1210039 2026-04-16 00:39:09 2026-04-16 00:39:06 Stelmat001 024 S 133.90 1.05 120.80 3434.270 0.020 0.020 60.00 0.86
1210038 2026-04-16 00:39:08 2026-04-16 00:39:06 Stelmat001 023 R 134.30 2.38 264.40 18128.100 0.050 0.050 59.90 0.83
1210037 2026-04-16 00:38:30 2026-04-16 00:38:25 Stelmat001 065 T 134.00 1.93 153.20 2181.470 0.030 0.030 60.00 0.59
1210036 2026-04-16 00:38:29 2026-04-16 00:38:25 Stelmat001 064 S 147.90 6.84 562.80 3378.590 0.090 0.090 60.00 0.56
1210035 2026-04-16 00:38:29 2026-04-16 00:38:25 Stelmat001 063 R 134.40 0.47 19.40 1811.040 0.010 0.010 60.00 0.31
1210034 2026-04-16 00:37:58 2026-04-16 00:37:54 Stelmat001 022 T 134.10 1.47 130.80 6402.190 0.010 0.010 60.00 0.66
1210033 2026-04-16 00:37:58 2026-04-16 00:37:54 Stelmat001 021 S 134.30 1.34 143.60 4714.240 0.020 0.020 59.90 0.80
1210032 2026-04-16 00:37:57 2026-04-16 00:37:54 Stelmat001 020 R 134.30 0.31 14.40 456.700 0.000 0.000 60.00 0.34
1210031 2026-04-16 00:35:59 2026-04-16 00:35:55 Stelmat001 062 T 133.90 1.64 112.00 4544.990 0.020 0.020 59.90 0.51
1210030 2026-04-16 00:35:59 2026-04-16 00:35:55 Stelmat001 018 T 147.80 6.33 533.80 12122.850 0.020 0.020 59.90 0.57
1210029 2026-04-16 00:35:59 2026-04-16 00:35:55 Stelmat001 017 S 134.40 6.38 145.40 7041.210 0.020 0.020 59.90 0.17
1210028 2026-04-16 00:35:59 2026-04-16 00:35:55 Stelmat001 061 S 134.30 4.79 619.40 8327.120 0.110 0.110 59.90 0.96
1210027 2026-04-16 00:35:58 2026-04-16 00:35:55 Stelmat001 060 R 134.50 0.30 9.10 467.550 0.000 0.000 59.90 0.22
1210026 2026-04-16 00:35:58 2026-04-16 00:35:55 Stelmat001 016 R 133.80 6.39 649.90 16466.350 0.020 0.020 59.90 0.76
1210025 2026-04-16 00:33:44 2026-04-16 00:33:40 Stelmat001 012 T 134.50 3.32 203.10 3627.120 0.030 0.030 60.00 0.45
1210024 2026-04-16 00:33:43 2026-04-16 00:33:40 Stelmat001 011 S 134.20 2.26 217.10 5536.600 0.040 0.040 60.00 0.72
1210023 2026-04-16 00:33:43 2026-04-16 00:33:40 Stelmat001 010 R 134.40 1.05 83.90 4233.740 0.020 0.020 60.00 0.59
1210022 2026-04-16 00:33:06 2026-04-16 00:33:02 Stelmat001 034 T 134.20 0.61 53.60 422.050 0.010 0.010 60.00 0.65
1210021 2026-04-16 00:33:06 2026-04-16 00:33:02 Stelmat001 033 S 134.50 0.43 20.90 558.990 0.010 0.010 60.00 0.36
1210020 2026-04-16 00:33:05 2026-04-16 00:33:02 Stelmat001 032 R 147.90 0.47 55.90 590.160 0.010 0.010 60.00 0.80
1210019 2026-04-16 00:33:05 2026-04-16 00:33:04 Stelmat002 102 S 134.54 1.11 0.04 25903.516 0.254 0.254 60.05 0.09
1210018 2026-04-16 00:33:02 2026-04-16 00:33:01 Stelmat002 101 R 134.45 6.84 0.28 27478.674 0.412 0.412 60.05 0.12
1210017 2026-04-16 00:29:09 2026-04-16 00:29:04 Stelmat001 025 T 134.40 0.30 7.60 965.230 0.000 0.000 60.00 0.19
1210016 2026-04-16 00:29:08 2026-04-16 00:29:04 Stelmat001 024 S 134.00 0.97 117.40 3434.250 0.020 0.020 60.00 0.90
1210015 2026-04-16 00:29:07 2026-04-16 00:29:04 Stelmat001 023 R 134.40 1.63 180.60 18128.050 0.030 0.030 60.00 0.82
1210014 2026-04-16 00:28:30 2026-04-16 00:28:28 Stelmat001 065 T 134.00 1.75 152.80 2181.440 0.020 0.020 60.00 0.65
1210013 2026-04-16 00:28:29 2026-04-16 00:28:28 Stelmat001 064 S 147.90 6.84 561.00 3378.500 0.090 0.090 60.00 0.55
1210012 2026-04-16 00:28:29 2026-04-16 00:28:28 Stelmat001 063 R 134.40 0.47 18.80 1811.030 0.000 0.000 60.00 0.30
1210011 2026-04-16 00:27:59 2026-04-16 00:27:56 Stelmat001 022 T 134.10 0.49 45.50 6402.180 0.010 0.010 60.00 0.69
1210010 2026-04-16 00:27:58 2026-04-16 00:27:56 Stelmat001 021 S 134.30 1.37 152.90 4714.220 0.020 0.020 60.00 0.83
1210009 2026-04-16 00:27:57 2026-04-16 00:27:56 Stelmat001 020 R 134.40 0.27 14.40 456.700 0.000 0.000 60.00 0.40
1210008 2026-04-16 00:25:59 2026-04-16 00:25:57 Stelmat001 018 T 147.70 0.59 75.00 12122.830 0.020 0.020 60.00 0.86
1210007 2026-04-16 00:25:59 2026-04-16 00:25:57 Stelmat001 062 T 133.70 1.72 114.00 4544.970 0.020 0.020 60.00 0.50
1210006 2026-04-16 00:25:59 2026-04-16 00:25:57 Stelmat001 017 S 134.30 0.69 77.10 7041.190 0.010 0.010 60.00 0.83
1210005 2026-04-16 00:25:59 2026-04-16 00:25:57 Stelmat001 061 S 134.20 4.81 620.80 8327.010 0.100 0.100 60.00 0.96
1210004 2026-04-16 00:25:58 2026-04-16 00:25:57 Stelmat001 016 R 133.80 0.69 15.50 16466.330 0.010 0.010 60.00 0.17
1210003 2026-04-16 00:25:58 2026-04-16 00:25:57 Stelmat001 060 R 134.40 0.33 9.70 467.550 0.000 0.000 59.90 0.22
1210002 2026-04-16 00:23:43 2026-04-16 00:23:38 Stelmat001 012 T 134.20 3.46 202.50 3627.090 0.040 0.040 60.00 0.44
1210001 2026-04-16 00:23:42 2026-04-16 00:23:38 Stelmat001 011 S 133.80 2.43 227.00 5536.560 0.040 0.040 59.90 0.70
1210000 2026-04-16 00:23:42 2026-04-16 00:23:38 Stelmat001 010 R 134.10 1.18 84.40 4233.720 0.020 0.020 60.00 0.53
1209999 2026-04-16 00:23:02 2026-04-16 00:23:01 Stelmat002 102 S 134.18 5.77 1.50 25903.262 0.170 0.170 60.03 0.64
1209998 2026-04-16 00:22:59 2026-04-16 00:22:59 Stelmat002 101 R 134.10 12.32 3.57 27478.262 0.227 0.227 60.02 0.72
1209997 2026-04-16 00:19:09 2026-04-16 00:19:06 Stelmat001 025 T 134.10 0.31 6.70 965.230 0.000 0.000 60.00 0.16
1209996 2026-04-16 00:19:08 2026-04-16 00:19:06 Stelmat001 024 S 133.50 1.01 119.70 3434.230 0.020 0.020 60.00 0.89
1209995 2026-04-16 00:19:07 2026-04-16 00:19:06 Stelmat001 023 R 133.90 1.64 181.40 18128.020 0.040 0.040 60.00 0.83
1209994 2026-04-16 00:18:30 2026-04-16 00:18:25 Stelmat001 065 T 133.60 1.81 153.50 2181.420 0.030 0.030 60.00 0.64
1209993 2026-04-16 00:18:29 2026-04-16 00:18:25 Stelmat001 064 S 147.50 6.86 562.90 3378.410 0.100 0.100 60.00 0.56
1209992 2026-04-16 00:18:28 2026-04-16 00:18:25 Stelmat001 063 R 134.10 0.47 18.90 1811.030 0.000 0.000 60.00 0.30
1209991 2026-04-16 00:17:58 2026-04-16 00:17:54 Stelmat001 022 T 133.80 0.54 45.20 6402.170 0.010 0.010 60.00 0.63
1209990 2026-04-16 00:17:58 2026-04-16 00:17:54 Stelmat001 021 S 134.20 0.99 56.60 4714.200 0.010 0.010 60.00 0.43
1209989 2026-04-16 00:17:57 2026-04-16 00:17:54 Stelmat001 020 R 134.10 0.30 14.40 456.700 0.010 0.010 60.00 0.36
1209988 2026-04-16 00:15:59 2026-04-16 00:15:54 Stelmat001 018 T 147.90 0.61 78.10 12122.810 0.020 0.020 60.00 0.87
1209987 2026-04-16 00:15:59 2026-04-16 00:15:55 Stelmat001 062 T 133.90 1.66 113.20 4544.950 0.020 0.020 60.00 0.51
1209986 2026-04-16 00:15:58 2026-04-16 00:15:55 Stelmat001 061 S 134.30 4.80 619.80 8326.910 0.100 0.100 60.00 0.96
1209985 2026-04-16 00:15:58 2026-04-16 00:15:54 Stelmat001 017 S 134.40 0.68 77.30 7041.180 0.020 0.020 60.00 0.84
1209984 2026-04-16 00:15:58 2026-04-16 00:15:54 Stelmat001 016 R 133.90 0.69 12.40 16466.320 0.010 0.010 60.00 0.13
1209983 2026-04-16 00:15:58 2026-04-16 00:15:55 Stelmat001 060 R 134.50 0.30 9.00 467.550 0.000 0.000 60.00 0.22
1209982 2026-04-16 00:13:43 2026-04-16 00:13:40 Stelmat001 012 T 134.50 3.65 225.50 3627.050 0.030 0.030 60.00 0.46
1209981 2026-04-16 00:13:42 2026-04-16 00:13:40 Stelmat001 011 S 134.00 2.26 218.60 5536.520 0.030 0.030 60.00 0.72
1209980 2026-04-16 00:13:41 2026-04-16 00:13:40 Stelmat001 010 R 134.30 1.44 154.80 4233.700 0.020 0.020 60.00 0.80
1209979 2026-04-16 00:13:06 2026-04-16 00:13:02 Stelmat001 034 T 133.70 0.61 53.30 422.040 0.020 0.020 60.00 0.65
1209978 2026-04-16 00:13:06 2026-04-16 00:13:02 Stelmat001 033 S 134.20 0.42 20.90 558.980 0.010 0.010 60.00 0.37
1209977 2026-04-16 00:13:05 2026-04-16 00:13:02 Stelmat001 032 R 147.60 0.49 57.40 590.150 0.020 0.020 59.90 0.79
1209976 2026-04-16 00:13:00 2026-04-16 00:13:00 Stelmat002 102 S 134.22 8.62 2.91 25903.092 0.305 0.305 60.01 0.84
1209975 2026-04-16 00:12:57 2026-04-16 00:12:57 Stelmat002 101 R 134.16 1.41 0.03 27478.035 0.283 0.283 60.00 0.06
1209974 2026-04-16 00:09:08 2026-04-16 00:09:05 Stelmat001 025 T 134.40 0.36 6.30 965.230 0.000 0.000 60.00 0.13
1209973 2026-04-16 00:09:08 2026-04-16 00:09:05 Stelmat001 024 S 133.70 1.05 121.30 3434.210 0.020 0.020 59.90 0.86
1209972 2026-04-16 00:09:07 2026-04-16 00:09:05 Stelmat001 023 R 134.10 2.36 262.00 18127.980 0.040 0.040 59.90 0.83
1209971 2026-04-16 00:08:30 2026-04-16 00:08:28 Stelmat001 065 T 133.70 1.94 153.30 2181.390 0.020 0.020 60.00 0.59
1209970 2026-04-16 00:08:29 2026-04-16 00:08:28 Stelmat001 064 S 147.80 6.85 563.90 3378.310 0.090 0.090 60.00 0.56
1209969 2026-04-16 00:08:28 2026-04-16 00:08:28 Stelmat001 063 R 134.20 0.47 19.00 1811.030 0.010 0.010 60.00 0.30
1209968 2026-04-16 00:07:58 2026-04-16 00:07:56 Stelmat001 022 T 133.90 0.50 45.00 6402.160 0.010 0.010 60.00 0.67
1209967 2026-04-16 00:07:58 2026-04-16 00:07:56 Stelmat001 021 S 134.20 0.93 58.50 4714.190 0.010 0.010 60.00 0.47
1209966 2026-04-16 00:07:57 2026-04-16 00:07:56 Stelmat001 020 R 134.20 0.27 14.30 456.690 0.000 0.000 60.00 0.40
1209965 2026-04-16 00:05:59 2026-04-16 00:05:57 Stelmat001 062 T 133.80 1.58 109.80 4544.930 0.010 0.010 60.00 0.52
1209964 2026-04-16 00:05:59 2026-04-16 00:05:57 Stelmat001 018 T 147.80 0.57 74.90 12122.790 0.020 0.020 60.00 0.88
1209963 2026-04-16 00:05:58 2026-04-16 00:05:57 Stelmat001 061 S 134.20 4.80 619.70 8326.810 0.100 0.100 60.00 0.96
1209962 2026-04-16 00:05:58 2026-04-16 00:05:57 Stelmat001 017 S 134.30 0.68 77.20 7041.160 0.010 0.010 60.00 0.85
1209961 2026-04-16 00:05:58 2026-04-16 00:05:57 Stelmat001 016 R 133.80 0.67 15.40 16466.310 0.010 0.010 60.00 0.17
1209960 2026-04-16 00:05:58 2026-04-16 00:05:57 Stelmat001 060 R 134.40 0.29 8.40 467.550 0.000 0.000 60.00 0.21
1209959 2026-04-16 00:03:43 2026-04-16 00:03:38 Stelmat001 012 T 134.10 3.49 214.60 3627.020 0.040 0.040 60.00 0.46
1209958 2026-04-16 00:03:42 2026-04-16 00:03:38 Stelmat001 011 S 133.60 2.11 202.90 5536.490 0.040 0.040 59.90 0.72
1209957 2026-04-16 00:03:41 2026-04-16 00:03:38 Stelmat001 010 R 134.00 1.37 145.50 4233.680 0.030 0.030 60.00 0.79
1209956 2026-04-16 00:02:58 2026-04-16 00:02:57 Stelmat002 102 S 133.83 1.29 0.04 25902.787 0.219 0.219 59.93 0.07
1209955 2026-04-16 00:02:55 2026-04-16 00:02:55 Stelmat002 101 R 133.71 14.04 4.41 27477.752 0.340 0.340 59.93 0.78
1209954 2026-04-15 23:59:07 2026-04-15 23:59:04 Stelmat001 025 T 134.30 0.29 7.60 965.230 0.000 0.000 60.00 0.19
1209953 2026-04-15 23:59:07 2026-04-15 23:59:04 Stelmat001 024 S 133.60 0.98 118.30 3434.190 0.020 0.020 60.00 0.90
1209952 2026-04-15 23:59:06 2026-04-15 23:59:04 Stelmat001 023 R 134.00 2.99 318.80 18127.940 0.050 0.050 60.00 0.79
1209951 2026-04-15 23:58:30 2026-04-15 23:58:25 Stelmat001 065 T 133.50 1.73 151.60 2181.370 0.030 0.030 60.00 0.66
1209950 2026-04-15 23:58:29 2026-04-15 23:58:25 Stelmat001 064 S 147.50 6.86 561.30 3378.220 0.090 0.090 60.00 0.55
1209949 2026-04-15 23:58:28 2026-04-15 23:58:25 Stelmat001 063 R 134.00 0.47 19.00 1811.020 0.000 0.000 60.00 0.30
1209948 2026-04-15 23:57:58 2026-04-15 23:57:54 Stelmat001 022 T 133.50 0.49 45.10 6402.150 0.000 0.000 60.00 0.70
1209947 2026-04-15 23:57:58 2026-04-15 23:57:54 Stelmat001 021 S 134.00 0.90 58.40 4714.180 0.020 0.020 59.90 0.48
1209946 2026-04-15 23:57:57 2026-04-15 23:57:54 Stelmat001 020 R 133.90 0.27 14.30 456.690 0.000 0.000 60.00 0.40
1209945 2026-04-15 23:55:59 2026-04-15 23:55:54 Stelmat001 062 T 133.30 1.64 113.10 4544.920 0.020 0.020 59.90 0.52
1209944 2026-04-15 23:55:59 2026-04-15 23:55:54 Stelmat001 018 T 147.40 0.58 74.60 12122.770 0.020 0.020 59.90 0.87
1209943 2026-04-15 23:55:58 2026-04-15 23:55:54 Stelmat001 017 S 133.90 0.68 76.70 7041.150 0.010 0.010 59.90 0.84
1209942 2026-04-15 23:55:58 2026-04-15 23:55:54 Stelmat001 061 S 133.90 4.82 619.90 8326.710 0.110 0.110 60.00 0.96
1209941 2026-04-15 23:55:58 2026-04-15 23:55:54 Stelmat001 060 R 134.10 0.30 9.00 467.550 0.000 0.000 60.00 0.22
1209940 2026-04-15 23:55:58 2026-04-15 23:55:54 Stelmat001 016 R 133.40 0.68 15.30 16466.300 0.020 0.020 60.00 0.17
1209939 2026-04-15 23:53:43 2026-04-15 23:53:40 Stelmat001 012 T 133.80 3.19 188.80 3626.980 0.030 0.030 59.90 0.44
1209938 2026-04-15 23:53:42 2026-04-15 23:53:40 Stelmat001 011 S 133.30 2.14 205.40 5536.450 0.030 0.030 59.90 0.72
1209937 2026-04-15 23:53:41 2026-04-15 23:53:40 Stelmat001 010 R 133.70 1.52 163.40 4233.650 0.030 0.030 60.00 0.80
1209936 2026-04-15 23:53:06 2026-04-15 23:53:02 Stelmat001 034 T 133.40 0.64 53.90 422.020 0.020 0.020 60.00 0.63
1209935 2026-04-15 23:53:06 2026-04-15 23:53:02 Stelmat001 033 S 133.90 0.45 21.00 558.970 0.000 0.000 60.00 0.35
1209934 2026-04-15 23:53:05 2026-04-15 23:53:02 Stelmat001 032 R 147.30 0.50 56.10 590.130 0.020 0.020 60.00 0.76
1209933 2026-04-15 23:52:56 2026-04-15 23:52:55 Stelmat002 102 S 133.84 7.01 2.12 25902.568 0.222 0.222 60.03 0.76
1209932 2026-04-15 23:52:53 2026-04-15 23:52:52 Stelmat002 101 R 133.76 7.40 2.23 27477.412 0.275 0.275 60.02 0.76
1209931 2026-04-15 23:49:06 2026-04-15 23:49:02 Stelmat001 025 T 133.80 0.35 6.30 965.230 0.000 0.000 59.90 0.13
1209930 2026-04-15 23:49:05 2026-04-15 23:49:02 Stelmat001 024 S 133.20 1.07 122.80 3434.170 0.020 0.020 59.90 0.86
1209929 2026-04-15 23:49:05 2026-04-15 23:49:02 Stelmat001 023 R 133.60 2.38 264.00 18127.890 0.050 0.050 60.00 0.83
1209928 2026-04-15 23:48:30 2026-04-15 23:48:27 Stelmat001 065 T 133.20 1.90 151.60 2181.340 0.020 0.020 59.90 0.60
1209927 2026-04-15 23:48:29 2026-04-15 23:48:27 Stelmat001 064 S 147.10 6.87 562.80 3378.130 0.100 0.100 60.00 0.56
1209926 2026-04-15 23:48:28 2026-04-15 23:48:27 Stelmat001 063 R 133.70 0.47 19.10 1811.020 0.000 0.000 60.00 0.31
1209925 2026-04-15 23:47:58 2026-04-15 23:47:56 Stelmat001 022 T 133.30 0.56 44.60 6402.150 0.020 0.020 60.00 0.60
1209924 2026-04-15 23:47:58 2026-04-15 23:47:56 Stelmat001 021 S 133.70 1.03 57.60 4714.160 0.020 0.020 59.90 0.42
1209923 2026-04-15 23:47:57 2026-04-15 23:47:56 Stelmat001 020 R 133.70 0.31 14.40 456.690 0.000 0.000 60.00 0.35
1209922 2026-04-15 23:45:59 2026-04-15 23:45:57 Stelmat001 062 T 133.30 1.58 111.10 4544.900 0.020 0.020 60.00 0.53
1209921 2026-04-15 23:45:59 2026-04-15 23:45:57 Stelmat001 018 T 147.20 5.66 479.40 12122.750 0.020 0.020 60.00 0.58
1209920 2026-04-15 23:45:58 2026-04-15 23:45:57 Stelmat001 061 S 133.90 4.81 619.70 8326.600 0.100 0.100 60.00 0.96
1209919 2026-04-15 23:45:58 2026-04-15 23:45:57 Stelmat001 017 S 134.00 5.72 107.10 7041.140 0.020 0.020 60.00 0.14
1209918 2026-04-15 23:45:58 2026-04-15 23:45:57 Stelmat001 060 R 134.00 0.30 8.90 467.550 0.000 0.000 60.00 0.22
1209917 2026-04-15 23:45:58 2026-04-15 23:45:57 Stelmat001 016 R 133.30 5.72 557.80 16466.280 0.000 0.000 60.00 0.73
1209916 2026-04-15 23:43:42 2026-04-15 23:43:37 Stelmat001 012 T 133.90 3.17 194.60 3626.950 0.030 0.030 59.90 0.46
1209915 2026-04-15 23:43:42 2026-04-15 23:43:37 Stelmat001 011 S 133.30 2.14 199.80 5536.420 0.040 0.040 60.00 0.70
1209914 2026-04-15 23:43:41 2026-04-15 23:43:37 Stelmat001 010 R 133.90 1.49 162.60 4233.620 0.020 0.020 60.00 0.81
1209913 2026-04-15 23:42:53 2026-04-15 23:42:53 Stelmat002 102 S 133.82 1.16 0.04 25902.346 0.319 0.319 60.03 0.08
1209912 2026-04-15 23:42:51 2026-04-15 23:42:50 Stelmat002 101 R 133.76 7.50 2.39 27477.137 0.356 0.356 60.03 0.80
1209911 2026-04-15 23:39:04 2026-04-15 23:39:00 Stelmat001 025 T 133.70 0.29 7.70 965.230 0.000 0.000 59.90 0.20
1209910 2026-04-15 23:39:03 2026-04-15 23:39:00 Stelmat001 024 S 133.10 1.15 135.50 3434.150 0.020 0.020 59.90 0.89
1209909 2026-04-15 23:39:02 2026-04-15 23:39:00 Stelmat001 023 R 133.60 2.32 260.20 18127.840 0.030 0.030 59.90 0.84
1209908 2026-04-15 23:38:30 2026-04-15 23:38:25 Stelmat001 065 T 133.00 1.73 151.20 2181.320 0.030 0.030 59.90 0.66
1209907 2026-04-15 23:38:29 2026-04-15 23:38:25 Stelmat001 064 S 146.90 6.88 560.70 3378.030 0.090 0.090 59.90 0.55
1209906 2026-04-15 23:38:28 2026-04-15 23:38:25 Stelmat001 063 R 133.50 0.47 18.90 1811.020 0.010 0.010 59.90 0.30
1209905 2026-04-15 23:37:58 2026-04-15 23:37:53 Stelmat001 022 T 133.20 1.37 114.50 6402.130 0.020 0.020 60.00 0.63
1209904 2026-04-15 23:37:57 2026-04-15 23:37:53 Stelmat001 021 S 133.60 1.08 118.40 4714.140 0.020 0.020 59.90 0.82
1209903 2026-04-15 23:37:57 2026-04-15 23:37:53 Stelmat001 020 R 133.60 0.27 14.40 456.690 0.010 0.010 60.00 0.40
1209902 2026-04-15 23:35:59 2026-04-15 23:35:54 Stelmat001 062 T 133.10 1.63 113.00 4544.880 0.020 0.020 60.00 0.52
1209901 2026-04-15 23:35:59 2026-04-15 23:35:54 Stelmat001 018 T 146.90 0.59 74.10 12122.730 0.020 0.020 60.00 0.86
1209900 2026-04-15 23:35:58 2026-04-15 23:35:54 Stelmat001 061 S 133.60 4.82 619.50 8326.500 0.110 0.110 60.00 0.96
1209899 2026-04-15 23:35:58 2026-04-15 23:35:54 Stelmat001 017 S 133.70 0.68 76.30 7041.120 0.010 0.010 60.00 0.84
1209898 2026-04-15 23:35:57 2026-04-15 23:35:54 Stelmat001 016 R 133.10 0.68 15.20 16466.280 0.020 0.020 60.00 0.17
1209897 2026-04-15 23:35:57 2026-04-15 23:35:54 Stelmat001 060 R 133.60 0.30 9.10 467.550 0.000 0.000 60.00 0.23
1209896 2026-04-15 23:33:42 2026-04-15 23:33:40 Stelmat001 012 T 133.60 3.09 181.50 3626.920 0.030 0.030 60.00 0.44
1209895 2026-04-15 23:33:42 2026-04-15 23:33:40 Stelmat001 011 S 133.20 2.15 205.80 5536.380 0.030 0.030 60.00 0.72
1209894 2026-04-15 23:33:41 2026-04-15 23:33:40 Stelmat001 010 R 133.60 1.54 166.90 4233.600 0.030 0.030 60.00 0.81
1209893 2026-04-15 23:33:07 2026-04-15 23:33:02 Stelmat001 034 T 133.00 0.64 53.60 422.000 0.020 0.020 59.90 0.63
1209892 2026-04-15 23:33:06 2026-04-15 23:33:02 Stelmat001 033 S 133.40 0.45 20.90 558.970 0.010 0.010 59.90 0.35
1209891 2026-04-15 23:33:05 2026-04-15 23:33:02 Stelmat001 032 R 146.80 0.50 55.70 590.110 0.020 0.020 59.90 0.76
1209890 2026-04-15 23:32:51 2026-04-15 23:32:51 Stelmat002 102 S 133.41 6.81 1.97 25902.027 0.179 0.179 59.96 0.72
1209889 2026-04-15 23:32:48 2026-04-15 23:32:48 Stelmat002 101 R 133.34 9.17 3.08 27476.781 0.297 0.297 59.96 0.82
1209888 2026-04-15 23:29:03 2026-04-15 23:28:58 Stelmat001 025 T 133.90 0.30 7.80 965.230 0.010 0.010 60.00 0.20
1209887 2026-04-15 23:29:02 2026-04-15 23:28:58 Stelmat001 024 S 133.30 0.96 115.70 3434.130 0.020 0.020 60.00 0.91
1209886 2026-04-15 23:29:01 2026-04-15 23:28:58 Stelmat001 023 R 133.80 1.65 182.50 18127.810 0.030 0.030 60.00 0.83
1209885 2026-04-15 23:28:29 2026-04-15 23:28:27 Stelmat001 065 T 133.20 1.74 151.60 2181.290 0.020 0.020 60.00 0.66
1209884 2026-04-15 23:28:29 2026-04-15 23:28:27 Stelmat001 064 S 147.10 6.87 560.40 3377.940 0.100 0.100 60.00 0.55
1209883 2026-04-15 23:28:28 2026-04-15 23:28:27 Stelmat001 063 R 133.80 0.49 19.90 1811.010 0.020 0.020 60.00 0.31
1209882 2026-04-15 23:27:58 2026-04-15 23:27:56 Stelmat001 022 T 133.20 1.37 115.70 6402.110 0.020 0.020 60.00 0.63
1209881 2026-04-15 23:27:57 2026-04-15 23:27:56 Stelmat001 021 S 133.60 0.91 58.80 4714.120 0.010 0.010 59.90 0.48
1209880 2026-04-15 23:27:57 2026-04-15 23:27:56 Stelmat001 020 R 133.70 0.27 14.30 456.680 0.000 0.000 59.90 0.40
1209879 2026-04-15 23:25:59 2026-04-15 23:25:56 Stelmat001 062 T 133.00 1.65 114.10 4544.860 0.020 0.020 60.00 0.52
1209878 2026-04-15 23:25:59 2026-04-15 23:25:56 Stelmat001 018 T 147.00 0.57 74.30 12122.710 0.020 0.020 59.90 0.88
1209877 2026-04-15 23:25:58 2026-04-15 23:25:56 Stelmat001 061 S 133.60 4.83 620.60 8326.390 0.100 0.100 60.00 0.96
1209876 2026-04-15 23:25:58 2026-04-15 23:25:56 Stelmat001 017 S 133.70 0.68 76.30 7041.110 0.010 0.010 60.00 0.85
1209875 2026-04-15 23:25:57 2026-04-15 23:25:56 Stelmat001 016 R 133.10 0.67 15.20 16466.260 0.020 0.020 60.00 0.17
1209874 2026-04-15 23:25:57 2026-04-15 23:25:56 Stelmat001 060 R 133.70 0.30 8.80 467.550 0.010 0.010 60.00 0.22
1209873 2026-04-15 23:23:42 2026-04-15 23:23:37 Stelmat001 012 T 133.40 3.08 186.20 3626.890 0.030 0.030 59.90 0.45
1209872 2026-04-15 23:23:42 2026-04-15 23:23:37 Stelmat001 011 S 133.00 2.12 202.50 5536.350 0.030 0.030 60.00 0.72
1209871 2026-04-15 23:23:41 2026-04-15 23:23:37 Stelmat001 010 R 133.50 1.42 155.70 4233.570 0.020 0.020 59.90 0.82
1209870 2026-04-15 23:22:49 2026-04-15 23:22:48 Stelmat002 102 S 133.47 5.17 1.42 25901.848 0.186 0.186 60.02 0.69
1209869 2026-04-15 23:22:46 2026-04-15 23:22:46 Stelmat002 101 R 133.40 1.32 0.03 27476.484 0.209 0.209 60.02 0.06
1209868 2026-04-15 23:19:02 2026-04-15 23:19:00 Stelmat001 025 T 133.30 0.32 7.00 965.220 0.000 0.000 60.00 0.16
1209867 2026-04-15 23:19:02 2026-04-15 23:19:00 Stelmat001 024 S 132.80 1.01 119.50 3434.110 0.020 0.020 59.90 0.89
1209866 2026-04-15 23:19:01 2026-04-15 23:19:00 Stelmat001 023 R 133.30 2.39 238.20 18127.780 0.050 0.050 59.90 0.75
1209865 2026-04-15 23:18:29 2026-04-15 23:18:25 Stelmat001 065 T 132.70 1.79 151.90 2181.270 0.030 0.030 59.90 0.64
1209864 2026-04-15 23:18:29 2026-04-15 23:18:25 Stelmat001 064 S 146.50 6.89 561.40 3377.840 0.090 0.090 59.90 0.56
1209863 2026-04-15 23:18:28 2026-04-15 23:18:25 Stelmat001 063 R 133.40 1.62 210.70 1810.990 0.030 0.030 60.00 0.98
1209862 2026-04-15 23:17:58 2026-04-15 23:17:55 Stelmat001 022 T 132.90 1.38 118.00 6402.090 0.020 0.020 59.90 0.64
1209861 2026-04-15 23:17:57 2026-04-15 23:17:55 Stelmat001 021 S 133.10 0.92 55.70 4714.110 0.010 0.010 60.00 0.45
1209860 2026-04-15 23:17:57 2026-04-15 23:17:55 Stelmat001 020 R 133.30 0.28 14.30 456.680 0.000 0.000 59.90 0.38
1209859 2026-04-15 23:15:59 2026-04-15 23:15:54 Stelmat001 062 T 132.80 1.59 108.40 4544.840 0.020 0.020 59.90 0.51
1209858 2026-04-15 23:15:59 2026-04-15 23:15:54 Stelmat001 018 T 146.60 0.59 78.10 12122.690 0.010 0.010 59.90 0.90
1209857 2026-04-15 23:15:58 2026-04-15 23:15:54 Stelmat001 017 S 133.40 0.71 73.70 7041.100 0.020 0.020 59.90 0.78
1209856 2026-04-15 23:15:58 2026-04-15 23:15:54 Stelmat001 061 S 133.40 4.84 621.20 8326.290 0.100 0.100 59.90 0.96
1209855 2026-04-15 23:15:57 2026-04-15 23:15:54 Stelmat001 060 R 133.40 0.30 7.80 467.540 0.000 0.000 59.80 0.19
1209854 2026-04-15 23:15:57 2026-04-15 23:15:54 Stelmat001 016 R 132.80 0.69 24.80 16466.240 0.000 0.000 59.90 0.27
1209853 2026-04-15 23:13:42 2026-04-15 23:13:40 Stelmat001 012 T 133.40 3.23 192.90 3626.860 0.030 0.030 60.00 0.45
1209852 2026-04-15 23:13:41 2026-04-15 23:13:40 Stelmat001 011 S 132.90 2.13 198.50 5536.320 0.040 0.040 60.00 0.70
1209851 2026-04-15 23:13:41 2026-04-15 23:13:40 Stelmat001 010 R 133.40 0.98 69.50 4233.550 0.010 0.010 60.00 0.53
1209850 2026-04-15 23:13:06 2026-04-15 23:13:02 Stelmat001 034 T 132.90 0.60 52.20 421.980 0.010 0.010 59.90 0.65
1209849 2026-04-15 23:13:06 2026-04-15 23:13:02 Stelmat001 033 S 133.20 0.42 20.60 558.960 0.010 0.010 59.90 0.37
1209848 2026-04-15 23:13:05 2026-04-15 23:13:02 Stelmat001 032 R 146.80 0.47 55.00 590.090 0.020 0.020 59.90 0.79
1209847 2026-04-15 23:12:47 2026-04-15 23:12:46 Stelmat002 102 S 133.34 1.10 0.04 25901.662 0.324 0.324 60.02 0.10
1209846 2026-04-15 23:12:44 2026-04-15 23:12:44 Stelmat002 101 R 133.28 1.29 0.04 27476.275 0.318 0.318 60.01 0.07
1209845 2026-04-15 23:09:02 2026-04-15 23:08:58 Stelmat001 025 T 133.20 0.36 6.30 965.220 0.000 0.000 60.00 0.13
1209844 2026-04-15 23:09:02 2026-04-15 23:08:58 Stelmat001 024 S 132.70 1.05 119.10 3434.090 0.020 0.020 60.00 0.85
1209843 2026-04-15 23:09:01 2026-04-15 23:08:58 Stelmat001 023 R 133.30 2.37 262.80 18127.730 0.040 0.040 60.00 0.83
1209842 2026-04-15 23:08:29 2026-04-15 23:08:27 Stelmat001 065 T 132.70 1.74 151.20 2181.240 0.020 0.020 59.90 0.65
1209841 2026-04-15 23:08:29 2026-04-15 23:08:27 Stelmat001 064 S 146.50 6.88 558.70 3377.750 0.090 0.090 60.00 0.55
1209840 2026-04-15 23:08:28 2026-04-15 23:08:27 Stelmat001 063 R 133.40 1.61 210.70 1810.960 0.040 0.040 60.00 0.98
1209839 2026-04-15 23:07:57 2026-04-15 23:07:52 Stelmat001 022 T 132.90 1.40 121.70 6402.070 0.020 0.020 60.00 0.66
1209838 2026-04-15 23:07:56 2026-04-15 23:07:52 Stelmat001 021 S 133.10 1.07 112.00 4714.100 0.020 0.020 60.00 0.79
1209837 2026-04-15 23:07:55 2026-04-15 23:07:52 Stelmat001 020 R 133.40 0.27 14.30 456.680 0.000 0.000 60.00 0.40
1209836 2026-04-15 23:05:59 2026-04-15 23:05:56 Stelmat001 018 T 146.40 0.57 73.50 12122.680 0.030 0.030 59.90 0.89
1209835 2026-04-15 23:05:59 2026-04-15 23:05:56 Stelmat001 062 T 132.60 1.60 110.90 4544.820 0.020 0.020 59.90 0.52
1209834 2026-04-15 23:05:58 2026-04-15 23:05:56 Stelmat001 017 S 133.30 0.67 75.90 7041.080 0.010 0.010 60.00 0.85
1209833 2026-04-15 23:05:58 2026-04-15 23:05:56 Stelmat001 061 S 133.20 4.83 620.30 8326.190 0.110 0.110 59.90 0.96
1209832 2026-04-15 23:05:57 2026-04-15 23:05:56 Stelmat001 016 R 132.60 0.67 15.20 16466.240 0.020 0.020 60.00 0.17
1209831 2026-04-15 23:05:57 2026-04-15 23:05:56 Stelmat001 060 R 133.20 0.29 8.00 467.540 0.000 0.000 60.00 0.20
1209830 2026-04-15 23:03:42 2026-04-15 23:03:37 Stelmat001 012 T 132.70 3.18 180.20 3626.830 0.040 0.040 59.90 0.43
1209829 2026-04-15 23:03:41 2026-04-15 23:03:37 Stelmat001 011 S 132.40 2.17 204.70 5536.280 0.030 0.030 59.90 0.71
1209828 2026-04-15 23:03:41 2026-04-15 23:03:37 Stelmat001 010 R 132.90 1.03 69.80 4233.540 0.020 0.020 60.00 0.51
1209827 2026-04-15 23:02:45 2026-04-15 23:02:44 Stelmat002 102 S 132.84 6.48 1.85 25901.338 0.242 0.242 60.02 0.71
1209826 2026-04-15 23:02:42 2026-04-15 23:02:42 Stelmat002 101 R 132.77 11.91 4.15 27475.957 0.451 0.451 60.01 0.88
1209825 2026-04-15 22:59:00 2026-04-15 22:58:55 Stelmat001 025 T 132.70 0.30 7.50 965.220 0.000 0.000 60.00 0.19
1209824 2026-04-15 22:58:59 2026-04-15 22:58:55 Stelmat001 024 S 132.20 0.96 114.90 3434.070 0.020 0.020 60.00 0.90
1209823 2026-04-15 22:58:59 2026-04-15 22:58:55 Stelmat001 023 R 132.90 2.35 263.50 18127.690 0.050 0.050 60.00 0.84
1209822 2026-04-15 22:58:29 2026-04-15 22:58:26 Stelmat001 065 T 132.20 1.74 151.10 2181.220 0.030 0.030 60.00 0.66
1209821 2026-04-15 22:58:28 2026-04-15 22:58:26 Stelmat001 064 S 145.90 6.91 558.40 3377.660 0.100 0.100 60.00 0.55
1209820 2026-04-15 22:58:28 2026-04-15 22:58:26 Stelmat001 063 R 132.90 1.60 209.10 1810.920 0.030 0.030 60.00 0.98
1209819 2026-04-15 22:57:55 2026-04-15 22:57:51 Stelmat001 022 T 132.40 1.41 125.50 6402.050 0.020 0.020 60.00 0.67
1209818 2026-04-15 22:57:54 2026-04-15 22:57:51 Stelmat001 021 S 132.60 0.86 55.10 4714.080 0.010 0.010 60.00 0.48
1209817 2026-04-15 22:57:53 2026-04-15 22:57:51 Stelmat001 020 R 132.90 0.27 14.40 456.680 0.010 0.010 60.00 0.40
1209816 2026-04-15 22:55:59 2026-04-15 22:55:54 Stelmat001 062 T 132.40 1.60 112.40 4544.800 0.020 0.020 60.00 0.53
1209815 2026-04-15 22:55:59 2026-04-15 22:55:54 Stelmat001 018 T 146.00 0.57 73.50 12122.650 0.020 0.020 60.00 0.88
1209814 2026-04-15 22:55:58 2026-04-15 22:55:54 Stelmat001 017 S 133.00 0.67 75.60 7041.070 0.020 0.020 60.00 0.84
1209813 2026-04-15 22:55:58 2026-04-15 22:55:54 Stelmat001 061 S 132.90 4.85 620.20 8326.080 0.100 0.100 60.00 0.96
1209812 2026-04-15 22:55:57 2026-04-15 22:55:54 Stelmat001 016 R 132.30 0.67 15.10 16466.220 0.020 0.020 60.00 0.17
1209811 2026-04-15 22:55:57 2026-04-15 22:55:54 Stelmat001 060 R 132.90 0.30 8.70 467.540 0.000 0.000 60.00 0.22
1209810 2026-04-15 22:53:42 2026-04-15 22:53:39 Stelmat001 012 T 132.70 3.12 178.50 3626.790 0.030 0.030 60.00 0.43
1209809 2026-04-15 22:53:41 2026-04-15 22:53:39 Stelmat001 011 S 132.40 2.16 204.50 5536.250 0.040 0.040 60.00 0.71
1209808 2026-04-15 22:53:41 2026-04-15 22:53:39 Stelmat001 010 R 132.90 1.05 70.30 4233.520 0.010 0.010 60.00 0.50
1209807 2026-04-15 22:53:07 2026-04-15 22:53:02 Stelmat001 034 T 132.20 0.64 52.40 421.970 0.020 0.020 60.00 0.62
1209806 2026-04-15 22:53:06 2026-04-15 22:53:02 Stelmat001 033 S 132.50 0.45 20.80 558.950 0.000 0.000 60.00 0.35
1209805 2026-04-15 22:53:05 2026-04-15 22:53:02 Stelmat001 032 R 146.10 0.50 55.00 590.070 0.020 0.020 60.00 0.75
1209804 2026-04-15 22:52:42 2026-04-15 22:52:42 Stelmat002 102 S 132.64 7.23 2.15 25901.096 0.192 0.192 60.02 0.75
1209803 2026-04-15 22:52:40 2026-04-15 22:52:39 Stelmat002 101 R 132.54 13.98 4.29 27475.506 0.174 0.174 60.01 0.77
1209802 2026-04-15 22:49:00 2026-04-15 22:48:58 Stelmat001 025 T 132.60 0.29 7.80 965.220 0.000 0.000 59.90 0.20
1209801 2026-04-15 22:48:59 2026-04-15 22:48:58 Stelmat001 024 S 132.20 0.98 116.90 3434.050 0.020 0.020 60.00 0.90
1209800 2026-04-15 22:48:59 2026-04-15 22:48:58 Stelmat001 023 R 132.70 2.37 265.10 18127.640 0.050 0.050 60.00 0.84
1209799 2026-04-15 22:48:28 2026-04-15 22:48:25 Stelmat001 065 T 132.30 1.75 152.40 2181.190 0.020 0.020 60.00 0.66
1209798 2026-04-15 22:48:27 2026-04-15 22:48:25 Stelmat001 064 S 145.80 6.91 558.00 3377.560 0.090 0.090 60.00 0.55
1209797 2026-04-15 22:48:27 2026-04-15 22:48:25 Stelmat001 063 R 132.80 1.60 208.90 1810.890 0.010 0.010 60.00 0.99
1209796 2026-04-15 22:47:53 2026-04-15 22:47:50 Stelmat001 022 T 132.30 0.51 44.80 6402.030 0.000 0.000 60.00 0.67
1209795 2026-04-15 22:47:53 2026-04-15 22:47:50 Stelmat001 021 S 132.40 0.92 54.70 4714.070 0.010 0.010 60.00 0.45
1209794 2026-04-15 22:47:52 2026-04-15 22:47:50 Stelmat001 020 R 132.70 0.29 14.40 456.670 0.000 0.000 60.00 0.38
1209793 2026-04-15 22:45:59 2026-04-15 22:45:56 Stelmat001 018 T 145.90 0.64 83.40 12122.630 0.010 0.010 59.90 0.90
1209792 2026-04-15 22:45:59 2026-04-15 22:45:56 Stelmat001 062 T 132.20 1.65 110.90 4544.780 0.010 0.010 59.90 0.51
1209791 2026-04-15 22:45:58 2026-04-15 22:45:56 Stelmat001 061 S 132.80 4.85 620.00 8325.980 0.100 0.100 60.00 0.96
1209790 2026-04-15 22:45:58 2026-04-15 22:45:56 Stelmat001 017 S 132.80 0.74 71.90 7041.050 0.010 0.010 59.90 0.73
1209789 2026-04-15 22:45:57 2026-04-15 22:45:56 Stelmat001 060 R 132.70 0.33 5.90 467.540 0.000 0.000 59.90 0.13
1209788 2026-04-15 22:45:57 2026-04-15 22:45:56 Stelmat001 016 R 132.30 0.74 27.00 16466.200 0.000 0.000 59.90 0.28
1209787 2026-04-15 22:43:42 2026-04-15 22:43:38 Stelmat001 012 T 132.60 3.09 184.30 3626.760 0.030 0.030 60.00 0.45
1209786 2026-04-15 22:43:41 2026-04-15 22:43:38 Stelmat001 011 S 132.30 2.13 197.40 5536.210 0.030 0.030 59.90 0.70
1209785 2026-04-15 22:43:40 2026-04-15 22:43:38 Stelmat001 010 R 132.70 0.99 70.40 4233.510 0.010 0.010 59.90 0.54
1209784 2026-04-15 22:42:40 2026-04-15 22:42:40 Stelmat002 102 S 132.72 5.20 1.43 25900.904 0.312 0.312 60.03 0.69
1209783 2026-04-15 22:42:38 2026-04-15 22:42:37 Stelmat002 101 R 132.64 1.32 0.03 27475.332 0.006 0.006 60.02 0.06
1209782 2026-04-15 22:39:00 2026-04-15 22:38:55 Stelmat001 025 T 132.50 0.30 7.70 965.220 0.000 0.000 59.90 0.20
1209781 2026-04-15 22:38:59 2026-04-15 22:38:55 Stelmat001 024 S 132.10 0.96 114.60 3434.030 0.020 0.020 60.00 0.91
1209780 2026-04-15 22:38:59 2026-04-15 22:38:55 Stelmat001 023 R 132.60 2.93 308.90 18127.590 0.030 0.030 60.00 0.79
1209779 2026-04-15 22:38:27 2026-04-15 22:38:22 Stelmat001 065 T 132.10 1.75 152.00 2181.170 0.030 0.030 59.90 0.66
1209778 2026-04-15 22:38:26 2026-04-15 22:38:22 Stelmat001 064 S 145.60 6.93 558.20 3377.470 0.090 0.090 59.90 0.55
1209777 2026-04-15 22:38:25 2026-04-15 22:38:22 Stelmat001 063 R 132.60 0.49 20.00 1810.880 0.000 0.000 60.00 0.31
1209776 2026-04-15 22:37:52 2026-04-15 22:37:47 Stelmat001 022 T 132.20 0.48 44.40 6402.030 0.010 0.010 59.90 0.69
1209775 2026-04-15 22:37:51 2026-04-15 22:37:47 Stelmat001 021 S 132.20 1.69 186.30 4714.060 0.030 0.030 59.90 0.83
1209774 2026-04-15 22:37:51 2026-04-15 22:37:47 Stelmat001 020 R 132.50 0.27 14.30 456.670 0.000 0.000 60.00 0.40
1209773 2026-04-15 22:35:58 2026-04-15 22:35:53 Stelmat001 062 T 132.10 1.58 110.90 4544.770 0.020 0.020 59.90 0.53
1209772 2026-04-15 22:35:58 2026-04-15 22:35:54 Stelmat001 018 T 145.50 0.56 72.80 12122.620 0.030 0.030 60.00 0.89
1209771 2026-04-15 22:35:58 2026-04-15 22:35:54 Stelmat001 017 S 132.50 0.66 75.10 7041.040 0.010 0.010 59.90 0.85
1209770 2026-04-15 22:35:58 2026-04-15 22:35:53 Stelmat001 061 S 132.50 4.86 619.70 8325.880 0.110 0.110 60.00 0.96
1209769 2026-04-15 22:35:57 2026-04-15 22:35:54 Stelmat001 016 R 132.10 0.66 15.10 16466.200 0.020 0.020 60.00 0.17
1209768 2026-04-15 22:35:57 2026-04-15 22:35:53 Stelmat001 060 R 132.30 0.45 2.40 467.540 0.000 0.000 60.00 0.04
1209767 2026-04-15 22:33:41 2026-04-15 22:33:36 Stelmat001 012 T 132.30 3.07 183.00 3626.730 0.030 0.030 59.90 0.45
1209766 2026-04-15 22:33:40 2026-04-15 22:33:36 Stelmat001 011 S 132.10 2.15 203.40 5536.180 0.030 0.030 60.00 0.72
1209765 2026-04-15 22:33:39 2026-04-15 22:33:36 Stelmat001 010 R 132.40 1.05 85.40 4233.500 0.020 0.020 59.90 0.61
1209764 2026-04-15 22:33:06 2026-04-15 22:33:02 Stelmat001 034 T 132.00 0.60 52.00 421.950 0.020 0.020 59.90 0.66
1209763 2026-04-15 22:33:06 2026-04-15 22:33:02 Stelmat001 033 S 132.10 0.41 20.50 558.950 0.010 0.010 59.90 0.37
1209762 2026-04-15 22:33:05 2026-04-15 22:33:02 Stelmat001 032 R 145.60 0.47 55.00 590.050 0.020 0.020 59.90 0.80
1209761 2026-04-15 22:32:39 2026-04-15 22:32:38 Stelmat002 102 S 132.43 6.67 2.06 25900.592 0.207 0.207 60.00 0.78
1209760 2026-04-15 22:32:36 2026-04-15 22:32:35 Stelmat002 101 R 132.37 1.34 0.03 27475.326 0.006 0.006 60.00 0.06
1209759 2026-04-15 22:28:58 2026-04-15 22:28:53 Stelmat001 025 T 132.30 0.31 8.40 965.220 0.000 0.000 59.90 0.21
1209758 2026-04-15 22:28:57 2026-04-15 22:28:53 Stelmat001 024 S 132.00 0.95 113.20 3434.010 0.020 0.020 60.00 0.90
1209757 2026-04-15 22:28:56 2026-04-15 22:28:53 Stelmat001 023 R 132.40 1.65 182.40 18127.560 0.030 0.030 59.90 0.83
1209756 2026-04-15 22:28:27 2026-04-15 22:28:24 Stelmat001 065 T 132.10 1.76 151.90 2181.140 0.030 0.030 60.00 0.65
1209755 2026-04-15 22:28:26 2026-04-15 22:28:24 Stelmat001 064 S 145.40 6.93 555.90 3377.380 0.100 0.100 59.90 0.55
1209754 2026-04-15 22:28:25 2026-04-15 22:28:24 Stelmat001 063 R 132.40 0.49 20.00 1810.880 0.010 0.010 59.90 0.31
1209753 2026-04-15 22:27:52 2026-04-15 22:27:50 Stelmat001 022 T 132.30 0.49 44.30 6402.020 0.010 0.010 59.90 0.68
1209752 2026-04-15 22:27:52 2026-04-15 22:27:50 Stelmat001 021 S 132.30 1.57 179.50 4714.030 0.030 0.030 60.00 0.86
1209751 2026-04-15 22:27:51 2026-04-15 22:27:50 Stelmat001 020 R 132.50 0.27 14.20 456.670 0.000 0.000 59.90 0.40
1209750 2026-04-15 22:25:58 2026-04-15 22:25:56 Stelmat001 018 T 145.60 0.56 72.90 12122.590 0.020 0.020 60.00 0.89
1209749 2026-04-15 22:25:58 2026-04-15 22:25:56 Stelmat001 062 T 132.10 1.54 109.20 4544.750 0.020 0.020 60.00 0.54
1209748 2026-04-15 22:25:58 2026-04-15 22:25:56 Stelmat001 017 S 132.60 0.66 75.20 7041.030 0.020 0.020 60.00 0.86
1209747 2026-04-15 22:25:58 2026-04-15 22:25:56 Stelmat001 061 S 132.50 4.85 619.50 8325.770 0.100 0.100 60.00 0.96
1209746 2026-04-15 22:25:57 2026-04-15 22:25:56 Stelmat001 016 R 132.10 0.66 15.00 16466.180 0.020 0.020 60.00 0.17
1209745 2026-04-15 22:25:57 2026-04-15 22:25:56 Stelmat001 060 R 132.50 0.57 11.20 467.540 0.000 0.000 60.00 0.15
1209744 2026-04-15 22:23:41 2026-04-15 22:23:38 Stelmat001 012 T 132.20 3.21 191.40 3626.700 0.030 0.030 60.00 0.45
1209743 2026-04-15 22:23:40 2026-04-15 22:23:38 Stelmat001 011 S 132.00 2.10 199.80 5536.150 0.030 0.030 60.00 0.72
1209742 2026-04-15 22:23:39 2026-04-15 22:23:38 Stelmat001 010 R 132.30 1.04 84.60 4233.480 0.010 0.010 60.00 0.61
1209741 2026-04-15 22:22:37 2026-04-15 22:22:36 Stelmat002 102 S 132.37 6.69 2.08 25900.385 0.213 0.213 60.01 0.78
1209740 2026-04-15 22:22:34 2026-04-15 22:22:34 Stelmat002 101 R 132.32 1.34 0.03 27475.320 0.004 0.004 60.01 0.06
1209739 2026-04-15 22:18:56 2026-04-15 22:18:51 Stelmat001 025 T 132.20 0.30 7.80 965.220 0.000 0.000 59.90 0.20
1209738 2026-04-15 22:18:55 2026-04-15 22:18:51 Stelmat001 024 S 131.90 0.97 115.70 3433.990 0.020 0.020 60.00 0.90
1209737 2026-04-15 22:18:54 2026-04-15 22:18:51 Stelmat001 023 R 132.30 1.65 182.30 18127.530 0.040 0.040 60.00 0.83
1209736 2026-04-15 22:18:27 2026-04-15 22:18:22 Stelmat001 065 T 131.90 1.74 151.60 2181.110 0.020 0.020 60.00 0.66
1209735 2026-04-15 22:18:26 2026-04-15 22:18:22 Stelmat001 064 S 145.50 6.93 557.10 3377.280 0.090 0.090 60.00 0.55
1209734 2026-04-15 22:18:25 2026-04-15 22:18:22 Stelmat001 063 R 132.40 0.49 19.80 1810.870 0.000 0.000 60.00 0.31
1209733 2026-04-15 22:17:52 2026-04-15 22:17:47 Stelmat001 022 T 131.90 0.49 44.30 6402.010 0.010 0.010 60.00 0.68
1209732 2026-04-15 22:17:51 2026-04-15 22:17:47 Stelmat001 021 S 132.00 1.02 71.70 4714.000 0.010 0.010 59.90 0.53
1209731 2026-04-15 22:17:51 2026-04-15 22:17:47 Stelmat001 020 R 132.20 0.28 14.40 456.670 0.000 0.000 59.90 0.39
1209730 2026-04-15 22:15:58 2026-04-15 22:15:54 Stelmat001 018 T 145.50 4.90 403.50 12122.570 0.020 0.020 60.00 0.57
1209729 2026-04-15 22:15:58 2026-04-15 22:15:53 Stelmat001 062 T 132.00 1.64 114.20 4544.730 0.020 0.020 60.00 0.53
1209728 2026-04-15 22:15:58 2026-04-15 22:15:54 Stelmat001 017 S 132.40 4.96 67.20 7041.010 0.010 0.010 60.00 0.10
1209727 2026-04-15 22:15:58 2026-04-15 22:15:53 Stelmat001 061 S 132.40 4.86 619.90 8325.670 0.110 0.110 60.00 0.96
1209726 2026-04-15 22:15:57 2026-04-15 22:15:54 Stelmat001 016 R 131.90 4.86 438.10 16466.160 0.000 0.000 60.00 0.68
1209725 2026-04-15 22:15:57 2026-04-15 22:15:53 Stelmat001 060 R 132.40 0.56 9.50 467.540 0.010 0.010 60.00 0.13
1209724 2026-04-15 22:13:40 2026-04-15 22:13:37 Stelmat001 012 T 132.30 3.08 182.10 3626.670 0.030 0.030 60.00 0.45
1209723 2026-04-15 22:13:40 2026-04-15 22:13:37 Stelmat001 011 S 132.00 2.14 196.60 5536.120 0.040 0.040 60.00 0.70
1209722 2026-04-15 22:13:39 2026-04-15 22:13:37 Stelmat001 010 R 132.30 1.08 86.10 4233.470 0.010 0.010 60.00 0.60
1209721 2026-04-15 22:13:07 2026-04-15 22:13:02 Stelmat001 034 T 131.80 0.60 51.10 421.930 0.020 0.020 60.00 0.65
1209720 2026-04-15 22:13:06 2026-04-15 22:13:02 Stelmat001 033 S 132.10 0.41 20.40 558.940 0.010 0.010 60.00 0.38
1209719 2026-04-15 22:13:05 2026-04-15 22:13:02 Stelmat001 032 R 145.40 0.47 54.20 590.030 0.010 0.010 60.00 0.79
1209718 2026-04-15 22:12:35 2026-04-15 22:12:35 Stelmat002 102 S 132.22 1.09 0.04 25900.172 0.344 0.344 60.01 0.09
1209717 2026-04-15 22:12:32 2026-04-15 22:12:32 Stelmat002 101 R 132.18 1.28 0.03 27475.316 0.005 0.005 60.01 0.06
1209716 2026-04-15 22:08:53 2026-04-15 22:08:49 Stelmat001 025 T 132.20 0.30 7.90 965.220 0.010 0.010 60.00 0.20
1209715 2026-04-15 22:08:53 2026-04-15 22:08:49 Stelmat001 024 S 131.80 0.96 114.00 3433.970 0.020 0.020 60.00 0.90
1209714 2026-04-15 22:08:52 2026-04-15 22:08:49 Stelmat001 023 R 132.20 2.36 264.10 18127.490 0.050 0.050 59.90 0.85
1209713 2026-04-15 22:08:27 2026-04-15 22:08:24 Stelmat001 065 T 131.80 1.74 151.70 2181.090 0.030 0.030 60.00 0.66
1209712 2026-04-15 22:08:26 2026-04-15 22:08:24 Stelmat001 064 S 145.30 6.94 556.70 3377.190 0.090 0.090 60.00 0.55
1209711 2026-04-15 22:08:25 2026-04-15 22:08:24 Stelmat001 063 R 132.20 0.47 19.00 1810.870 0.000 0.000 60.00 0.30
1209710 2026-04-15 22:07:52 2026-04-15 22:07:50 Stelmat001 022 T 131.80 0.48 44.20 6402.000 0.000 0.000 60.00 0.70
1209709 2026-04-15 22:07:51 2026-04-15 22:07:50 Stelmat001 021 S 131.90 1.09 113.00 4713.990 0.010 0.010 59.90 0.79
1209708 2026-04-15 22:07:51 2026-04-15 22:07:50 Stelmat001 020 R 132.10 0.27 14.30 456.670 0.010 0.010 60.00 0.40
1209707 2026-04-15 22:05:58 2026-04-15 22:05:56 Stelmat001 018 T 145.40 0.57 72.60 12122.550 0.010 0.010 59.90 0.88
1209706 2026-04-15 22:05:58 2026-04-15 22:05:56 Stelmat001 062 T 131.70 1.57 111.00 4544.710 0.020 0.020 60.00 0.54
1209705 2026-04-15 22:05:58 2026-04-15 22:05:56 Stelmat001 017 S 132.30 0.67 74.80 7041.000 0.010 0.010 60.00 0.85
1209704 2026-04-15 22:05:58 2026-04-15 22:05:56 Stelmat001 061 S 132.20 4.87 620.30 8325.560 0.100 0.100 59.90 0.96
1209703 2026-04-15 22:05:57 2026-04-15 22:05:56 Stelmat001 016 R 131.80 0.67 15.00 16466.160 0.010 0.010 59.90 0.17
1209702 2026-04-15 22:05:57 2026-04-15 22:05:56 Stelmat001 060 R 132.20 0.56 10.70 467.530 0.000 0.000 60.00 0.14
1209701 2026-04-15 22:03:39 2026-04-15 22:03:34 Stelmat001 012 T 132.00 3.09 182.20 3626.640 0.030 0.030 59.90 0.45
1209700 2026-04-15 22:03:38 2026-04-15 22:03:34 Stelmat001 011 S 131.70 2.10 198.50 5536.080 0.030 0.030 59.90 0.72
1209699 2026-04-15 22:03:38 2026-04-15 22:03:34 Stelmat001 010 R 132.10 1.07 87.50 4233.460 0.020 0.020 60.00 0.62
1209698 2026-04-15 22:02:33 2026-04-15 22:02:33 Stelmat002 102 S 132.01 7.21 2.30 25899.828 0.312 0.312 59.94 0.80
1209697 2026-04-15 22:02:31 2026-04-15 22:02:30 Stelmat002 101 R 131.93 1.35 0.03 27475.311 0.006 0.006 59.95 0.06
1209696 2026-04-15 21:58:51 2026-04-15 21:58:47 Stelmat001 025 T 132.00 0.30 7.80 965.210 0.000 0.000 60.00 0.20
1209695 2026-04-15 21:58:51 2026-04-15 21:58:47 Stelmat001 024 S 131.40 0.96 113.80 3433.950 0.020 0.020 60.00 0.91
1209694 2026-04-15 21:58:50 2026-04-15 21:58:47 Stelmat001 023 R 131.90 3.03 323.80 18127.440 0.050 0.050 60.00 0.81
1209693 2026-04-15 21:58:27 2026-04-15 21:58:22 Stelmat001 065 T 131.50 1.75 151.80 2181.060 0.020 0.020 60.00 0.66
1209692 2026-04-15 21:58:26 2026-04-15 21:58:22 Stelmat001 064 S 145.20 6.95 557.20 3377.100 0.100 0.100 60.00 0.55
1209691 2026-04-15 21:58:25 2026-04-15 21:58:22 Stelmat001 063 R 132.10 0.48 19.20 1810.870 0.010 0.010 60.00 0.30
1209690 2026-04-15 21:57:52 2026-04-15 21:57:47 Stelmat001 022 T 131.60 1.34 112.40 6402.000 0.020 0.020 60.00 0.64
1209689 2026-04-15 21:57:51 2026-04-15 21:57:47 Stelmat001 021 S 131.80 0.86 54.80 4713.980 0.010 0.010 60.00 0.48
1209688 2026-04-15 21:57:51 2026-04-15 21:57:47 Stelmat001 020 R 131.90 0.27 14.30 456.660 0.000 0.000 60.00 0.40
1209687 2026-04-15 21:55:58 2026-04-15 21:55:54 Stelmat001 018 T 145.30 0.56 72.50 12122.540 0.010 0.010 60.00 0.89
1209686 2026-04-15 21:55:58 2026-04-15 21:55:53 Stelmat001 062 T 131.60 1.57 110.10 4544.690 0.020 0.020 60.00 0.53
1209685 2026-04-15 21:55:58 2026-04-15 21:55:54 Stelmat001 017 S 132.20 0.66 74.80 7040.990 0.010 0.010 60.00 0.86
1209684 2026-04-15 21:55:58 2026-04-15 21:55:53 Stelmat001 061 S 132.10 4.88 620.90 8325.460 0.100 0.100 60.00 0.96
1209683 2026-04-15 21:55:57 2026-04-15 21:55:54 Stelmat001 016 R 131.60 0.66 15.00 16466.150 0.000 0.000 60.00 0.17
1209682 2026-04-15 21:55:57 2026-04-15 21:55:53 Stelmat001 060 R 132.10 0.56 10.80 467.530 0.000 0.000 60.00 0.15
1209681 2026-04-15 21:53:39 2026-04-15 21:53:36 Stelmat001 012 T 131.70 3.14 182.80 3626.610 0.030 0.030 59.90 0.44
1209680 2026-04-15 21:53:38 2026-04-15 21:53:36 Stelmat001 011 S 131.30 2.10 198.00 5536.050 0.030 0.030 59.90 0.72
1209679 2026-04-15 21:53:38 2026-04-15 21:53:36 Stelmat001 010 R 131.70 1.08 88.50 4233.440 0.020 0.020 59.90 0.62
1209678 2026-04-15 21:53:07 2026-04-15 21:53:02 Stelmat001 034 T 131.30 0.59 51.60 421.910 0.010 0.010 60.00 0.66
1209677 2026-04-15 21:53:06 2026-04-15 21:53:02 Stelmat001 033 S 131.70 0.41 20.50 558.930 0.010 0.010 60.00 0.38
1209676 2026-04-15 21:53:05 2026-04-15 21:53:02 Stelmat001 032 R 145.10 0.47 54.50 590.020 0.020 0.020 60.00 0.81
1209675 2026-04-15 21:52:32 2026-04-15 21:52:31 Stelmat002 102 S 131.63 8.10 2.57 25899.516 0.313 0.313 60.00 0.81
1209674 2026-04-15 21:52:29 2026-04-15 21:52:28 Stelmat002 101 R 131.55 1.37 0.03 27475.305 0.004 0.004 60.01 0.06
1209673 2026-04-15 21:48:49 2026-04-15 21:48:44 Stelmat001 025 T 131.60 0.30 7.80 965.210 0.000 0.000 60.00 0.20
1209672 2026-04-15 21:48:48 2026-04-15 21:48:44 Stelmat001 024 S 131.10 0.99 117.30 3433.930 0.020 0.020 59.90 0.90
1209671 2026-04-15 21:48:47 2026-04-15 21:48:44 Stelmat001 023 R 131.60 2.40 267.40 18127.390 0.050 0.050 59.90 0.85
1209670 2026-04-15 21:48:27 2026-04-15 21:48:24 Stelmat001 065 T 131.10 1.75 152.30 2181.040 0.030 0.030 59.90 0.66
1209669 2026-04-15 21:48:26 2026-04-15 21:48:24 Stelmat001 064 S 144.70 6.97 556.90 3377.000 0.090 0.090 60.00 0.55
1209668 2026-04-15 21:48:25 2026-04-15 21:48:24 Stelmat001 063 R 131.50 0.49 19.90 1810.860 0.000 0.000 60.00 0.31
1209667 2026-04-15 21:47:52 2026-04-15 21:47:50 Stelmat001 022 T 131.10 1.34 113.30 6401.980 0.020 0.020 59.90 0.64
1209666 2026-04-15 21:47:51 2026-04-15 21:47:50 Stelmat001 021 S 131.40 0.88 55.90 4713.970 0.010 0.010 59.90 0.49
1209665 2026-04-15 21:47:51 2026-04-15 21:47:50 Stelmat001 020 R 131.50 0.27 14.30 456.660 0.000 0.000 59.90 0.40
1209664 2026-04-15 21:45:59 2026-04-15 21:45:56 Stelmat001 018 T 144.70 6.32 532.70 12122.530 0.030 0.030 60.00 0.58
1209663 2026-04-15 21:45:58 2026-04-15 21:45:56 Stelmat001 062 T 131.20 1.57 111.60 4544.670 0.020 0.020 60.00 0.54
1209662 2026-04-15 21:45:58 2026-04-15 21:45:56 Stelmat001 017 S 131.60 6.37 144.80 7040.980 0.020 0.020 60.00 0.17
1209661 2026-04-15 21:45:58 2026-04-15 21:45:56 Stelmat001 061 S 131.60 4.90 620.50 8325.360 0.110 0.110 60.00 0.96
1209660 2026-04-15 21:45:57 2026-04-15 21:45:56 Stelmat001 016 R 131.20 6.40 649.10 16466.150 0.020 0.020 60.00 0.77
1209659 2026-04-15 21:45:57 2026-04-15 21:45:56 Stelmat001 060 R 131.70 0.56 9.90 467.530 0.000 0.000 60.00 0.13
1209658 2026-04-15 21:43:39 2026-04-15 21:43:35 Stelmat001 012 T 131.60 3.10 177.80 3626.580 0.030 0.030 60.00 0.44
1209657 2026-04-15 21:43:38 2026-04-15 21:43:35 Stelmat001 011 S 131.30 2.16 196.10 5536.020 0.040 0.040 60.00 0.69
1209656 2026-04-15 21:43:38 2026-04-15 21:43:35 Stelmat001 010 R 131.60 1.47 156.30 4233.420 0.030 0.030 60.00 0.81
1209655 2026-04-15 21:42:30 2026-04-15 21:42:29 Stelmat002 102 S 131.45 1.08 0.04 25899.203 0.119 0.119 60.00 0.09
1209654 2026-04-15 21:42:27 2026-04-15 21:42:26 Stelmat002 101 R 131.38 1.27 0.03 27475.301 0.006 0.006 60.00 0.06
1209653 2026-04-15 21:38:49 2026-04-15 21:38:47 Stelmat001 025 T 131.70 0.31 8.40 965.210 0.000 0.000 60.00 0.21
1209652 2026-04-15 21:38:48 2026-04-15 21:38:47 Stelmat001 024 S 131.00 0.97 114.20 3433.910 0.020 0.020 59.90 0.90
1209651 2026-04-15 21:38:48 2026-04-15 21:38:47 Stelmat001 023 R 131.50 2.28 253.00 18127.340 0.030 0.030 60.00 0.84
1209650 2026-04-15 21:38:27 2026-04-15 21:38:22 Stelmat001 065 T 131.10 1.76 151.70 2181.010 0.020 0.020 59.90 0.66
1209649 2026-04-15 21:38:26 2026-04-15 21:38:22 Stelmat001 064 S 144.70 6.97 556.20 3376.910 0.090 0.090 60.00 0.55
1209648 2026-04-15 21:38:25 2026-04-15 21:38:22 Stelmat001 063 R 131.60 0.49 19.70 1810.860 0.000 0.000 59.90 0.31
1209647 2026-04-15 21:37:52 2026-04-15 21:37:47 Stelmat001 022 T 131.20 1.36 115.60 6401.960 0.020 0.020 60.00 0.65
1209646 2026-04-15 21:37:51 2026-04-15 21:37:47 Stelmat001 021 S 131.50 1.03 107.40 4713.960 0.020 0.020 60.00 0.79
1209645 2026-04-15 21:37:50 2026-04-15 21:37:47 Stelmat001 020 R 131.60 0.28 14.40 456.660 0.000 0.000 59.90 0.40
1209644 2026-04-15 21:35:58 2026-04-15 21:35:54 Stelmat001 018 T 144.70 0.56 71.80 12122.500 0.030 0.030 60.00 0.89
1209643 2026-04-15 21:35:58 2026-04-15 21:35:54 Stelmat001 062 T 131.10 1.54 109.30 4544.650 0.020 0.020 60.00 0.54
1209642 2026-04-15 21:35:58 2026-04-15 21:35:54 Stelmat001 017 S 131.70 0.66 74.10 7040.960 0.010 0.010 60.00 0.86
1209641 2026-04-15 21:35:58 2026-04-15 21:35:54 Stelmat001 061 S 131.60 4.89 620.60 8325.250 0.100 0.100 60.00 0.96
1209640 2026-04-15 21:35:57 2026-04-15 21:35:54 Stelmat001 016 R 131.10 0.66 15.00 16466.130 0.020 0.020 60.00 0.17
1209639 2026-04-15 21:35:57 2026-04-15 21:35:54 Stelmat001 060 R 131.60 0.57 11.40 467.530 0.000 0.000 60.00 0.15
1209638 2026-04-15 21:33:38 2026-04-15 21:33:33 Stelmat001 012 T 131.30 3.03 174.90 3626.550 0.030 0.030 60.00 0.44
1209637 2026-04-15 21:33:37 2026-04-15 21:33:33 Stelmat001 011 S 131.00 2.10 196.90 5535.980 0.030 0.030 59.90 0.72
1209636 2026-04-15 21:33:36 2026-04-15 21:33:33 Stelmat001 010 R 131.40 1.51 165.10 4233.390 0.030 0.030 60.00 0.83
1209635 2026-04-15 21:33:07 2026-04-15 21:33:02 Stelmat001 034 T 130.80 0.59 50.90 421.900 0.020 0.020 59.90 0.66
1209634 2026-04-15 21:33:06 2026-04-15 21:33:02 Stelmat001 033 S 131.10 0.41 20.20 558.920 0.000 0.000 59.90 0.38
1209633 2026-04-15 21:33:05 2026-04-15 21:33:02 Stelmat001 032 R 144.40 0.46 54.00 590.000 0.020 0.020 59.90 0.81
1209632 2026-04-15 21:32:28 2026-04-15 21:32:28 Stelmat002 102 S 131.35 6.49 1.99 25899.084 0.076 0.076 60.00 0.78
1209631 2026-04-15 21:32:26 2026-04-15 21:32:25 Stelmat002 101 R 131.30 1.33 0.03 27475.295 0.008 0.008 60.00 0.06
1209630 2026-04-15 21:28:49 2026-04-15 21:28:44 Stelmat001 025 T 131.40 0.31 8.40 965.210 0.000 0.000 60.00 0.21
1209629 2026-04-15 21:28:48 2026-04-15 21:28:44 Stelmat001 024 S 130.90 0.96 112.30 3433.890 0.020 0.020 59.90 0.89
1209628 2026-04-15 21:28:47 2026-04-15 21:28:44 Stelmat001 023 R 131.40 1.66 182.80 18127.310 0.030 0.030 59.90 0.84
1209627 2026-04-15 21:28:26 2026-04-15 21:28:24 Stelmat001 065 T 131.00 1.77 151.80 2180.990 0.030 0.030 60.00 0.66
1209626 2026-04-15 21:28:26 2026-04-15 21:28:24 Stelmat001 064 S 144.60 6.97 556.10 3376.820 0.090 0.090 60.00 0.55
1209625 2026-04-15 21:28:25 2026-04-15 21:28:24 Stelmat001 063 R 131.50 0.47 18.80 1810.860 0.010 0.010 60.00 0.30
1209624 2026-04-15 21:27:50 2026-04-15 21:27:45 Stelmat001 022 T 131.00 1.37 118.30 6401.940 0.020 0.020 60.00 0.66
1209623 2026-04-15 21:27:49 2026-04-15 21:27:45 Stelmat001 021 S 131.30 1.14 117.90 4713.940 0.020 0.020 60.00 0.79
1209622 2026-04-15 21:27:48 2026-04-15 21:27:45 Stelmat001 020 R 131.40 0.28 14.30 456.660 0.010 0.010 60.00 0.39
1209621 2026-04-15 21:25:58 2026-04-15 21:25:56 Stelmat001 062 T 131.00 1.60 109.50 4544.630 0.010 0.010 60.00 0.52
1209620 2026-04-15 21:25:58 2026-04-15 21:25:56 Stelmat001 018 T 144.50 0.58 74.40 12122.470 0.020 0.020 59.90 0.89
1209619 2026-04-15 21:25:57 2026-04-15 21:25:56 Stelmat001 017 S 131.50 0.65 73.90 7040.950 0.020 0.020 59.90 0.86
1209618 2026-04-15 21:25:57 2026-04-15 21:25:56 Stelmat001 061 S 131.50 4.90 620.70 8325.150 0.100 0.100 60.00 0.96
1209617 2026-04-15 21:25:57 2026-04-15 21:25:56 Stelmat001 016 R 131.00 0.66 12.10 16466.110 0.030 0.030 59.90 0.14
1209616 2026-04-15 21:25:57 2026-04-15 21:25:56 Stelmat001 060 R 131.50 0.57 11.20 467.530 0.000 0.000 59.90 0.15
1209615 2026-04-15 21:23:38 2026-04-15 21:23:35 Stelmat001 012 T 131.30 3.15 180.30 3626.520 0.030 0.030 60.00 0.44
1209614 2026-04-15 21:23:37 2026-04-15 21:23:35 Stelmat001 011 S 131.00 2.14 195.40 5535.950 0.030 0.030 60.00 0.70
1209613 2026-04-15 21:23:36 2026-04-15 21:23:35 Stelmat001 010 R 131.40 1.50 161.00 4233.360 0.020 0.020 60.00 0.82
1209612 2026-04-15 21:22:27 2026-04-15 21:22:26 Stelmat002 102 S 131.33 6.15 1.84 25899.008 0.174 0.174 60.00 0.76
1209611 2026-04-15 21:22:24 2026-04-15 21:22:23 Stelmat002 101 R 131.26 1.32 0.03 27475.287 0.004 0.004 60.00 0.06
1209610 2026-04-15 21:18:47 2026-04-15 21:18:42 Stelmat001 025 T 131.70 0.30 7.80 965.210 0.000 0.000 60.00 0.20
1209609 2026-04-15 21:18:46 2026-04-15 21:18:42 Stelmat001 024 S 131.10 0.96 113.60 3433.870 0.020 0.020 60.00 0.91
1209608 2026-04-15 21:18:45 2026-04-15 21:18:42 Stelmat001 023 R 131.60 2.40 240.10 18127.280 0.050 0.050 60.00 0.76
1209607 2026-04-15 21:18:26 2026-04-15 21:18:22 Stelmat001 065 T 131.00 1.79 151.80 2180.960 0.020 0.020 59.90 0.65
1209606 2026-04-15 21:18:26 2026-04-15 21:18:22 Stelmat001 064 S 144.70 6.98 559.10 3376.730 0.100 0.100 59.90 0.55
1209605 2026-04-15 21:18:25 2026-04-15 21:18:22 Stelmat001 063 R 131.50 0.48 19.50 1810.850 0.000 0.000 59.90 0.31
1209604 2026-04-15 21:17:50 2026-04-15 21:17:47 Stelmat001 022 T 131.20 1.39 123.10 6401.920 0.020 0.020 60.00 0.68
1209603 2026-04-15 21:17:49 2026-04-15 21:17:47 Stelmat001 021 S 131.50 1.17 123.20 4713.920 0.020 0.020 60.00 0.80
1209602 2026-04-15 21:17:48 2026-04-15 21:17:47 Stelmat001 020 R 131.50 0.28 14.20 456.650 0.000 0.000 60.00 0.38
1209601 2026-04-15 21:15:58 2026-04-15 21:15:53 Stelmat001 018 T 144.70 0.63 81.90 12122.450 0.020 0.020 60.00 0.90
1209600 2026-04-15 21:15:58 2026-04-15 21:15:53 Stelmat001 062 T 131.10 1.60 109.10 4544.620 0.020 0.020 60.00 0.52
1209599 2026-04-15 21:15:57 2026-04-15 21:15:53 Stelmat001 017 S 131.70 0.73 71.00 7040.930 0.010 0.010 60.00 0.74
1209598 2026-04-15 21:15:57 2026-04-15 21:15:53 Stelmat001 061 S 131.60 4.89 620.20 8325.050 0.110 0.110 60.00 0.96
1209597 2026-04-15 21:15:57 2026-04-15 21:15:53 Stelmat001 016 R 131.10 0.74 27.00 16466.080 0.000 0.000 60.00 0.28
1209596 2026-04-15 21:15:57 2026-04-15 21:15:53 Stelmat001 060 R 131.60 0.56 9.80 467.530 0.010 0.010 60.00 0.13
1209595 2026-04-15 21:13:37 2026-04-15 21:13:32 Stelmat001 012 T 131.70 3.14 181.30 3626.490 0.030 0.030 60.00 0.44
1209594 2026-04-15 21:13:37 2026-04-15 21:13:32 Stelmat001 011 S 131.30 2.14 195.70 5535.920 0.040 0.040 60.00 0.70
1209593 2026-04-15 21:13:36 2026-04-15 21:13:32 Stelmat001 010 R 131.80 1.52 164.40 4233.340 0.030 0.030 60.00 0.82
1209592 2026-04-15 21:13:07 2026-04-15 21:13:02 Stelmat001 034 T 131.10 0.60 50.60 421.880 0.020 0.020 60.00 0.65
1209591 2026-04-15 21:13:06 2026-04-15 21:13:02 Stelmat001 033 S 131.50 0.41 20.30 558.920 0.010 0.010 60.00 0.38
1209590 2026-04-15 21:13:05 2026-04-15 21:13:02 Stelmat001 032 R 144.90 0.47 53.70 589.980 0.020 0.020 59.90 0.79
1209589 2026-04-15 21:12:25 2026-04-15 21:12:24 Stelmat002 102 S 131.65 1.08 0.04 25898.834 0.182 0.182 60.01 0.09
1209588 2026-04-15 21:12:22 2026-04-15 21:12:22 Stelmat002 101 R 131.62 1.27 0.03 27475.283 0.008 0.008 60.01 0.06
1209587 2026-04-15 21:08:47 2026-04-15 21:08:44 Stelmat001 025 T 131.60 0.31 8.30 965.210 0.000 0.000 60.00 0.21
1209586 2026-04-15 21:08:46 2026-04-15 21:08:44 Stelmat001 024 S 131.10 0.97 113.00 3433.850 0.010 0.010 60.00 0.89
1209585 2026-04-15 21:08:45 2026-04-15 21:08:44 Stelmat001 023 R 131.60 2.37 262.40 18127.230 0.040 0.040 59.90 0.84
1209584 2026-04-15 21:08:31 2026-04-15 21:08:22 Stelmat001 065 T 131.00 1.75 152.10 2180.940 0.030 0.030 59.90 0.66
1209583 2026-04-15 21:08:30 2026-04-15 21:08:22 Stelmat001 064 S 144.60 6.97 556.80 3376.630 0.090 0.090 60.00 0.55
1209582 2026-04-15 21:08:25 2026-04-15 21:08:22 Stelmat001 063 R 131.60 0.47 19.10 1810.850 0.000 0.000 60.00 0.31
1209581 2026-04-15 21:07:49 2026-04-15 21:07:46 Stelmat001 022 T 131.20 0.48 44.10 6401.900 0.010 0.010 59.90 0.70
1209580 2026-04-15 21:07:49 2026-04-15 21:07:46 Stelmat001 021 S 131.40 1.07 111.60 4713.900 0.010 0.010 59.90 0.80
1209579 2026-04-15 21:07:48 2026-04-15 21:07:46 Stelmat001 020 R 131.50 0.27 14.40 456.650 0.000 0.000 59.90 0.40
1209578 2026-04-15 21:05:58 2026-04-15 21:05:56 Stelmat001 018 T 144.50 0.56 71.60 12122.430 0.020 0.020 59.90 0.89
1209577 2026-04-15 21:05:58 2026-04-15 21:05:56 Stelmat001 062 T 131.00 1.60 111.50 4544.600 0.020 0.020 59.90 0.53
1209576 2026-04-15 21:05:57 2026-04-15 21:05:56 Stelmat001 061 S 131.50 4.90 620.80 8324.940 0.100 0.100 59.90 0.96
1209575 2026-04-15 21:05:57 2026-04-15 21:05:56 Stelmat001 017 S 131.50 0.66 73.90 7040.920 0.020 0.020 59.90 0.86
1209574 2026-04-15 21:05:57 2026-04-15 21:05:56 Stelmat001 016 R 131.00 0.66 15.00 16466.080 0.030 0.030 59.90 0.17
1209573 2026-04-15 21:05:57 2026-04-15 21:05:56 Stelmat001 060 R 131.50 0.57 11.30 467.520 0.000 0.000 59.90 0.15
1209572 2026-04-15 21:03:37 2026-04-15 21:03:35 Stelmat001 012 T 131.50 3.05 172.50 3626.460 0.030 0.030 60.00 0.43
1209571 2026-04-15 21:03:37 2026-04-15 21:03:35 Stelmat001 011 S 131.20 2.15 202.30 5535.880 0.030 0.030 60.00 0.72
1209570 2026-04-15 21:03:36 2026-04-15 21:03:35 Stelmat001 010 R 131.50 1.55 166.60 4233.310 0.030 0.030 59.90 0.82
1209569 2026-04-15 21:02:24 2026-04-15 21:02:23 Stelmat002 102 S 131.57 5.35 1.48 25898.652 0.047 0.047 59.97 0.68
1209568 2026-04-15 21:02:21 2026-04-15 21:02:20 Stelmat002 101 R 131.52 1.29 0.03 27475.275 0.004 0.004 59.97 0.06
1209567 2026-04-15 20:58:46 2026-04-15 20:58:42 Stelmat001 025 T 131.90 0.31 8.40 965.210 0.000 0.000 60.00 0.21
1209566 2026-04-15 20:58:46 2026-04-15 20:58:42 Stelmat001 024 S 131.50 0.96 113.50 3433.840 0.020 0.020 60.00 0.90
1209565 2026-04-15 20:58:45 2026-04-15 20:58:42 Stelmat001 023 R 131.90 2.27 243.00 18127.190 0.020 0.020 60.00 0.81
1209564 2026-04-15 20:58:26 2026-04-15 20:58:24 Stelmat001 065 T 131.50 1.77 151.80 2180.910 0.020 0.020 60.00 0.65
1209563 2026-04-15 20:58:26 2026-04-15 20:58:24 Stelmat001 064 S 145.00 6.95 555.30 3376.540 0.090 0.090 60.00 0.55
1209562 2026-04-15 20:58:25 2026-04-15 20:58:24 Stelmat001 063 R 132.00 0.49 19.70 1810.850 0.030 0.030 60.00 0.31
1209561 2026-04-15 20:57:48 2026-04-15 20:57:44 Stelmat001 022 T 131.70 0.49 44.20 6401.890 0.010 0.010 60.00 0.68
1209560 2026-04-15 20:57:48 2026-04-15 20:57:44 Stelmat001 021 S 131.80 0.88 55.10 4713.890 0.010 0.010 60.00 0.47
1209559 2026-04-15 20:57:47 2026-04-15 20:57:44 Stelmat001 020 R 132.10 0.28 14.40 456.650 0.000 0.000 60.00 0.39
1209558 2026-04-15 20:55:58 2026-04-15 20:55:53 Stelmat001 062 T 131.70 1.62 110.80 4544.580 0.020 0.020 60.00 0.52
1209557 2026-04-15 20:55:58 2026-04-15 20:55:53 Stelmat001 018 T 145.10 0.58 75.30 12122.410 0.030 0.030 60.00 0.89
1209556 2026-04-15 20:55:57 2026-04-15 20:55:53 Stelmat001 061 S 132.20 4.87 620.60 8324.840 0.100 0.100 60.00 0.96
1209555 2026-04-15 20:55:57 2026-04-15 20:55:53 Stelmat001 017 S 132.30 0.66 74.90 7040.900 0.010 0.010 60.00 0.86
1209554 2026-04-15 20:55:57 2026-04-15 20:55:53 Stelmat001 060 R 132.00 0.57 10.70 467.520 0.000 0.000 60.00 0.14
1209553 2026-04-15 20:55:57 2026-04-15 20:55:53 Stelmat001 016 R 131.70 0.66 12.20 16466.050 0.020 0.020 60.00 0.14
1209552 2026-04-15 20:53:37 2026-04-15 20:53:32 Stelmat001 012 T 131.70 3.10 180.80 3626.430 0.030 0.030 60.00 0.44
1209551 2026-04-15 20:53:36 2026-04-15 20:53:32 Stelmat001 011 S 131.50 2.09 197.60 5535.850 0.030 0.030 60.00 0.72
1209550 2026-04-15 20:53:36 2026-04-15 20:53:32 Stelmat001 010 R 131.90 1.54 169.60 4233.280 0.020 0.020 60.00 0.83
1209549 2026-04-15 20:53:07 2026-04-15 20:53:02 Stelmat001 034 T 131.50 0.60 51.80 421.860 0.010 0.010 60.00 0.66
1209548 2026-04-15 20:53:06 2026-04-15 20:53:02 Stelmat001 033 S 131.60 0.42 20.60 558.910 0.000 0.000 60.00 0.37
1209547 2026-04-15 20:53:05 2026-04-15 20:53:02 Stelmat001 032 R 145.20 0.46 54.60 589.960 0.020 0.020 60.00 0.81
1209546 2026-04-15 20:52:22 2026-04-15 20:52:22 Stelmat002 102 S 131.79 5.15 1.42 25898.605 0.136 0.136 60.04 0.70
1209545 2026-04-15 20:52:19 2026-04-15 20:52:19 Stelmat002 101 R 131.75 1.31 0.03 27475.271 0.003 0.003 60.05 0.06
1209544 2026-04-15 20:48:44 2026-04-15 20:48:40 Stelmat001 025 T 131.70 0.31 6.90 965.210 0.010 0.010 60.00 0.17
1209543 2026-04-15 20:48:44 2026-04-15 20:48:40 Stelmat001 024 S 131.30 0.97 114.30 3433.820 0.020 0.020 60.00 0.89
1209542 2026-04-15 20:48:43 2026-04-15 20:48:40 Stelmat001 023 R 131.80 1.18 87.40 18127.170 0.020 0.020 60.00 0.56
1209541 2026-04-15 20:48:26 2026-04-15 20:48:21 Stelmat001 065 T 131.30 1.79 151.90 2180.890 0.030 0.030 59.90 0.65
1209540 2026-04-15 20:48:26 2026-04-15 20:48:21 Stelmat001 064 S 144.80 6.96 558.20 3376.450 0.100 0.100 60.00 0.55
1209539 2026-04-15 20:48:25 2026-04-15 20:48:21 Stelmat001 063 R 131.90 1.58 203.00 1810.820 0.030 0.030 59.90 0.97
1209538 2026-04-15 20:47:48 2026-04-15 20:47:46 Stelmat001 022 T 131.50 0.50 44.10 6401.880 0.010 0.010 60.00 0.68
1209537 2026-04-15 20:47:48 2026-04-15 20:47:46 Stelmat001 021 S 131.70 0.82 45.20 4713.880 0.010 0.010 60.00 0.42
1209536 2026-04-15 20:47:47 2026-04-15 20:47:46 Stelmat001 020 R 132.00 0.28 14.30 456.650 0.010 0.010 60.00 0.38
1209535 2026-04-15 20:45:58 2026-04-15 20:45:56 Stelmat001 018 T 145.10 0.58 75.20 12122.380 0.010 0.010 60.00 0.89
1209534 2026-04-15 20:45:58 2026-04-15 20:45:56 Stelmat001 062 T 131.60 1.63 112.70 4544.560 0.020 0.020 60.00 0.53
1209533 2026-04-15 20:45:57 2026-04-15 20:45:56 Stelmat001 017 S 132.30 0.66 74.80 7040.890 0.010 0.010 60.00 0.86
1209532 2026-04-15 20:45:57 2026-04-15 20:45:56 Stelmat001 061 S 132.20 4.87 620.10 8324.740 0.110 0.110 60.00 0.96
1209531 2026-04-15 20:45:57 2026-04-15 20:45:56 Stelmat001 060 R 132.00 0.57 10.80 467.520 0.000 0.000 60.00 0.14
1209530 2026-04-15 20:45:57 2026-04-15 20:45:56 Stelmat001 016 R 131.60 0.66 12.10 16466.030 0.000 0.000 60.00 0.14
1209529 2026-04-15 20:43:37 2026-04-15 20:43:35 Stelmat001 012 T 132.00 3.36 199.40 3626.400 0.030 0.030 60.00 0.45
1209528 2026-04-15 20:43:37 2026-04-15 20:43:35 Stelmat001 011 S 131.80 2.14 196.30 5535.820 0.040 0.040 60.00 0.70
1209527 2026-04-15 20:43:36 2026-04-15 20:43:35 Stelmat001 010 R 132.30 1.06 82.40 4233.260 0.010 0.010 60.00 0.59
1209526 2026-04-15 20:42:20 2026-04-15 20:42:20 Stelmat002 102 S 132.11 1.09 0.04 25898.469 0.192 0.192 59.99 0.09
1209525 2026-04-15 20:42:18 2026-04-15 20:42:17 Stelmat002 101 R 132.01 1.27 0.03 27475.268 0.008 0.008 59.98 0.06
1209524 2026-04-15 20:38:42 2026-04-15 20:38:38 Stelmat001 025 T 132.20 0.30 8.00 965.200 0.000 0.000 60.00 0.20
1209523 2026-04-15 20:38:41 2026-04-15 20:38:38 Stelmat001 024 S 131.90 0.98 116.50 3433.800 0.020 0.020 60.00 0.90
1209522 2026-04-15 20:38:41 2026-04-15 20:38:38 Stelmat001 023 R 132.40 1.78 171.40 18127.150 0.020 0.020 60.00 0.73
1209521 2026-04-15 20:38:26 2026-04-15 20:38:24 Stelmat001 065 T 131.90 1.74 151.70 2180.860 0.020 0.020 60.00 0.66
1209520 2026-04-15 20:38:25 2026-04-15 20:38:24 Stelmat001 064 S 145.30 6.92 556.50 3376.350 0.090 0.090 60.00 0.55
1209519 2026-04-15 20:38:25 2026-04-15 20:38:24 Stelmat001 063 R 132.50 1.59 205.30 1810.790 0.040 0.040 60.00 0.98
1209518 2026-04-15 20:37:48 2026-04-15 20:37:43 Stelmat001 022 T 132.00 0.49 44.60 6401.870 0.000 0.000 60.00 0.70
1209517 2026-04-15 20:37:47 2026-04-15 20:37:43 Stelmat001 021 S 132.00 0.86 94.00 4713.870 0.010 0.010 60.00 0.83
1209516 2026-04-15 20:37:47 2026-04-15 20:37:43 Stelmat001 020 R 132.50 0.27 14.30 456.640 0.000 0.000 60.00 0.40
1209515 2026-04-15 20:35:58 2026-04-15 20:35:53 Stelmat001 062 T 131.90 1.58 110.80 4544.540 0.020 0.020 60.00 0.53
1209514 2026-04-15 20:35:58 2026-04-15 20:35:53 Stelmat001 018 T 145.30 0.56 72.60 12122.370 0.030 0.030 60.00 0.89
1209513 2026-04-15 20:35:57 2026-04-15 20:35:53 Stelmat001 017 S 132.60 0.66 75.10 7040.880 0.020 0.020 60.00 0.86
1209512 2026-04-15 20:35:57 2026-04-15 20:35:53 Stelmat001 061 S 132.50 4.86 620.20 8324.630 0.100 0.100 60.00 0.96
1209511 2026-04-15 20:35:57 2026-04-15 20:35:53 Stelmat001 016 R 132.00 0.66 15.10 16466.030 0.020 0.020 60.00 0.17
1209510 2026-04-15 20:35:56 2026-04-15 20:35:53 Stelmat001 060 R 132.20 0.55 9.30 467.520 0.000 0.000 60.00 0.13
1209509 2026-04-15 20:33:37 2026-04-15 20:33:32 Stelmat001 012 T 132.20 3.06 175.40 3626.370 0.030 0.030 60.00 0.43
1209508 2026-04-15 20:33:36 2026-04-15 20:33:32 Stelmat001 011 S 132.20 2.16 204.00 5535.780 0.030 0.030 60.00 0.71
1209507 2026-04-15 20:33:36 2026-04-15 20:33:32 Stelmat001 010 R 132.60 1.28 113.50 4233.250 0.020 0.020 60.00 0.67
1209506 2026-04-15 20:33:07 2026-04-15 20:33:02 Stelmat001 034 T 132.00 0.63 52.70 421.850 0.020 0.020 60.00 0.63
1209505 2026-04-15 20:33:06 2026-04-15 20:33:02 Stelmat001 033 S 132.10 0.44 20.80 558.910 0.010 0.010 59.90 0.35
1209504 2026-04-15 20:33:05 2026-04-15 20:33:02 Stelmat001 032 R 145.80 0.50 55.20 589.940 0.020 0.020 59.90 0.76
1209503 2026-04-15 20:32:19 2026-04-15 20:32:18 Stelmat002 102 S 132.54 1.37 0.14 25898.277 0.082 0.082 60.00 0.27
1209502 2026-04-15 20:32:16 2026-04-15 20:32:15 Stelmat002 101 R 132.55 1.28 0.03 27475.260 0.004 0.004 60.00 0.06
1209501 2026-04-15 20:28:41 2026-04-15 20:28:36 Stelmat001 025 T 131.00 0.31 8.30 965.200 0.000 0.000 59.90 0.21
1209500 2026-04-15 20:28:40 2026-04-15 20:28:36 Stelmat001 024 S 130.60 0.95 111.50 3433.780 0.020 0.020 59.90 0.90
1209499 2026-04-15 20:28:39 2026-04-15 20:28:36 Stelmat001 023 R 131.10 1.54 123.80 18127.130 0.020 0.020 59.90 0.61
1209498 2026-04-15 20:28:26 2026-04-15 20:28:21 Stelmat001 065 T 130.70 1.77 151.70 2180.840 0.030 0.030 60.00 0.66
1209497 2026-04-15 20:28:25 2026-04-15 20:28:21 Stelmat001 064 S 144.10 6.98 554.10 3376.260 0.090 0.090 60.00 0.55
1209496 2026-04-15 20:28:25 2026-04-15 20:28:21 Stelmat001 063 R 131.30 1.57 201.10 1810.750 0.030 0.030 60.00 0.97
1209495 2026-04-15 20:27:48 2026-04-15 20:27:46 Stelmat001 022 T 130.80 0.49 44.00 6401.870 0.010 0.010 60.00 0.68
1209494 2026-04-15 20:27:47 2026-04-15 20:27:46 Stelmat001 021 S 130.90 0.80 46.00 4713.860 0.020 0.020 60.00 0.44
1209493 2026-04-15 20:27:47 2026-04-15 20:27:46 Stelmat001 020 R 131.30 0.27 14.30 456.640 0.000 0.000 60.00 0.40
1209492 2026-04-15 20:25:58 2026-04-15 20:25:56 Stelmat001 018 T 144.10 0.57 74.30 12122.340 0.030 0.030 60.00 0.90
1209491 2026-04-15 20:25:58 2026-04-15 20:25:56 Stelmat001 062 T 130.70 1.57 109.00 4544.520 0.020 0.020 60.00 0.53
1209490 2026-04-15 20:25:57 2026-04-15 20:25:56 Stelmat001 017 S 131.30 0.65 73.70 7040.860 0.010 0.010 60.00 0.86
1209489 2026-04-15 20:25:57 2026-04-15 20:25:56 Stelmat001 061 S 131.30 4.91 620.80 8324.530 0.110 0.110 60.00 0.96
1209488 2026-04-15 20:25:56 2026-04-15 20:25:56 Stelmat001 016 R 130.70 0.67 14.20 16466.010 0.030 0.030 60.00 0.16
1209487 2026-04-15 20:25:56 2026-04-15 20:25:56 Stelmat001 060 R 131.00 0.54 9.10 467.520 0.000 0.000 60.00 0.13
1209486 2026-04-15 20:23:37 2026-04-15 20:23:34 Stelmat001 012 T 130.90 3.12 178.00 3626.340 0.030 0.030 60.00 0.44
1209485 2026-04-15 20:23:36 2026-04-15 20:23:34 Stelmat001 011 S 130.70 2.11 197.20 5535.750 0.030 0.030 60.00 0.72
1209484 2026-04-15 20:23:35 2026-04-15 20:23:34 Stelmat001 010 R 131.20 0.97 69.80 4233.230 0.010 0.010 60.00 0.55
1209483 2026-04-15 20:22:17 2026-04-15 20:22:17 Stelmat002 102 S 131.01 5.14 1.41 25898.195 0.121 0.121 59.98 0.70
1209482 2026-04-15 20:22:15 2026-04-15 20:22:14 Stelmat002 101 R 130.95 1.30 0.03 27475.256 0.004 0.004 59.99 0.06
1209481 2026-04-15 20:18:41 2026-04-15 20:18:38 Stelmat001 025 T 131.00 0.31 6.90 965.200 0.000 0.000 60.00 0.17
1209480 2026-04-15 20:18:40 2026-04-15 20:18:38 Stelmat001 024 S 130.80 0.99 115.90 3433.760 0.020 0.020 60.00 0.89
1209479 2026-04-15 20:18:39 2026-04-15 20:18:38 Stelmat001 023 R 131.30 1.08 70.60 18127.110 0.020 0.020 60.00 0.50
1209478 2026-04-15 20:18:26 2026-04-15 20:18:24 Stelmat001 065 T 130.80 1.79 152.10 2180.810 0.030 0.030 60.00 0.65
1209477 2026-04-15 20:18:25 2026-04-15 20:18:24 Stelmat001 064 S 144.10 6.98 556.50 3376.170 0.090 0.090 59.90 0.55
1209476 2026-04-15 20:18:25 2026-04-15 20:18:24 Stelmat001 063 R 131.40 0.49 19.80 1810.720 0.000 0.000 60.00 0.31
1209475 2026-04-15 20:17:48 2026-04-15 20:17:43 Stelmat001 022 T 130.90 0.49 43.90 6401.860 0.010 0.010 60.00 0.68
1209474 2026-04-15 20:17:47 2026-04-15 20:17:43 Stelmat001 021 S 130.90 0.99 104.60 4713.840 0.020 0.020 59.90 0.81
1209473 2026-04-15 20:17:47 2026-04-15 20:17:43 Stelmat001 020 R 131.30 0.28 14.30 456.640 0.000 0.000 59.90 0.39
1209472 2026-04-15 20:15:58 2026-04-15 20:15:53 Stelmat001 018 T 144.00 0.58 74.00 12122.310 0.010 0.010 59.90 0.89
1209471 2026-04-15 20:15:58 2026-04-15 20:15:53 Stelmat001 062 T 130.70 1.61 110.90 4544.500 0.010 0.010 59.90 0.53
1209470 2026-04-15 20:15:57 2026-04-15 20:15:53 Stelmat001 017 S 131.30 0.65 73.70 7040.850 0.010 0.010 59.90 0.86
1209469 2026-04-15 20:15:57 2026-04-15 20:15:53 Stelmat001 061 S 131.30 4.90 620.10 8324.420 0.100 0.100 60.00 0.96
1209468 2026-04-15 20:15:56 2026-04-15 20:15:53 Stelmat001 016 R 130.70 0.66 12.00 16465.980 0.000 0.000 59.90 0.14
1209467 2026-04-15 20:15:56 2026-04-15 20:15:53 Stelmat001 060 R 131.00 0.58 11.40 467.520 0.000 0.000 60.00 0.15
1209466 2026-04-15 20:13:37 2026-04-15 20:13:32 Stelmat001 012 T 130.80 3.36 193.30 3626.310 0.030 0.030 59.90 0.44
1209465 2026-04-15 20:13:36 2026-04-15 20:13:32 Stelmat001 011 S 130.60 2.15 194.60 5535.720 0.040 0.040 60.00 0.69
1209464 2026-04-15 20:13:35 2026-04-15 20:13:32 Stelmat001 010 R 131.30 1.08 84.70 4233.220 0.010 0.010 59.90 0.60
1209463 2026-04-15 20:13:07 2026-04-15 20:13:02 Stelmat001 034 T 130.70 0.59 49.90 421.830 0.020 0.020 60.00 0.64
1209462 2026-04-15 20:13:06 2026-04-15 20:13:02 Stelmat001 033 S 130.80 0.40 20.00 558.900 0.010 0.010 60.00 0.38
1209461 2026-04-15 20:13:05 2026-04-15 20:13:02 Stelmat001 032 R 144.50 0.47 53.50 589.920 0.010 0.010 60.00 0.79
1209460 2026-04-15 20:12:16 2026-04-15 20:12:15 Stelmat002 102 S 131.10 1.08 0.04 25898.074 0.187 0.187 60.01 0.09
1209459 2026-04-15 20:12:13 2026-04-15 20:12:12 Stelmat002 101 R 131.04 1.26 0.03 27475.252 0.008 0.008 60.01 0.06
1209458 2026-04-15 20:08:41 2026-04-15 20:08:36 Stelmat001 025 T 130.90 0.30 7.90 965.200 0.000 0.000 60.00 0.20
1209457 2026-04-15 20:08:40 2026-04-15 20:08:36 Stelmat001 024 S 130.50 0.96 114.00 3433.740 0.020 0.020 60.00 0.91
1209456 2026-04-15 20:08:39 2026-04-15 20:08:36 Stelmat001 023 R 131.10 1.71 223.70 18127.090 0.040 0.040 59.90 1.00
1209455 2026-04-15 20:08:26 2026-04-15 20:08:23 Stelmat001 065 T 130.60 1.75 152.10 2180.780 0.020 0.020 60.00 0.66
1209454 2026-04-15 20:08:25 2026-04-15 20:08:23 Stelmat001 064 S 144.00 6.98 554.80 3376.080 0.100 0.100 59.90 0.55
1209453 2026-04-15 20:08:24 2026-04-15 20:08:23 Stelmat001 063 R 131.20 0.48 19.30 1810.720 0.010 0.010 59.90 0.31
1209452 2026-04-15 20:07:48 2026-04-15 20:07:46 Stelmat001 022 T 130.70 1.33 112.10 6401.850 0.020 0.020 60.00 0.64
1209451 2026-04-15 20:07:47 2026-04-15 20:07:46 Stelmat001 021 S 130.80 1.50 158.00 4713.820 0.010 0.010 59.90 0.81
1209450 2026-04-15 20:07:47 2026-04-15 20:07:46 Stelmat001 020 R 131.20 0.27 13.90 456.640 0.010 0.010 59.90 0.40
1209449 2026-04-15 20:05:58 2026-04-15 20:05:56 Stelmat001 018 T 143.80 6.06 509.00 12122.300 0.030 0.030 59.90 0.58
1209448 2026-04-15 20:05:58 2026-04-15 20:05:55 Stelmat001 062 T 130.60 1.65 115.40 4544.490 0.020 0.020 59.90 0.53
1209447 2026-04-15 20:05:57 2026-04-15 20:05:56 Stelmat001 017 S 131.10 6.11 129.10 7040.840 0.020 0.020 60.00 0.16
1209446 2026-04-15 20:05:57 2026-04-15 20:05:55 Stelmat001 061 S 131.10 4.92 621.50 8324.320 0.100 0.100 59.90 0.96
1209445 2026-04-15 20:05:57 2026-04-15 20:05:56 Stelmat001 016 R 130.60 6.13 611.10 16465.980 0.020 0.020 59.90 0.76
1209444 2026-04-15 20:05:56 2026-04-15 20:05:55 Stelmat001 060 R 131.00 0.58 11.20 467.520 0.010 0.010 59.90 0.15
1209443 2026-04-15 20:03:37 2026-04-15 20:03:34 Stelmat001 012 T 131.10 3.14 177.00 3626.280 0.030 0.030 59.90 0.43
1209442 2026-04-15 20:03:36 2026-04-15 20:03:34 Stelmat001 011 S 130.70 2.17 195.90 5535.680 0.030 0.030 59.90 0.69
1209441 2026-04-15 20:03:35 2026-04-15 20:03:34 Stelmat001 010 R 131.20 0.99 70.30 4233.210 0.010 0.010 59.90 0.54
1209440 2026-04-15 20:02:14 2026-04-15 20:02:14 Stelmat002 102 S 131.15 1.08 0.04 25897.887 0.112 0.112 60.00 0.09
1209439 2026-04-15 20:02:12 2026-04-15 20:02:11 Stelmat002 101 R 131.07 1.26 0.03 27475.244 0.351 0.351 60.01 0.06
1209438 2026-04-15 19:58:38 2026-04-15 19:58:35 Stelmat001 025 T 131.20 0.31 8.30 965.200 0.000 0.000 60.00 0.21
1209437 2026-04-15 19:58:38 2026-04-15 19:58:35 Stelmat001 024 S 130.80 0.95 112.20 3433.720 0.020 0.020 60.00 0.90
1209436 2026-04-15 19:58:37 2026-04-15 19:58:35 Stelmat001 023 R 131.40 2.24 284.20 18127.050 0.030 0.030 60.00 0.96
1209435 2026-04-15 19:58:25 2026-04-15 19:58:20 Stelmat001 065 T 130.80 1.77 151.90 2180.760 0.020 0.020 60.00 0.66
1209434 2026-04-15 19:58:24 2026-04-15 19:58:20 Stelmat001 064 S 144.30 6.97 554.20 3375.980 0.090 0.090 60.00 0.55
1209433 2026-04-15 19:58:23 2026-04-15 19:58:20 Stelmat001 063 R 131.40 0.49 19.60 1810.710 0.000 0.000 60.00 0.31
1209432 2026-04-15 19:57:48 2026-04-15 19:57:44 Stelmat001 022 T 131.00 1.35 113.70 6401.830 0.020 0.020 60.00 0.64
1209431 2026-04-15 19:57:47 2026-04-15 19:57:44 Stelmat001 021 S 131.10 0.76 42.10 4713.810 0.010 0.010 60.00 0.42
1209430 2026-04-15 19:57:46 2026-04-15 19:57:44 Stelmat001 020 R 131.40 0.28 14.40 456.630 0.000 0.000 60.00 0.39
1209429 2026-04-15 19:55:58 2026-04-15 19:55:53 Stelmat001 018 T 144.00 0.57 71.50 12122.270 0.020 0.020 60.00 0.87
1209428 2026-04-15 19:55:58 2026-04-15 19:55:53 Stelmat001 062 T 130.60 1.58 112.50 4544.470 0.020 0.020 60.00 0.55
1209427 2026-04-15 19:55:57 2026-04-15 19:55:53 Stelmat001 017 S 131.40 0.67 73.60 7040.820 0.010 0.010 60.00 0.84
1209426 2026-04-15 19:55:57 2026-04-15 19:55:53 Stelmat001 061 S 131.30 4.91 620.10 8324.220 0.110 0.110 60.00 0.96
1209425 2026-04-15 19:55:56 2026-04-15 19:55:53 Stelmat001 016 R 130.70 0.67 14.80 16465.960 0.020 0.020 60.00 0.17
1209424 2026-04-15 19:55:56 2026-04-15 19:55:53 Stelmat001 060 R 131.00 0.57 9.50 467.510 0.000 0.000 60.00 0.13
1209423 2026-04-15 19:53:36 2026-04-15 19:53:31 Stelmat001 012 T 130.90 3.11 169.50 3626.250 0.030 0.030 60.00 0.42
1209422 2026-04-15 19:53:36 2026-04-15 19:53:31 Stelmat001 011 S 130.80 2.17 201.60 5535.650 0.030 0.030 60.00 0.71
1209421 2026-04-15 19:53:35 2026-04-15 19:53:31 Stelmat001 010 R 131.20 1.05 70.10 4233.200 0.010 0.010 60.00 0.51
1209420 2026-04-15 19:53:07 2026-04-15 19:53:02 Stelmat001 034 T 130.60 0.63 51.60 421.810 0.020 0.020 59.90 0.62
1209419 2026-04-15 19:53:06 2026-04-15 19:53:02 Stelmat001 033 S 130.70 0.44 20.60 558.890 0.000 0.000 60.00 0.35
1209418 2026-04-15 19:53:05 2026-04-15 19:53:02 Stelmat001 032 R 144.30 0.49 54.20 589.910 0.020 0.020 59.90 0.76
1209417 2026-04-15 19:52:12 2026-04-15 19:52:12 Stelmat002 102 S 130.98 6.53 1.89 25897.775 0.080 0.080 60.01 0.74
1209416 2026-04-15 19:52:10 2026-04-15 19:52:09 Stelmat002 101 R 130.93 11.67 4.07 27474.893 0.686 0.686 60.01 0.89
1209415 2026-04-15 19:48:37 2026-04-15 19:48:34 Stelmat001 025 T 131.00 0.30 7.60 965.200 0.000 0.000 60.00 0.19
1209414 2026-04-15 19:48:36 2026-04-15 19:48:34 Stelmat001 024 S 130.70 0.97 114.30 3433.700 0.020 0.020 59.90 0.90
1209413 2026-04-15 19:48:36 2026-04-15 19:48:34 Stelmat001 023 R 131.20 1.25 97.40 18127.020 0.020 0.020 60.00 0.59
1209412 2026-04-15 19:48:25 2026-04-15 19:48:22 Stelmat001 065 T 130.70 1.77 151.80 2180.740 0.030 0.030 60.00 0.66
1209411 2026-04-15 19:48:24 2026-04-15 19:48:22 Stelmat001 064 S 144.10 6.99 555.80 3375.890 0.090 0.090 60.00 0.55
1209410 2026-04-15 19:48:23 2026-04-15 19:48:22 Stelmat001 063 R 131.30 0.48 19.20 1810.710 0.000 0.000 60.00 0.31
1209409 2026-04-15 19:47:47 2026-04-15 19:47:42 Stelmat001 022 T 130.80 1.34 114.90 6401.810 0.020 0.020 60.00 0.65
1209408 2026-04-15 19:47:46 2026-04-15 19:47:42 Stelmat001 021 S 130.90 0.73 40.60 4713.800 0.010 0.010 60.00 0.43
1209407 2026-04-15 19:47:45 2026-04-15 19:47:42 Stelmat001 020 R 131.30 0.27 14.30 456.630 0.000 0.000 60.00 0.40
1209406 2026-04-15 19:45:58 2026-04-15 19:45:56 Stelmat001 018 T 144.10 0.59 74.30 12122.250 0.030 0.030 60.00 0.88
1209405 2026-04-15 19:45:58 2026-04-15 19:45:55 Stelmat001 062 T 130.70 1.60 112.70 4544.450 0.020 0.020 60.00 0.54
1209404 2026-04-15 19:45:57 2026-04-15 19:45:56 Stelmat001 017 S 131.50 0.66 73.80 7040.810 0.020 0.020 60.00 0.85
1209403 2026-04-15 19:45:57 2026-04-15 19:45:55 Stelmat001 061 S 131.40 4.90 619.90 8324.110 0.100 0.100 60.00 0.96
1209402 2026-04-15 19:45:57 2026-04-15 19:45:56 Stelmat001 016 R 130.70 0.67 12.00 16465.940 0.020 0.020 60.00 0.14
1209401 2026-04-15 19:45:56 2026-04-15 19:45:55 Stelmat001 060 R 131.10 0.54 8.50 467.510 0.000 0.000 60.00 0.12
1209400 2026-04-15 19:43:37 2026-04-15 19:43:34 Stelmat001 012 T 131.00 3.11 175.90 3626.220 0.030 0.030 60.00 0.43
1209399 2026-04-15 19:43:36 2026-04-15 19:43:34 Stelmat001 011 S 130.80 2.12 198.00 5535.620 0.040 0.040 60.00 0.72
1209398 2026-04-15 19:43:35 2026-04-15 19:43:34 Stelmat001 010 R 131.30 0.99 70.20 4233.190 0.020 0.020 59.90 0.54
1209397 2026-04-15 19:42:10 2026-04-15 19:42:09 Stelmat002 102 S 130.97 6.07 1.67 25897.695 0.185 0.185 59.99 0.71
1209396 2026-04-15 19:42:07 2026-04-15 19:42:07 Stelmat002 101 R 130.89 11.79 4.11 27474.207 0.699 0.699 59.99 0.89
1209395 2026-04-15 19:38:36 2026-04-15 19:38:31 Stelmat001 025 T 131.00 0.31 6.90 965.200 0.010 0.010 60.00 0.17
1209394 2026-04-15 19:38:35 2026-04-15 19:38:31 Stelmat001 024 S 130.60 0.99 115.70 3433.680 0.020 0.020 60.00 0.89
1209393 2026-04-15 19:38:35 2026-04-15 19:38:31 Stelmat001 023 R 131.20 1.33 99.70 18127.000 0.010 0.010 60.00 0.57
1209392 2026-04-15 19:38:24 2026-04-15 19:38:21 Stelmat001 065 T 130.60 1.82 152.20 2180.710 0.030 0.030 60.00 0.64
1209391 2026-04-15 19:38:24 2026-04-15 19:38:21 Stelmat001 064 S 144.00 6.99 557.60 3375.800 0.090 0.090 60.00 0.55
1209390 2026-04-15 19:38:23 2026-04-15 19:38:21 Stelmat001 063 R 131.30 0.51 21.00 1810.710 0.000 0.000 60.00 0.32
1209389 2026-04-15 19:37:47 2026-04-15 19:37:44 Stelmat001 022 T 130.70 1.36 118.40 6401.790 0.020 0.020 59.90 0.67
1209388 2026-04-15 19:37:46 2026-04-15 19:37:44 Stelmat001 021 S 130.70 0.88 92.00 4713.790 0.010 0.010 60.00 0.80
1209387 2026-04-15 19:37:45 2026-04-15 19:37:44 Stelmat001 020 R 131.20 0.29 14.30 456.630 0.000 0.000 60.00 0.37
1209386 2026-04-15 19:35:58 2026-04-15 19:35:53 Stelmat001 018 T 143.90 6.25 505.90 12122.220 0.010 0.010 60.00 0.56
1209385 2026-04-15 19:35:57 2026-04-15 19:35:53 Stelmat001 062 T 130.60 1.73 117.70 4544.430 0.020 0.020 59.90 0.52
1209384 2026-04-15 19:35:57 2026-04-15 19:35:53 Stelmat001 017 S 131.30 6.27 140.50 7040.790 0.010 0.010 60.00 0.17
1209383 2026-04-15 19:35:57 2026-04-15 19:35:53 Stelmat001 061 S 131.30 4.91 619.60 8324.010 0.100 0.100 59.90 0.96
1209382 2026-04-15 19:35:56 2026-04-15 19:35:53 Stelmat001 016 R 130.60 6.23 610.90 16465.920 0.010 0.010 59.90 0.75
1209381 2026-04-15 19:35:56 2026-04-15 19:35:53 Stelmat001 060 R 131.00 0.74 14.30 467.510 0.000 0.000 60.00 0.15
1209380 2026-04-15 19:33:36 2026-04-15 19:33:33 Stelmat001 012 T 131.00 3.15 178.70 3626.190 0.030 0.030 60.00 0.43
1209379 2026-04-15 19:33:36 2026-04-15 19:33:33 Stelmat001 011 S 130.80 2.15 199.90 5535.580 0.030 0.030 60.00 0.71
1209378 2026-04-15 19:33:35 2026-04-15 19:33:33 Stelmat001 010 R 131.30 1.14 97.40 4233.170 0.010 0.010 60.00 0.65
1209377 2026-04-15 19:33:07 2026-04-15 19:33:02 Stelmat001 034 T 131.30 0.59 51.40 421.790 0.010 0.010 60.00 0.67
1209376 2026-04-15 19:33:06 2026-04-15 19:33:02 Stelmat001 033 S 131.60 0.41 20.30 558.890 0.010 0.010 60.00 0.38
1209375 2026-04-15 19:33:05 2026-04-15 19:33:02 Stelmat001 032 R 145.20 0.46 54.40 589.890 0.020 0.020 60.00 0.81
1209374 2026-04-15 19:32:07 2026-04-15 19:32:06 Stelmat002 102 S 131.78 1.18 0.04 25897.510 0.145 0.145 60.02 0.08
1209373 2026-04-15 19:32:04 2026-04-15 19:32:04 Stelmat002 101 R 131.73 12.38 4.42 27473.508 0.744 0.744 60.02 0.90
1209372 2026-04-15 19:28:36 2026-04-15 19:28:33 Stelmat001 025 T 132.20 0.30 7.60 965.190 0.000 0.000 60.00 0.19
1209371 2026-04-15 19:28:35 2026-04-15 19:28:33 Stelmat001 024 S 132.00 0.97 116.00 3433.660 0.020 0.020 60.00 0.90
1209370 2026-04-15 19:28:34 2026-04-15 19:28:33 Stelmat001 023 R 132.40 1.08 83.50 18126.990 0.020 0.020 60.00 0.58
1209369 2026-04-15 19:28:23 2026-04-15 19:28:19 Stelmat001 065 T 131.90 1.76 152.50 2180.680 0.020 0.020 60.00 0.66
1209368 2026-04-15 19:28:23 2026-04-15 19:28:19 Stelmat001 064 S 145.30 6.93 556.20 3375.710 0.100 0.100 60.00 0.55
1209367 2026-04-15 19:28:22 2026-04-15 19:28:19 Stelmat001 063 R 132.40 0.51 21.00 1810.710 0.010 0.010 60.00 0.31
1209366 2026-04-15 19:27:46 2026-04-15 19:27:43 Stelmat001 022 T 132.10 1.40 123.80 6401.770 0.020 0.020 60.00 0.67
1209365 2026-04-15 19:27:46 2026-04-15 19:27:43 Stelmat001 021 S 132.10 0.75 41.20 4713.780 0.010 0.010 60.00 0.42
1209364 2026-04-15 19:27:45 2026-04-15 19:27:43 Stelmat001 020 R 132.40 0.27 14.30 456.630 0.000 0.000 60.00 0.39
1209363 2026-04-15 19:25:58 2026-04-15 19:25:55 Stelmat001 018 T 145.30 0.58 72.80 12122.210 0.030 0.030 60.00 0.87
1209362 2026-04-15 19:25:57 2026-04-15 19:25:55 Stelmat001 062 T 131.90 1.64 114.90 4544.410 0.020 0.020 60.00 0.53
1209361 2026-04-15 19:25:57 2026-04-15 19:25:55 Stelmat001 017 S 132.50 0.67 74.90 7040.780 0.010 0.010 59.90 0.84
1209360 2026-04-15 19:25:57 2026-04-15 19:25:55 Stelmat001 061 S 132.40 4.87 620.10 8323.910 0.110 0.110 60.00 0.96
1209359 2026-04-15 19:25:56 2026-04-15 19:25:55 Stelmat001 016 R 132.00 0.67 15.10 16465.910 0.020 0.020 60.00 0.17
1209358 2026-04-15 19:25:56 2026-04-15 19:25:55 Stelmat001 060 R 132.20 0.74 17.60 467.510 0.000 0.000 60.00 0.18
1209357 2026-04-15 19:23:35 2026-04-15 19:23:30 Stelmat001 012 T 132.20 3.37 195.60 3626.160 0.040 0.040 60.00 0.44
1209356 2026-04-15 19:23:34 2026-04-15 19:23:30 Stelmat001 011 S 132.00 2.19 203.80 5535.550 0.030 0.030 60.00 0.71
1209355 2026-04-15 19:23:34 2026-04-15 19:23:30 Stelmat001 010 R 132.50 1.19 95.50 4233.160 0.020 0.020 60.00 0.61
1209354 2026-04-15 19:22:04 2026-04-15 19:22:03 Stelmat002 102 S 132.16 7.09 2.08 25897.365 0.043 0.043 60.00 0.73
1209353 2026-04-15 19:22:01 2026-04-15 19:22:01 Stelmat002 101 R 132.11 12.31 4.31 27472.764 0.731 0.731 60.00 0.88
1209352 2026-04-15 19:18:36 2026-04-15 19:18:31 Stelmat001 025 T 132.30 0.31 7.80 965.190 0.000 0.000 60.00 0.19
1209351 2026-04-15 19:18:35 2026-04-15 19:18:31 Stelmat001 024 S 132.20 0.96 114.10 3433.640 0.020 0.020 60.00 0.90
1209350 2026-04-15 19:18:34 2026-04-15 19:18:31 Stelmat001 023 R 132.60 1.52 143.60 18126.970 0.020 0.020 60.00 0.71
1209349 2026-04-15 19:18:23 2026-04-15 19:18:21 Stelmat001 065 T 132.10 1.76 152.40 2180.660 0.030 0.030 60.00 0.65
1209348 2026-04-15 19:18:23 2026-04-15 19:18:21 Stelmat001 064 S 145.40 6.92 556.50 3375.610 0.090 0.090 60.00 0.55
1209347 2026-04-15 19:18:22 2026-04-15 19:18:21 Stelmat001 063 R 132.60 0.47 19.00 1810.700 0.000 0.000 60.00 0.30
1209346 2026-04-15 19:17:45 2026-04-15 19:17:40 Stelmat001 022 T 132.10 0.48 44.30 6401.750 0.010 0.010 60.00 0.69
1209345 2026-04-15 19:17:45 2026-04-15 19:17:40 Stelmat001 021 S 132.00 0.80 45.50 4713.770 0.010 0.010 59.90 0.43
1209344 2026-04-15 19:17:44 2026-04-15 19:17:40 Stelmat001 020 R 132.50 0.27 14.10 456.630 0.010 0.010 59.90 0.39
1209343 2026-04-15 19:15:58 2026-04-15 19:15:53 Stelmat001 018 T 145.40 0.60 75.80 12122.180 0.020 0.020 60.00 0.87
1209342 2026-04-15 19:15:57 2026-04-15 19:15:52 Stelmat001 062 T 132.10 1.61 112.80 4544.390 0.020 0.020 60.00 0.53
1209341 2026-04-15 19:15:57 2026-04-15 19:15:53 Stelmat001 017 S 132.80 0.67 75.20 7040.770 0.020 0.020 59.90 0.85
1209340 2026-04-15 19:15:57 2026-04-15 19:15:52 Stelmat001 061 S 132.80 4.85 619.80 8323.800 0.100 0.100 60.00 0.96
1209339 2026-04-15 19:15:56 2026-04-15 19:15:53 Stelmat001 016 R 132.10 0.67 12.10 16465.890 0.020 0.020 60.00 0.14
1209338 2026-04-15 19:15:56 2026-04-15 19:15:52 Stelmat001 060 R 132.30 0.73 17.90 467.510 0.010 0.010 60.00 0.19
1209337 2026-04-15 19:13:35 2026-04-15 19:13:32 Stelmat001 012 T 132.30 3.36 201.90 3626.120 0.030 0.030 60.00 0.45
1209336 2026-04-15 19:13:34 2026-04-15 19:13:32 Stelmat001 011 S 132.20 2.12 199.60 5535.520 0.040 0.040 60.00 0.71
1209335 2026-04-15 19:13:34 2026-04-15 19:13:32 Stelmat001 010 R 132.60 1.52 167.00 4233.140 0.030 0.030 60.00 0.83
1209334 2026-04-15 19:13:07 2026-04-15 19:13:02 Stelmat001 034 T 132.20 0.59 52.40 421.780 0.020 0.020 60.00 0.67
1209333 2026-04-15 19:13:06 2026-04-15 19:13:02 Stelmat001 033 S 132.30 0.41 20.60 558.880 0.010 0.010 60.00 0.38
1209332 2026-04-15 19:13:05 2026-04-15 19:13:02 Stelmat001 032 R 145.90 0.47 55.00 589.870 0.020 0.020 60.00 0.81
1209331 2026-04-15 19:12:01 2026-04-15 19:12:01 Stelmat002 102 S 132.69 5.37 1.40 25897.322 0.142 0.142 60.06 0.66
1209330 2026-04-15 19:11:59 2026-04-15 19:11:58 Stelmat002 101 R 132.57 9.44 3.18 27472.033 0.437 0.437 60.05 0.85
1209329 2026-04-15 19:08:36 2026-04-15 19:08:33 Stelmat001 025 T 132.40 0.35 6.40 965.190 0.000 0.000 59.90 0.14
1209328 2026-04-15 19:08:35 2026-04-15 19:08:33 Stelmat001 024 S 132.10 1.04 119.60 3433.620 0.020 0.020 60.00 0.87
1209327 2026-04-15 19:08:34 2026-04-15 19:08:33 Stelmat001 023 R 132.50 1.06 75.00 18126.950 0.000 0.000 60.00 0.54
1209326 2026-04-15 19:08:23 2026-04-15 19:08:18 Stelmat001 065 T 132.00 1.91 151.90 2180.630 0.020 0.020 59.90 0.60
1209325 2026-04-15 19:08:23 2026-04-15 19:08:18 Stelmat001 064 S 145.40 6.93 558.80 3375.520 0.090 0.090 59.90 0.55
1209324 2026-04-15 19:08:22 2026-04-15 19:08:18 Stelmat001 063 R 132.60 0.49 20.10 1810.700 0.010 0.010 59.90 0.31
1209323 2026-04-15 19:07:45 2026-04-15 19:07:43 Stelmat001 022 T 132.10 0.55 44.20 6401.740 0.010 0.010 60.00 0.60
1209322 2026-04-15 19:07:45 2026-04-15 19:07:43 Stelmat001 021 S 132.10 0.99 101.30 4713.760 0.020 0.020 60.00 0.78
1209321 2026-04-15 19:07:44 2026-04-15 19:07:43 Stelmat001 020 R 132.50 0.31 14.30 456.620 0.000 0.000 59.90 0.35
1209320 2026-04-15 19:05:58 2026-04-15 19:05:55 Stelmat001 018 T 145.40 0.60 77.90 12122.160 0.020 0.020 59.90 0.90
1209319 2026-04-15 19:05:57 2026-04-15 19:05:55 Stelmat001 062 T 132.10 1.57 111.20 4544.370 0.020 0.020 60.00 0.54
1209318 2026-04-15 19:05:57 2026-04-15 19:05:55 Stelmat001 017 S 132.70 0.71 75.60 7040.750 0.010 0.010 59.90 0.81
1209317 2026-04-15 19:05:57 2026-04-15 19:05:55 Stelmat001 061 S 132.60 4.85 619.70 8323.700 0.100 0.100 59.90 0.96
1209316 2026-04-15 19:05:56 2026-04-15 19:05:55 Stelmat001 016 R 132.10 0.72 24.00 16465.870 0.000 0.000 59.90 0.25
1209315 2026-04-15 19:05:56 2026-04-15 19:05:55 Stelmat001 060 R 132.30 0.69 15.40 467.500 0.000 0.000 59.90 0.17
1209314 2026-04-15 19:03:35 2026-04-15 19:03:30 Stelmat001 012 T 132.20 3.42 202.80 3626.090 0.030 0.030 59.90 0.45
1209313 2026-04-15 19:03:34 2026-04-15 19:03:30 Stelmat001 011 S 132.20 2.16 203.20 5535.480 0.030 0.030 60.00 0.71
1209312 2026-04-15 19:03:33 2026-04-15 19:03:30 Stelmat001 010 R 132.60 1.39 143.40 4233.110 0.020 0.020 60.00 0.78
1209311 2026-04-15 19:01:59 2026-04-15 19:01:59 Stelmat002 102 S 132.53 1.09 0.04 25897.180 0.244 0.244 59.96 0.09
1209310 2026-04-15 19:01:57 2026-04-15 19:01:56 Stelmat002 101 R 132.45 1.30 0.08 27471.596 0.006 0.006 59.96 0.15
1209309 2026-04-15 18:58:36 2026-04-15 18:58:31 Stelmat001 025 T 132.50 0.30 8.40 965.190 0.000 0.000 60.00 0.21
1209308 2026-04-15 18:58:35 2026-04-15 18:58:31 Stelmat001 024 S 132.30 0.98 116.60 3433.600 0.010 0.010 60.00 0.90
1209307 2026-04-15 18:58:34 2026-04-15 18:58:31 Stelmat001 023 R 132.70 0.05 1.00 18126.950 0.000 0.000 60.00 0.16
1209306 2026-04-15 18:58:23 2026-04-15 18:58:21 Stelmat001 065 T 132.30 1.76 151.90 2180.610 0.030 0.030 59.90 0.65
1209305 2026-04-15 18:58:23 2026-04-15 18:58:21 Stelmat001 064 S 145.70 6.92 555.10 3375.430 0.100 0.100 60.00 0.55
1209304 2026-04-15 18:58:22 2026-04-15 18:58:21 Stelmat001 063 R 132.60 0.82 39.30 1810.690 0.000 0.000 59.90 0.36
1209303 2026-04-15 18:57:45 2026-04-15 18:57:40 Stelmat001 022 T 132.30 0.48 44.60 6401.730 0.000 0.000 60.00 0.71
1209302 2026-04-15 18:57:44 2026-04-15 18:57:40 Stelmat001 021 S 132.30 0.73 40.90 4713.740 0.010 0.010 60.00 0.42
1209301 2026-04-15 18:57:44 2026-04-15 18:57:40 Stelmat001 020 R 132.60 0.27 14.30 456.620 0.000 0.000 60.00 0.40
1209300 2026-04-15 18:55:58 2026-04-15 18:55:53 Stelmat001 018 T 145.60 0.57 73.00 12122.140 0.010 0.010 60.00 0.89
1209299 2026-04-15 18:55:57 2026-04-15 18:55:52 Stelmat001 062 T 132.10 1.60 112.60 4544.350 0.020 0.020 59.90 0.53
1209298 2026-04-15 18:55:57 2026-04-15 18:55:53 Stelmat001 017 S 132.60 0.66 75.20 7040.740 0.010 0.010 60.00 0.86
1209297 2026-04-15 18:55:57 2026-04-15 18:55:52 Stelmat001 061 S 132.60 4.86 619.70 8323.600 0.110 0.110 60.00 0.96
1209296 2026-04-15 18:55:56 2026-04-15 18:55:53 Stelmat001 016 R 132.20 0.66 15.00 16465.870 0.000 0.000 59.90 0.17
1209295 2026-04-15 18:55:56 2026-04-15 18:55:52 Stelmat001 060 R 132.40 1.24 38.00 467.500 0.010 0.010 60.00 0.23
1209294 2026-04-15 18:53:35 2026-04-15 18:53:32 Stelmat001 012 T 132.70 3.12 185.80 3626.060 0.040 0.040 60.00 0.45
1209293 2026-04-15 18:53:34 2026-04-15 18:53:32 Stelmat001 011 S 132.50 2.11 200.90 5535.450 0.040 0.040 60.00 0.72
1209292 2026-04-15 18:53:33 2026-04-15 18:53:32 Stelmat001 010 R 132.90 1.37 145.50 4233.090 0.030 0.030 60.00 0.80
1209291 2026-04-15 18:53:07 2026-04-15 18:53:02 Stelmat001 034 T 132.40 0.60 52.60 421.760 0.020 0.020 60.00 0.67
1209290 2026-04-15 18:53:06 2026-04-15 18:53:02 Stelmat001 033 S 132.50 0.41 20.60 558.870 0.010 0.010 60.00 0.37
1209289 2026-04-15 18:53:05 2026-04-15 18:53:02 Stelmat001 032 R 146.20 0.47 55.40 589.850 0.020 0.020 60.00 0.80
1209288 2026-04-15 18:51:57 2026-04-15 18:51:57 Stelmat002 102 S 132.82 6.62 2.06 25896.936 0.624 0.624 60.04 0.78
1209287 2026-04-15 18:51:55 2026-04-15 18:51:54 Stelmat002 101 R 132.74 1.35 0.03 27471.590 0.006 0.006 60.04 0.06
1209286 2026-04-15 18:48:36 2026-04-15 18:48:33 Stelmat001 025 T 132.50 0.29 7.80 965.190 0.000 0.000 60.00 0.20
1209285 2026-04-15 18:48:35 2026-04-15 18:48:33 Stelmat001 024 S 132.30 0.96 114.30 3433.590 0.020 0.020 60.00 0.90
1209284 2026-04-15 18:48:34 2026-04-15 18:48:33 Stelmat001 023 R 132.80 0.05 1.00 18126.950 0.010 0.010 60.00 0.17
1209283 2026-04-15 18:48:23 2026-04-15 18:48:19 Stelmat001 065 T 132.30 1.74 151.80 2180.580 0.020 0.020 60.00 0.66
1209282 2026-04-15 18:48:22 2026-04-15 18:48:19 Stelmat001 064 S 145.60 6.92 556.20 3375.330 0.090 0.090 60.00 0.55
1209281 2026-04-15 18:48:22 2026-04-15 18:48:19 Stelmat001 063 R 132.70 0.82 39.50 1810.690 0.020 0.020 60.00 0.36
1209280 2026-04-15 18:47:45 2026-04-15 18:47:43 Stelmat001 022 T 132.40 0.48 44.50 6401.730 0.010 0.010 60.00 0.70
1209279 2026-04-15 18:47:45 2026-04-15 18:47:43 Stelmat001 021 S 132.30 0.78 48.20 4713.730 0.010 0.010 60.00 0.47
1209278 2026-04-15 18:47:44 2026-04-15 18:47:43 Stelmat001 020 R 132.70 0.27 14.30 456.620 0.010 0.010 60.00 0.40
1209277 2026-04-15 18:45:58 2026-04-15 18:45:55 Stelmat001 018 T 145.70 0.57 73.20 12122.130 0.010 0.010 60.00 0.88
1209276 2026-04-15 18:45:57 2026-04-15 18:45:55 Stelmat001 062 T 132.40 1.57 111.30 4544.330 0.010 0.010 60.00 0.54
1209275 2026-04-15 18:45:57 2026-04-15 18:45:55 Stelmat001 017 S 132.80 0.67 75.50 7040.730 0.020 0.020 60.00 0.85
1209274 2026-04-15 18:45:57 2026-04-15 18:45:55 Stelmat001 061 S 132.80 4.85 620.00 8323.490 0.100 0.100 60.00 0.96
1209273 2026-04-15 18:45:56 2026-04-15 18:45:55 Stelmat001 016 R 132.40 0.67 15.10 16465.870 0.010 0.010 60.00 0.17
1209272 2026-04-15 18:45:56 2026-04-15 18:45:55 Stelmat001 060 R 132.50 1.22 36.60 467.490 0.010 0.010 60.00 0.23
1209271 2026-04-15 18:43:35 2026-04-15 18:43:29 Stelmat001 012 T 132.50 3.06 181.70 3626.020 0.030 0.030 60.00 0.45
1209270 2026-04-15 18:43:34 2026-04-15 18:43:29 Stelmat001 011 S 132.40 2.11 200.10 5535.410 0.030 0.030 60.00 0.72
1209269 2026-04-15 18:43:33 2026-04-15 18:43:29 Stelmat001 010 R 132.60 1.40 149.50 4233.060 0.020 0.020 60.00 0.80
1209268 2026-04-15 18:41:55 2026-04-15 18:41:55 Stelmat002 102 S 132.52 10.15 3.54 25896.312 0.460 0.460 59.97 0.88
1209267 2026-04-15 18:41:53 2026-04-15 18:41:52 Stelmat002 101 R 132.47 1.41 0.04 27471.584 0.004 0.004 59.97 0.07
1209266 2026-04-15 18:38:35 2026-04-15 18:38:31 Stelmat001 025 T 132.60 0.29 7.80 965.190 0.000 0.000 60.00 0.20
1209265 2026-04-15 18:38:35 2026-04-15 18:38:31 Stelmat001 024 S 132.30 0.96 114.70 3433.570 0.020 0.020 60.00 0.90
1209264 2026-04-15 18:38:34 2026-04-15 18:38:31 Stelmat001 023 R 132.60 1.50 140.40 18126.940 0.100 0.100 60.00 0.70
1209263 2026-04-15 18:38:24 2026-04-15 18:38:21 Stelmat001 065 T 132.30 1.72 150.40 2180.560 0.030 0.030 59.90 0.66
1209262 2026-04-15 18:38:22 2026-04-15 18:38:21 Stelmat001 064 S 145.80 6.92 556.50 3375.240 0.090 0.090 60.00 0.55
1209261 2026-04-15 18:38:22 2026-04-15 18:38:21 Stelmat001 063 R 132.60 2.11 118.10 1810.670 0.050 0.050 59.90 0.42
1209260 2026-04-15 18:37:45 2026-04-15 18:37:40 Stelmat001 022 T 132.40 0.47 44.20 6401.720 0.010 0.010 60.00 0.70
1209259 2026-04-15 18:37:44 2026-04-15 18:37:40 Stelmat001 021 S 132.20 0.80 54.70 4713.720 0.020 0.020 60.00 0.52
1209258 2026-04-15 18:37:44 2026-04-15 18:37:40 Stelmat001 020 R 132.50 0.27 14.30 456.610 0.000 0.000 59.90 0.40
1209257 2026-04-15 18:35:58 2026-04-15 18:35:53 Stelmat001 018 T 145.60 0.56 73.10 12122.120 0.010 0.010 60.00 0.89
1209256 2026-04-15 18:35:57 2026-04-15 18:35:53 Stelmat001 062 T 132.40 1.58 111.90 4544.320 0.020 0.020 60.00 0.54
1209255 2026-04-15 18:35:57 2026-04-15 18:35:53 Stelmat001 017 S 132.70 0.66 75.40 7040.710 0.010 0.010 59.90 0.86
1209254 2026-04-15 18:35:57 2026-04-15 18:35:53 Stelmat001 061 S 132.70 4.85 619.80 8323.390 0.100 0.100 60.00 0.96
1209253 2026-04-15 18:35:56 2026-04-15 18:35:53 Stelmat001 016 R 132.40 0.66 15.10 16465.860 0.000 0.000 60.00 0.17
1209252 2026-04-15 18:35:56 2026-04-15 18:35:53 Stelmat001 060 R 132.50 1.37 45.60 467.480 0.000 0.000 59.90 0.25
1209251 2026-04-15 18:33:35 2026-04-15 18:33:32 Stelmat001 012 T 132.40 3.14 189.30 3625.990 0.030 0.030 60.00 0.46
1209250 2026-04-15 18:33:34 2026-04-15 18:33:32 Stelmat001 011 S 132.50 2.12 200.50 5535.380 0.030 0.030 60.00 0.72
1209249 2026-04-15 18:33:33 2026-04-15 18:33:32 Stelmat001 010 R 132.70 1.41 152.10 4233.040 0.030 0.030 60.00 0.81
1209248 2026-04-15 18:33:07 2026-04-15 18:33:02 Stelmat001 034 T 132.30 0.59 52.20 421.740 0.020 0.020 60.00 0.67
1209247 2026-04-15 18:33:06 2026-04-15 18:33:02 Stelmat001 033 S 132.20 0.41 20.50 558.860 0.000 0.000 60.00 0.38
1209246 2026-04-15 18:33:05 2026-04-15 18:33:02 Stelmat001 032 R 145.80 0.47 55.10 589.830 0.010 0.010 60.00 0.81
1209245 2026-04-15 18:31:53 2026-04-15 18:31:53 Stelmat002 102 S 132.56 9.11 3.11 25895.852 0.569 0.569 60.00 0.86
1209244 2026-04-15 18:31:51 2026-04-15 18:31:50 Stelmat002 101 R 132.48 1.39 0.03 27471.580 0.006 0.006 59.99 0.06
1209243 2026-04-15 18:28:35 2026-04-15 18:28:33 Stelmat001 025 T 132.70 0.29 7.60 965.190 0.000 0.000 60.00 0.20
1209242 2026-04-15 18:28:35 2026-04-15 18:28:33 Stelmat001 024 S 132.20 1.31 154.90 3433.550 0.030 0.030 60.00 0.89
1209241 2026-04-15 18:28:34 2026-04-15 18:28:33 Stelmat001 023 R 132.40 15.43 2026.80 18126.840 0.340 0.340 60.00 0.99
1209240 2026-04-15 18:28:23 2026-04-15 18:28:18 Stelmat001 065 T 132.10 1.73 150.20 2180.530 0.020 0.020 60.00 0.66
1209239 2026-04-15 18:28:22 2026-04-15 18:28:18 Stelmat001 064 S 145.90 6.94 555.30 3375.150 0.100 0.100 60.00 0.55
1209238 2026-04-15 18:28:22 2026-04-15 18:28:18 Stelmat001 063 R 132.40 2.94 301.80 1810.620 0.050 0.050 59.90 0.78
1209237 2026-04-15 18:27:45 2026-04-15 18:27:43 Stelmat001 022 T 132.30 1.00 106.80 6401.710 0.030 0.030 60.00 0.81
1209236 2026-04-15 18:27:44 2026-04-15 18:27:43 Stelmat001 021 S 132.60 1.14 109.70 4713.700 0.020 0.020 60.00 0.73
1209235 2026-04-15 18:27:44 2026-04-15 18:27:43 Stelmat001 020 R 132.40 0.27 14.20 456.610 0.000 0.000 60.00 0.39
1209234 2026-04-15 18:25:58 2026-04-15 18:25:55 Stelmat001 018 T 145.90 0.57 73.30 12122.110 0.020 0.020 60.00 0.88
1209233 2026-04-15 18:25:57 2026-04-15 18:25:55 Stelmat001 062 T 132.20 1.62 113.60 4544.300 0.020 0.020 60.00 0.53
1209232 2026-04-15 18:25:57 2026-04-15 18:25:55 Stelmat001 017 S 132.50 0.67 75.40 7040.700 0.010 0.010 60.00 0.85
1209231 2026-04-15 18:25:57 2026-04-15 18:25:55 Stelmat001 061 S 132.50 4.86 619.70 8323.290 0.110 0.110 60.00 0.96
1209230 2026-04-15 18:25:56 2026-04-15 18:25:55 Stelmat001 016 R 132.20 0.67 15.20 16465.860 0.000 0.000 60.00 0.17
1209229 2026-04-15 18:25:56 2026-04-15 18:25:55 Stelmat001 060 R 132.70 1.21 36.00 467.480 0.010 0.010 60.00 0.22
1209228 2026-04-15 18:23:34 2026-04-15 18:23:29 Stelmat001 012 T 134.40 3.09 193.90 3625.960 0.030 0.030 60.00 0.47
1209227 2026-04-15 18:23:34 2026-04-15 18:23:29 Stelmat001 011 S 134.10 2.11 203.70 5535.350 0.040 0.040 60.00 0.72
1209226 2026-04-15 18:23:33 2026-04-15 18:23:29 Stelmat001 010 R 134.10 1.49 165.50 4233.010 0.030 0.030 60.00 0.83
1209225 2026-04-15 18:21:51 2026-04-15 18:21:50 Stelmat002 102 S 134.25 9.00 3.08 25895.283 0.295 0.295 60.04 0.85
1209224 2026-04-15 18:21:48 2026-04-15 18:21:48 Stelmat002 101 R 134.19 1.41 0.03 27471.574 0.006 0.006 60.04 0.06
1209223 2026-04-15 18:18:35 2026-04-15 18:18:31 Stelmat001 025 T 134.30 0.31 8.20 965.190 0.010 0.010 60.00 0.20
1209222 2026-04-15 18:18:35 2026-04-15 18:18:31 Stelmat001 024 S 133.80 1.34 159.30 3433.520 0.030 0.030 60.00 0.89
1209221 2026-04-15 18:18:34 2026-04-15 18:18:31 Stelmat001 023 R 133.90 15.29 2031.70 18126.500 0.340 0.340 60.00 0.99
1209220 2026-04-15 18:18:23 2026-04-15 18:18:21 Stelmat001 065 T 133.80 1.72 150.20 2180.510 0.030 0.030 60.00 0.65
1209219 2026-04-15 18:18:22 2026-04-15 18:18:21 Stelmat001 064 S 147.50 6.87 555.40 3375.050 0.090 0.090 59.90 0.55
1209218 2026-04-15 18:18:22 2026-04-15 18:18:21 Stelmat001 063 R 133.90 3.00 312.40 1810.570 0.050 0.050 60.00 0.78
1209217 2026-04-15 18:17:45 2026-04-15 18:17:40 Stelmat001 022 T 133.90 1.68 174.70 6401.680 0.030 0.030 60.00 0.78
1209216 2026-04-15 18:17:44 2026-04-15 18:17:40 Stelmat001 021 S 134.00 1.02 108.80 4713.680 0.010 0.010 60.00 0.79
1209215 2026-04-15 18:17:43 2026-04-15 18:17:40 Stelmat001 020 R 133.90 0.27 14.20 456.610 0.000 0.000 60.00 0.39
1209214 2026-04-15 18:15:57 2026-04-15 18:15:53 Stelmat001 018 T 147.50 0.57 74.90 12122.090 0.020 0.020 60.00 0.89
1209213 2026-04-15 18:15:57 2026-04-15 18:15:53 Stelmat001 062 T 133.80 1.56 109.80 4544.280 0.020 0.020 59.90 0.53
1209212 2026-04-15 18:15:57 2026-04-15 18:15:53 Stelmat001 017 S 134.00 0.67 77.10 7040.690 0.020 0.020 59.90 0.86
1209211 2026-04-15 18:15:56 2026-04-15 18:15:53 Stelmat001 061 S 133.90 4.81 619.40 8323.180 0.100 0.100 59.90 0.96
1209210 2026-04-15 18:15:56 2026-04-15 18:15:53 Stelmat001 016 R 133.80 0.68 16.70 16465.860 0.030 0.030 59.90 0.18
1209209 2026-04-15 18:15:56 2026-04-15 18:15:53 Stelmat001 060 R 134.30 1.23 38.10 467.470 0.010 0.010 60.00 0.23
1209208 2026-04-15 18:13:34 2026-04-15 18:13:32 Stelmat001 012 T 134.30 3.14 195.70 3625.930 0.030 0.030 60.00 0.46
1209207 2026-04-15 18:13:34 2026-04-15 18:13:32 Stelmat001 011 S 133.90 2.27 217.60 5535.310 0.040 0.040 60.00 0.72
1209206 2026-04-15 18:13:33 2026-04-15 18:13:32 Stelmat001 010 R 133.90 1.70 190.00 4232.980 0.010 0.010 59.90 0.83
1209205 2026-04-15 18:13:07 2026-04-15 18:13:02 Stelmat001 034 T 133.80 0.61 52.40 421.720 0.010 0.010 60.00 0.64
1209204 2026-04-15 18:13:06 2026-04-15 18:13:02 Stelmat001 033 S 134.10 0.41 20.70 558.860 0.020 0.020 60.00 0.37
1209203 2026-04-15 18:13:05 2026-04-15 18:13:02 Stelmat001 032 R 147.40 0.48 55.20 589.820 0.030 0.030 60.00 0.78
1209202 2026-04-15 18:11:49 2026-04-15 18:11:49 Stelmat002 102 S 134.23 1.11 0.04 25894.988 0.220 0.220 60.02 0.09
1209201 2026-04-15 18:11:46 2026-04-15 18:11:46 Stelmat002 101 R 134.13 1.29 0.03 27471.568 0.004 0.004 60.02 0.06
1209200 2026-04-15 18:08:35 2026-04-15 18:08:33 Stelmat001 025 T 134.20 0.29 7.80 965.180 0.000 0.000 60.00 0.20
1209199 2026-04-15 18:08:35 2026-04-15 18:08:33 Stelmat001 024 S 133.80 1.36 159.90 3433.490 0.020 0.020 60.00 0.88
1209198 2026-04-15 18:08:34 2026-04-15 18:08:33 Stelmat001 023 R 134.00 14.61 1945.80 18126.160 0.330 0.330 60.00 0.99
1209197 2026-04-15 18:08:23 2026-04-15 18:08:20 Stelmat001 065 T 133.70 1.74 151.90 2180.480 0.020 0.020 60.00 0.65
1209196 2026-04-15 18:08:22 2026-04-15 18:08:20 Stelmat001 064 S 147.50 6.86 555.40 3374.960 0.090 0.090 59.90 0.55
1209195 2026-04-15 18:08:21 2026-04-15 18:08:20 Stelmat001 063 R 133.90 3.44 341.50 1810.520 0.060 0.060 60.00 0.74
1209194 2026-04-15 18:07:45 2026-04-15 18:07:43 Stelmat001 022 T 133.80 1.68 175.20 6401.650 0.030 0.030 60.00 0.78
1209193 2026-04-15 18:07:44 2026-04-15 18:07:43 Stelmat001 021 S 134.00 0.87 54.30 4713.670 0.020 0.020 60.00 0.47
1209192 2026-04-15 18:07:43 2026-04-15 18:07:43 Stelmat001 020 R 134.00 0.27 14.20 456.610 0.000 0.000 59.90 0.40
1209191 2026-04-15 18:05:57 2026-04-15 18:05:55 Stelmat001 018 T 147.60 0.57 74.80 12122.070 0.060 0.060 60.00 0.89
1209190 2026-04-15 18:05:57 2026-04-15 18:05:55 Stelmat001 062 T 133.80 2.34 158.10 4544.260 0.030 0.030 60.00 0.50
1209189 2026-04-15 18:05:57 2026-04-15 18:05:55 Stelmat001 017 S 134.10 0.67 77.20 7040.670 0.020 0.020 60.00 0.86
1209188 2026-04-15 18:05:56 2026-04-15 18:05:55 Stelmat001 061 S 134.00 4.80 618.90 8323.080 0.110 0.110 60.00 0.96
1209187 2026-04-15 18:05:56 2026-04-15 18:05:55 Stelmat001 016 R 133.80 0.67 15.70 16465.830 0.050 0.050 60.00 0.17
1209186 2026-04-15 18:05:56 2026-04-15 18:05:55 Stelmat001 060 R 134.20 1.34 44.50 467.460 0.010 0.010 60.00 0.25
1209185 2026-04-15 18:03:34 2026-04-15 18:03:29 Stelmat001 012 T 134.00 3.05 184.60 3625.900 0.030 0.030 60.00 0.45
1209184 2026-04-15 18:03:33 2026-04-15 18:03:29 Stelmat001 011 S 133.70 2.25 220.70 5535.270 0.030 0.030 60.00 0.73
1209183 2026-04-15 18:03:33 2026-04-15 18:03:29 Stelmat001 010 R 133.70 1.26 97.90 4232.970 0.020 0.020 59.90 0.58
1209182 2026-04-15 18:01:48 2026-04-15 18:01:47 Stelmat002 102 S 133.88 1.43 0.14 25894.768 0.569 0.569 60.06 0.25
1209181 2026-04-15 18:01:45 2026-04-15 18:01:44 Stelmat002 101 R 133.84 1.29 0.03 27471.564 0.210 0.210 60.05 0.06
1209180 2026-04-15 17:58:35 2026-04-15 17:58:30 Stelmat001 025 T 133.90 0.30 8.60 965.180 0.010 0.010 60.00 0.21
1209179 2026-04-15 17:58:34 2026-04-15 17:58:30 Stelmat001 024 S 133.40 1.32 155.00 3433.470 0.050 0.050 60.00 0.88
1209178 2026-04-15 17:58:34 2026-04-15 17:58:30 Stelmat001 023 R 133.40 15.07 2003.60 18125.830 0.330 0.330 59.90 1.00
1209177 2026-04-15 17:58:22 2026-04-15 17:58:17 Stelmat001 065 T 133.30 1.78 155.90 2180.460 0.030 0.030 60.00 0.66
1209176 2026-04-15 17:58:21 2026-04-15 17:58:17 Stelmat001 064 S 147.20 6.88 554.80 3374.870 0.090 0.090 60.00 0.55
1209175 2026-04-15 17:58:20 2026-04-15 17:58:17 Stelmat001 063 R 133.50 3.44 338.50 1810.460 0.050 0.050 60.00 0.74
1209174 2026-04-15 17:57:45 2026-04-15 17:57:40 Stelmat001 022 T 133.40 1.77 190.00 6401.620 0.040 0.040 60.00 0.80
1209173 2026-04-15 17:57:44 2026-04-15 17:57:40 Stelmat001 021 S 133.60 1.59 168.10 4713.650 0.040 0.040 60.00 0.79
1209172 2026-04-15 17:57:43 2026-04-15 17:57:40 Stelmat001 020 R 133.30 0.29 15.00 456.610 0.010 0.010 60.00 0.39
1209171 2026-04-15 17:55:57 2026-04-15 17:55:53 Stelmat001 018 T 146.70 6.82 574.10 12122.010 0.110 0.110 59.90 0.57
1209170 2026-04-15 17:55:57 2026-04-15 17:55:52 Stelmat001 062 T 133.10 2.89 183.60 4544.230 0.030 0.030 59.90 0.48
1209169 2026-04-15 17:55:57 2026-04-15 17:55:53 Stelmat001 017 S 133.20 6.87 179.70 7040.650 0.040 0.040 60.00 0.20
1209168 2026-04-15 17:55:56 2026-04-15 17:55:52 Stelmat001 061 S 133.20 4.84 619.10 8322.970 0.100 0.100 60.00 0.96
1209167 2026-04-15 17:55:56 2026-04-15 17:55:53 Stelmat001 016 R 133.00 6.86 713.20 16465.780 0.150 0.150 60.00 0.78
1209166 2026-04-15 17:55:56 2026-04-15 17:55:52 Stelmat001 060 R 133.60 1.87 62.00 467.450 0.010 0.010 59.90 0.25
1209165 2026-04-15 17:53:32 2026-04-15 17:53:27 Stelmat001 012 T 133.30 3.18 169.10 3625.870 0.030 0.030 60.00 0.40
1209164 2026-04-15 17:53:31 2026-04-15 17:53:27 Stelmat001 011 S 133.00 2.61 247.30 5535.240 0.050 0.050 60.00 0.71
1209163 2026-04-15 17:53:30 2026-04-15 17:53:27 Stelmat001 010 R 133.00 1.41 108.70 4232.950 0.020 0.020 60.00 0.58
1209162 2026-04-15 17:53:07 2026-04-15 17:53:02 Stelmat001 034 T 132.80 2.28 6.10 421.710 0.020 0.020 59.90 0.02
1209161 2026-04-15 17:53:06 2026-04-15 17:53:02 Stelmat001 033 S 133.00 2.21 160.60 558.840 0.060 0.060 60.00 0.55
1209160 2026-04-15 17:53:06 2026-04-15 17:53:02 Stelmat001 032 R 146.20 1.22 72.70 589.790 0.030 0.030 59.90 0.41
1209159 2026-04-15 17:51:45 2026-04-15 17:51:44 Stelmat002 102 S 133.42 22.89 7.00 25894.199 1.336 1.336 60.03 0.76
1209158 2026-04-15 17:51:42 2026-04-15 17:51:42 Stelmat002 101 R 133.28 10.02 3.31 27471.354 0.569 0.569 60.03 0.83
1209157 2026-04-15 17:48:35 2026-04-15 17:48:33 Stelmat001 025 T 133.20 1.82 102.40 965.170 0.020 0.020 60.00 0.42
1209156 2026-04-15 17:48:34 2026-04-15 17:48:33 Stelmat001 024 S 132.80 3.32 333.50 3433.420 0.060 0.060 59.90 0.76
1209155 2026-04-15 17:48:34 2026-04-15 17:48:33 Stelmat001 023 R 133.00 14.73 1947.00 18125.500 0.340 0.340 59.90 0.99
1209154 2026-04-15 17:48:22 2026-04-15 17:48:19 Stelmat001 065 T 132.80 1.88 152.90 2180.430 0.020 0.020 60.00 0.61
1209153 2026-04-15 17:48:21 2026-04-15 17:48:19 Stelmat001 064 S 146.50 6.92 559.10 3374.780 0.100 0.100 60.00 0.55
1209152 2026-04-15 17:48:20 2026-04-15 17:48:19 Stelmat001 063 R 133.10 3.45 336.00 1810.410 0.060 0.060 60.00 0.73
1209151 2026-04-15 17:47:45 2026-04-15 17:47:42 Stelmat001 022 T 132.90 1.77 191.20 6401.580 0.030 0.030 59.90 0.81
1209150 2026-04-15 17:47:44 2026-04-15 17:47:42 Stelmat001 021 S 133.10 1.95 193.20 4713.610 0.020 0.020 60.00 0.75
1209149 2026-04-15 17:47:43 2026-04-15 17:47:42 Stelmat001 020 R 132.90 0.48 26.90 456.600 0.000 0.000 59.90 0.42
1209148 2026-04-15 17:45:57 2026-04-15 17:45:55 Stelmat001 018 T 146.40 7.59 628.80 12121.900 0.100 0.100 60.00 0.57
1209147 2026-04-15 17:45:57 2026-04-15 17:45:55 Stelmat001 062 T 132.90 2.93 197.20 4544.200 0.040 0.040 60.00 0.51
1209146 2026-04-15 17:45:57 2026-04-15 17:45:55 Stelmat001 017 S 133.00 7.62 223.00 7040.610 0.040 0.040 59.90 0.22
1209145 2026-04-15 17:45:56 2026-04-15 17:45:55 Stelmat001 061 S 133.00 4.85 619.50 8322.870 0.100 0.100 60.00 0.96
1209144 2026-04-15 17:45:56 2026-04-15 17:45:55 Stelmat001 016 R 132.80 7.62 803.80 16465.630 0.140 0.140 60.00 0.79
1209143 2026-04-15 17:45:56 2026-04-15 17:45:55 Stelmat001 060 R 133.40 1.59 45.70 467.440 0.010 0.010 60.00 0.22
1209142 2026-04-15 17:43:32 2026-04-15 17:43:29 Stelmat001 012 T 133.20 3.18 165.10 3625.840 0.030 0.030 59.90 0.39
1209141 2026-04-15 17:43:31 2026-04-15 17:43:29 Stelmat001 011 S 132.90 3.02 285.00 5535.190 0.040 0.040 60.00 0.71
1209140 2026-04-15 17:43:31 2026-04-15 17:43:29 Stelmat001 010 R 133.00 1.35 98.20 4232.930 0.030 0.030 60.00 0.55
1209139 2026-04-15 17:41:45 2026-04-15 17:41:44 Stelmat002 102 S 133.09 22.82 6.88 25892.863 1.394 1.394 60.02 0.75
1209138 2026-04-15 17:41:42 2026-04-15 17:41:41 Stelmat002 101 R 133.02 10.25 3.40 27470.785 0.541 0.541 60.02 0.83
1209137 2026-04-15 17:38:35 2026-04-15 17:38:31 Stelmat001 025 T 133.40 1.82 102.20 965.150 0.020 0.020 60.00 0.42
1209136 2026-04-15 17:38:34 2026-04-15 17:38:31 Stelmat001 024 S 132.80 3.31 332.30 3433.360 0.050 0.050 59.90 0.76
1209135 2026-04-15 17:38:34 2026-04-15 17:38:31 Stelmat001 023 R 133.00 15.38 2029.90 18125.160 0.330 0.330 60.00 0.99
1209134 2026-04-15 17:38:22 2026-04-15 17:38:17 Stelmat001 065 T 132.70 1.92 157.40 2180.410 0.030 0.030 59.90 0.62
1209133 2026-04-15 17:38:21 2026-04-15 17:38:17 Stelmat001 064 S 146.50 6.92 558.70 3374.680 0.090 0.090 59.90 0.55
1209132 2026-04-15 17:38:20 2026-04-15 17:38:17 Stelmat001 063 R 132.90 3.59 346.20 1810.350 0.060 0.060 60.00 0.73
1209131 2026-04-15 17:37:45 2026-04-15 17:37:41 Stelmat001 022 T 133.00 0.95 93.90 6401.550 0.020 0.020 60.00 0.74
1209130 2026-04-15 17:37:44 2026-04-15 17:37:41 Stelmat001 021 S 133.20 1.89 148.60 4713.590 0.040 0.040 60.00 0.59
1209129 2026-04-15 17:37:43 2026-04-15 17:37:41 Stelmat001 020 R 133.00 0.64 61.90 456.600 0.010 0.010 60.00 0.73
1209128 2026-04-15 17:35:57 2026-04-15 17:35:52 Stelmat001 018 T 146.20 9.85 800.90 12121.800 0.130 0.130 60.00 0.56
1209127 2026-04-15 17:35:57 2026-04-15 17:35:52 Stelmat001 062 T 132.70 3.16 211.50 4544.160 0.030 0.030 60.00 0.50
1209126 2026-04-15 17:35:56 2026-04-15 17:35:52 Stelmat001 017 S 132.80 9.85 384.00 7040.570 0.060 0.060 60.00 0.29
1209125 2026-04-15 17:35:56 2026-04-15 17:35:52 Stelmat001 061 S 132.90 4.86 619.70 8322.770 0.110 0.110 60.00 0.96
1209124 2026-04-15 17:35:56 2026-04-15 17:35:52 Stelmat001 016 R 132.50 9.90 1121.10 16465.490 0.170 0.170 60.00 0.86
1209123 2026-04-15 17:35:56 2026-04-15 17:35:52 Stelmat001 060 R 133.20 1.43 39.30 467.430 0.010 0.010 60.00 0.21
1209122 2026-04-15 17:33:32 2026-04-15 17:33:28 Stelmat001 012 T 133.10 3.81 209.50 3625.810 0.040 0.040 60.00 0.41
1209121 2026-04-15 17:33:31 2026-04-15 17:33:28 Stelmat001 011 S 132.80 3.49 321.00 5535.150 0.060 0.060 60.00 0.69
1209120 2026-04-15 17:33:30 2026-04-15 17:33:28 Stelmat001 010 R 133.00 2.19 215.10 4232.900 0.040 0.040 60.00 0.74
1209119 2026-04-15 17:33:07 2026-04-15 17:33:02 Stelmat001 034 T 132.60 3.25 50.90 421.690 0.020 0.020 60.00 0.12
1209118 2026-04-15 17:33:06 2026-04-15 17:33:02 Stelmat001 033 S 132.80 2.88 199.80 558.780 0.060 0.060 60.00 0.52
1209117 2026-04-15 17:33:05 2026-04-15 17:33:02 Stelmat001 032 R 146.00 1.93 110.90 589.760 0.050 0.050 60.00 0.39
1209116 2026-04-15 17:31:44 2026-04-15 17:31:44 Stelmat002 102 S 132.91 29.41 9.19 25891.469 1.598 1.598 60.00 0.78
1209115 2026-04-15 17:31:42 2026-04-15 17:31:41 Stelmat002 101 R 132.82 11.08 3.68 27470.244 0.961 0.961 60.00 0.84
1209114 2026-04-15 17:28:33 2026-04-15 17:28:28 Stelmat001 025 T 133.20 1.83 102.40 965.130 0.010 0.010 60.00 0.42
1209113 2026-04-15 17:28:32 2026-04-15 17:28:28 Stelmat001 024 S 132.50 3.47 346.00 3433.310 0.060 0.060 60.00 0.75
1209112 2026-04-15 17:28:31 2026-04-15 17:28:28 Stelmat001 023 R 132.80 15.40 2029.70 18124.830 0.350 0.350 60.00 0.99
1209111 2026-04-15 17:28:22 2026-04-15 17:28:19 Stelmat001 065 T 132.40 1.81 150.90 2180.380 0.030 0.030 60.00 0.63
1209110 2026-04-15 17:28:21 2026-04-15 17:28:19 Stelmat001 064 S 146.30 6.92 558.50 3374.590 0.090 0.090 60.00 0.55
1209109 2026-04-15 17:28:20 2026-04-15 17:28:19 Stelmat001 063 R 132.70 3.59 346.20 1810.290 0.060 0.060 60.00 0.73
1209108 2026-04-15 17:27:43 2026-04-15 17:27:39 Stelmat001 022 T 132.60 1.24 137.60 6401.530 0.020 0.020 60.00 0.84
1209107 2026-04-15 17:27:43 2026-04-15 17:27:39 Stelmat001 021 S 132.80 2.37 213.10 4713.550 0.030 0.030 60.00 0.68
1209106 2026-04-15 17:27:42 2026-04-15 17:27:39 Stelmat001 020 R 132.70 0.59 55.20 456.590 0.020 0.020 60.00 0.71
1209105 2026-04-15 17:25:57 2026-04-15 17:25:55 Stelmat001 018 T 145.90 9.83 797.40 12121.670 0.160 0.160 59.90 0.56
1209104 2026-04-15 17:25:57 2026-04-15 17:25:55 Stelmat001 062 T 132.30 2.91 202.20 4544.130 0.040 0.040 59.90 0.52
1209103 2026-04-15 17:25:57 2026-04-15 17:25:55 Stelmat001 017 S 132.50 9.83 374.00 7040.510 0.080 0.080 60.00 0.29
1209102 2026-04-15 17:25:56 2026-04-15 17:25:55 Stelmat001 061 S 132.60 5.30 666.40 8322.660 0.110 0.110 59.90 0.95
1209101 2026-04-15 17:25:56 2026-04-15 17:25:55 Stelmat001 016 R 132.20 9.87 1110.60 16465.320 0.220 0.220 59.90 0.85
1209100 2026-04-15 17:25:56 2026-04-15 17:25:55 Stelmat001 060 R 132.90 2.09 68.10 467.420 0.010 0.010 60.00 0.24
1209099 2026-04-15 17:23:31 2026-04-15 17:23:27 Stelmat001 012 T 132.80 5.99 282.40 3625.770 0.050 0.050 60.00 0.36
1209098 2026-04-15 17:23:30 2026-04-15 17:23:27 Stelmat001 011 S 132.40 4.53 401.00 5535.090 0.070 0.070 60.00 0.67
1209097 2026-04-15 17:23:29 2026-04-15 17:23:27 Stelmat001 010 R 132.50 2.59 259.80 4232.860 0.050 0.050 60.00 0.76
1209096 2026-04-15 17:21:43 2026-04-15 17:21:42 Stelmat002 102 S 132.35 35.92 12.71 25889.871 1.818 1.818 60.01 0.89
1209095 2026-04-15 17:21:40 2026-04-15 17:21:39 Stelmat002 101 R 132.29 17.57 6.30 27469.283 0.978 0.978 60.01 0.90
1209094 2026-04-15 17:18:33 2026-04-15 17:18:30 Stelmat001 025 T 132.70 1.83 102.80 965.120 0.020 0.020 60.00 0.42
1209093 2026-04-15 17:18:32 2026-04-15 17:18:30 Stelmat001 024 S 132.10 3.68 360.10 3433.250 0.060 0.060 59.90 0.74
1209092 2026-04-15 17:18:31 2026-04-15 17:18:30 Stelmat001 023 R 132.20 17.05 2238.00 18124.480 0.370 0.370 60.00 0.99
1209091 2026-04-15 17:18:22 2026-04-15 17:18:17 Stelmat001 065 T 132.20 1.86 153.00 2180.350 0.020 0.020 60.00 0.62
1209090 2026-04-15 17:18:21 2026-04-15 17:18:17 Stelmat001 064 S 145.90 6.94 558.30 3374.500 0.100 0.100 60.00 0.55
1209089 2026-04-15 17:18:20 2026-04-15 17:18:17 Stelmat001 063 R 132.30 3.61 344.10 1810.230 0.050 0.050 60.00 0.72
1209088 2026-04-15 17:17:43 2026-04-15 17:17:41 Stelmat001 022 T 132.30 1.59 164.50 6401.510 0.030 0.030 60.00 0.78
1209087 2026-04-15 17:17:43 2026-04-15 17:17:41 Stelmat001 021 S 132.60 2.41 218.30 4713.520 0.060 0.060 60.00 0.68
1209086 2026-04-15 17:17:42 2026-04-15 17:17:41 Stelmat001 020 R 132.30 1.13 101.90 456.570 0.020 0.020 59.90 0.68
1209085 2026-04-15 17:15:57 2026-04-15 17:15:52 Stelmat001 018 T 145.60 10.66 858.20 12121.510 0.140 0.140 60.00 0.55
1209084 2026-04-15 17:15:57 2026-04-15 17:15:52 Stelmat001 062 T 132.30 3.65 253.90 4544.090 0.040 0.040 59.90 0.53
1209083 2026-04-15 17:15:56 2026-04-15 17:15:52 Stelmat001 017 S 132.20 10.64 430.30 7040.430 0.070 0.070 59.90 0.31
1209082 2026-04-15 17:15:56 2026-04-15 17:15:52 Stelmat001 061 S 132.40 5.30 665.10 8322.550 0.120 0.120 60.00 0.95
1209081 2026-04-15 17:15:56 2026-04-15 17:15:52 Stelmat001 016 R 132.10 10.69 1224.90 16465.100 0.210 0.210 60.00 0.87
1209080 2026-04-15 17:15:55 2026-04-15 17:15:52 Stelmat001 060 R 132.80 1.97 62.70 467.410 0.010 0.010 60.00 0.24
1209079 2026-04-15 17:13:29 2026-04-15 17:13:24 Stelmat001 012 T 132.80 6.85 329.30 3625.720 0.060 0.060 59.90 0.36
1209078 2026-04-15 17:13:29 2026-04-15 17:13:24 Stelmat001 011 S 132.40 4.28 378.20 5535.020 0.070 0.070 59.90 0.67
1209077 2026-04-15 17:13:28 2026-04-15 17:13:24 Stelmat001 010 R 132.40 3.18 334.90 4232.810 0.040 0.040 60.00 0.80
1209076 2026-04-15 17:13:07 2026-04-15 17:13:02 Stelmat001 034 T 132.00 3.16 81.60 421.670 0.030 0.030 59.90 0.20
1209075 2026-04-15 17:13:06 2026-04-15 17:13:02 Stelmat001 033 S 132.30 2.65 189.90 558.720 0.070 0.070 60.00 0.54
1209074 2026-04-15 17:13:05 2026-04-15 17:13:02 Stelmat001 032 R 145.20 2.17 122.30 589.710 0.040 0.040 59.90 0.39
1209073 2026-04-15 17:11:53 2026-04-15 17:11:49 Stelmat002 102 S 132.38 29.57 9.26 25888.053 1.905 1.905 59.98 0.79
1209072 2026-04-15 17:11:46 2026-04-15 17:11:39 Stelmat002 101 R 132.27 16.93 6.09 27468.305 0.914 0.914 59.97 0.91
1209071 2026-04-15 17:08:33 2026-04-15 17:08:28 Stelmat001 025 T 132.40 1.84 102.70 965.100 0.030 0.030 60.00 0.42
1209070 2026-04-15 17:08:32 2026-04-15 17:08:28 Stelmat001 024 S 131.80 3.56 344.20 3433.190 0.060 0.060 60.00 0.73
1209069 2026-04-15 17:08:31 2026-04-15 17:08:28 Stelmat001 023 R 131.90 17.29 2245.50 18124.110 0.390 0.390 59.90 0.98
1209068 2026-04-15 17:08:22 2026-04-15 17:08:19 Stelmat001 065 T 131.90 1.84 150.80 2180.330 0.030 0.030 59.90 0.62
1209067 2026-04-15 17:08:21 2026-04-15 17:08:19 Stelmat001 064 S 145.60 6.96 558.00 3374.400 0.090 0.090 59.90 0.55
1209066 2026-04-15 17:08:20 2026-04-15 17:08:19 Stelmat001 063 R 132.00 3.60 343.30 1810.180 0.040 0.040 59.90 0.72
1209065 2026-04-15 17:07:43 2026-04-15 17:07:39 Stelmat001 022 T 132.00 1.32 136.30 6401.480 0.040 0.040 59.90 0.78
1209064 2026-04-15 17:07:43 2026-04-15 17:07:39 Stelmat001 021 S 132.30 3.76 369.80 4713.460 0.090 0.090 60.00 0.74
1209063 2026-04-15 17:07:42 2026-04-15 17:07:39 Stelmat001 020 R 132.00 2.06 181.50 456.550 0.040 0.040 60.00 0.67
1209062 2026-04-15 17:05:57 2026-04-15 17:05:55 Stelmat001 018 T 145.00 11.59 925.50 12121.370 0.150 0.150 60.00 0.55
1209061 2026-04-15 17:05:57 2026-04-15 17:05:54 Stelmat001 062 T 131.60 3.07 211.80 4544.050 0.030 0.030 60.00 0.52
1209060 2026-04-15 17:05:56 2026-04-15 17:05:55 Stelmat001 017 S 131.60 11.59 498.40 7040.360 0.080 0.080 59.90 0.33
1209059 2026-04-15 17:05:56 2026-04-15 17:05:54 Stelmat001 061 S 131.80 5.89 727.70 8322.430 0.110 0.110 60.00 0.94
1209058 2026-04-15 17:05:56 2026-04-15 17:05:55 Stelmat001 016 R 131.50 11.64 1354.70 16464.890 0.220 0.220 60.00 0.89
1209057 2026-04-15 17:05:55 2026-04-15 17:05:54 Stelmat001 060 R 132.20 1.92 58.50 467.400 0.010 0.010 59.90 0.23
1209056 2026-04-15 17:03:29 2026-04-15 17:03:27 Stelmat001 012 T 132.00 6.68 314.00 3625.660 0.050 0.050 60.00 0.36
1209055 2026-04-15 17:03:29 2026-04-15 17:03:27 Stelmat001 011 S 131.60 5.12 444.30 5534.950 0.070 0.070 59.90 0.66
1209054 2026-04-15 17:03:28 2026-04-15 17:03:27 Stelmat001 010 R 131.70 2.19 196.80 4232.770 0.030 0.030 60.00 0.68
1209053 2026-04-15 17:01:41 2026-04-15 17:01:40 Stelmat002 102 S 131.78 32.77 11.00 25886.148 2.027 2.027 60.01 0.85
1209052 2026-04-15 17:01:38 2026-04-15 17:01:38 Stelmat002 101 R 131.61 17.96 6.44 27467.391 1.082 1.082 60.01 0.91
1209051 2026-04-15 16:58:30 2026-04-15 16:58:26 Stelmat001 025 T 133.20 2.90 168.80 965.070 0.030 0.030 60.00 0.44
1209050 2026-04-15 16:58:30 2026-04-15 16:58:26 Stelmat001 024 S 132.70 4.05 381.50 3433.130 0.070 0.070 60.00 0.71
1209049 2026-04-15 16:58:29 2026-04-15 16:58:26 Stelmat001 023 R 132.80 17.88 2327.80 18123.720 0.390 0.390 60.00 0.98
1209048 2026-04-15 16:58:22 2026-04-15 16:58:17 Stelmat001 065 T 132.60 2.22 223.40 2180.300 0.040 0.040 60.00 0.76
1209047 2026-04-15 16:58:21 2026-04-15 16:58:17 Stelmat001 064 S 146.40 6.92 558.70 3374.310 0.090 0.090 60.00 0.55
1209046 2026-04-15 16:58:20 2026-04-15 16:58:17 Stelmat001 063 R 132.80 2.79 158.60 1810.140 0.030 0.030 60.00 0.43
1209045 2026-04-15 16:57:41 2026-04-15 16:57:37 Stelmat001 022 T 132.60 2.29 259.40 6401.440 0.050 0.050 60.00 0.85
1209044 2026-04-15 16:57:40 2026-04-15 16:57:37 Stelmat001 021 S 132.80 5.70 593.40 4713.370 0.100 0.100 60.00 0.78
1209043 2026-04-15 16:57:40 2026-04-15 16:57:37 Stelmat001 020 R 132.60 4.05 416.00 456.510 0.060 0.060 60.00 0.77
1209042 2026-04-15 16:55:57 2026-04-15 16:55:52 Stelmat001 018 T 145.70 12.31 983.90 12121.220 0.170 0.170 60.00 0.55
1209041 2026-04-15 16:55:57 2026-04-15 16:55:52 Stelmat001 062 T 132.40 3.66 250.60 4544.020 0.050 0.050 60.00 0.52
1209040 2026-04-15 16:55:56 2026-04-15 16:55:52 Stelmat001 017 S 132.30 12.31 544.20 7040.280 0.100 0.100 60.00 0.33
1209039 2026-04-15 16:55:56 2026-04-15 16:55:52 Stelmat001 061 S 132.50 5.01 633.60 8322.320 0.110 0.110 60.00 0.95
1209038 2026-04-15 16:55:56 2026-04-15 16:55:52 Stelmat001 016 R 132.20 12.33 1451.60 16464.670 0.260 0.260 60.00 0.89
1209037 2026-04-15 16:55:55 2026-04-15 16:55:52 Stelmat001 060 R 132.80 1.99 61.30 467.390 0.010 0.010 60.00 0.23
1209036 2026-04-15 16:53:29 2026-04-15 16:53:24 Stelmat001 012 T 132.20 6.43 295.60 3625.610 0.050 0.050 60.00 0.35
1209035 2026-04-15 16:53:28 2026-04-15 16:53:24 Stelmat001 011 S 131.90 4.86 419.00 5534.880 0.070 0.070 60.00 0.65
1209034 2026-04-15 16:53:28 2026-04-15 16:53:24 Stelmat001 010 R 131.90 2.44 235.60 4232.740 0.040 0.040 60.00 0.73
1209033 2026-04-15 16:53:07 2026-04-15 16:53:02 Stelmat001 034 T 131.60 3.65 91.20 421.640 0.030 0.030 60.00 0.19
1209032 2026-04-15 16:53:06 2026-04-15 16:53:02 Stelmat001 033 S 131.80 3.18 213.10 558.650 0.070 0.070 60.00 0.51
1209031 2026-04-15 16:53:06 2026-04-15 16:53:02 Stelmat001 032 R 144.80 2.21 130.30 589.670 0.040 0.040 60.00 0.41
1209030 2026-04-15 16:51:39 2026-04-15 16:51:38 Stelmat002 102 S 131.89 38.36 13.89 25884.121 2.017 2.017 60.05 0.92
1209029 2026-04-15 16:51:36 2026-04-15 16:51:35 Stelmat002 101 R 131.74 23.15 8.42 27466.309 1.061 1.061 60.04 0.92
1209028 2026-04-15 16:48:30 2026-04-15 16:48:28 Stelmat001 025 T 132.10 4.32 238.20 965.040 0.030 0.030 60.00 0.42
1209027 2026-04-15 16:48:30 2026-04-15 16:48:28 Stelmat001 024 S 131.50 4.26 389.30 3433.060 0.070 0.070 59.90 0.69
1209026 2026-04-15 16:48:29 2026-04-15 16:48:28 Stelmat001 023 R 131.70 17.64 2286.30 18123.330 0.380 0.380 60.00 0.98
1209025 2026-04-15 16:48:21 2026-04-15 16:48:19 Stelmat001 065 T 131.50 2.22 221.10 2180.260 0.040 0.040 60.00 0.76
1209024 2026-04-15 16:48:21 2026-04-15 16:48:19 Stelmat001 064 S 145.10 6.97 557.00 3374.220 0.100 0.100 59.90 0.55
1209023 2026-04-15 16:48:20 2026-04-15 16:48:19 Stelmat001 063 R 131.70 2.83 159.90 1810.110 0.030 0.030 60.00 0.43
1209022 2026-04-15 16:47:39 2026-04-15 16:47:35 Stelmat001 022 T 131.50 2.77 326.40 6401.390 0.060 0.060 60.00 0.90
1209021 2026-04-15 16:47:38 2026-04-15 16:47:35 Stelmat001 021 S 131.70 6.15 631.20 4713.270 0.100 0.100 59.90 0.78
1209020 2026-04-15 16:47:37 2026-04-15 16:47:35 Stelmat001 020 R 131.60 3.87 389.90 456.450 0.070 0.070 60.00 0.77
1209019 2026-04-15 16:45:57 2026-04-15 16:45:55 Stelmat001 018 T 144.90 11.60 932.10 12121.050 0.170 0.170 59.90 0.55
1209018 2026-04-15 16:45:57 2026-04-15 16:45:54 Stelmat001 062 T 131.70 3.72 265.60 4543.970 0.040 0.040 60.00 0.54
1209017 2026-04-15 16:45:56 2026-04-15 16:45:55 Stelmat001 017 S 131.60 11.59 491.30 7040.180 0.100 0.100 59.90 0.32
1209016 2026-04-15 16:45:56 2026-04-15 16:45:54 Stelmat001 061 S 131.80 5.64 697.40 8322.210 0.120 0.120 59.90 0.94
1209015 2026-04-15 16:45:56 2026-04-15 16:45:55 Stelmat001 016 R 131.40 11.46 1325.60 16464.410 0.260 0.260 60.00 0.88
1209014 2026-04-15 16:45:55 2026-04-15 16:45:54 Stelmat001 060 R 132.10 1.93 57.10 467.380 0.010 0.010 60.00 0.22
1209013 2026-04-15 16:43:27 2026-04-15 16:43:23 Stelmat001 012 T 131.90 6.27 286.10 3625.560 0.050 0.050 60.00 0.35
1209012 2026-04-15 16:43:26 2026-04-15 16:43:23 Stelmat001 011 S 131.60 4.86 413.20 5534.810 0.060 0.060 59.90 0.65
1209011 2026-04-15 16:43:25 2026-04-15 16:43:23 Stelmat001 010 R 131.70 2.77 266.50 4232.700 0.050 0.050 60.00 0.73
1209010 2026-04-15 16:41:37 2026-04-15 16:41:36 Stelmat002 102 S 131.63 41.78 14.20 25882.104 2.456 2.456 60.00 0.86
1209009 2026-04-15 16:41:34 2026-04-15 16:41:33 Stelmat002 101 R 131.55 18.17 6.51 27465.248 1.225 1.225 60.00 0.91
1209008 2026-04-15 16:38:30 2026-04-15 16:38:25 Stelmat001 025 T 131.60 4.32 238.20 965.010 0.040 0.040 60.00 0.42
1209007 2026-04-15 16:38:30 2026-04-15 16:38:25 Stelmat001 024 S 131.00 4.65 417.70 3432.990 0.070 0.070 60.00 0.69
1209006 2026-04-15 16:38:29 2026-04-15 16:38:25 Stelmat001 023 R 131.10 17.68 2282.40 18122.950 0.390 0.390 59.90 0.98
1209005 2026-04-15 16:38:21 2026-04-15 16:38:17 Stelmat001 065 T 131.00 2.25 223.50 2180.220 0.040 0.040 59.90 0.76
1209004 2026-04-15 16:38:21 2026-04-15 16:38:17 Stelmat001 064 S 144.60 7.00 556.20 3374.120 0.090 0.090 59.90 0.55
1209003 2026-04-15 16:38:20 2026-04-15 16:38:17 Stelmat001 063 R 131.10 2.85 160.60 1810.080 0.050 0.050 60.00 0.43
1209002 2026-04-15 16:37:38 2026-04-15 16:37:33 Stelmat001 022 T 131.30 3.15 376.50 6401.330 0.060 0.060 60.00 0.91
1209001 2026-04-15 16:37:37 2026-04-15 16:37:33 Stelmat001 021 S 131.60 5.47 523.90 4713.170 0.100 0.100 59.90 0.73
1209000 2026-04-15 16:37:36 2026-04-15 16:37:33 Stelmat001 020 R 131.30 3.58 359.40 456.380 0.050 0.050 60.00 0.76
1208999 2026-04-15 16:35:57 2026-04-15 16:35:52 Stelmat001 018 T 144.50 13.64 1063.90 12120.880 0.160 0.160 60.00 0.54
1208998 2026-04-15 16:35:57 2026-04-15 16:35:52 Stelmat001 062 T 131.30 3.85 270.10 4543.930 0.050 0.050 60.00 0.53
1208997 2026-04-15 16:35:56 2026-04-15 16:35:52 Stelmat001 017 S 131.10 13.62 634.80 7040.080 0.090 0.090 59.90 0.36
1208996 2026-04-15 16:35:56 2026-04-15 16:35:52 Stelmat001 061 S 131.30 5.48 684.00 8322.090 0.110 0.110 60.00 0.95
1208995 2026-04-15 16:35:55 2026-04-15 16:35:52 Stelmat001 016 R 131.00 13.69 1624.40 16464.150 0.230 0.230 60.00 0.91
1208994 2026-04-15 16:35:55 2026-04-15 16:35:52 Stelmat001 060 R 131.70 2.05 68.00 467.370 0.010 0.010 60.00 0.25
1208993 2026-04-15 16:33:26 2026-04-15 16:33:22 Stelmat001 012 T 131.70 6.74 302.40 3625.510 0.050 0.050 60.00 0.34
1208992 2026-04-15 16:33:25 2026-04-15 16:33:22 Stelmat001 011 S 131.40 4.84 410.90 5534.750 0.070 0.070 60.00 0.65
1208991 2026-04-15 16:33:24 2026-04-15 16:33:22 Stelmat001 010 R 131.40 2.85 301.60 4232.650 0.050 0.050 60.00 0.81
1208990 2026-04-15 16:33:07 2026-04-15 16:33:02 Stelmat001 034 T 131.10 3.65 89.80 421.610 0.030 0.030 59.90 0.19
1208989 2026-04-15 16:33:06 2026-04-15 16:33:02 Stelmat001 033 S 131.30 3.26 225.50 558.580 0.080 0.080 60.00 0.53
1208988 2026-04-15 16:33:06 2026-04-15 16:33:02 Stelmat001 032 R 144.20 2.23 124.40 589.630 0.040 0.040 60.00 0.39
1208987 2026-04-15 16:31:34 2026-04-15 16:31:33 Stelmat002 102 S 131.67 29.77 9.40 25879.648 2.302 2.302 60.01 0.80
1208986 2026-04-15 16:31:31 2026-04-15 16:31:30 Stelmat002 101 R 131.52 15.03 5.31 27464.023 1.152 1.152 60.00 0.90
1208985 2026-04-15 16:28:30 2026-04-15 16:28:28 Stelmat001 025 T 131.70 4.31 237.80 964.970 0.050 0.050 60.00 0.42
1208984 2026-04-15 16:28:30 2026-04-15 16:28:28 Stelmat001 024 S 131.30 4.63 418.40 3432.920 0.070 0.070 60.00 0.69
1208983 2026-04-15 16:28:29 2026-04-15 16:28:28 Stelmat001 023 R 131.30 18.76 2429.20 18122.560 0.390 0.390 60.00 0.99
1208982 2026-04-15 16:28:21 2026-04-15 16:28:19 Stelmat001 065 T 131.20 2.22 220.70 2180.180 0.040 0.040 59.90 0.76
1208981 2026-04-15 16:28:21 2026-04-15 16:28:19 Stelmat001 064 S 144.80 6.99 556.20 3374.030 0.090 0.090 59.90 0.55
1208980 2026-04-15 16:28:20 2026-04-15 16:28:19 Stelmat001 063 R 131.40 3.10 308.10 1810.030 0.040 0.040 59.90 0.76
1208979 2026-04-15 16:27:39 2026-04-15 16:27:33 Stelmat001 022 T 131.30 3.09 366.00 6401.270 0.070 0.070 60.00 0.90
1208978 2026-04-15 16:27:38 2026-04-15 16:27:33 Stelmat001 021 S 131.60 5.92 603.30 4713.070 0.100 0.100 59.90 0.77
1208977 2026-04-15 16:27:37 2026-04-15 16:27:33 Stelmat001 020 R 131.30 3.21 312.80 456.330 0.050 0.050 60.00 0.74
1208976 2026-04-15 16:25:57 2026-04-15 16:25:54 Stelmat001 018 T 144.30 14.02 1091.10 12120.720 0.180 0.180 60.00 0.54
1208975 2026-04-15 16:25:57 2026-04-15 16:25:54 Stelmat001 062 T 131.00 3.68 260.90 4543.880 0.050 0.050 59.90 0.54
1208974 2026-04-15 16:25:56 2026-04-15 16:25:54 Stelmat001 017 S 130.90 14.03 663.30 7039.990 0.100 0.100 60.00 0.36
1208973 2026-04-15 16:25:56 2026-04-15 16:25:54 Stelmat001 061 S 131.10 5.56 693.10 8321.980 0.120 0.120 60.00 0.95
1208972 2026-04-15 16:25:55 2026-04-15 16:25:54 Stelmat001 016 R 130.80 14.08 1673.80 16463.920 0.270 0.270 60.00 0.91
1208971 2026-04-15 16:25:55 2026-04-15 16:25:54 Stelmat001 060 R 131.60 1.93 59.40 467.360 0.010 0.010 60.00 0.23
1208970 2026-04-15 16:23:24 2026-04-15 16:23:19 Stelmat001 012 T 131.20 6.52 305.20 3625.460 0.050 0.050 60.00 0.36
1208969 2026-04-15 16:23:24 2026-04-15 16:23:19 Stelmat001 011 S 130.70 4.99 420.50 5534.680 0.070 0.070 60.00 0.65
1208968 2026-04-15 16:23:23 2026-04-15 16:23:19 Stelmat001 010 R 130.80 2.82 298.20 4232.600 0.060 0.060 59.90 0.81
1208967 2026-04-15 16:21:31 2026-04-15 16:21:30 Stelmat002 102 S 131.03 42.77 14.54 25877.346 2.373 2.373 60.00 0.86
1208966 2026-04-15 16:21:28 2026-04-15 16:21:28 Stelmat002 101 R 130.91 26.72 9.76 27462.871 1.228 1.228 60.00 0.93
1208965 2026-04-15 16:18:30 2026-04-15 16:18:26 Stelmat001 025 T 131.40 4.33 239.30 964.920 0.030 0.030 60.00 0.42
1208964 2026-04-15 16:18:29 2026-04-15 16:18:26 Stelmat001 024 S 130.80 4.74 424.60 3432.850 0.070 0.070 60.00 0.69
1208963 2026-04-15 16:18:29 2026-04-15 16:18:26 Stelmat001 023 R 131.00 17.83 2302.80 18122.170 0.390 0.390 60.00 0.99
1208962 2026-04-15 16:18:21 2026-04-15 16:18:16 Stelmat001 065 T 130.80 2.28 225.40 2180.140 0.040 0.040 60.00 0.76
1208961 2026-04-15 16:18:21 2026-04-15 16:18:16 Stelmat001 064 S 144.40 7.00 555.50 3373.940 0.100 0.100 60.00 0.55
1208960 2026-04-15 16:18:20 2026-04-15 16:18:16 Stelmat001 063 R 131.00 2.79 287.40 1809.990 0.050 0.050 60.00 0.79
1208959 2026-04-15 16:17:38 2026-04-15 16:17:35 Stelmat001 022 T 131.00 4.26 516.60 6401.200 0.080 0.080 60.00 0.93
1208958 2026-04-15 16:17:37 2026-04-15 16:17:35 Stelmat001 021 S 131.30 5.88 554.00 4712.970 0.090 0.090 59.90 0.72
1208957 2026-04-15 16:17:36 2026-04-15 16:17:35 Stelmat001 020 R 131.00 2.95 287.50 456.280 0.050 0.050 59.90 0.74
1208956 2026-04-15 16:15:57 2026-04-15 16:15:52 Stelmat001 018 T 144.00 13.29 1041.90 12120.540 0.170 0.170 59.90 0.54
1208955 2026-04-15 16:15:56 2026-04-15 16:15:52 Stelmat001 062 T 130.80 4.23 301.30 4543.830 0.050 0.050 59.90 0.54
1208954 2026-04-15 16:15:56 2026-04-15 16:15:52 Stelmat001 017 S 130.80 13.27 606.30 7039.890 0.100 0.100 60.00 0.35
1208953 2026-04-15 16:15:56 2026-04-15 16:15:52 Stelmat001 061 S 130.90 5.50 685.00 8321.860 0.120 0.120 60.00 0.95
1208952 2026-04-15 16:15:55 2026-04-15 16:15:52 Stelmat001 016 R 130.50 13.31 1569.50 16463.650 0.260 0.260 59.90 0.90
1208951 2026-04-15 16:15:55 2026-04-15 16:15:52 Stelmat001 060 R 131.20 2.01 61.70 467.350 0.010 0.010 60.00 0.23
1208950 2026-04-15 16:13:24 2026-04-15 16:13:22 Stelmat001 012 T 131.30 6.84 312.70 3625.410 0.050 0.050 59.90 0.35
1208949 2026-04-15 16:13:24 2026-04-15 16:13:22 Stelmat001 011 S 131.00 4.52 384.70 5534.610 0.060 0.060 59.90 0.65
1208948 2026-04-15 16:13:23 2026-04-15 16:13:22 Stelmat001 010 R 131.00 2.96 318.80 4232.540 0.050 0.050 59.90 0.82
1208947 2026-04-15 16:13:07 2026-04-15 16:13:02 Stelmat001 034 T 130.70 3.71 81.20 421.580 0.030 0.030 59.90 0.17
1208946 2026-04-15 16:13:06 2026-04-15 16:13:02 Stelmat001 033 S 130.90 3.40 232.30 558.500 0.070 0.070 59.90 0.52
1208945 2026-04-15 16:13:05 2026-04-15 16:13:02 Stelmat001 032 R 143.70 1.99 108.40 589.590 0.040 0.040 59.90 0.38
1208944 2026-04-15 16:11:28 2026-04-15 16:11:27 Stelmat002 102 S 130.89 45.91 15.92 25874.973 2.590 2.590 59.95 0.88
1208943 2026-04-15 16:11:25 2026-04-15 16:11:25 Stelmat002 101 R 130.77 18.69 6.68 27461.643 1.403 1.403 59.95 0.91
1208942 2026-04-15 16:08:28 2026-04-15 16:08:23 Stelmat001 025 T 131.10 4.33 239.30 964.890 0.050 0.050 59.90 0.42
1208941 2026-04-15 16:08:27 2026-04-15 16:08:23 Stelmat001 024 S 130.50 5.03 451.50 3432.780 0.080 0.080 59.90 0.69
1208940 2026-04-15 16:08:26 2026-04-15 16:08:23 Stelmat001 023 R 130.60 17.87 2302.70 18121.780 0.390 0.390 59.90 0.99
1208939 2026-04-15 16:08:21 2026-04-15 16:08:19 Stelmat001 065 T 130.40 2.24 221.70 2180.100 0.040 0.040 59.90 0.76
1208938 2026-04-15 16:08:21 2026-04-15 16:08:19 Stelmat001 064 S 144.00 7.03 554.60 3373.840 0.090 0.090 59.90 0.55
1208937 2026-04-15 16:08:20 2026-04-15 16:08:19 Stelmat001 063 R 130.50 2.79 285.50 1809.940 0.050 0.050 60.00 0.79
1208936 2026-04-15 16:07:37 2026-04-15 16:07:33 Stelmat001 022 T 130.60 3.79 452.20 6401.120 0.080 0.080 60.00 0.91
1208935 2026-04-15 16:07:37 2026-04-15 16:07:33 Stelmat001 021 S 130.80 5.79 535.00 4712.880 0.090 0.090 59.90 0.71
1208934 2026-04-15 16:07:36 2026-04-15 16:07:33 Stelmat001 020 R 130.60 3.42 315.50 456.230 0.060 0.060 59.90 0.71
1208933 2026-04-15 16:05:57 2026-04-15 16:05:54 Stelmat001 018 T 143.80 14.13 1094.00 12120.370 0.180 0.180 59.90 0.54
1208932 2026-04-15 16:05:57 2026-04-15 16:05:54 Stelmat001 062 T 130.50 4.31 308.30 4543.780 0.050 0.050 59.90 0.55
1208931 2026-04-15 16:05:56 2026-04-15 16:05:54 Stelmat001 017 S 130.50 14.11 669.50 7039.790 0.100 0.100 59.90 0.36
1208930 2026-04-15 16:05:56 2026-04-15 16:05:54 Stelmat001 061 S 130.70 6.12 755.30 8321.740 0.130 0.130 59.90 0.94
1208929 2026-04-15 16:05:55 2026-04-15 16:05:54 Stelmat001 016 R 130.30 14.14 1679.50 16463.390 0.260 0.260 60.00 0.91
1208928 2026-04-15 16:05:55 2026-04-15 16:05:54 Stelmat001 060 R 131.20 2.21 76.60 467.340 0.020 0.020 60.00 0.26
1208927 2026-04-15 16:03:24 2026-04-15 16:03:21 Stelmat001 012 T 131.20 6.18 292.70 3625.360 0.050 0.050 60.00 0.36
1208926 2026-04-15 16:03:23 2026-04-15 16:03:21 Stelmat001 011 S 130.90 4.58 390.70 5534.550 0.070 0.070 60.00 0.65
1208925 2026-04-15 16:03:23 2026-04-15 16:03:21 Stelmat001 010 R 130.90 2.62 285.60 4232.490 0.050 0.050 59.90 0.83
1208924 2026-04-15 16:01:24 2026-04-15 16:01:24 Stelmat002 102 S 131.17 46.02 15.91 25872.383 2.635 2.635 60.03 0.88
1208923 2026-04-15 16:01:22 2026-04-15 16:01:21 Stelmat002 101 R 131.08 17.43 6.18 27460.240 1.176 1.176 60.03 0.90
1208922 2026-04-15 15:58:28 2026-04-15 15:58:25 Stelmat001 025 T 130.00 4.36 238.40 964.840 0.040 0.040 60.00 0.42
1208921 2026-04-15 15:58:27 2026-04-15 15:58:25 Stelmat001 024 S 129.60 5.57 475.60 3432.700 0.080 0.080 60.00 0.66
1208920 2026-04-15 15:58:26 2026-04-15 15:58:25 Stelmat001 023 R 129.60 18.01 2303.80 18121.390 0.490 0.490 60.00 0.99
1208919 2026-04-15 15:58:21 2026-04-15 15:58:16 Stelmat001 065 T 129.50 2.26 222.10 2180.060 0.030 0.030 60.00 0.76
1208918 2026-04-15 15:58:21 2026-04-15 15:58:16 Stelmat001 064 S 142.80 7.08 553.90 3373.750 0.090 0.090 60.00 0.55
1208917 2026-04-15 15:58:20 2026-04-15 15:58:16 Stelmat001 063 R 129.70 2.82 281.80 1809.890 0.050 0.050 60.00 0.77
1208916 2026-04-15 15:57:38 2026-04-15 15:57:35 Stelmat001 022 T 129.70 3.82 459.20 6401.040 0.070 0.070 60.00 0.93
1208915 2026-04-15 15:57:37 2026-04-15 15:57:35 Stelmat001 021 S 129.90 6.24 614.10 4712.790 0.100 0.100 60.00 0.76
1208914 2026-04-15 15:57:36 2026-04-15 15:57:35 Stelmat001 020 R 129.40 4.03 366.30 456.170 0.060 0.060 60.00 0.70
1208913 2026-04-15 15:55:57 2026-04-15 15:55:52 Stelmat001 018 T 142.40 13.98 1080.70 12120.190 0.180 0.180 60.00 0.54
1208912 2026-04-15 15:55:57 2026-04-15 15:55:52 Stelmat001 062 T 129.20 4.56 325.50 4543.730 0.040 0.040 60.00 0.55
1208911 2026-04-15 15:55:56 2026-04-15 15:55:52 Stelmat001 017 S 129.00 13.99 642.70 7039.690 0.120 0.120 60.00 0.36
1208910 2026-04-15 15:55:56 2026-04-15 15:55:52 Stelmat001 061 S 129.10 6.01 732.80 8321.610 0.120 0.120 60.00 0.94
1208909 2026-04-15 15:55:55 2026-04-15 15:55:52 Stelmat001 016 R 129.00 14.48 1705.40 16463.130 0.290 0.290 60.00 0.91
1208908 2026-04-15 15:55:55 2026-04-15 15:55:52 Stelmat001 060 R 129.80 2.03 65.90 467.320 0.010 0.010 60.00 0.25
1208907 2026-04-15 15:53:23 2026-04-15 15:53:18 Stelmat001 012 T 129.40 7.01 308.80 3625.310 0.050 0.050 59.90 0.34
1208906 2026-04-15 15:53:22 2026-04-15 15:53:18 Stelmat001 011 S 128.80 4.99 413.00 5534.480 0.070 0.070 59.90 0.64
1208905 2026-04-15 15:53:22 2026-04-15 15:53:18 Stelmat001 010 R 128.60 2.81 299.60 4232.440 0.060 0.060 59.90 0.83
1208904 2026-04-15 15:53:07 2026-04-15 15:53:02 Stelmat001 034 T 128.40 3.85 109.80 421.550 0.030 0.030 59.90 0.22
1208903 2026-04-15 15:53:06 2026-04-15 15:53:02 Stelmat001 033 S 128.80 3.24 221.60 558.430 0.080 0.080 59.90 0.53
1208902 2026-04-15 15:53:06 2026-04-15 15:53:02 Stelmat001 032 R 141.10 2.38 132.80 589.550 0.040 0.040 59.90 0.39
1208901 2026-04-15 15:51:21 2026-04-15 15:51:21 Stelmat002 102 S 129.02 47.35 16.26 25869.748 2.131 2.131 59.97 0.89
1208900 2026-04-15 15:51:19 2026-04-15 15:51:18 Stelmat002 101 R 129.00 28.04 10.10 27459.064 1.128 1.128 59.97 0.93
1208899 2026-04-15 15:48:28 2026-04-15 15:48:23 Stelmat001 025 T 129.80 4.37 238.50 964.800 0.030 0.030 60.00 0.42
1208898 2026-04-15 15:48:27 2026-04-15 15:48:23 Stelmat001 024 S 129.30 4.73 416.00 3432.620 0.070 0.070 59.90 0.68
1208897 2026-04-15 15:48:26 2026-04-15 15:48:23 Stelmat001 023 R 129.30 18.47 2362.40 18120.900 0.390 0.390 59.90 0.99
1208896 2026-04-15 15:48:21 2026-04-15 15:48:19 Stelmat001 065 T 129.30 2.26 221.00 2180.030 0.040 0.040 60.00 0.76
1208895 2026-04-15 15:48:20 2026-04-15 15:48:19 Stelmat001 064 S 142.70 7.09 554.50 3373.660 0.090 0.090 59.90 0.55
1208894 2026-04-15 15:48:20 2026-04-15 15:48:19 Stelmat001 063 R 129.30 2.79 280.20 1809.840 0.040 0.040 60.00 0.78
1208893 2026-04-15 15:47:37 2026-04-15 15:47:32 Stelmat001 022 T 129.60 3.37 393.90 6400.970 0.060 0.060 59.90 0.90
1208892 2026-04-15 15:47:36 2026-04-15 15:47:32 Stelmat001 021 S 129.90 6.13 606.60 4712.690 0.110 0.110 60.00 0.76
1208891 2026-04-15 15:47:36 2026-04-15 15:47:32 Stelmat001 020 R 129.60 3.49 331.10 456.110 0.050 0.050 60.00 0.73
1208890 2026-04-15 15:45:57 2026-04-15 15:45:54 Stelmat001 062 T 129.80 3.49 245.20 4543.690 0.050 0.050 60.00 0.54
1208889 2026-04-15 15:45:57 2026-04-15 15:45:54 Stelmat001 018 T 143.00 10.35 836.60 12120.010 0.180 0.180 60.00 0.57
1208888 2026-04-15 15:45:56 2026-04-15 15:45:54 Stelmat001 061 S 129.80 6.07 746.10 8321.490 0.120 0.120 59.90 0.95
1208887 2026-04-15 15:45:56 2026-04-15 15:45:54 Stelmat001 017 S 129.70 10.35 392.70 7039.570 0.100 0.100 60.00 0.29
1208886 2026-04-15 15:45:55 2026-04-15 15:45:54 Stelmat001 016 R 129.70 10.33 1160.20 16462.840 0.260 0.260 59.90 0.87
1208885 2026-04-15 15:45:55 2026-04-15 15:45:54 Stelmat001 060 R 130.30 1.79 52.50 467.310 0.010 0.010 60.00 0.23
1208884 2026-04-15 15:43:23 2026-04-15 15:43:20 Stelmat001 012 T 130.20 6.05 267.50 3625.260 0.040 0.040 59.90 0.34
1208883 2026-04-15 15:43:22 2026-04-15 15:43:20 Stelmat001 011 S 129.90 4.94 408.00 5534.410 0.070 0.070 59.90 0.64
1208882 2026-04-15 15:43:22 2026-04-15 15:43:20 Stelmat001 010 R 129.90 2.61 284.90 4232.380 0.040 0.040 60.00 0.84
1208881 2026-04-15 15:41:19 2026-04-15 15:41:19 Stelmat002 102 S 129.58 49.95 17.41 25867.617 2.586 2.586 59.98 0.90
1208880 2026-04-15 15:41:16 2026-04-15 15:41:16 Stelmat002 101 R 129.47 23.86 8.60 27457.936 1.383 1.383 59.98 0.93
1208879 2026-04-15 15:38:28 2026-04-15 15:38:25 Stelmat001 025 T 129.80 4.38 239.20 964.770 0.050 0.050 59.90 0.42
1208878 2026-04-15 15:38:27 2026-04-15 15:38:25 Stelmat001 024 S 129.30 4.79 420.00 3432.550 0.070 0.070 60.00 0.68
1208877 2026-04-15 15:38:26 2026-04-15 15:38:25 Stelmat001 023 R 129.30 18.07 2304.00 18120.510 0.370 0.370 59.90 0.99
1208876 2026-04-15 15:38:21 2026-04-15 15:38:18 Stelmat001 065 T 129.30 2.26 221.40 2179.990 0.040 0.040 60.00 0.76
1208875 2026-04-15 15:38:20 2026-04-15 15:38:18 Stelmat001 064 S 142.60 7.09 554.20 3373.570 0.100 0.100 60.00 0.55
1208874 2026-04-15 15:38:20 2026-04-15 15:38:18 Stelmat001 063 R 129.40 2.78 279.90 1809.800 0.050 0.050 59.90 0.78
1208873 2026-04-15 15:37:37 2026-04-15 15:37:32 Stelmat001 022 T 129.60 3.19 361.30 6400.910 0.060 0.060 60.00 0.87
1208872 2026-04-15 15:37:36 2026-04-15 15:37:32 Stelmat001 021 S 129.80 6.56 656.30 4712.580 0.110 0.110 60.00 0.77
1208871 2026-04-15 15:37:36 2026-04-15 15:37:32 Stelmat001 020 R 129.60 3.11 289.20 456.060 0.050 0.050 60.00 0.72
1208870 2026-04-15 15:35:56 2026-04-15 15:35:52 Stelmat001 018 T 142.70 13.69 1062.50 12119.830 0.170 0.170 60.00 0.54
1208869 2026-04-15 15:35:56 2026-04-15 15:35:52 Stelmat001 062 T 129.70 3.62 249.30 4543.640 0.040 0.040 60.00 0.53
1208868 2026-04-15 15:35:56 2026-04-15 15:35:52 Stelmat001 017 S 129.60 13.65 629.00 7039.470 0.100 0.100 60.00 0.36
1208867 2026-04-15 15:35:56 2026-04-15 15:35:52 Stelmat001 061 S 129.80 6.03 733.20 8321.370 0.130 0.130 60.00 0.94
1208866 2026-04-15 15:35:55 2026-04-15 15:35:52 Stelmat001 060 R 130.10 1.92 62.00 467.300 0.010 0.010 60.00 0.25
1208865 2026-04-15 15:35:55 2026-04-15 15:35:52 Stelmat001 016 R 129.50 13.70 1611.40 16462.580 0.270 0.270 60.00 0.91
1208864 2026-04-15 15:33:23 2026-04-15 15:33:18 Stelmat001 012 T 130.40 5.20 227.70 3625.220 0.040 0.040 60.00 0.34
1208863 2026-04-15 15:33:22 2026-04-15 15:33:18 Stelmat001 011 S 130.00 5.13 422.00 5534.340 0.070 0.070 60.00 0.63
1208862 2026-04-15 15:33:21 2026-04-15 15:33:18 Stelmat001 010 R 130.00 2.32 228.20 4232.340 0.030 0.030 60.00 0.76
1208861 2026-04-15 15:33:07 2026-04-15 15:33:02 Stelmat001 034 T 129.80 3.33 86.40 421.520 0.030 0.030 60.00 0.20
1208860 2026-04-15 15:33:06 2026-04-15 15:33:02 Stelmat001 033 S 130.00 2.94 207.10 558.350 0.070 0.070 60.00 0.54
1208859 2026-04-15 15:33:06 2026-04-15 15:33:02 Stelmat001 032 R 142.80 2.20 120.80 589.510 0.040 0.040 60.00 0.39
1208858 2026-04-15 15:31:15 2026-04-15 15:31:15 Stelmat002 102 S 130.26 40.90 13.68 25865.031 2.439 2.439 60.04 0.86
1208857 2026-04-15 15:31:13 2026-04-15 15:31:12 Stelmat002 101 R 130.09 13.60 4.67 27456.553 1.225 1.225 60.05 0.88
1208856 2026-04-15 15:28:28 2026-04-15 15:28:23 Stelmat001 025 T 130.20 4.36 239.00 964.720 0.040 0.040 59.90 0.42
1208855 2026-04-15 15:28:27 2026-04-15 15:28:23 Stelmat001 024 S 129.80 4.68 415.50 3432.480 0.070 0.070 59.90 0.68
1208854 2026-04-15 15:28:26 2026-04-15 15:28:23 Stelmat001 023 R 129.70 17.34 2225.70 18120.140 0.380 0.380 59.90 0.99
1208853 2026-04-15 15:28:20 2026-04-15 15:28:15 Stelmat001 065 T 129.80 2.26 220.90 2179.950 0.030 0.030 59.90 0.75
1208852 2026-04-15 15:28:19 2026-04-15 15:28:15 Stelmat001 064 S 143.10 7.07 554.60 3373.470 0.090 0.090 60.00 0.55
1208851 2026-04-15 15:28:18 2026-04-15 15:28:15 Stelmat001 063 R 129.70 2.81 282.60 1809.750 0.050 0.050 60.00 0.78
1208850 2026-04-15 15:27:37 2026-04-15 15:27:35 Stelmat001 022 T 129.90 3.06 342.20 6400.850 0.070 0.070 60.00 0.86
1208849 2026-04-15 15:27:36 2026-04-15 15:27:35 Stelmat001 021 S 130.00 6.94 698.00 4712.470 0.110 0.110 60.00 0.77
1208848 2026-04-15 15:27:36 2026-04-15 15:27:35 Stelmat001 020 R 129.70 2.97 284.40 456.010 0.060 0.060 60.00 0.74
1208847 2026-04-15 15:25:56 2026-04-15 15:25:54 Stelmat001 062 T 129.90 3.53 241.90 4543.600 0.040 0.040 60.00 0.53
1208846 2026-04-15 15:25:56 2026-04-15 15:25:54 Stelmat001 018 T 143.00 13.42 1047.70 12119.660 0.170 0.170 60.00 0.55
1208845 2026-04-15 15:25:56 2026-04-15 15:25:54 Stelmat001 017 S 129.90 13.41 611.60 7039.370 0.100 0.100 60.00 0.35
1208844 2026-04-15 15:25:56 2026-04-15 15:25:54 Stelmat001 061 S 130.00 6.44 786.90 8321.240 0.130 0.130 60.00 0.94
1208843 2026-04-15 15:25:55 2026-04-15 15:25:54 Stelmat001 060 R 130.40 2.03 62.50 467.290 0.010 0.010 60.00 0.24
1208842 2026-04-15 15:25:55 2026-04-15 15:25:54 Stelmat001 016 R 129.60 13.46 1580.10 16462.310 0.240 0.240 60.00 0.91
1208841 2026-04-15 15:23:23 2026-04-15 15:23:20 Stelmat001 012 T 130.50 5.54 253.60 3625.180 0.040 0.040 59.90 0.35
1208840 2026-04-15 15:23:22 2026-04-15 15:23:20 Stelmat001 011 S 130.10 5.21 431.90 5534.270 0.060 0.060 59.90 0.64
1208839 2026-04-15 15:23:21 2026-04-15 15:23:20 Stelmat001 010 R 130.10 2.30 212.90 4232.310 0.040 0.040 60.00 0.71
1208838 2026-04-15 15:21:12 2026-04-15 15:21:12 Stelmat002 102 S 130.37 37.99 12.54 25862.592 2.408 2.408 59.96 0.84
1208837 2026-04-15 15:21:10 2026-04-15 15:21:09 Stelmat002 101 R 130.23 21.53 7.76 27455.328 0.848 0.848 59.96 0.92
1208836 2026-04-15 15:18:25 2026-04-15 15:18:21 Stelmat001 025 T 130.70 4.34 238.90 964.680 0.030 0.030 60.00 0.42
1208835 2026-04-15 15:18:25 2026-04-15 15:18:21 Stelmat001 024 S 130.00 4.77 422.40 3432.410 0.070 0.070 59.90 0.68
1208834 2026-04-15 15:18:24 2026-04-15 15:18:21 Stelmat001 023 R 130.10 17.30 2226.60 18119.760 0.370 0.370 59.90 0.99
1208833 2026-04-15 15:18:20 2026-04-15 15:18:18 Stelmat001 065 T 130.00 2.26 221.60 2179.920 0.040 0.040 59.90 0.75
1208832 2026-04-15 15:18:19 2026-04-15 15:18:18 Stelmat001 064 S 143.50 7.05 555.10 3373.380 0.090 0.090 59.90 0.55
1208831 2026-04-15 15:18:18 2026-04-15 15:18:18 Stelmat001 063 R 130.10 2.66 274.10 1809.700 0.040 0.040 60.00 0.79
1208830 2026-04-15 15:17:37 2026-04-15 15:17:33 Stelmat001 022 T 130.00 3.26 368.50 6400.780 0.070 0.070 59.90 0.87
1208829 2026-04-15 15:17:36 2026-04-15 15:17:33 Stelmat001 021 S 130.30 6.54 628.30 4712.360 0.110 0.110 59.90 0.74
1208828 2026-04-15 15:17:35 2026-04-15 15:17:33 Stelmat001 020 R 129.90 3.66 360.50 455.950 0.050 0.050 59.90 0.76
1208827 2026-04-15 15:15:56 2026-04-15 15:15:52 Stelmat001 062 T 129.80 3.64 249.00 4543.560 0.040 0.040 59.80 0.53
1208826 2026-04-15 15:15:56 2026-04-15 15:15:52 Stelmat001 018 T 143.00 14.66 1127.20 12119.490 0.170 0.170 59.80 0.54
1208825 2026-04-15 15:15:56 2026-04-15 15:15:52 Stelmat001 061 S 129.90 6.20 765.60 8321.110 0.120 0.120 59.80 0.95
1208824 2026-04-15 15:15:56 2026-04-15 15:15:52 Stelmat001 017 S 129.70 14.62 702.90 7039.270 0.100 0.100 59.90 0.37
1208823 2026-04-15 15:15:55 2026-04-15 15:15:52 Stelmat001 060 R 130.40 2.08 65.90 467.280 0.010 0.010 59.90 0.24
1208822 2026-04-15 15:15:55 2026-04-15 15:15:52 Stelmat001 016 R 129.50 14.67 1746.50 16462.070 0.270 0.270 59.80 0.92
1208821 2026-04-15 15:13:22 2026-04-15 15:13:17 Stelmat001 012 T 130.60 5.44 249.10 3625.140 0.050 0.050 59.90 0.35
1208820 2026-04-15 15:13:22 2026-04-15 15:13:17 Stelmat001 011 S 130.20 5.05 419.60 5534.210 0.070 0.070 59.90 0.64
1208819 2026-04-15 15:13:21 2026-04-15 15:13:17 Stelmat001 010 R 130.10 2.59 243.90 4232.270 0.050 0.050 59.90 0.72
1208818 2026-04-15 15:13:07 2026-04-15 15:13:02 Stelmat001 034 T 130.00 3.48 104.20 421.490 0.020 0.020 59.90 0.23
1208817 2026-04-15 15:13:06 2026-04-15 15:13:02 Stelmat001 033 S 130.20 2.99 220.10 558.280 0.060 0.060 59.90 0.56
1208816 2026-04-15 15:13:05 2026-04-15 15:13:02 Stelmat001 032 R 142.90 2.69 140.90 589.470 0.040 0.040 59.90 0.37
1208815 2026-04-15 15:11:10 2026-04-15 15:11:09 Stelmat002 102 S 129.37 39.71 13.22 25860.184 2.536 2.536 59.99 0.86
1208814 2026-04-15 15:11:07 2026-04-15 15:11:07 Stelmat002 101 R 129.18 20.20 7.18 27454.480 1.205 1.205 59.99 0.92
1208813 2026-04-15 15:08:23 2026-04-15 15:08:19 Stelmat001 025 T 129.70 4.38 239.90 964.650 0.050 0.050 59.90 0.42
1208812 2026-04-15 15:08:22 2026-04-15 15:08:19 Stelmat001 024 S 128.90 4.82 422.80 3432.340 0.090 0.090 59.90 0.68
1208811 2026-04-15 15:08:22 2026-04-15 15:08:19 Stelmat001 023 R 129.00 17.78 2275.80 18119.390 0.380 0.380 59.90 0.99
1208810 2026-04-15 15:08:20 2026-04-15 15:08:15 Stelmat001 065 T 129.00 2.28 222.00 2179.880 0.040 0.040 59.90 0.75
1208809 2026-04-15 15:08:19 2026-04-15 15:08:15 Stelmat001 064 S 142.60 7.10 554.80 3373.290 0.090 0.090 59.90 0.55
1208808 2026-04-15 15:08:18 2026-04-15 15:08:15 Stelmat001 063 R 129.00 2.62 269.10 1809.660 0.050 0.050 59.90 0.79
1208807 2026-04-15 15:07:36 2026-04-15 15:07:30 Stelmat001 022 T 129.20 3.58 407.20 6400.710 0.060 0.060 59.90 0.88
1208806 2026-04-15 15:07:35 2026-04-15 15:07:30 Stelmat001 021 S 129.70 6.86 648.80 4712.250 0.110 0.110 59.90 0.73
1208805 2026-04-15 15:07:34 2026-04-15 15:07:30 Stelmat001 020 R 129.20 3.79 371.00 455.900 0.060 0.060 59.90 0.76
1208804 2026-04-15 15:05:56 2026-04-15 15:05:54 Stelmat001 062 T 129.40 3.45 244.10 4543.520 0.040 0.040 60.00 0.55
1208803 2026-04-15 15:05:56 2026-04-15 15:05:54 Stelmat001 018 T 142.60 15.34 1166.40 12119.320 0.180 0.180 60.00 0.53
1208802 2026-04-15 15:05:56 2026-04-15 15:05:54 Stelmat001 017 S 129.20 15.31 748.20 7039.170 0.110 0.110 59.90 0.38
1208801 2026-04-15 15:05:56 2026-04-15 15:05:54 Stelmat001 061 S 129.40 6.00 733.90 8320.990 0.120 0.120 60.00 0.95
1208800 2026-04-15 15:05:55 2026-04-15 15:05:54 Stelmat001 060 R 130.10 1.98 68.70 467.270 0.010 0.010 59.90 0.27
1208799 2026-04-15 15:05:55 2026-04-15 15:05:54 Stelmat001 016 R 129.20 15.38 1831.60 16461.800 0.270 0.270 60.00 0.92
1208798 2026-04-15 15:03:22 2026-04-15 15:03:20 Stelmat001 012 T 129.30 6.16 284.00 3625.090 0.050 0.050 60.00 0.36
1208797 2026-04-15 15:03:22 2026-04-15 15:03:20 Stelmat001 011 S 128.80 5.21 415.40 5534.140 0.070 0.070 60.00 0.62
1208796 2026-04-15 15:03:21 2026-04-15 15:03:20 Stelmat001 010 R 128.70 2.93 263.50 4232.220 0.040 0.040 60.00 0.70
1208795 2026-04-15 15:01:07 2026-04-15 15:01:07 Stelmat002 102 S 130.02 39.86 13.29 25857.648 2.664 2.664 60.02 0.85
1208794 2026-04-15 15:01:04 2026-04-15 15:01:04 Stelmat002 101 R 129.87 19.01 6.75 27453.275 1.533 1.533 60.02 0.91
1208793 2026-04-15 14:58:24 2026-04-15 14:58:18 Stelmat001 025 T 130.80 4.34 238.80 964.600 0.030 0.030 60.00 0.42
1208792 2026-04-15 14:58:24 2026-04-15 14:58:18 Stelmat001 024 S 130.10 6.26 523.10 3432.250 0.080 0.080 60.00 0.64
1208791 2026-04-15 14:58:23 2026-04-15 14:58:18 Stelmat001 023 R 130.10 17.29 2224.70 18119.010 0.370 0.370 60.00 0.99
1208790 2026-04-15 14:58:20 2026-04-15 14:58:17 Stelmat001 065 T 130.10 2.28 224.30 2179.840 0.030 0.030 60.00 0.76
1208789 2026-04-15 14:58:19 2026-04-15 14:58:17 Stelmat001 064 S 143.70 7.05 558.30 3373.200 0.100 0.100 60.00 0.55
1208788 2026-04-15 14:58:18 2026-04-15 14:58:17 Stelmat001 063 R 130.10 2.62 273.20 1809.610 0.040 0.040 60.00 0.80
1208787 2026-04-15 14:57:36 2026-04-15 14:57:30 Stelmat001 022 T 130.30 3.79 456.40 6400.650 0.080 0.080 60.00 0.92
1208786 2026-04-15 14:57:35 2026-04-15 14:57:30 Stelmat001 021 S 130.70 7.42 731.00 4712.140 0.110 0.110 60.00 0.75
1208785 2026-04-15 14:57:34 2026-04-15 14:57:30 Stelmat001 020 R 130.10 3.20 314.10 455.840 0.050 0.050 60.00 0.75
1208784 2026-04-15 14:55:56 2026-04-15 14:55:52 Stelmat001 062 T 130.20 3.59 258.70 4543.480 0.040 0.040 60.00 0.55
1208783 2026-04-15 14:55:56 2026-04-15 14:55:51 Stelmat001 018 T 143.70 13.55 1057.20 12119.140 0.200 0.200 60.00 0.54
1208782 2026-04-15 14:55:56 2026-04-15 14:55:52 Stelmat001 061 S 130.20 5.87 723.30 8320.870 0.130 0.130 60.00 0.95
1208781 2026-04-15 14:55:55 2026-04-15 14:55:51 Stelmat001 017 S 130.00 13.53 620.50 7039.060 0.130 0.130 60.00 0.35
1208780 2026-04-15 14:55:55 2026-04-15 14:55:52 Stelmat001 060 R 131.00 1.95 69.90 467.260 0.010 0.010 60.00 0.27
1208779 2026-04-15 14:55:55 2026-04-15 14:55:51 Stelmat001 016 R 130.00 13.59 1603.50 16461.530 0.320 0.320 60.00 0.91
1208778 2026-04-15 14:53:22 2026-04-15 14:53:17 Stelmat001 012 T 131.20 6.41 298.00 3625.040 0.050 0.050 60.00 0.35
1208777 2026-04-15 14:53:22 2026-04-15 14:53:17 Stelmat001 011 S 130.60 4.24 361.90 5534.070 0.060 0.060 60.00 0.65
1208776 2026-04-15 14:53:21 2026-04-15 14:53:17 Stelmat001 010 R 130.30 2.69 246.10 4232.180 0.050 0.050 60.00 0.70
1208775 2026-04-15 14:53:07 2026-04-15 14:53:02 Stelmat001 034 T 130.40 3.32 80.50 421.470 0.030 0.030 60.00 0.19
1208774 2026-04-15 14:53:06 2026-04-15 14:53:02 Stelmat001 033 S 130.90 3.04 228.50 558.220 0.070 0.070 60.00 0.57
1208773 2026-04-15 14:53:06 2026-04-15 14:53:02 Stelmat001 032 R 143.20 2.36 117.00 589.430 0.040 0.040 60.00 0.35
1208772 2026-04-15 14:51:03 2026-04-15 14:51:03 Stelmat002 102 S 131.03 51.50 18.14 25854.984 2.789 2.789 60.09 0.90
1208771 2026-04-15 14:51:01 2026-04-15 14:51:00 Stelmat002 101 R 130.90 19.74 7.05 27451.742 1.297 1.297 60.10 0.91
1208770 2026-04-15 14:48:23 2026-04-15 14:48:21 Stelmat001 025 T 131.70 4.32 239.00 964.570 0.040 0.040 60.00 0.42
1208769 2026-04-15 14:48:23 2026-04-15 14:48:21 Stelmat001 024 S 130.90 4.71 426.60 3432.170 0.080 0.080 60.00 0.69
1208768 2026-04-15 14:48:22 2026-04-15 14:48:21 Stelmat001 023 R 130.80 17.24 2229.80 18118.640 0.370 0.370 60.00 0.99
1208767 2026-04-15 14:48:19 2026-04-15 14:48:15 Stelmat001 065 T 130.90 1.87 151.30 2179.810 0.030 0.030 60.00 0.62
1208766 2026-04-15 14:48:19 2026-04-15 14:48:15 Stelmat001 064 S 144.80 7.02 559.10 3373.100 0.090 0.090 60.00 0.55
1208765 2026-04-15 14:48:18 2026-04-15 14:48:15 Stelmat001 063 R 130.80 2.63 277.00 1809.570 0.050 0.050 60.00 0.80
1208764 2026-04-15 14:47:36 2026-04-15 14:47:31 Stelmat001 022 T 130.90 3.55 426.00 6400.570 0.070 0.070 60.00 0.92
1208763 2026-04-15 14:47:35 2026-04-15 14:47:31 Stelmat001 021 S 131.50 6.52 620.90 4712.030 0.110 0.110 60.00 0.72
1208762 2026-04-15 14:47:34 2026-04-15 14:47:31 Stelmat001 020 R 130.70 3.48 347.80 455.790 0.060 0.060 60.00 0.77
1208761 2026-04-15 14:45:56 2026-04-15 14:45:54 Stelmat001 062 T 130.70 3.49 252.80 4543.440 0.040 0.040 60.00 0.55
1208760 2026-04-15 14:45:56 2026-04-15 14:45:54 Stelmat001 018 T 144.20 15.51 1188.70 12118.940 0.200 0.200 60.00 0.53
1208759 2026-04-15 14:45:56 2026-04-15 14:45:54 Stelmat001 061 S 130.60 5.94 734.60 8320.740 0.120 0.120 60.00 0.95
1208758 2026-04-15 14:45:55 2026-04-15 14:45:54 Stelmat001 017 S 130.40 15.48 761.80 7038.930 0.120 0.120 60.00 0.38
1208757 2026-04-15 14:45:55 2026-04-15 14:45:54 Stelmat001 060 R 131.50 1.91 63.30 467.250 0.010 0.010 60.00 0.25
1208756 2026-04-15 14:45:55 2026-04-15 14:45:54 Stelmat001 016 R 130.40 15.58 1872.20 16461.210 0.310 0.310 60.00 0.92
1208755 2026-04-15 14:43:22 2026-04-15 14:43:20 Stelmat001 012 T 131.30 6.25 296.60 3624.990 0.050 0.050 60.00 0.36
1208754 2026-04-15 14:43:22 2026-04-15 14:43:20 Stelmat001 011 S 131.10 4.64 384.80 5534.010 0.070 0.070 60.00 0.63
1208753 2026-04-15 14:43:21 2026-04-15 14:43:20 Stelmat001 010 R 130.80 2.77 253.40 4232.130 0.040 0.040 60.00 0.70
1208752 2026-04-15 14:41:00 2026-04-15 14:40:59 Stelmat002 102 S 130.73 46.57 16.16 25852.195 3.131 3.131 59.97 0.88
1208751 2026-04-15 14:40:57 2026-04-15 14:40:56 Stelmat002 101 R 130.57 26.65 9.69 27450.445 1.101 1.101 59.96 0.93
1208750 2026-04-15 14:38:23 2026-04-15 14:38:19 Stelmat001 025 T 131.20 4.34 239.10 964.530 0.050 0.050 60.00 0.42
1208749 2026-04-15 14:38:22 2026-04-15 14:38:19 Stelmat001 024 S 130.40 5.61 486.60 3432.090 0.060 0.060 60.00 0.67
1208748 2026-04-15 14:38:22 2026-04-15 14:38:19 Stelmat001 023 R 130.30 17.29 2229.00 18118.270 0.380 0.380 60.00 0.99
1208747 2026-04-15 14:38:19 2026-04-15 14:38:17 Stelmat001 065 T 130.30 2.24 219.50 2179.780 0.040 0.040 60.00 0.75
1208746 2026-04-15 14:38:19 2026-04-15 14:38:17 Stelmat001 064 S 144.10 7.04 558.20 3373.010 0.090 0.090 59.90 0.55
1208745 2026-04-15 14:38:18 2026-04-15 14:38:17 Stelmat001 063 R 130.20 2.79 285.00 1809.520 0.050 0.050 60.00 0.78
1208744 2026-04-15 14:37:36 2026-04-15 14:37:33 Stelmat001 022 T 130.30 3.26 390.70 6400.500 0.070 0.070 59.90 0.92
1208743 2026-04-15 14:37:35 2026-04-15 14:37:33 Stelmat001 021 S 130.80 7.16 711.60 4711.920 0.130 0.130 59.90 0.76
1208742 2026-04-15 14:37:34 2026-04-15 14:37:33 Stelmat001 020 R 130.10 3.47 325.50 455.730 0.060 0.060 59.90 0.72
1208741 2026-04-15 14:35:56 2026-04-15 14:35:52 Stelmat001 062 T 130.40 2.97 209.70 4543.400 0.040 0.040 59.90 0.54
1208740 2026-04-15 14:35:56 2026-04-15 14:35:51 Stelmat001 018 T 143.80 16.92 1275.00 12118.740 0.200 0.200 60.00 0.52
1208739 2026-04-15 14:35:55 2026-04-15 14:35:52 Stelmat001 061 S 130.30 5.99 739.80 8320.620 0.120 0.120 59.90 0.95
1208738 2026-04-15 14:35:55 2026-04-15 14:35:51 Stelmat001 017 S 130.10 16.88 864.10 7038.810 0.130 0.130 60.00 0.39
1208737 2026-04-15 14:35:55 2026-04-15 14:35:52 Stelmat001 060 R 131.20 1.88 60.50 467.240 0.010 0.010 60.00 0.25
1208736 2026-04-15 14:35:55 2026-04-15 14:35:51 Stelmat001 016 R 130.10 16.96 2054.00 16460.900 0.310 0.310 59.90 0.93
1208735 2026-04-15 14:33:22 2026-04-15 14:33:17 Stelmat001 012 T 131.60 6.34 307.60 3624.940 0.050 0.050 59.90 0.37
1208734 2026-04-15 14:33:21 2026-04-15 14:33:17 Stelmat001 011 S 131.20 4.85 402.20 5533.940 0.070 0.070 60.00 0.63
1208733 2026-04-15 14:33:21 2026-04-15 14:33:17 Stelmat001 010 R 130.90 2.33 204.30 4232.090 0.040 0.040 60.00 0.67
1208732 2026-04-15 14:33:07 2026-04-15 14:33:02 Stelmat001 034 T 130.90 2.95 65.50 421.440 0.020 0.020 60.00 0.17
1208731 2026-04-15 14:33:06 2026-04-15 14:33:02 Stelmat001 033 S 131.30 2.74 200.40 558.150 0.070 0.070 60.00 0.56
1208730 2026-04-15 14:33:06 2026-04-15 14:33:02 Stelmat001 032 R 143.70 1.91 101.50 589.390 0.030 0.030 60.00 0.37
1208729 2026-04-15 14:30:56 2026-04-15 14:30:55 Stelmat002 102 S 131.71 43.02 14.84 25849.064 2.894 2.894 60.00 0.87
1208728 2026-04-15 14:30:53 2026-04-15 14:30:53 Stelmat002 101 R 131.60 18.20 6.54 27449.344 1.084 1.084 60.00 0.91
1208727 2026-04-15 14:28:21 2026-04-15 14:28:16 Stelmat001 025 T 132.20 4.30 238.80 964.480 0.030 0.030 60.00 0.42
1208726 2026-04-15 14:28:20 2026-04-15 14:28:16 Stelmat001 024 S 131.40 3.52 305.80 3432.030 0.050 0.050 59.90 0.66
1208725 2026-04-15 14:28:19 2026-04-15 14:28:16 Stelmat001 023 R 131.20 16.83 2195.80 18117.890 0.360 0.360 59.90 0.99
1208724 2026-04-15 14:28:19 2026-04-15 14:28:15 Stelmat001 065 T 131.40 2.23 220.50 2179.740 0.030 0.030 60.00 0.75
1208723 2026-04-15 14:28:19 2026-04-15 14:28:15 Stelmat001 064 S 145.30 6.99 558.90 3372.920 0.100 0.100 59.90 0.55
1208722 2026-04-15 14:28:18 2026-04-15 14:28:15 Stelmat001 063 R 131.30 2.80 290.10 1809.470 0.050 0.050 60.00 0.79
1208721 2026-04-15 14:27:36 2026-04-15 14:27:31 Stelmat001 022 T 131.60 3.21 389.00 6400.430 0.070 0.070 60.00 0.92
1208720 2026-04-15 14:27:35 2026-04-15 14:27:31 Stelmat001 021 S 132.20 8.51 905.60 4711.790 0.120 0.120 59.90 0.80
1208719 2026-04-15 14:27:34 2026-04-15 14:27:31 Stelmat001 020 R 131.40 3.32 331.70 455.670 0.040 0.040 60.00 0.76
1208718 2026-04-15 14:25:56 2026-04-15 14:25:54 Stelmat001 062 T 131.90 3.64 262.70 4543.360 0.040 0.040 59.90 0.55
1208717 2026-04-15 14:25:56 2026-04-15 14:25:54 Stelmat001 018 T 145.60 15.47 1189.30 12118.540 0.200 0.200 60.00 0.53
1208716 2026-04-15 14:25:55 2026-04-15 14:25:54 Stelmat001 017 S 131.60 15.46 771.40 7038.680 0.130 0.130 60.00 0.38
1208715 2026-04-15 14:25:55 2026-04-15 14:25:54 Stelmat001 061 S 131.80 6.02 754.00 8320.500 0.130 0.130 60.00 0.95
1208714 2026-04-15 14:25:55 2026-04-15 14:25:54 Stelmat001 016 R 131.60 15.58 1891.80 16460.590 0.320 0.320 60.00 0.92
1208713 2026-04-15 14:25:55 2026-04-15 14:25:54 Stelmat001 060 R 132.80 1.87 63.00 467.230 0.010 0.010 60.00 0.25
1208712 2026-04-15 14:23:22 2026-04-15 14:23:19 Stelmat001 012 T 133.10 6.40 306.90 3624.890 0.060 0.060 60.00 0.36
1208711 2026-04-15 14:23:21 2026-04-15 14:23:19 Stelmat001 011 S 132.30 4.70 398.90 5533.870 0.060 0.060 60.00 0.64
1208710 2026-04-15 14:23:21 2026-04-15 14:23:19 Stelmat001 010 R 131.90 2.68 253.60 4232.050 0.040 0.040 60.00 0.72
1208709 2026-04-15 14:20:52 2026-04-15 14:20:52 Stelmat002 102 S 132.60 45.11 15.78 25846.170 3.162 3.162 60.02 0.88
1208708 2026-04-15 14:20:50 2026-04-15 14:20:49 Stelmat002 101 R 132.49 16.90 6.08 27448.260 1.240 1.240 60.02 0.90
1208707 2026-04-15 14:18:19 2026-04-15 14:18:17 Stelmat001 065 T 131.80 2.22 220.40 2179.710 0.040 0.040 59.90 0.75
1208706 2026-04-15 14:18:19 2026-04-15 14:18:15 Stelmat001 025 T 132.80 4.29 239.70 964.450 0.050 0.050 59.90 0.42
1208705 2026-04-15 14:18:19 2026-04-15 14:18:17 Stelmat001 064 S 145.90 6.96 560.00 3372.820 0.090 0.090 60.00 0.55
1208704 2026-04-15 14:18:18 2026-04-15 14:18:15 Stelmat001 024 S 131.80 3.09 280.70 3431.980 0.050 0.050 59.90 0.69
1208703 2026-04-15 14:18:18 2026-04-15 14:18:17 Stelmat001 063 R 131.80 2.81 292.50 1809.420 0.050 0.050 60.00 0.79
1208702 2026-04-15 14:18:17 2026-04-15 14:18:15 Stelmat001 023 R 131.70 16.41 2141.30 18117.530 0.370 0.370 60.00 0.99
1208701 2026-04-15 14:17:33 2026-04-15 14:17:29 Stelmat001 022 T 132.00 3.38 414.30 6400.360 0.060 0.060 59.90 0.93
1208700 2026-04-15 14:17:33 2026-04-15 14:17:29 Stelmat001 021 S 132.70 6.42 598.60 4711.670 0.100 0.100 59.90 0.70
1208699 2026-04-15 14:17:32 2026-04-15 14:17:29 Stelmat001 020 R 131.80 2.19 212.00 455.630 0.040 0.040 60.00 0.74
1208698 2026-04-15 14:15:56 2026-04-15 14:15:51 Stelmat001 062 T 131.80 3.15 212.20 4543.320 0.030 0.030 60.00 0.51
1208697 2026-04-15 14:15:56 2026-04-15 14:15:51 Stelmat001 018 T 145.60 17.21 1299.40 12118.340 0.200 0.200 59.90 0.52
1208696 2026-04-15 14:15:55 2026-04-15 14:15:51 Stelmat001 061 S 131.80 5.87 734.20 8320.370 0.120 0.120 60.00 0.95
1208695 2026-04-15 14:15:55 2026-04-15 14:15:51 Stelmat001 017 S 131.60 17.18 895.90 7038.550 0.130 0.130 60.00 0.40
1208694 2026-04-15 14:15:55 2026-04-15 14:15:51 Stelmat001 060 R 132.80 1.72 48.90 467.220 0.010 0.010 60.00 0.21
1208693 2026-04-15 14:15:55 2026-04-15 14:15:51 Stelmat001 016 R 131.60 17.31 2119.00 16460.270 0.320 0.320 60.00 0.93
1208692 2026-04-15 14:13:22 2026-04-15 14:13:17 Stelmat001 012 T 132.80 6.71 318.20 3624.830 0.050 0.050 60.00 0.36
1208691 2026-04-15 14:13:21 2026-04-15 14:13:17 Stelmat001 011 S 132.00 4.96 411.50 5533.810 0.070 0.070 60.00 0.63
1208690 2026-04-15 14:13:20 2026-04-15 14:13:17 Stelmat001 010 R 131.90 2.60 255.80 4232.010 0.050 0.050 60.00 0.75
1208689 2026-04-15 14:13:07 2026-04-15 14:13:02 Stelmat001 034 T 131.60 3.01 76.10 421.420 0.020 0.020 59.90 0.19
1208688 2026-04-15 14:13:06 2026-04-15 14:13:02 Stelmat001 033 S 132.20 2.72 199.30 558.080 0.060 0.060 59.90 0.55
1208687 2026-04-15 14:13:06 2026-04-15 14:13:02 Stelmat001 032 R 144.50 1.86 101.80 589.360 0.030 0.030 59.90 0.38
1208686 2026-04-15 14:10:48 2026-04-15 14:10:48 Stelmat002 102 S 132.64 41.60 14.36 25843.008 2.985 2.985 60.00 0.87
1208685 2026-04-15 14:10:46 2026-04-15 14:10:45 Stelmat002 101 R 132.48 13.88 4.88 27447.020 1.467 1.467 60.00 0.88
1208684 2026-04-15 14:08:19 2026-04-15 14:08:14 Stelmat001 065 T 132.00 2.32 228.20 2179.670 0.040 0.040 60.00 0.75
1208683 2026-04-15 14:08:18 2026-04-15 14:08:14 Stelmat001 064 S 146.10 6.97 560.10 3372.730 0.100 0.100 59.90 0.55
1208682 2026-04-15 14:08:18 2026-04-15 14:08:14 Stelmat001 063 R 131.80 2.81 291.80 1809.370 0.040 0.040 60.00 0.79
1208681 2026-04-15 14:08:17 2026-04-15 14:08:14 Stelmat001 025 T 132.90 4.29 240.10 964.400 0.040 0.040 60.00 0.42
1208680 2026-04-15 14:08:17 2026-04-15 14:08:14 Stelmat001 024 S 132.00 4.12 344.30 3431.930 0.050 0.050 60.00 0.63
1208679 2026-04-15 14:08:16 2026-04-15 14:08:14 Stelmat001 023 R 131.70 17.10 2227.60 18117.160 0.380 0.380 60.00 0.99
1208678 2026-04-15 14:07:31 2026-04-15 14:07:28 Stelmat001 022 T 132.00 2.51 286.10 6400.300 0.060 0.060 60.00 0.86
1208677 2026-04-15 14:07:30 2026-04-15 14:07:28 Stelmat001 021 S 132.70 5.96 566.50 4711.570 0.110 0.110 60.00 0.72
1208676 2026-04-15 14:07:30 2026-04-15 14:07:28 Stelmat001 020 R 131.70 3.01 292.30 455.590 0.050 0.050 60.00 0.74
1208675 2026-04-15 14:05:56 2026-04-15 14:05:54 Stelmat001 018 T 145.50 16.53 1254.70 12118.140 0.200 0.200 60.00 0.52
1208674 2026-04-15 14:05:56 2026-04-15 14:05:54 Stelmat001 062 T 131.80 3.25 220.10 4543.290 0.040 0.040 60.00 0.51
1208673 2026-04-15 14:05:55 2026-04-15 14:05:54 Stelmat001 017 S 131.30 16.51 844.30 7038.420 0.130 0.130 60.00 0.39
1208672 2026-04-15 14:05:55 2026-04-15 14:05:54 Stelmat001 061 S 131.60 5.85 727.70 8320.250 0.120 0.120 59.90 0.94
1208671 2026-04-15 14:05:55 2026-04-15 14:05:54 Stelmat001 016 R 131.50 16.67 2033.30 16459.950 0.320 0.320 60.00 0.93
1208670 2026-04-15 14:05:55 2026-04-15 14:05:54 Stelmat001 060 R 132.70 2.17 80.50 467.210 0.010 0.010 59.90 0.28
1208669 2026-04-15 14:03:22 2026-04-15 14:03:19 Stelmat001 012 T 132.50 6.97 336.60 3624.780 0.050 0.050 60.00 0.36
1208668 2026-04-15 14:03:21 2026-04-15 14:03:19 Stelmat001 011 S 131.80 4.50 386.10 5533.740 0.070 0.070 60.00 0.65
1208667 2026-04-15 14:03:20 2026-04-15 14:03:19 Stelmat001 010 R 131.50 2.70 295.10 4231.960 0.050 0.050 60.00 0.83
1208666 2026-04-15 14:00:44 2026-04-15 14:00:44 Stelmat002 102 S 131.92 52.14 18.62 25840.023 3.072 3.072 60.02 0.90
1208665 2026-04-15 14:00:42 2026-04-15 14:00:41 Stelmat002 101 R 131.75 26.56 9.81 27445.553 1.237 1.237 60.02 0.94
1208664 2026-04-15 13:58:19 2026-04-15 13:58:17 Stelmat001 065 T 132.00 2.31 229.00 2179.630 0.040 0.040 60.00 0.75
1208663 2026-04-15 13:58:19 2026-04-15 13:58:17 Stelmat001 064 S 146.10 6.96 560.00 3372.630 0.090 0.090 60.00 0.55
1208662 2026-04-15 13:58:18 2026-04-15 13:58:17 Stelmat001 063 R 131.90 2.84 293.20 1809.330 0.050 0.050 60.00 0.78
1208661 2026-04-15 13:58:16 2026-04-15 13:58:11 Stelmat001 025 T 133.00 4.27 239.30 964.360 0.040 0.040 60.00 0.42
1208660 2026-04-15 13:58:16 2026-04-15 13:58:11 Stelmat001 024 S 132.00 3.43 311.90 3431.880 0.040 0.040 60.00 0.69
1208659 2026-04-15 13:58:15 2026-04-15 13:58:11 Stelmat001 023 R 131.80 17.11 2231.60 18116.780 0.470 0.470 60.00 0.99
1208658 2026-04-15 13:57:30 2026-04-15 13:57:25 Stelmat001 022 T 132.10 2.77 317.90 6400.240 0.060 0.060 59.90 0.87
1208657 2026-04-15 13:57:29 2026-04-15 13:57:25 Stelmat001 021 S 132.90 6.90 701.50 4711.460 0.110 0.110 60.00 0.77
1208656 2026-04-15 13:57:28 2026-04-15 13:57:25 Stelmat001 020 R 131.60 3.57 368.40 455.540 0.060 0.060 60.00 0.78
1208655 2026-04-15 13:55:56 2026-04-15 13:55:51 Stelmat001 018 T 146.00 15.69 1203.10 12117.940 0.190 0.190 60.00 0.53
1208654 2026-04-15 13:55:56 2026-04-15 13:55:51 Stelmat001 062 T 132.10 2.80 195.00 4543.250 0.030 0.030 60.00 0.53
1208653 2026-04-15 13:55:55 2026-04-15 13:55:51 Stelmat001 061 S 131.70 5.93 738.80 8320.130 0.120 0.120 60.00 0.95
1208652 2026-04-15 13:55:55 2026-04-15 13:55:51 Stelmat001 017 S 131.50 15.66 779.80 7038.290 0.120 0.120 60.00 0.38
1208651 2026-04-15 13:55:55 2026-04-15 13:55:51 Stelmat001 016 R 131.80 15.83 1928.10 16459.630 0.300 0.300 60.00 0.92
1208650 2026-04-15 13:55:55 2026-04-15 13:55:51 Stelmat001 060 R 133.10 1.74 54.60 467.200 0.020 0.020 60.00 0.24
1208649 2026-04-15 13:53:22 2026-04-15 13:53:18 Stelmat001 012 T 132.70 6.51 307.30 3624.730 0.060 0.060 59.90 0.36
1208648 2026-04-15 13:53:21 2026-04-15 13:53:18 Stelmat001 011 S 131.80 4.27 364.80 5533.670 0.060 0.060 60.00 0.65
1208647 2026-04-15 13:53:20 2026-04-15 13:53:18 Stelmat001 010 R 131.40 2.92 329.30 4231.910 0.060 0.060 60.00 0.86
1208646 2026-04-15 13:53:07 2026-04-15 13:53:02 Stelmat001 034 T 131.40 2.88 31.50 421.400 0.010 0.010 60.00 0.08
1208645 2026-04-15 13:53:06 2026-04-15 13:53:02 Stelmat001 033 S 132.30 2.82 198.20 558.020 0.070 0.070 59.90 0.53
1208644 2026-04-15 13:53:06 2026-04-15 13:53:02 Stelmat001 032 R 144.10 1.23 69.00 589.330 0.030 0.030 59.90 0.39
1208643 2026-04-15 13:50:40 2026-04-15 13:50:40 Stelmat002 102 S 131.80 48.05 16.92 25836.951 2.584 2.584 60.02 0.89
1208642 2026-04-15 13:50:38 2026-04-15 13:50:37 Stelmat002 101 R 131.68 26.74 9.82 27444.316 1.125 1.125 60.02 0.93
1208641 2026-04-15 13:48:19 2026-04-15 13:48:15 Stelmat001 065 T 131.40 2.67 258.40 2179.590 0.050 0.050 60.00 0.74
1208640 2026-04-15 13:48:18 2026-04-15 13:48:15 Stelmat001 064 S 145.60 7.21 572.40 3372.540 0.100 0.100 60.00 0.55
1208639 2026-04-15 13:48:18 2026-04-15 13:48:15 Stelmat001 063 R 131.10 2.86 290.00 1809.280 0.050 0.050 60.00 0.77
1208638 2026-04-15 13:48:16 2026-04-15 13:48:14 Stelmat001 025 T 132.50 4.31 241.10 964.320 0.030 0.030 59.90 0.42
1208637 2026-04-15 13:48:16 2026-04-15 13:48:14 Stelmat001 024 S 131.40 2.43 235.50 3431.840 0.040 0.040 59.90 0.74
1208636 2026-04-15 13:48:15 2026-04-15 13:48:14 Stelmat001 023 R 131.00 23.84 3119.70 18116.310 0.380 0.380 60.00 1.00
1208635 2026-04-15 13:47:30 2026-04-15 13:47:27 Stelmat001 022 T 131.50 2.76 317.10 6400.180 0.060 0.060 60.00 0.87
1208634 2026-04-15 13:47:29 2026-04-15 13:47:27 Stelmat001 021 S 132.60 6.43 619.20 4711.350 0.100 0.100 60.00 0.73
1208633 2026-04-15 13:47:28 2026-04-15 13:47:27 Stelmat001 020 R 131.00 3.48 331.90 455.480 0.060 0.060 60.00 0.73
1208632 2026-04-15 13:45:56 2026-04-15 13:45:54 Stelmat001 062 T 131.80 2.98 208.40 4543.220 0.030 0.030 60.00 0.53
1208631 2026-04-15 13:45:56 2026-04-15 13:45:54 Stelmat001 018 T 145.90 12.15 968.50 12117.750 0.190 0.190 60.00 0.55
1208630 2026-04-15 13:45:55 2026-04-15 13:45:54 Stelmat001 061 S 131.30 5.57 692.80 8320.010 0.120 0.120 60.00 0.95
1208629 2026-04-15 13:45:55 2026-04-15 13:45:54 Stelmat001 017 S 131.20 12.13 517.10 7038.170 0.120 0.120 60.00 0.32
1208628 2026-04-15 13:45:55 2026-04-15 13:45:54 Stelmat001 060 R 132.90 1.91 64.70 467.180 0.010 0.010 60.00 0.25
1208627 2026-04-15 13:45:55 2026-04-15 13:45:54 Stelmat001 016 R 131.60 12.28 1440.60 16459.330 0.290 0.290 60.00 0.89
1208626 2026-04-15 13:43:20 2026-04-15 13:43:15 Stelmat001 012 T 132.30 6.88 331.00 3624.670 0.050 0.050 60.00 0.36
1208625 2026-04-15 13:43:20 2026-04-15 13:43:15 Stelmat001 011 S 131.60 4.03 348.30 5533.610 0.050 0.050 60.00 0.66
1208624 2026-04-15 13:43:19 2026-04-15 13:43:15 Stelmat001 010 R 131.30 2.98 324.50 4231.850 0.050 0.050 60.00 0.83
1208623 2026-04-15 13:40:38 2026-04-15 13:40:37 Stelmat002 102 S 131.63 54.75 19.61 25834.367 2.375 2.375 60.01 0.91
1208622 2026-04-15 13:40:35 2026-04-15 13:40:34 Stelmat002 101 R 131.53 11.98 4.04 27443.191 1.138 1.138 60.01 0.85
1208621 2026-04-15 13:38:25 2026-04-15 13:38:17 Stelmat001 065 T 131.20 2.63 255.50 2179.540 0.040 0.040 60.00 0.74
1208620 2026-04-15 13:38:18 2026-04-15 13:38:17 Stelmat001 064 S 145.30 6.99 557.60 3372.440 0.100 0.100 59.90 0.55
1208619 2026-04-15 13:38:18 2026-04-15 13:38:17 Stelmat001 063 R 131.10 2.83 289.20 1809.230 0.050 0.050 59.90 0.78
1208618 2026-04-15 13:38:16 2026-04-15 13:38:11 Stelmat001 025 T 132.20 2.92 170.90 964.290 0.020 0.020 60.00 0.44
1208617 2026-04-15 13:38:15 2026-04-15 13:38:11 Stelmat001 024 S 131.30 2.25 218.60 3431.800 0.050 0.050 60.00 0.74
1208616 2026-04-15 13:38:15 2026-04-15 13:38:11 Stelmat001 023 R 131.10 13.85 1806.70 18115.930 0.300 0.300 59.90 1.00
1208615 2026-04-15 13:37:30 2026-04-15 13:37:25 Stelmat001 022 T 131.50 2.76 322.90 6400.120 0.050 0.050 60.00 0.89
1208614 2026-04-15 13:37:29 2026-04-15 13:37:25 Stelmat001 021 S 132.10 5.46 516.10 4711.250 0.090 0.090 60.00 0.72
1208613 2026-04-15 13:37:28 2026-04-15 13:37:25 Stelmat001 020 R 131.20 3.68 361.70 455.420 0.050 0.050 60.00 0.75
1208612 2026-04-15 13:35:56 2026-04-15 13:35:51 Stelmat001 062 T 131.40 3.16 218.00 4543.190 0.040 0.040 59.90 0.53
1208611 2026-04-15 13:35:56 2026-04-15 13:35:51 Stelmat001 018 T 145.20 12.51 989.00 12117.560 0.170 0.170 59.90 0.54
1208610 2026-04-15 13:35:55 2026-04-15 13:35:51 Stelmat001 017 S 131.10 12.50 550.50 7038.050 0.090 0.090 60.00 0.34
1208609 2026-04-15 13:35:55 2026-04-15 13:35:51 Stelmat001 061 S 131.30 5.57 699.10 8319.890 0.110 0.110 60.00 0.96
1208608 2026-04-15 13:35:54 2026-04-15 13:35:51 Stelmat001 016 R 131.30 12.60 1484.00 16459.040 0.260 0.260 60.00 0.90
1208607 2026-04-15 13:35:54 2026-04-15 13:35:51 Stelmat001 060 R 132.30 2.13 77.10 467.170 0.010 0.010 59.90 0.27
1208606 2026-04-15 13:33:20 2026-04-15 13:33:18 Stelmat001 012 T 132.40 6.57 323.10 3624.620 0.060 0.060 60.00 0.37
1208605 2026-04-15 13:33:20 2026-04-15 13:33:18 Stelmat001 011 S 131.70 3.62 322.50 5533.560 0.060 0.060 59.90 0.68
1208604 2026-04-15 13:33:19 2026-04-15 13:33:18 Stelmat001 010 R 131.30 2.78 312.90 4231.800 0.050 0.050 60.00 0.86
1208603 2026-04-15 13:33:07 2026-04-15 13:33:02 Stelmat001 034 T 131.40 2.64 7.60 421.390 0.010 0.010 59.90 0.02
1208602 2026-04-15 13:33:06 2026-04-15 13:33:02 Stelmat001 033 S 132.00 2.61 185.20 557.950 0.060 0.060 59.90 0.54
1208601 2026-04-15 13:33:06 2026-04-15 13:33:02 Stelmat001 032 R 144.10 1.16 60.90 589.300 0.020 0.020 59.90 0.37
1208600 2026-04-15 13:30:35 2026-04-15 13:30:34 Stelmat002 102 S 131.92 38.54 13.00 25831.992 2.838 2.838 59.97 0.85
1208599 2026-04-15 13:30:32 2026-04-15 13:30:31 Stelmat002 101 R 131.79 15.02 5.29 27442.053 0.748 0.748 59.97 0.89
1208598 2026-04-15 13:28:19 2026-04-15 13:28:14 Stelmat001 065 T 131.60 2.64 258.20 2179.500 0.040 0.040 59.90 0.74
1208597 2026-04-15 13:28:18 2026-04-15 13:28:14 Stelmat001 064 S 145.60 6.98 558.80 3372.340 0.090 0.090 59.90 0.55
1208596 2026-04-15 13:28:18 2026-04-15 13:28:14 Stelmat001 063 R 131.50 2.97 300.10 1809.180 0.050 0.050 59.90 0.77
1208595 2026-04-15 13:28:16 2026-04-15 13:28:14 Stelmat001 025 T 132.50 2.91 170.20 964.270 0.030 0.030 59.80 0.44
1208594 2026-04-15 13:28:15 2026-04-15 13:28:14 Stelmat001 024 S 131.60 2.77 273.10 3431.750 0.040 0.040 59.80 0.75
1208593 2026-04-15 13:28:15 2026-04-15 13:28:14 Stelmat001 023 R 131.50 13.83 1808.80 18115.630 0.300 0.300 59.90 0.99
1208592 2026-04-15 13:27:30 2026-04-15 13:27:27 Stelmat001 022 T 131.80 2.78 327.80 6400.070 0.050 0.050 59.90 0.90
1208591 2026-04-15 13:27:29 2026-04-15 13:27:27 Stelmat001 021 S 132.30 5.82 615.30 4711.160 0.090 0.090 59.90 0.80
1208590 2026-04-15 13:27:28 2026-04-15 13:27:27 Stelmat001 020 R 131.60 3.05 300.50 455.370 0.050 0.050 59.90 0.75
1208589 2026-04-15 13:25:56 2026-04-15 13:25:53 Stelmat001 062 T 131.70 3.05 211.40 4543.150 0.030 0.030 60.00 0.53
1208588 2026-04-15 13:25:56 2026-04-15 13:25:53 Stelmat001 018 T 145.30 15.70 1206.10 12117.390 0.180 0.180 60.00 0.53
1208587 2026-04-15 13:25:55 2026-04-15 13:25:53 Stelmat001 017 S 131.30 15.68 781.00 7037.960 0.110 0.110 60.00 0.38
1208586 2026-04-15 13:25:55 2026-04-15 13:25:53 Stelmat001 061 S 131.50 5.44 678.00 8319.780 0.120 0.120 60.00 0.95
1208585 2026-04-15 13:25:54 2026-04-15 13:25:53 Stelmat001 016 R 131.40 15.83 1922.50 16458.780 0.280 0.280 60.00 0.92
1208584 2026-04-15 13:25:54 2026-04-15 13:25:53 Stelmat001 060 R 132.50 1.86 53.60 467.160 0.010 0.010 60.00 0.22
1208583 2026-04-15 13:23:20 2026-04-15 13:23:15 Stelmat001 012 T 132.20 7.16 351.70 3624.560 0.060 0.060 60.00 0.37
1208582 2026-04-15 13:23:19 2026-04-15 13:23:15 Stelmat001 011 S 131.50 4.34 378.80 5533.500 0.060 0.060 60.00 0.66
1208581 2026-04-15 13:23:19 2026-04-15 13:23:15 Stelmat001 010 R 131.20 2.54 273.90 4231.750 0.040 0.040 60.00 0.82
1208580 2026-04-15 13:20:32 2026-04-15 13:20:31 Stelmat002 102 S 131.49 45.62 15.89 25829.154 2.642 2.642 60.02 0.88
1208579 2026-04-15 13:20:29 2026-04-15 13:20:29 Stelmat002 101 R 131.40 19.19 6.90 27441.305 0.760 0.760 60.02 0.92
1208578 2026-04-15 13:18:19 2026-04-15 13:18:16 Stelmat001 065 T 131.40 2.63 255.40 2179.460 0.060 0.060 60.00 0.74
1208577 2026-04-15 13:18:18 2026-04-15 13:18:16 Stelmat001 064 S 145.40 7.00 558.90 3372.250 0.090 0.090 60.00 0.55
1208576 2026-04-15 13:18:17 2026-04-15 13:18:16 Stelmat001 063 R 131.10 2.83 288.20 1809.130 0.050 0.050 60.00 0.78
1208575 2026-04-15 13:18:16 2026-04-15 13:18:12 Stelmat001 025 T 132.30 2.92 170.60 964.240 0.030 0.030 60.00 0.44
1208574 2026-04-15 13:18:15 2026-04-15 13:18:12 Stelmat001 024 S 131.40 2.80 268.40 3431.710 0.040 0.040 59.90 0.73
1208573 2026-04-15 13:18:14 2026-04-15 13:18:12 Stelmat001 023 R 131.10 13.86 1808.20 18115.330 0.340 0.340 60.00 0.99
1208572 2026-04-15 13:17:29 2026-04-15 13:17:24 Stelmat001 022 T 131.70 2.16 248.80 6400.020 0.050 0.050 60.00 0.87
1208571 2026-04-15 13:17:29 2026-04-15 13:17:24 Stelmat001 021 S 132.30 4.62 451.90 4711.070 0.080 0.080 59.90 0.74
1208570 2026-04-15 13:17:28 2026-04-15 13:17:24 Stelmat001 020 R 131.30 2.54 257.90 455.320 0.040 0.040 59.90 0.77
1208569 2026-04-15 13:15:56 2026-04-15 13:15:51 Stelmat001 018 T 145.50 13.19 1038.20 12117.210 0.180 0.180 60.00 0.54
1208568 2026-04-15 13:15:56 2026-04-15 13:15:51 Stelmat001 062 T 131.70 3.27 228.00 4543.120 0.040 0.040 60.00 0.53
1208567 2026-04-15 13:15:55 2026-04-15 13:15:51 Stelmat001 017 S 131.40 13.18 598.60 7037.850 0.120 0.120 60.00 0.35
1208566 2026-04-15 13:15:55 2026-04-15 13:15:51 Stelmat001 061 S 131.60 6.43 778.30 8319.660 0.130 0.130 60.00 0.92
1208565 2026-04-15 13:15:54 2026-04-15 13:15:51 Stelmat001 016 R 131.50 13.31 1582.20 16458.500 0.290 0.290 60.00 0.90
1208564 2026-04-15 13:15:54 2026-04-15 13:15:51 Stelmat001 060 R 132.60 1.46 35.90 467.150 0.000 0.000 60.00 0.18
1208563 2026-04-15 13:13:20 2026-04-15 13:13:18 Stelmat001 012 T 132.10 6.60 320.30 3624.500 0.050 0.050 60.00 0.37
1208562 2026-04-15 13:13:19 2026-04-15 13:13:18 Stelmat001 011 S 131.30 3.95 352.50 5533.440 0.060 0.060 60.00 0.68
1208561 2026-04-15 13:13:19 2026-04-15 13:13:18 Stelmat001 010 R 131.00 2.38 271.50 4231.710 0.040 0.040 60.00 0.87
1208560 2026-04-15 13:13:07 2026-04-15 13:13:02 Stelmat001 034 T 130.90 2.68 21.50 421.380 0.010 0.010 60.00 0.06
1208559 2026-04-15 13:13:06 2026-04-15 13:13:02 Stelmat001 033 S 131.60 2.79 206.80 557.890 0.060 0.060 59.90 0.56
1208558 2026-04-15 13:13:06 2026-04-15 13:13:02 Stelmat001 032 R 143.70 1.47 64.80 589.280 0.020 0.020 60.00 0.31
1208557 2026-04-15 13:10:29 2026-04-15 13:10:29 Stelmat002 102 S 131.89 38.65 14.01 25826.512 2.170 2.170 59.97 0.92
1208556 2026-04-15 13:10:27 2026-04-15 13:10:26 Stelmat002 101 R 131.78 7.06 1.93 27440.545 1.328 1.328 59.98 0.69
1208555 2026-04-15 13:08:19 2026-04-15 13:08:14 Stelmat001 065 T 131.50 3.55 402.60 2179.400 0.070 0.070 60.00 0.86
1208554 2026-04-15 13:08:18 2026-04-15 13:08:14 Stelmat001 064 S 145.50 6.99 558.70 3372.160 0.100 0.100 60.00 0.55
1208553 2026-04-15 13:08:17 2026-04-15 13:08:14 Stelmat001 063 R 131.30 3.32 318.70 1809.080 0.050 0.050 60.00 0.73
1208552 2026-04-15 13:08:15 2026-04-15 13:08:10 Stelmat001 025 T 132.40 2.92 170.20 964.210 0.030 0.030 60.00 0.44
1208551 2026-04-15 13:08:14 2026-04-15 13:08:10 Stelmat001 024 S 131.40 2.78 267.50 3431.670 0.040 0.040 60.00 0.73
1208550 2026-04-15 13:08:13 2026-04-15 13:08:10 Stelmat001 023 R 131.30 16.27 2128.10 18114.990 0.350 0.350 60.00 1.00
1208549 2026-04-15 13:07:29 2026-04-15 13:07:27 Stelmat001 022 T 131.70 2.56 309.30 6399.970 0.060 0.060 60.00 0.92
1208548 2026-04-15 13:07:29 2026-04-15 13:07:27 Stelmat001 021 S 132.40 4.02 347.50 4710.990 0.050 0.050 60.00 0.65
1208547 2026-04-15 13:07:28 2026-04-15 13:07:27 Stelmat001 020 R 131.40 2.17 210.50 455.280 0.040 0.040 60.00 0.74
1208546 2026-04-15 13:05:56 2026-04-15 13:05:53 Stelmat001 018 T 145.60 11.02 886.30 12117.030 0.170 0.170 59.90 0.55
1208545 2026-04-15 13:05:56 2026-04-15 13:05:53 Stelmat001 062 T 131.70 2.45 186.70 4543.080 0.030 0.030 59.90 0.58
1208544 2026-04-15 13:05:55 2026-04-15 13:05:53 Stelmat001 017 S 131.50 11.03 448.00 7037.730 0.090 0.090 59.90 0.31
1208543 2026-04-15 13:05:55 2026-04-15 13:05:53 Stelmat001 061 S 131.60 6.30 755.20 8319.530 0.120 0.120 59.90 0.91
1208542 2026-04-15 13:05:54 2026-04-15 13:05:53 Stelmat001 016 R 131.50 11.12 1286.60 16458.210 0.250 0.250 59.90 0.88
1208541 2026-04-15 13:05:54 2026-04-15 13:05:53 Stelmat001 060 R 132.70 1.51 38.40 467.150 0.010 0.010 59.90 0.19
1208540 2026-04-15 13:03:20 2026-04-15 13:03:15 Stelmat001 012 T 132.40 6.49 316.40 3624.450 0.040 0.040 59.90 0.37
1208539 2026-04-15 13:03:19 2026-04-15 13:03:15 Stelmat001 011 S 131.60 4.05 357.20 5533.380 0.060 0.060 60.00 0.67
1208538 2026-04-15 13:03:18 2026-04-15 13:03:15 Stelmat001 010 R 131.40 1.59 136.10 4231.670 0.020 0.020 59.90 0.65
1208537 2026-04-15 13:00:27 2026-04-15 13:00:26 Stelmat002 102 S 130.91 45.30 15.63 25824.342 2.262 2.262 60.00 0.88
1208536 2026-04-15 13:00:24 2026-04-15 13:00:23 Stelmat002 101 R 130.70 23.51 8.53 27439.217 1.041 1.041 59.99 0.92
1208535 2026-04-15 12:58:19 2026-04-15 12:58:16 Stelmat001 065 T 131.60 3.62 410.50 2179.330 0.070 0.070 60.00 0.86
1208534 2026-04-15 12:58:18 2026-04-15 12:58:16 Stelmat001 064 S 145.50 7.79 621.30 3372.060 0.090 0.090 59.90 0.55
1208533 2026-04-15 12:58:17 2026-04-15 12:58:16 Stelmat001 063 R 131.20 3.34 319.10 1809.030 0.060 0.060 60.00 0.73
1208532 2026-04-15 12:58:13 2026-04-15 12:58:08 Stelmat001 025 T 132.40 2.91 168.90 964.180 0.030 0.030 59.90 0.44
1208531 2026-04-15 12:58:12 2026-04-15 12:58:08 Stelmat001 024 S 131.60 2.32 229.00 3431.630 0.050 0.050 60.00 0.75
1208530 2026-04-15 12:58:11 2026-04-15 12:58:08 Stelmat001 023 R 131.30 15.85 2072.90 18114.640 0.350 0.350 59.90 1.00
1208529 2026-04-15 12:57:29 2026-04-15 12:57:24 Stelmat001 022 T 132.00 2.66 325.40 6399.910 0.060 0.060 60.00 0.93
1208528 2026-04-15 12:57:28 2026-04-15 12:57:24 Stelmat001 021 S 132.40 3.93 379.70 4710.940 0.060 0.060 60.00 0.73
1208527 2026-04-15 12:57:28 2026-04-15 12:57:24 Stelmat001 020 R 131.50 2.05 199.30 455.240 0.030 0.030 60.00 0.74
1208526 2026-04-15 12:55:56 2026-04-15 12:55:51 Stelmat001 018 T 146.00 12.49 995.10 12116.860 0.160 0.160 59.90 0.55
1208525 2026-04-15 12:55:55 2026-04-15 12:55:51 Stelmat001 062 T 132.20 2.46 191.40 4543.050 0.030 0.030 59.90 0.59
1208524 2026-04-15 12:55:55 2026-04-15 12:55:51 Stelmat001 017 S 131.70 12.49 552.10 7037.640 0.090 0.090 59.90 0.34
1208523 2026-04-15 12:55:55 2026-04-15 12:55:51 Stelmat001 061 S 131.80 6.34 771.90 8319.410 0.130 0.130 59.90 0.92
1208522 2026-04-15 12:55:54 2026-04-15 12:55:51 Stelmat001 016 R 132.00 12.61 1491.50 16457.960 0.250 0.250 60.00 0.90
1208521 2026-04-15 12:55:54 2026-04-15 12:55:51 Stelmat001 060 R 133.00 1.77 46.10 467.140 0.010 0.010 59.90 0.20
1208520 2026-04-15 12:53:20 2026-04-15 12:53:17 Stelmat001 012 T 133.20 4.67 227.40 3624.410 0.040 0.040 59.90 0.37
1208519 2026-04-15 12:53:19 2026-04-15 12:53:17 Stelmat001 011 S 132.50 3.29 304.40 5533.320 0.050 0.050 60.00 0.70
1208518 2026-04-15 12:53:18 2026-04-15 12:53:17 Stelmat001 010 R 132.00 1.14 76.80 4231.650 0.010 0.010 60.00 0.51
1208517 2026-04-15 12:53:07 2026-04-15 12:53:03 Stelmat001 034 T 132.30 2.38 9.10 421.370 0.000 0.000 60.00 0.03
1208516 2026-04-15 12:53:06 2026-04-15 12:53:03 Stelmat001 033 S 132.80 2.28 164.50 557.830 0.060 0.060 60.00 0.54
1208515 2026-04-15 12:53:06 2026-04-15 12:53:03 Stelmat001 032 R 145.00 1.04 61.00 589.260 0.020 0.020 59.90 0.40
1208514 2026-04-15 12:50:24 2026-04-15 12:50:23 Stelmat002 102 S 132.74 36.56 13.04 25822.080 2.053 2.053 60.03 0.90
1208513 2026-04-15 12:50:21 2026-04-15 12:50:21 Stelmat002 101 R 132.61 24.13 8.66 27438.176 1.299 1.299 60.03 0.92
1208512 2026-04-15 12:48:19 2026-04-15 12:48:14 Stelmat001 065 T 132.40 3.61 410.70 2179.260 0.070 0.070 59.90 0.86
1208511 2026-04-15 12:48:18 2026-04-15 12:48:14 Stelmat001 064 S 146.40 6.95 561.30 3371.970 0.100 0.100 59.90 0.55
1208510 2026-04-15 12:48:17 2026-04-15 12:48:14 Stelmat001 063 R 132.00 3.34 323.30 1808.970 0.050 0.050 59.90 0.73
1208509 2026-04-15 12:48:13 2026-04-15 12:48:10 Stelmat001 025 T 133.20 2.89 169.20 964.150 0.020 0.020 60.00 0.44
1208508 2026-04-15 12:48:12 2026-04-15 12:48:10 Stelmat001 024 S 132.40 3.13 287.80 3431.580 0.050 0.050 59.90 0.69
1208507 2026-04-15 12:48:11 2026-04-15 12:48:10 Stelmat001 023 R 132.00 15.80 2077.60 18114.290 0.350 0.350 59.90 1.00
1208506 2026-04-15 12:47:29 2026-04-15 12:47:27 Stelmat001 022 T 132.80 3.02 377.20 6399.850 0.060 0.060 59.90 0.94
1208505 2026-04-15 12:47:29 2026-04-15 12:47:27 Stelmat001 021 S 133.30 3.99 345.40 4710.880 0.050 0.050 60.00 0.65
1208504 2026-04-15 12:47:28 2026-04-15 12:47:27 Stelmat001 020 R 132.20 2.17 203.40 455.210 0.040 0.040 59.90 0.71
1208503 2026-04-15 12:45:56 2026-04-15 12:45:54 Stelmat001 018 T 146.90 11.87 952.30 12116.700 0.160 0.160 59.90 0.55
1208502 2026-04-15 12:45:56 2026-04-15 12:45:54 Stelmat001 062 T 133.20 2.05 165.50 4543.020 0.030 0.030 60.00 0.61
1208501 2026-04-15 12:45:55 2026-04-15 12:45:54 Stelmat001 017 S 132.60 11.84 513.20 7037.550 0.090 0.090 59.90 0.33
1208500 2026-04-15 12:45:55 2026-04-15 12:45:54 Stelmat001 061 S 132.80 6.12 762.00 8319.280 0.120 0.120 60.00 0.94
1208499 2026-04-15 12:45:54 2026-04-15 12:45:54 Stelmat001 016 R 133.00 11.98 1414.10 16457.710 0.230 0.230 59.90 0.89
1208498 2026-04-15 12:45:54 2026-04-15 12:45:54 Stelmat001 060 R 133.90 1.50 36.30 467.130 0.000 0.000 60.00 0.18
1208497 2026-04-15 12:43:20 2026-04-15 12:43:15 Stelmat001 012 T 134.00 4.54 218.40 3624.370 0.040 0.040 60.00 0.36
1208496 2026-04-15 12:43:19 2026-04-15 12:43:15 Stelmat001 011 S 133.40 3.35 312.10 5533.270 0.050 0.050 60.00 0.70
1208495 2026-04-15 12:43:18 2026-04-15 12:43:15 Stelmat001 010 R 133.00 1.11 73.70 4231.640 0.010 0.010 59.90 0.50
1208494 2026-04-15 12:40:22 2026-04-15 12:40:21 Stelmat002 102 S 133.71 33.10 11.25 25820.027 2.191 2.191 60.01 0.85
1208493 2026-04-15 12:40:19 2026-04-15 12:40:18 Stelmat002 101 R 133.60 14.47 5.10 27436.877 1.148 1.148 60.01 0.88
1208492 2026-04-15 12:38:19 2026-04-15 12:38:16 Stelmat001 065 T 133.20 3.73 427.00 2179.190 0.060 0.060 60.00 0.86
1208491 2026-04-15 12:38:18 2026-04-15 12:38:16 Stelmat001 064 S 147.10 8.14 665.70 3371.870 0.100 0.100 60.00 0.56
1208490 2026-04-15 12:38:17 2026-04-15 12:38:16 Stelmat001 063 R 132.70 3.31 326.20 1808.920 0.060 0.060 60.00 0.74
1208489 2026-04-15 12:38:12 2026-04-15 12:38:08 Stelmat001 025 T 133.80 1.25 71.70 964.130 0.020 0.020 60.00 0.43
1208488 2026-04-15 12:38:12 2026-04-15 12:38:08 Stelmat001 024 S 133.20 2.88 273.50 3431.530 0.040 0.040 60.00 0.71
1208487 2026-04-15 12:38:11 2026-04-15 12:38:08 Stelmat001 023 R 132.90 15.73 2082.40 18113.940 0.340 0.340 60.00 1.00
1208486 2026-04-15 12:37:29 2026-04-15 12:37:24 Stelmat001 022 T 133.70 2.82 350.40 6399.790 0.100 0.100 60.00 0.93
1208485 2026-04-15 12:37:28 2026-04-15 12:37:24 Stelmat001 021 S 134.10 3.35 291.30 4710.830 0.060 0.060 60.00 0.65
1208484 2026-04-15 12:37:28 2026-04-15 12:37:24 Stelmat001 020 R 133.20 2.15 200.80 455.170 0.040 0.040 60.00 0.70
1208483 2026-04-15 12:35:56 2026-04-15 12:35:51 Stelmat001 018 T 146.30 12.59 997.30 12116.540 0.170 0.170 59.90 0.54
1208482 2026-04-15 12:35:56 2026-04-15 12:35:51 Stelmat001 062 T 132.70 2.13 173.90 4542.990 0.030 0.030 60.00 0.62
1208481 2026-04-15 12:35:55 2026-04-15 12:35:51 Stelmat001 017 S 132.20 12.55 558.10 7037.460 0.090 0.090 59.90 0.34
1208480 2026-04-15 12:35:55 2026-04-15 12:35:51 Stelmat001 061 S 132.30 6.20 769.90 8319.160 0.120 0.120 59.90 0.94
1208479 2026-04-15 12:35:54 2026-04-15 12:35:51 Stelmat001 016 R 132.50 12.68 1495.40 16457.480 0.250 0.250 59.90 0.89
1208478 2026-04-15 12:35:54 2026-04-15 12:35:51 Stelmat001 060 R 133.30 1.53 38.00 467.130 0.010 0.010 60.00 0.19
1208477 2026-04-15 12:33:20 2026-04-15 12:33:17 Stelmat001 012 T 133.00 4.79 227.70 3624.330 0.040 0.040 60.00 0.36
1208476 2026-04-15 12:33:19 2026-04-15 12:33:17 Stelmat001 011 S 132.40 3.17 299.90 5533.220 0.050 0.050 60.00 0.72
1208475 2026-04-15 12:33:18 2026-04-15 12:33:17 Stelmat001 010 R 132.20 1.10 73.30 4231.630 0.010 0.010 60.00 0.50
1208474 2026-04-15 12:33:07 2026-04-15 12:33:02 Stelmat001 034 T 132.20 2.60 13.10 421.370 0.000 0.000 60.00 0.04
1208473 2026-04-15 12:33:06 2026-04-15 12:33:02 Stelmat001 033 S 132.80 2.47 164.90 557.770 0.060 0.060 60.00 0.50
1208472 2026-04-15 12:33:06 2026-04-15 12:33:02 Stelmat001 032 R 145.20 1.08 68.90 589.240 0.020 0.020 60.00 0.44
1208471 2026-04-15 12:30:19 2026-04-15 12:30:18 Stelmat002 102 S 132.56 42.29 14.46 25817.836 2.320 2.320 60.02 0.86
1208470 2026-04-15 12:30:16 2026-04-15 12:30:16 Stelmat002 101 R 132.41 22.57 7.72 27435.729 1.016 1.016 60.02 0.86
1208469 2026-04-15 12:28:19 2026-04-15 12:28:14 Stelmat001 065 T 132.90 3.20 361.00 2179.130 0.070 0.070 59.90 0.85
1208468 2026-04-15 12:28:18 2026-04-15 12:28:14 Stelmat001 064 S 146.70 6.93 560.50 3371.770 0.090 0.090 59.90 0.55
1208467 2026-04-15 12:28:17 2026-04-15 12:28:14 Stelmat001 063 R 132.60 3.29 325.40 1808.860 0.050 0.050 59.90 0.75
1208466 2026-04-15 12:28:12 2026-04-15 12:28:10 Stelmat001 025 T 133.80 1.25 70.50 964.110 0.010 0.010 59.90 0.42
1208465 2026-04-15 12:28:12 2026-04-15 12:28:10 Stelmat001 024 S 133.20 2.91 276.60 3431.490 0.050 0.050 59.90 0.71
1208464 2026-04-15 12:28:11 2026-04-15 12:28:10 Stelmat001 023 R 132.80 16.17 2137.80 18113.600 0.490 0.490 59.90 1.00
1208463 2026-04-15 12:27:29 2026-04-15 12:27:27 Stelmat001 022 T 133.40 2.03 239.00 6399.690 0.060 0.060 59.90 0.88
1208462 2026-04-15 12:27:28 2026-04-15 12:27:27 Stelmat001 021 S 133.70 3.85 381.90 4710.770 0.050 0.050 59.90 0.74
1208461 2026-04-15 12:27:28 2026-04-15 12:27:27 Stelmat001 020 R 132.90 2.21 205.20 455.130 0.040 0.040 60.00 0.70
1208460 2026-04-15 12:25:56 2026-04-15 12:25:53 Stelmat001 018 T 146.60 14.61 1140.10 12116.370 0.150 0.150 60.00 0.53
1208459 2026-04-15 12:25:56 2026-04-15 12:25:53 Stelmat001 062 T 132.90 2.41 188.60 4542.960 0.030 0.030 60.00 0.59
1208458 2026-04-15 12:25:55 2026-04-15 12:25:53 Stelmat001 017 S 132.50 14.57 712.60 7037.370 0.080 0.080 60.00 0.37
1208457 2026-04-15 12:25:55 2026-04-15 12:25:53 Stelmat001 061 S 132.60 6.26 767.20 8319.040 0.130 0.130 60.00 0.92
1208456 2026-04-15 12:25:54 2026-04-15 12:25:53 Stelmat001 016 R 132.70 14.70 1780.30 16457.230 0.220 0.220 60.00 0.91
1208455 2026-04-15 12:25:54 2026-04-15 12:25:53 Stelmat001 060 R 133.60 1.87 49.10 467.120 0.010 0.010 60.00 0.20
1208454 2026-04-15 12:23:19 2026-04-15 12:23:14 Stelmat001 012 T 133.50 4.60 212.10 3624.290 0.030 0.030 60.00 0.35
1208453 2026-04-15 12:23:19 2026-04-15 12:23:14 Stelmat001 011 S 132.90 3.08 296.60 5533.170 0.050 0.050 59.90 0.73
1208452 2026-04-15 12:23:18 2026-04-15 12:23:14 Stelmat001 010 R 132.30 1.19 88.60 4231.620 0.020 0.020 59.90 0.56
1208451 2026-04-15 12:20:16 2026-04-15 12:20:16 Stelmat002 102 S 133.42 31.67 10.31 25815.516 2.174 2.174 60.01 0.81
1208450 2026-04-15 12:20:14 2026-04-15 12:20:13 Stelmat002 101 R 133.24 24.86 8.74 27434.713 1.354 1.354 60.01 0.88
1208449 2026-04-15 12:18:19 2026-04-15 12:18:16 Stelmat001 065 T 132.60 3.48 400.70 2179.060 0.070 0.070 59.90 0.87
1208448 2026-04-15 12:18:18 2026-04-15 12:18:16 Stelmat001 064 S 146.50 6.96 558.30 3371.680 0.100 0.100 60.00 0.55
1208447 2026-04-15 12:18:17 2026-04-15 12:18:16 Stelmat001 063 R 132.00 3.30 323.60 1808.810 0.060 0.060 59.90 0.74
1208446 2026-04-15 12:18:12 2026-04-15 12:18:07 Stelmat001 025 T 133.20 1.25 71.00 964.100 0.020 0.020 59.90 0.43
1208445 2026-04-15 12:18:11 2026-04-15 12:18:07 Stelmat001 024 S 132.60 3.80 336.40 3431.440 0.060 0.060 59.90 0.67
1208444 2026-04-15 12:18:11 2026-04-15 12:18:07 Stelmat001 023 R 132.00 23.56 3103.10 18113.110 0.480 0.480 59.90 1.00
1208443 2026-04-15 12:17:29 2026-04-15 12:17:24 Stelmat001 022 T 132.60 12.31 1530.70 6399.630 0.120 0.120 60.00 0.94
1208442 2026-04-15 12:17:28 2026-04-15 12:17:24 Stelmat001 021 S 133.10 2.99 310.20 4710.720 0.060 0.060 60.00 0.78
1208441 2026-04-15 12:17:27 2026-04-15 12:17:24 Stelmat001 020 R 132.20 2.45 246.40 455.090 0.040 0.040 60.00 0.76
1208440 2026-04-15 12:15:56 2026-04-15 12:15:51 Stelmat001 018 T 146.80 11.91 948.30 12116.220 0.170 0.170 60.00 0.54
1208439 2026-04-15 12:15:55 2026-04-15 12:15:51 Stelmat001 062 T 133.00 2.40 191.10 4542.930 0.040 0.040 59.90 0.60
1208438 2026-04-15 12:15:55 2026-04-15 12:15:51 Stelmat001 017 S 132.50 11.91 507.00 7037.290 0.100 0.100 60.00 0.32
1208437 2026-04-15 12:15:55 2026-04-15 12:15:51 Stelmat001 061 S 132.60 5.96 740.90 8318.910 0.130 0.130 59.90 0.94
1208436 2026-04-15 12:15:54 2026-04-15 12:15:51 Stelmat001 016 R 132.70 12.05 1408.40 16457.010 0.260 0.260 59.90 0.88
1208435 2026-04-15 12:15:54 2026-04-15 12:15:51 Stelmat001 060 R 133.80 1.86 52.30 467.110 0.010 0.010 60.00 0.21
1208434 2026-04-15 12:13:19 2026-04-15 12:13:17 Stelmat001 012 T 132.60 4.70 221.70 3624.260 0.040 0.040 59.90 0.36
1208433 2026-04-15 12:13:19 2026-04-15 12:13:17 Stelmat001 011 S 132.10 3.98 373.30 5533.120 0.070 0.070 59.90 0.71
1208432 2026-04-15 12:13:18 2026-04-15 12:13:17 Stelmat001 010 R 131.40 1.21 88.50 4231.600 0.020 0.020 59.90 0.56
1208431 2026-04-15 12:13:07 2026-04-15 12:13:03 Stelmat001 034 T 131.90 2.80 16.10 421.370 0.010 0.010 59.90 0.04
1208430 2026-04-15 12:13:06 2026-04-15 12:13:03 Stelmat001 033 S 132.20 2.73 187.90 557.710 0.070 0.070 59.90 0.52
1208429 2026-04-15 12:13:06 2026-04-15 12:13:03 Stelmat001 032 R 144.20 1.17 62.20 589.220 0.020 0.020 59.90 0.37
1208428 2026-04-15 12:10:14 2026-04-15 12:10:13 Stelmat002 102 S 133.79 36.09 12.80 25813.342 2.059 2.059 60.00 0.88
1208427 2026-04-15 12:10:11 2026-04-15 12:10:11 Stelmat002 101 R 133.67 15.84 4.87 27433.359 1.373 1.373 60.00 0.77
1208426 2026-04-15 12:08:18 2026-04-15 12:08:14 Stelmat001 065 T 133.60 3.15 371.40 2178.990 0.060 0.060 60.00 0.88
1208425 2026-04-15 12:08:18 2026-04-15 12:08:14 Stelmat001 064 S 147.20 6.90 560.80 3371.580 0.090 0.090 60.00 0.55
1208424 2026-04-15 12:08:17 2026-04-15 12:08:14 Stelmat001 063 R 133.10 3.47 338.10 1808.750 0.050 0.050 60.00 0.73
1208423 2026-04-15 12:08:12 2026-04-15 12:08:10 Stelmat001 025 T 133.70 2.87 166.50 964.080 0.030 0.030 60.00 0.43
1208422 2026-04-15 12:08:11 2026-04-15 12:08:10 Stelmat001 024 S 133.30 8.59 601.20 3431.380 0.070 0.070 60.00 0.53
1208421 2026-04-15 12:08:11 2026-04-15 12:08:10 Stelmat001 023 R 132.70 16.68 2197.40 18112.630 0.460 0.460 60.00 0.99
1208420 2026-04-15 12:07:29 2026-04-15 12:07:27 Stelmat001 022 T 133.00 2.43 290.50 6399.510 0.170 0.170 60.00 0.90
1208419 2026-04-15 12:07:28 2026-04-15 12:07:27 Stelmat001 021 S 133.10 3.46 362.50 4710.660 0.050 0.050 60.00 0.79
1208418 2026-04-15 12:07:27 2026-04-15 12:07:27 Stelmat001 020 R 132.40 3.35 347.40 455.050 0.060 0.060 60.00 0.78
1208417 2026-04-15 12:05:55 2026-04-15 12:05:53 Stelmat001 018 T 146.00 11.13 893.50 12116.050 0.170 0.170 59.90 0.55
1208416 2026-04-15 12:05:55 2026-04-15 12:05:53 Stelmat001 062 T 132.40 3.18 237.50 4542.890 0.040 0.040 59.90 0.56
1208415 2026-04-15 12:05:55 2026-04-15 12:05:53 Stelmat001 061 S 132.30 6.99 852.60 8318.780 0.140 0.140 59.90 0.92
1208414 2026-04-15 12:05:55 2026-04-15 12:05:53 Stelmat001 017 S 132.20 11.11 446.10 7037.190 0.090 0.090 59.90 0.30
1208413 2026-04-15 12:05:54 2026-04-15 12:05:53 Stelmat001 016 R 132.30 11.22 1282.00 16456.750 0.250 0.250 59.90 0.86
1208412 2026-04-15 12:05:54 2026-04-15 12:05:53 Stelmat001 060 R 132.90 3.02 118.30 467.100 0.020 0.020 59.90 0.30
1208411 2026-04-15 12:03:19 2026-04-15 12:03:16 Stelmat001 012 T 132.70 5.69 293.00 3624.220 0.050 0.050 59.90 0.39
1208410 2026-04-15 12:03:18 2026-04-15 12:03:16 Stelmat001 011 S 131.90 3.78 349.40 5533.050 0.060 0.060 59.90 0.70
1208409 2026-04-15 12:03:18 2026-04-15 12:03:16 Stelmat001 010 R 131.70 1.79 152.80 4231.580 0.030 0.030 59.90 0.65
1208408 2026-04-15 12:00:11 2026-04-15 12:00:11 Stelmat002 102 S 132.36 47.96 16.87 25811.283 2.226 2.226 59.98 0.89
1208407 2026-04-15 12:00:09 2026-04-15 12:00:08 Stelmat002 101 R 132.27 27.66 9.81 27431.986 1.502 1.502 59.97 0.90
1208406 2026-04-15 11:58:18 2026-04-15 11:58:16 Stelmat001 065 T 132.00 3.16 370.20 2178.930 0.060 0.060 59.90 0.89
1208405 2026-04-15 11:58:18 2026-04-15 11:58:16 Stelmat001 064 S 145.80 6.96 556.70 3371.490 0.090 0.090 59.90 0.55
1208404 2026-04-15 11:58:17 2026-04-15 11:58:16 Stelmat001 063 R 131.80 2.95 302.00 1808.700 0.050 0.050 59.90 0.78
1208403 2026-04-15 11:58:12 2026-04-15 11:58:09 Stelmat001 025 T 132.70 2.90 168.90 964.050 0.030 0.030 60.00 0.44
1208402 2026-04-15 11:58:11 2026-04-15 11:58:09 Stelmat001 024 S 132.00 4.36 368.80 3431.310 0.060 0.060 59.90 0.64
1208401 2026-04-15 11:58:11 2026-04-15 11:58:09 Stelmat001 023 R 131.80 18.11 2368.30 18112.170 0.480 0.480 59.90 0.99
1208400 2026-04-15 11:57:29 2026-04-15 11:57:24 Stelmat001 022 T 132.40 2.59 311.90 6399.340 0.050 0.050 60.00 0.91
1208399 2026-04-15 11:57:28 2026-04-15 11:57:24 Stelmat001 021 S 132.70 3.44 327.90 4710.610 0.040 0.040 60.00 0.72
1208398 2026-04-15 11:57:27 2026-04-15 11:57:24 Stelmat001 020 R 132.10 3.06 310.80 454.990 0.060 0.060 60.00 0.77
1208397 2026-04-15 11:55:55 2026-04-15 11:55:51 Stelmat001 018 T 146.70 13.63 1071.10 12115.880 0.160 0.160 60.00 0.54
1208396 2026-04-15 11:55:55 2026-04-15 11:55:51 Stelmat001 062 T 133.20 3.46 257.30 4542.850 0.050 0.050 60.00 0.56
1208395 2026-04-15 11:55:55 2026-04-15 11:55:51 Stelmat001 061 S 132.90 6.43 788.50 8318.640 0.140 0.140 60.00 0.92
1208394 2026-04-15 11:55:55 2026-04-15 11:55:51 Stelmat001 017 S 132.70 13.59 641.70 7037.100 0.090 0.090 59.90 0.36
1208393 2026-04-15 11:55:54 2026-04-15 11:55:51 Stelmat001 016 R 132.90 13.72 1647.60 16456.500 0.240 0.240 59.90 0.90
1208392 2026-04-15 11:55:54 2026-04-15 11:55:51 Stelmat001 060 R 133.70 2.66 89.60 467.080 0.010 0.010 59.90 0.25
1208391 2026-04-15 11:53:18 2026-04-15 11:53:13 Stelmat001 012 T 134.50 5.84 286.70 3624.170 0.060 0.060 60.00 0.36
1208390 2026-04-15 11:53:17 2026-04-15 11:53:13 Stelmat001 011 S 133.80 5.24 454.20 5532.990 0.080 0.080 60.00 0.65
1208389 2026-04-15 11:53:17 2026-04-15 11:53:13 Stelmat001 010 R 133.20 2.09 187.20 4231.550 0.050 0.050 60.00 0.67
1208388 2026-04-15 11:53:07 2026-04-15 11:53:03 Stelmat001 034 T 133.50 2.35 15.90 421.360 0.010 0.010 60.00 0.05
1208387 2026-04-15 11:53:06 2026-04-15 11:53:03 Stelmat001 033 S 134.00 2.35 179.90 557.640 0.060 0.060 60.00 0.57
1208386 2026-04-15 11:53:06 2026-04-15 11:53:03 Stelmat001 032 R 146.10 1.26 58.10 589.200 0.030 0.030 60.00 0.32
1208385 2026-04-15 11:50:08 2026-04-15 11:50:08 Stelmat002 102 S 132.49 42.94 14.76 25809.057 2.393 2.393 59.98 0.87
1208384 2026-04-15 11:50:06 2026-04-15 11:50:05 Stelmat002 101 R 132.37 28.85 10.32 27430.484 1.500 1.500 59.98 0.90
1208383 2026-04-15 11:48:18 2026-04-15 11:48:14 Stelmat001 065 T 133.10 3.10 364.80 2178.870 0.060 0.060 59.90 0.88
1208382 2026-04-15 11:48:18 2026-04-15 11:48:14 Stelmat001 064 S 147.20 6.90 560.70 3371.400 0.100 0.100 59.90 0.55
1208381 2026-04-15 11:48:17 2026-04-15 11:48:14 Stelmat001 063 R 132.90 2.98 307.90 1808.650 0.050 0.050 59.90 0.78
1208380 2026-04-15 11:48:11 2026-04-15 11:48:06 Stelmat001 025 T 133.90 2.87 167.50 964.020 0.030 0.030 59.90 0.44
1208379 2026-04-15 11:48:10 2026-04-15 11:48:06 Stelmat001 024 S 133.10 4.31 370.60 3431.250 0.090 0.090 60.00 0.65
1208378 2026-04-15 11:48:09 2026-04-15 11:48:06 Stelmat001 023 R 132.80 17.98 2370.00 18111.690 0.400 0.400 59.90 0.99
1208377 2026-04-15 11:47:29 2026-04-15 11:47:26 Stelmat001 022 T 133.10 2.56 314.00 6399.290 0.060 0.060 60.00 0.92
1208376 2026-04-15 11:47:28 2026-04-15 11:47:26 Stelmat001 021 S 133.60 3.46 278.90 4710.570 0.070 0.070 59.90 0.60
1208375 2026-04-15 11:47:27 2026-04-15 11:47:26 Stelmat001 020 R 132.70 3.94 404.30 454.930 0.070 0.070 60.00 0.77
1208374 2026-04-15 11:45:55 2026-04-15 11:45:53 Stelmat001 062 T 133.30 3.65 274.30 4542.800 0.050 0.050 60.00 0.56
1208373 2026-04-15 11:45:55 2026-04-15 11:45:53 Stelmat001 018 T 146.90 13.13 1037.70 12115.720 0.170 0.170 59.90 0.54
1208372 2026-04-15 11:45:55 2026-04-15 11:45:53 Stelmat001 017 S 132.80 13.08 604.20 7037.010 0.100 0.100 60.00 0.35
1208371 2026-04-15 11:45:55 2026-04-15 11:45:53 Stelmat001 061 S 132.90 6.77 828.80 8318.500 0.140 0.140 60.00 0.92
1208370 2026-04-15 11:45:54 2026-04-15 11:45:53 Stelmat001 060 R 134.00 2.73 96.70 467.070 0.010 0.010 60.00 0.26
1208369 2026-04-15 11:45:54 2026-04-15 11:45:53 Stelmat001 016 R 133.10 13.21 1581.30 16456.260 0.260 0.260 60.00 0.90
1208368 2026-04-15 11:43:18 2026-04-15 11:43:15 Stelmat001 012 T 132.80 6.71 320.80 3624.110 0.040 0.040 59.90 0.36
1208367 2026-04-15 11:43:17 2026-04-15 11:43:15 Stelmat001 011 S 132.40 5.03 439.90 5532.910 0.070 0.070 59.90 0.66
1208366 2026-04-15 11:43:17 2026-04-15 11:43:15 Stelmat001 010 R 131.90 2.63 252.70 4231.500 0.040 0.040 59.90 0.73
1208365 2026-04-15 11:40:05 2026-04-15 11:40:04 Stelmat002 102 S 132.35 39.54 13.33 25806.664 2.185 2.185 60.02 0.85
1208364 2026-04-15 11:40:02 2026-04-15 11:40:02 Stelmat002 101 R 132.25 22.04 7.47 27428.984 1.197 1.197 60.02 0.86
1208363 2026-04-15 11:38:18 2026-04-15 11:38:16 Stelmat001 065 T 131.70 3.17 369.80 2178.810 0.060 0.060 60.00 0.89
1208362 2026-04-15 11:38:18 2026-04-15 11:38:16 Stelmat001 064 S 145.60 6.98 558.00 3371.300 0.090 0.090 60.00 0.55
1208361 2026-04-15 11:38:17 2026-04-15 11:38:16 Stelmat001 063 R 131.50 2.82 291.40 1808.600 0.030 0.030 60.00 0.79
1208360 2026-04-15 11:38:11 2026-04-15 11:38:08 Stelmat001 025 T 132.50 2.91 168.20 963.990 0.030 0.030 60.00 0.44
1208359 2026-04-15 11:38:10 2026-04-15 11:38:08 Stelmat001 024 S 131.70 6.20 520.70 3431.160 0.090 0.090 60.00 0.64
1208358 2026-04-15 11:38:10 2026-04-15 11:38:08 Stelmat001 023 R 131.40 18.58 2426.80 18111.290 0.540 0.540 60.00 0.99
1208357 2026-04-15 11:37:29 2026-04-15 11:37:23 Stelmat001 022 T 132.70 3.65 445.30 6399.230 0.230 0.230 59.90 0.92
1208356 2026-04-15 11:37:28 2026-04-15 11:37:23 Stelmat001 021 S 133.20 4.09 361.70 4710.500 0.070 0.070 60.00 0.66
1208355 2026-04-15 11:37:27 2026-04-15 11:37:23 Stelmat001 020 R 132.30 3.93 414.00 454.860 0.060 0.060 60.00 0.80
1208354 2026-04-15 11:35:55 2026-04-15 11:35:51 Stelmat001 018 T 146.60 13.10 1037.90 12115.550 0.160 0.160 60.00 0.54
1208353 2026-04-15 11:35:55 2026-04-15 11:35:51 Stelmat001 062 T 132.60 3.31 244.10 4542.750 0.040 0.040 59.90 0.56
1208352 2026-04-15 11:35:55 2026-04-15 11:35:51 Stelmat001 017 S 132.60 13.09 603.90 7036.910 0.080 0.080 59.90 0.35
1208351 2026-04-15 11:35:55 2026-04-15 11:35:51 Stelmat001 061 S 132.80 6.88 839.20 8318.360 0.120 0.120 60.00 0.92
1208350 2026-04-15 11:35:54 2026-04-15 11:35:51 Stelmat001 016 R 132.40 13.16 1571.20 16456.000 0.230 0.230 60.00 0.90
1208349 2026-04-15 11:35:54 2026-04-15 11:35:51 Stelmat001 060 R 133.60 2.23 71.70 467.060 0.010 0.010 60.00 0.24
1208348 2026-04-15 11:33:18 2026-04-15 11:33:14 Stelmat001 012 T 132.80 5.62 257.90 3624.070 0.050 0.050 60.00 0.35
1208347 2026-04-15 11:33:17 2026-04-15 11:33:14 Stelmat001 011 S 131.60 5.25 445.90 5532.840 0.070 0.070 60.00 0.65
1208346 2026-04-15 11:33:16 2026-04-15 11:33:14 Stelmat001 010 R 131.70 3.16 338.70 4231.460 0.060 0.060 60.00 0.81
1208345 2026-04-15 11:33:07 2026-04-15 11:33:02 Stelmat001 034 T 131.50 2.77 51.50 421.350 0.020 0.020 60.00 0.14
1208344 2026-04-15 11:33:06 2026-04-15 11:33:02 Stelmat001 033 S 132.50 2.61 193.40 557.580 0.070 0.070 60.00 0.56
1208343 2026-04-15 11:33:06 2026-04-15 11:33:02 Stelmat001 032 R 144.80 1.82 91.00 589.170 0.030 0.030 59.90 0.35
1208342 2026-04-15 11:30:02 2026-04-15 11:30:02 Stelmat002 102 S 131.63 30.36 9.54 25804.479 2.235 2.235 60.01 0.80
1208341 2026-04-15 11:29:59 2026-04-15 11:29:59 Stelmat002 101 R 131.48 16.52 5.14 27427.787 1.320 1.320 60.00 0.79
1208340 2026-04-15 11:28:18 2026-04-15 11:28:13 Stelmat001 065 T 131.00 2.73 300.20 2178.750 0.050 0.050 60.00 0.84
1208339 2026-04-15 11:28:18 2026-04-15 11:28:13 Stelmat001 064 S 145.40 7.03 557.40 3371.210 0.090 0.090 60.00 0.55
1208338 2026-04-15 11:28:17 2026-04-15 11:28:13 Stelmat001 063 R 130.70 2.72 282.80 1808.570 0.050 0.050 60.00 0.80
1208337 2026-04-15 11:28:11 2026-04-15 11:28:06 Stelmat001 025 T 132.20 2.92 168.80 963.960 0.030 0.030 60.00 0.44
1208336 2026-04-15 11:28:10 2026-04-15 11:28:06 Stelmat001 024 S 131.00 6.16 515.50 3431.070 0.070 0.070 60.00 0.64
1208335 2026-04-15 11:28:09 2026-04-15 11:28:06 Stelmat001 023 R 130.60 36.74 4752.10 18110.750 0.680 0.680 60.00 0.99
1208334 2026-04-15 11:27:29 2026-04-15 11:27:24 Stelmat001 022 T 131.40 3.68 450.50 6399.000 0.080 0.080 60.00 0.93
1208333 2026-04-15 11:27:28 2026-04-15 11:27:24 Stelmat001 021 S 132.10 5.48 547.40 4710.430 0.080 0.080 60.00 0.76
1208332 2026-04-15 11:27:27 2026-04-15 11:27:24 Stelmat001 020 R 131.00 5.00 508.60 454.800 0.080 0.080 60.00 0.78
1208331 2026-04-15 11:25:55 2026-04-15 11:25:53 Stelmat001 062 T 131.00 3.26 251.20 4542.710 0.040 0.040 60.00 0.59
1208330 2026-04-15 11:25:55 2026-04-15 11:25:53 Stelmat001 018 T 144.80 14.39 1110.30 12115.390 0.170 0.170 60.00 0.53
1208329 2026-04-15 11:25:55 2026-04-15 11:25:53 Stelmat001 017 S 130.50 14.36 680.00 7036.830 0.090 0.090 60.00 0.36
1208328 2026-04-15 11:25:54 2026-04-15 11:25:53 Stelmat001 061 S 130.70 5.90 726.30 8318.240 0.130 0.130 60.00 0.94
1208327 2026-04-15 11:25:54 2026-04-15 11:25:53 Stelmat001 016 R 130.80 14.51 1728.90 16455.770 0.250 0.250 60.00 0.91
1208326 2026-04-15 11:25:54 2026-04-15 11:25:53 Stelmat001 060 R 132.00 2.02 57.10 467.050 0.010 0.010 60.00 0.21
1208325 2026-04-15 11:23:17 2026-04-15 11:23:12 Stelmat001 012 T 132.90 6.33 288.40 3624.020 0.050 0.050 59.90 0.34
1208324 2026-04-15 11:23:16 2026-04-15 11:23:12 Stelmat001 011 S 131.90 4.93 406.80 5532.770 0.070 0.070 59.90 0.63
1208323 2026-04-15 11:23:15 2026-04-15 11:23:12 Stelmat001 010 R 131.30 3.18 328.10 4231.400 0.060 0.060 59.90 0.78
1208322 2026-04-15 11:19:59 2026-04-15 11:19:59 Stelmat002 102 S 131.50 35.94 12.55 25802.244 2.162 2.162 59.99 0.88
1208321 2026-04-15 11:19:57 2026-04-15 11:19:56 Stelmat002 101 R 131.32 19.92 6.55 27426.467 1.242 1.242 59.98 0.84
1208320 2026-04-15 11:18:18 2026-04-15 11:18:16 Stelmat001 065 T 131.00 2.73 299.00 2178.700 0.050 0.050 60.00 0.83
1208319 2026-04-15 11:18:17 2026-04-15 11:18:16 Stelmat001 064 S 144.90 7.01 557.30 3371.120 0.100 0.100 59.90 0.55
1208318 2026-04-15 11:18:17 2026-04-15 11:18:16 Stelmat001 063 R 130.80 2.71 282.20 1808.520 0.050 0.050 59.90 0.80
1208317 2026-04-15 11:18:08 2026-04-15 11:18:04 Stelmat001 025 T 131.70 2.93 169.90 963.930 0.020 0.020 59.90 0.44
1208316 2026-04-15 11:18:08 2026-04-15 11:18:04 Stelmat001 024 S 131.00 4.76 427.40 3431.000 0.080 0.080 60.00 0.69
1208315 2026-04-15 11:18:07 2026-04-15 11:18:04 Stelmat001 023 R 130.80 18.24 2367.70 18110.070 0.410 0.410 59.90 0.99
1208314 2026-04-15 11:17:28 2026-04-15 11:17:26 Stelmat001 022 T 131.90 3.95 481.30 6398.920 0.080 0.080 59.90 0.92
1208313 2026-04-15 11:17:28 2026-04-15 11:17:26 Stelmat001 021 S 132.40 5.70 545.60 4710.350 0.100 0.100 60.00 0.72
1208312 2026-04-15 11:17:27 2026-04-15 11:17:26 Stelmat001 020 R 131.60 4.04 421.40 454.720 0.080 0.080 60.00 0.79
1208311 2026-04-15 11:15:55 2026-04-15 11:15:50 Stelmat001 018 T 145.70 11.08 897.90 12115.220 0.170 0.170 60.00 0.56
1208310 2026-04-15 11:15:55 2026-04-15 11:15:50 Stelmat001 062 T 132.00 3.43 253.30 4542.670 0.040 0.040 60.00 0.56
1208309 2026-04-15 11:15:55 2026-04-15 11:15:50 Stelmat001 017 S 131.80 11.01 446.70 7036.740 0.100 0.100 60.00 0.31
1208308 2026-04-15 11:15:54 2026-04-15 11:15:50 Stelmat001 061 S 131.90 6.24 767.70 8318.110 0.130 0.130 60.00 0.93
1208307 2026-04-15 11:15:54 2026-04-15 11:15:50 Stelmat001 016 R 131.80 11.06 1277.10 16455.520 0.250 0.250 60.00 0.88
1208306 2026-04-15 11:15:54 2026-04-15 11:15:50 Stelmat001 060 R 132.80 2.03 54.90 467.040 0.010 0.010 60.00 0.20
1208305 2026-04-15 11:13:17 2026-04-15 11:13:14 Stelmat001 012 T 132.50 7.11 306.90 3623.970 0.050 0.050 59.90 0.33
1208304 2026-04-15 11:13:16 2026-04-15 11:13:14 Stelmat001 011 S 131.70 5.00 416.20 5532.700 0.070 0.070 60.00 0.63
1208303 2026-04-15 11:13:15 2026-04-15 11:13:14 Stelmat001 010 R 131.60 2.97 321.90 4231.340 0.050 0.050 60.00 0.82
1208302 2026-04-15 11:13:07 2026-04-15 11:13:03 Stelmat001 034 T 131.60 3.53 88.30 421.330 0.030 0.030 60.00 0.19
1208301 2026-04-15 11:13:06 2026-04-15 11:13:03 Stelmat001 033 S 132.20 3.32 248.60 557.510 0.080 0.080 60.00 0.57
1208300 2026-04-15 11:13:06 2026-04-15 11:13:03 Stelmat001 032 R 144.60 2.28 111.40 589.140 0.030 0.030 60.00 0.34
1208299 2026-04-15 11:09:57 2026-04-15 11:09:56 Stelmat002 102 S 131.57 37.98 13.65 25800.082 2.135 2.135 59.97 0.91
1208298 2026-04-15 11:09:54 2026-04-15 11:09:53 Stelmat002 101 R 131.45 33.09 11.98 27425.225 1.504 1.504 59.95 0.92
1208297 2026-04-15 11:08:18 2026-04-15 11:08:15 Stelmat001 065 T 131.50 2.69 294.90 2178.650 0.050 0.050 60.00 0.83
1208296 2026-04-15 11:08:17 2026-04-15 11:08:15 Stelmat001 064 S 145.40 6.99 558.10 3371.020 0.090 0.090 59.90 0.55
1208295 2026-04-15 11:08:17 2026-04-15 11:08:15 Stelmat001 063 R 131.20 2.73 284.60 1808.470 0.040 0.040 59.90 0.80
1208294 2026-04-15 11:08:09 2026-04-15 11:08:06 Stelmat001 025 T 132.40 2.91 168.40 963.910 0.040 0.040 60.00 0.44
1208293 2026-04-15 11:08:08 2026-04-15 11:08:06 Stelmat001 024 S 131.60 4.70 426.60 3430.920 0.070 0.070 60.00 0.69
1208292 2026-04-15 11:08:07 2026-04-15 11:08:06 Stelmat001 023 R 131.10 18.87 2446.90 18109.660 0.420 0.420 60.00 0.99
1208291 2026-04-15 11:07:28 2026-04-15 11:07:23 Stelmat001 022 T 131.60 3.71 448.10 6398.840 0.090 0.090 59.90 0.92
1208290 2026-04-15 11:07:28 2026-04-15 11:07:23 Stelmat001 021 S 132.20 6.13 623.50 4710.250 0.100 0.100 59.90 0.77
1208289 2026-04-15 11:07:27 2026-04-15 11:07:23 Stelmat001 020 R 131.30 4.75 488.40 454.640 0.060 0.060 59.90 0.78
1208288 2026-04-15 11:05:55 2026-04-15 11:05:53 Stelmat001 018 T 145.70 10.74 868.70 12115.050 0.160 0.160 60.00 0.55
1208287 2026-04-15 11:05:55 2026-04-15 11:05:53 Stelmat001 062 T 132.00 3.27 239.20 4542.630 0.040 0.040 60.00 0.55
1208286 2026-04-15 11:05:55 2026-04-15 11:05:53 Stelmat001 017 S 131.70 10.73 423.90 7036.640 0.090 0.090 60.00 0.30
1208285 2026-04-15 11:05:54 2026-04-15 11:05:53 Stelmat001 061 S 131.80 6.41 783.00 8317.980 0.130 0.130 60.00 0.93
1208284 2026-04-15 11:05:54 2026-04-15 11:05:53 Stelmat001 016 R 131.80 10.80 1236.60 16455.270 0.250 0.250 60.00 0.87
1208283 2026-04-15 11:05:54 2026-04-15 11:05:53 Stelmat001 060 R 132.80 2.09 59.40 467.030 0.010 0.010 60.00 0.21
1208282 2026-04-15 11:03:16 2026-04-15 11:03:11 Stelmat001 012 T 132.50 6.78 295.00 3623.920 0.050 0.050 60.00 0.33
1208281 2026-04-15 11:03:16 2026-04-15 11:03:11 Stelmat001 011 S 131.80 5.14 429.50 5532.630 0.070 0.070 60.00 0.63
1208280 2026-04-15 11:03:15 2026-04-15 11:03:11 Stelmat001 010 R 131.50 3.01 322.90 4231.290 0.060 0.060 59.90 0.82
1208279 2026-04-15 10:59:54 2026-04-15 10:59:53 Stelmat002 102 S 131.01 44.41 15.28 25797.947 2.527 2.527 59.99 0.88
1208278 2026-04-15 10:59:51 2026-04-15 10:59:51 Stelmat002 101 R 130.83 21.08 7.05 27423.721 1.289 1.289 59.99 0.85
1208277 2026-04-15 10:58:17 2026-04-15 10:58:12 Stelmat001 065 T 130.60 2.74 300.20 2178.600 0.050 0.050 60.00 0.84
1208276 2026-04-15 10:58:16 2026-04-15 10:58:12 Stelmat001 064 S 144.50 7.03 558.00 3370.930 0.090 0.090 60.00 0.55
1208275 2026-04-15 10:58:16 2026-04-15 10:58:12 Stelmat001 063 R 130.50 2.93 294.70 1808.430 0.050 0.050 60.00 0.77
1208274 2026-04-15 10:58:08 2026-04-15 10:58:04 Stelmat001 025 T 131.30 4.33 238.60 963.870 0.040 0.040 59.90 0.42
1208273 2026-04-15 10:58:08 2026-04-15 10:58:04 Stelmat001 024 S 130.50 4.82 430.80 3430.850 0.070 0.070 60.00 0.68
1208272 2026-04-15 10:58:07 2026-04-15 10:58:04 Stelmat001 023 R 130.30 19.72 2548.40 18109.240 0.420 0.420 59.90 0.99
1208271 2026-04-15 10:57:28 2026-04-15 10:57:26 Stelmat001 022 T 131.40 4.18 513.70 6398.750 0.080 0.080 60.00 0.94
1208270 2026-04-15 10:57:28 2026-04-15 10:57:26 Stelmat001 021 S 131.90 5.94 631.00 4710.150 0.100 0.100 60.00 0.81
1208269 2026-04-15 10:57:27 2026-04-15 10:57:26 Stelmat001 020 R 131.20 3.76 359.10 454.580 0.060 0.060 60.00 0.73
1208268 2026-04-15 10:55:55 2026-04-15 10:55:50 Stelmat001 018 T 145.20 11.96 950.20 12114.890 0.170 0.170 59.90 0.55
1208267 2026-04-15 10:55:55 2026-04-15 10:55:50 Stelmat001 062 T 131.60 3.23 237.90 4542.590 0.040 0.040 59.90 0.56
1208266 2026-04-15 10:55:55 2026-04-15 10:55:50 Stelmat001 017 S 131.40 11.75 499.30 7036.550 0.100 0.100 59.90 0.32
1208265 2026-04-15 10:55:54 2026-04-15 10:55:50 Stelmat001 061 S 131.60 5.82 724.10 8317.850 0.130 0.130 59.90 0.94
1208264 2026-04-15 10:55:54 2026-04-15 10:55:50 Stelmat001 016 R 131.40 11.82 1376.10 16455.020 0.260 0.260 59.90 0.89
1208263 2026-04-15 10:55:54 2026-04-15 10:55:50 Stelmat001 060 R 132.30 2.42 71.80 467.020 0.020 0.020 59.90 0.22
1208262 2026-04-15 10:53:16 2026-04-15 10:53:14 Stelmat001 012 T 132.10 7.70 349.60 3623.870 0.050 0.050 60.00 0.34
1208261 2026-04-15 10:53:16 2026-04-15 10:53:14 Stelmat001 011 S 131.50 4.97 421.90 5532.560 0.070 0.070 60.00 0.65
1208260 2026-04-15 10:53:15 2026-04-15 10:53:14 Stelmat001 010 R 131.30 3.06 329.50 4231.230 0.060 0.060 60.00 0.82
1208259 2026-04-15 10:53:07 2026-04-15 10:53:02 Stelmat001 034 T 131.20 3.50 55.50 421.300 0.020 0.020 60.00 0.12
1208258 2026-04-15 10:53:06 2026-04-15 10:53:02 Stelmat001 033 S 131.90 3.41 237.50 557.430 0.070 0.070 60.00 0.53
1208257 2026-04-15 10:53:06 2026-04-15 10:53:02 Stelmat001 032 R 144.20 1.51 74.50 589.110 0.030 0.030 59.90 0.34
1208256 2026-04-15 10:49:51 2026-04-15 10:49:50 Stelmat002 102 S 131.95 38.25 13.85 25795.420 2.191 2.191 60.00 0.91
1208255 2026-04-15 10:49:48 2026-04-15 10:49:47 Stelmat002 101 R 131.84 15.17 4.56 27422.432 1.268 1.268 60.00 0.76
1208254 2026-04-15 10:48:17 2026-04-15 10:48:14 Stelmat001 065 T 131.80 2.66 293.30 2178.550 0.050 0.050 60.00 0.84
1208253 2026-04-15 10:48:16 2026-04-15 10:48:14 Stelmat001 064 S 145.90 6.97 560.20 3370.840 0.100 0.100 60.00 0.55
1208252 2026-04-15 10:48:16 2026-04-15 10:48:14 Stelmat001 063 R 131.80 2.89 296.20 1808.380 0.050 0.050 60.00 0.78
1208251 2026-04-15 10:48:08 2026-04-15 10:48:06 Stelmat001 025 T 132.70 4.29 237.50 963.830 0.040 0.040 60.00 0.42
1208250 2026-04-15 10:48:08 2026-04-15 10:48:06 Stelmat001 024 S 131.80 3.89 335.40 3430.780 0.060 0.060 60.00 0.65
1208249 2026-04-15 10:48:07 2026-04-15 10:48:06 Stelmat001 023 R 131.70 19.18 2498.50 18108.820 0.420 0.420 60.00 0.99
1208248 2026-04-15 10:47:28 2026-04-15 10:47:23 Stelmat001 022 T 131.80 3.38 392.00 6398.670 0.060 0.060 59.90 0.88
1208247 2026-04-15 10:47:27 2026-04-15 10:47:23 Stelmat001 021 S 132.50 5.92 551.60 4710.050 0.100 0.100 60.00 0.70
1208246 2026-04-15 10:47:27 2026-04-15 10:47:23 Stelmat001 020 R 131.70 3.18 295.00 454.520 0.050 0.050 60.00 0.70
1208245 2026-04-15 10:45:55 2026-04-15 10:45:53 Stelmat001 018 T 145.40 11.57 926.40 12114.720 0.180 0.180 59.90 0.55
1208244 2026-04-15 10:45:55 2026-04-15 10:45:53 Stelmat001 062 T 131.60 3.06 229.10 4542.550 0.040 0.040 59.90 0.57
1208243 2026-04-15 10:45:55 2026-04-15 10:45:53 Stelmat001 017 S 131.40 11.57 482.90 7036.450 0.100 0.100 60.00 0.32
1208242 2026-04-15 10:45:54 2026-04-15 10:45:53 Stelmat001 061 S 131.50 6.30 772.90 8317.720 0.130 0.130 59.90 0.93
1208241 2026-04-15 10:45:54 2026-04-15 10:45:53 Stelmat001 016 R 131.40 11.63 1347.50 16454.760 0.270 0.270 59.90 0.88
1208240 2026-04-15 10:45:54 2026-04-15 10:45:53 Stelmat001 060 R 132.50 2.39 68.60 467.000 0.010 0.010 59.90 0.22
1208239 2026-04-15 10:43:16 2026-04-15 10:43:11 Stelmat001 012 T 132.40 7.16 297.20 3623.820 0.050 0.050 60.00 0.31
1208238 2026-04-15 10:43:15 2026-04-15 10:43:11 Stelmat001 011 S 131.70 4.74 402.20 5532.490 0.070 0.070 59.90 0.64
1208237 2026-04-15 10:43:15 2026-04-15 10:43:11 Stelmat001 010 R 131.40 3.04 325.10 4231.170 0.040 0.040 60.00 0.81
1208236 2026-04-15 10:39:48 2026-04-15 10:39:47 Stelmat002 102 S 131.76 50.96 18.10 25793.229 2.426 2.426 59.99 0.90
1208235 2026-04-15 10:39:45 2026-04-15 10:39:45 Stelmat002 101 R 131.73 22.61 7.74 27421.164 1.252 1.252 59.99 0.87
1208234 2026-04-15 10:38:17 2026-04-15 10:38:13 Stelmat001 065 T 131.80 3.16 366.30 2178.500 0.060 0.060 60.00 0.88
1208233 2026-04-15 10:38:16 2026-04-15 10:38:13 Stelmat001 064 S 145.60 6.97 557.80 3370.740 0.090 0.090 59.90 0.55
1208232 2026-04-15 10:38:15 2026-04-15 10:38:13 Stelmat001 063 R 131.70 2.91 295.10 1808.330 0.050 0.050 60.00 0.77
1208231 2026-04-15 10:38:08 2026-04-15 10:38:04 Stelmat001 025 T 132.50 4.29 237.60 963.790 0.040 0.040 59.90 0.42
1208230 2026-04-15 10:38:08 2026-04-15 10:38:04 Stelmat001 024 S 131.80 3.90 336.80 3430.720 0.060 0.060 59.90 0.66
1208229 2026-04-15 10:38:07 2026-04-15 10:38:04 Stelmat001 023 R 131.60 23.84 3070.50 18108.400 0.430 0.430 60.00 0.98
1208228 2026-04-15 10:37:28 2026-04-15 10:37:26 Stelmat001 022 T 132.30 3.04 341.60 6398.610 0.060 0.060 60.00 0.85
1208227 2026-04-15 10:37:27 2026-04-15 10:37:26 Stelmat001 021 S 132.60 5.81 547.40 4709.950 0.090 0.090 59.90 0.71
1208226 2026-04-15 10:37:27 2026-04-15 10:37:26 Stelmat001 020 R 131.90 2.82 256.60 454.470 0.040 0.040 60.00 0.69
1208225 2026-04-15 10:35:55 2026-04-15 10:35:50 Stelmat001 018 T 145.60 13.20 1042.00 12114.540 0.160 0.160 59.90 0.54
1208224 2026-04-15 10:35:55 2026-04-15 10:35:50 Stelmat001 062 T 132.30 3.36 269.40 4542.510 0.050 0.050 60.00 0.61
1208223 2026-04-15 10:35:54 2026-04-15 10:35:50 Stelmat001 017 S 131.80 13.15 599.10 7036.350 0.100 0.100 60.00 0.35
1208222 2026-04-15 10:35:54 2026-04-15 10:35:50 Stelmat001 061 S 132.00 6.37 777.30 8317.590 0.130 0.130 59.90 0.93
1208221 2026-04-15 10:35:54 2026-04-15 10:35:50 Stelmat001 016 R 132.10 13.24 1576.60 16454.490 0.250 0.250 60.00 0.90
1208220 2026-04-15 10:35:53 2026-04-15 10:35:50 Stelmat001 060 R 132.70 2.31 65.20 466.990 0.010 0.010 59.90 0.21
1208219 2026-04-15 10:33:16 2026-04-15 10:33:14 Stelmat001 012 T 132.20 7.47 302.60 3623.770 0.050 0.050 60.00 0.31
1208218 2026-04-15 10:33:15 2026-04-15 10:33:14 Stelmat001 011 S 131.70 4.78 409.20 5532.420 0.070 0.070 60.00 0.65
1208217 2026-04-15 10:33:15 2026-04-15 10:33:14 Stelmat001 010 R 131.40 2.74 248.60 4231.130 0.050 0.050 60.00 0.69
1208216 2026-04-15 10:33:07 2026-04-15 10:33:02 Stelmat001 034 T 131.60 3.62 58.70 421.280 0.020 0.020 60.00 0.12
1208215 2026-04-15 10:33:06 2026-04-15 10:33:02 Stelmat001 033 S 131.90 3.47 234.70 557.360 0.070 0.070 60.00 0.51
1208214 2026-04-15 10:33:06 2026-04-15 10:33:02 Stelmat001 032 R 144.30 1.56 87.30 589.080 0.030 0.030 59.90 0.39
1208213 2026-04-15 10:29:45 2026-04-15 10:29:44 Stelmat002 102 S 132.02 38.28 12.81 25790.803 2.479 2.479 59.99 0.84
1208212 2026-04-15 10:29:42 2026-04-15 10:29:41 Stelmat002 101 R 131.83 26.79 9.50 27419.912 1.213 1.213 59.99 0.90
1208211 2026-04-15 10:28:16 2026-04-15 10:28:11 Stelmat001 065 T 131.90 3.15 365.30 2178.440 0.070 0.070 60.00 0.88
1208210 2026-04-15 10:28:15 2026-04-15 10:28:11 Stelmat001 064 S 145.10 6.98 554.40 3370.650 0.110 0.110 59.90 0.55
1208209 2026-04-15 10:28:14 2026-04-15 10:28:11 Stelmat001 063 R 131.60 2.91 293.20 1808.280 0.050 0.050 60.00 0.77
1208208 2026-04-15 10:28:06 2026-04-15 10:28:02 Stelmat001 025 T 132.30 4.29 237.90 963.750 0.040 0.040 59.90 0.42
1208207 2026-04-15 10:28:05 2026-04-15 10:28:02 Stelmat001 024 S 131.70 4.15 353.80 3430.660 0.060 0.060 59.90 0.65
1208206 2026-04-15 10:28:05 2026-04-15 10:28:02 Stelmat001 023 R 131.50 19.22 2498.40 18107.970 0.420 0.420 59.90 0.99
1208205 2026-04-15 10:27:28 2026-04-15 10:27:24 Stelmat001 022 T 131.90 2.99 335.60 6398.550 0.060 0.060 60.00 0.85
1208204 2026-04-15 10:27:27 2026-04-15 10:27:24 Stelmat001 021 S 131.80 6.33 633.10 4709.860 0.100 0.100 60.00 0.76
1208203 2026-04-15 10:27:26 2026-04-15 10:27:24 Stelmat001 020 R 131.60 3.03 277.10 454.430 0.050 0.050 60.00 0.69
1208202 2026-04-15 10:25:55 2026-04-15 10:25:53 Stelmat001 018 T 144.80 15.49 1183.50 12114.380 0.180 0.180 60.00 0.53
1208201 2026-04-15 10:25:55 2026-04-15 10:25:52 Stelmat001 062 T 131.30 3.57 281.10 4542.460 0.040 0.040 59.90 0.60
1208200 2026-04-15 10:25:54 2026-04-15 10:25:53 Stelmat001 017 S 130.90 15.44 764.60 7036.250 0.100 0.100 59.90 0.38
1208199 2026-04-15 10:25:54 2026-04-15 10:25:52 Stelmat001 061 S 131.10 6.83 815.90 8317.460 0.140 0.140 59.90 0.91
1208198 2026-04-15 10:25:54 2026-04-15 10:25:53 Stelmat001 016 R 131.10 15.59 1882.90 16454.240 0.260 0.260 60.00 0.92
1208197 2026-04-15 10:25:53 2026-04-15 10:25:52 Stelmat001 060 R 132.00 2.47 72.00 466.980 0.020 0.020 60.00 0.22
1208196 2026-04-15 10:23:16 2026-04-15 10:23:11 Stelmat001 012 T 132.10 6.99 290.00 3623.720 0.050 0.050 60.00 0.31
1208195 2026-04-15 10:23:15 2026-04-15 10:23:11 Stelmat001 011 S 131.60 4.89 414.90 5532.350 0.070 0.070 60.00 0.64
1208194 2026-04-15 10:23:14 2026-04-15 10:23:11 Stelmat001 010 R 131.40 2.79 252.80 4231.080 0.040 0.040 60.00 0.69
1208193 2026-04-15 10:19:42 2026-04-15 10:19:41 Stelmat002 102 S 131.50 36.49 12.84 25788.324 2.197 2.197 60.04 0.89
1208192 2026-04-15 10:19:39 2026-04-15 10:19:38 Stelmat002 101 R 131.37 23.01 7.89 27418.699 1.332 1.332 60.03 0.87
1208191 2026-04-15 10:18:16 2026-04-15 10:18:13 Stelmat001 065 T 131.20 3.22 373.20 2178.370 0.060 0.060 59.90 0.88
1208190 2026-04-15 10:18:15 2026-04-15 10:18:13 Stelmat001 064 S 145.00 6.99 554.10 3370.540 0.090 0.090 60.00 0.55
1208189 2026-04-15 10:18:14 2026-04-15 10:18:13 Stelmat001 063 R 131.20 2.92 293.90 1808.230 0.050 0.050 59.90 0.77
1208188 2026-04-15 10:18:05 2026-04-15 10:18:01 Stelmat001 025 T 132.00 4.31 237.60 963.710 0.040 0.040 60.00 0.42
1208187 2026-04-15 10:18:04 2026-04-15 10:18:01 Stelmat001 024 S 131.30 4.59 384.10 3430.600 0.070 0.070 60.00 0.64
1208186 2026-04-15 10:18:03 2026-04-15 10:18:01 Stelmat001 023 R 131.20 19.69 2556.70 18107.550 0.420 0.420 60.00 0.99
1208185 2026-04-15 10:17:27 2026-04-15 10:17:23 Stelmat001 022 T 132.00 3.51 406.00 6398.490 0.070 0.070 60.00 0.88
1208184 2026-04-15 10:17:26 2026-04-15 10:17:23 Stelmat001 021 S 132.50 6.55 635.80 4709.760 0.100 0.100 60.00 0.73
1208183 2026-04-15 10:17:25 2026-04-15 10:17:23 Stelmat001 020 R 131.90 2.71 257.10 454.380 0.040 0.040 60.00 0.72
1208182 2026-04-15 10:15:55 2026-04-15 10:15:50 Stelmat001 018 T 145.60 10.52 853.00 12114.200 0.160 0.160 59.90 0.56
1208181 2026-04-15 10:15:55 2026-04-15 10:15:50 Stelmat001 062 T 131.90 3.81 286.30 4542.420 0.050 0.050 60.00 0.57
1208180 2026-04-15 10:15:54 2026-04-15 10:15:50 Stelmat001 017 S 131.70 10.50 413.70 7036.150 0.090 0.090 59.90 0.30
1208179 2026-04-15 10:15:54 2026-04-15 10:15:50 Stelmat001 061 S 131.90 6.40 785.10 8317.320 0.130 0.130 59.90 0.93
1208178 2026-04-15 10:15:54 2026-04-15 10:15:50 Stelmat001 016 R 131.70 10.55 1204.70 16453.980 0.250 0.250 59.90 0.87
1208177 2026-04-15 10:15:53 2026-04-15 10:15:50 Stelmat001 060 R 132.60 2.46 70.70 466.960 0.010 0.010 59.90 0.22
1208176 2026-04-15 10:13:16 2026-04-15 10:13:13 Stelmat001 012 T 132.60 6.76 287.10 3623.670 0.050 0.050 60.00 0.32
1208175 2026-04-15 10:13:15 2026-04-15 10:13:13 Stelmat001 011 S 132.10 5.13 436.80 5532.280 0.070 0.070 60.00 0.64
1208174 2026-04-15 10:13:14 2026-04-15 10:13:13 Stelmat001 010 R 132.00 2.98 279.80 4231.040 0.050 0.050 60.00 0.71
1208173 2026-04-15 10:13:07 2026-04-15 10:13:02 Stelmat001 034 T 132.10 3.39 58.90 421.260 0.020 0.020 60.00 0.13
1208172 2026-04-15 10:13:06 2026-04-15 10:13:02 Stelmat001 033 S 132.40 3.26 228.90 557.290 0.080 0.080 60.00 0.53
1208171 2026-04-15 10:13:06 2026-04-15 10:13:02 Stelmat001 032 R 145.00 1.54 78.80 589.050 0.030 0.030 60.00 0.35
1208170 2026-04-15 10:09:39 2026-04-15 10:09:38 Stelmat002 102 S 132.29 43.73 15.16 25786.127 2.385 2.385 60.04 0.87
1208169 2026-04-15 10:09:36 2026-04-15 10:09:35 Stelmat002 101 R 132.14 22.76 7.82 27417.367 1.281 1.281 60.04 0.87
1208168 2026-04-15 10:08:15 2026-04-15 10:08:11 Stelmat001 065 T 131.90 3.57 405.00 2178.310 0.070 0.070 59.90 0.86
1208167 2026-04-15 10:08:15 2026-04-15 10:08:11 Stelmat001 064 S 145.70 6.96 555.90 3370.450 0.090 0.090 59.90 0.55
1208166 2026-04-15 10:08:14 2026-04-15 10:08:11 Stelmat001 063 R 131.90 2.92 296.90 1808.180 0.050 0.050 59.90 0.77
1208165 2026-04-15 10:08:04 2026-04-15 10:07:59 Stelmat001 025 T 132.70 4.27 237.10 963.670 0.040 0.040 60.00 0.42
1208164 2026-04-15 10:08:03 2026-04-15 10:07:59 Stelmat001 024 S 132.00 4.75 402.90 3430.530 0.060 0.060 59.90 0.64
1208163 2026-04-15 10:08:02 2026-04-15 10:07:59 Stelmat001 023 R 132.00 19.29 2514.10 18107.130 0.420 0.420 59.90 0.99
1208162 2026-04-15 10:07:26 2026-04-15 10:07:21 Stelmat001 022 T 131.80 3.22 359.60 6398.420 0.070 0.070 59.90 0.85
1208161 2026-04-15 10:07:25 2026-04-15 10:07:21 Stelmat001 021 S 132.20 6.44 628.30 4709.660 0.120 0.120 59.90 0.74
1208160 2026-04-15 10:07:24 2026-04-15 10:07:21 Stelmat001 020 R 131.70 2.47 231.20 454.340 0.040 0.040 59.90 0.71
1208159 2026-04-15 10:05:55 2026-04-15 10:05:53 Stelmat001 018 T 145.50 12.99 1025.60 12114.040 0.180 0.180 60.00 0.54
1208158 2026-04-15 10:05:55 2026-04-15 10:05:52 Stelmat001 062 T 132.00 3.24 238.90 4542.370 0.040 0.040 60.00 0.56
1208157 2026-04-15 10:05:54 2026-04-15 10:05:53 Stelmat001 017 S 131.70 13.00 593.70 7036.060 0.110 0.110 60.00 0.35
1208156 2026-04-15 10:05:54 2026-04-15 10:05:52 Stelmat001 061 S 131.90 6.39 783.60 8317.190 0.130 0.130 60.00 0.93
1208155 2026-04-15 10:05:53 2026-04-15 10:05:53 Stelmat001 016 R 131.80 13.07 1552.30 16453.730 0.270 0.270 60.00 0.90
1208154 2026-04-15 10:05:53 2026-04-15 10:05:52 Stelmat001 060 R 132.60 2.96 105.20 466.950 0.020 0.020 60.00 0.27
1208153 2026-04-15 10:03:16 2026-04-15 10:03:11 Stelmat001 012 T 132.60 7.09 294.20 3623.620 0.050 0.050 60.00 0.31
1208152 2026-04-15 10:03:15 2026-04-15 10:03:11 Stelmat001 011 S 132.10 5.11 438.30 5532.210 0.070 0.070 60.00 0.65
1208151 2026-04-15 10:03:14 2026-04-15 10:03:11 Stelmat001 010 R 131.90 2.98 271.80 4230.990 0.060 0.060 60.00 0.69
1208150 2026-04-15 09:59:36 2026-04-15 09:59:35 Stelmat002 102 S 131.93 44.54 15.49 25783.742 2.445 2.445 60.05 0.88
1208149 2026-04-15 09:59:33 2026-04-15 09:59:33 Stelmat002 101 R 131.81 20.20 6.76 27416.086 1.029 1.029 60.04 0.85
1208148 2026-04-15 09:58:16 2026-04-15 09:58:13 Stelmat001 065 T 131.70 3.60 406.50 2178.240 0.060 0.060 60.00 0.86
1208147 2026-04-15 09:58:15 2026-04-15 09:58:13 Stelmat001 064 S 145.50 6.96 554.90 3370.360 0.090 0.090 60.00 0.55
1208146 2026-04-15 09:58:14 2026-04-15 09:58:13 Stelmat001 063 R 131.80 2.95 298.30 1808.130 0.050 0.050 60.00 0.77
1208145 2026-04-15 09:58:04 2026-04-15 09:58:01 Stelmat001 025 T 132.30 4.28 236.80 963.630 0.040 0.040 60.00 0.42
1208144 2026-04-15 09:58:03 2026-04-15 09:58:01 Stelmat001 024 S 131.80 4.20 361.60 3430.470 0.060 0.060 59.90 0.65
1208143 2026-04-15 09:58:02 2026-04-15 09:58:01 Stelmat001 023 R 131.80 19.42 2524.30 18106.710 0.420 0.420 60.00 0.99
1208142 2026-04-15 09:57:23 2026-04-15 09:57:18 Stelmat001 022 T 132.20 3.74 449.40 6398.350 0.070 0.070 60.00 0.91
1208141 2026-04-15 09:57:23 2026-04-15 09:57:18 Stelmat001 021 S 132.50 6.52 698.70 4709.540 0.110 0.110 60.00 0.81
1208140 2026-04-15 09:57:22 2026-04-15 09:57:18 Stelmat001 020 R 132.10 2.54 241.70 454.300 0.040 0.040 60.00 0.72
1208139 2026-04-15 09:55:55 2026-04-15 09:55:50 Stelmat001 018 T 145.40 14.87 1154.20 12113.860 0.160 0.160 60.00 0.53
1208138 2026-04-15 09:55:55 2026-04-15 09:55:50 Stelmat001 062 T 131.80 3.50 262.50 4542.330 0.050 0.050 60.00 0.57
1208137 2026-04-15 09:55:54 2026-04-15 09:55:50 Stelmat001 017 S 131.80 14.87 732.60 7035.950 0.090 0.090 60.00 0.37
1208136 2026-04-15 09:55:54 2026-04-15 09:55:50 Stelmat001 061 S 132.00 6.30 774.20 8317.060 0.130 0.130 60.00 0.93
1208135 2026-04-15 09:55:53 2026-04-15 09:55:50 Stelmat001 016 R 131.70 14.96 1807.20 16453.460 0.240 0.240 60.00 0.92
1208134 2026-04-15 09:55:53 2026-04-15 09:55:50 Stelmat001 060 R 132.60 2.59 88.70 466.930 0.010 0.010 60.00 0.26
1208133 2026-04-15 09:53:13 2026-04-15 09:53:08 Stelmat001 012 T 132.60 7.34 307.20 3623.570 0.050 0.050 59.90 0.32
1208132 2026-04-15 09:53:13 2026-04-15 09:53:08 Stelmat001 011 S 132.20 3.73 330.30 5532.140 0.050 0.050 59.90 0.67
1208131 2026-04-15 09:53:12 2026-04-15 09:53:08 Stelmat001 010 R 132.10 3.10 290.00 4230.930 0.050 0.050 59.90 0.71
1208130 2026-04-15 09:53:07 2026-04-15 09:53:03 Stelmat001 034 T 132.00 3.54 45.90 421.240 0.020 0.020 59.90 0.10
1208129 2026-04-15 09:53:06 2026-04-15 09:53:03 Stelmat001 033 S 132.30 3.39 234.60 557.210 0.070 0.070 60.00 0.52
1208128 2026-04-15 09:53:06 2026-04-15 09:53:03 Stelmat001 032 R 145.10 1.43 74.60 589.020 0.030 0.030 59.90 0.36
1208127 2026-04-15 09:49:33 2026-04-15 09:49:33 Stelmat002 102 S 132.39 35.22 12.26 25781.297 2.141 2.141 59.97 0.88
1208126 2026-04-15 09:49:30 2026-04-15 09:49:30 Stelmat002 101 R 132.26 22.15 7.60 27415.057 1.139 1.139 59.97 0.86
1208125 2026-04-15 09:48:15 2026-04-15 09:48:11 Stelmat001 065 T 132.20 3.67 415.10 2178.180 0.080 0.080 59.90 0.86
1208124 2026-04-15 09:48:15 2026-04-15 09:48:11 Stelmat001 064 S 146.00 6.95 554.60 3370.270 0.100 0.100 59.90 0.55
1208123 2026-04-15 09:48:14 2026-04-15 09:48:11 Stelmat001 063 R 132.20 2.81 291.50 1808.080 0.040 0.040 59.90 0.79
1208122 2026-04-15 09:48:03 2026-04-15 09:47:59 Stelmat001 025 T 132.80 4.27 237.70 963.590 0.040 0.040 59.90 0.42
1208121 2026-04-15 09:48:03 2026-04-15 09:47:59 Stelmat001 024 S 132.30 4.17 362.00 3430.410 0.060 0.060 59.90 0.66
1208120 2026-04-15 09:48:02 2026-04-15 09:47:59 Stelmat001 023 R 132.10 18.27 2397.10 18106.290 0.430 0.430 59.90 0.99
1208119 2026-04-15 09:47:23 2026-04-15 09:47:20 Stelmat001 022 T 132.40 3.72 447.00 6398.280 0.070 0.070 59.90 0.91
1208118 2026-04-15 09:47:23 2026-04-15 09:47:20 Stelmat001 021 S 132.70 6.18 639.30 4709.430 0.110 0.110 60.00 0.78
1208117 2026-04-15 09:47:22 2026-04-15 09:47:20 Stelmat001 020 R 132.40 2.41 222.90 454.260 0.040 0.040 59.90 0.70
1208116 2026-04-15 09:45:55 2026-04-15 09:45:53 Stelmat001 018 T 146.00 10.70 864.50 12113.700 0.170 0.170 59.90 0.55
1208115 2026-04-15 09:45:55 2026-04-15 09:45:52 Stelmat001 062 T 132.40 3.92 295.50 4542.280 0.050 0.050 60.00 0.57
1208114 2026-04-15 09:45:54 2026-04-15 09:45:53 Stelmat001 017 S 132.30 10.67 423.30 7035.860 0.090 0.090 60.00 0.30
1208113 2026-04-15 09:45:54 2026-04-15 09:45:52 Stelmat001 061 S 132.40 7.02 856.30 8316.930 0.130 0.130 60.00 0.92
1208112 2026-04-15 09:45:53 2026-04-15 09:45:53 Stelmat001 016 R 132.20 10.76 1231.80 16453.220 0.250 0.250 60.00 0.87
1208111 2026-04-15 09:45:53 2026-04-15 09:45:52 Stelmat001 060 R 133.00 2.80 94.80 466.920 0.020 0.020 60.00 0.25
1208110 2026-04-15 09:43:13 2026-04-15 09:43:11 Stelmat001 012 T 132.20 7.71 349.40 3623.520 0.060 0.060 59.90 0.34
1208109 2026-04-15 09:43:13 2026-04-15 09:43:11 Stelmat001 011 S 131.80 3.34 295.70 5532.090 0.050 0.050 59.90 0.67
1208108 2026-04-15 09:43:12 2026-04-15 09:43:11 Stelmat001 010 R 131.60 3.51 326.90 4230.880 0.060 0.060 59.90 0.71
1208107 2026-04-15 09:39:31 2026-04-15 09:39:30 Stelmat002 102 S 132.50 42.00 14.67 25779.156 2.402 2.402 60.00 0.87
1208106 2026-04-15 09:39:28 2026-04-15 09:39:28 Stelmat002 101 R 132.36 17.33 5.49 27413.918 1.311 1.311 59.99 0.80
1208105 2026-04-15 09:38:15 2026-04-15 09:38:13 Stelmat001 065 T 131.40 3.79 427.90 2178.100 0.070 0.070 59.90 0.86
1208104 2026-04-15 09:38:15 2026-04-15 09:38:13 Stelmat001 064 S 145.40 6.99 554.20 3370.170 0.090 0.090 60.00 0.55
1208103 2026-04-15 09:38:14 2026-04-15 09:38:13 Stelmat001 063 R 131.40 2.07 114.90 1808.040 0.050 0.050 60.00 0.42
1208102 2026-04-15 09:38:01 2026-04-15 09:37:58 Stelmat001 025 T 132.30 4.30 239.80 963.550 0.040 0.040 60.00 0.42
1208101 2026-04-15 09:38:01 2026-04-15 09:37:58 Stelmat001 024 S 131.40 4.39 375.80 3430.350 0.070 0.070 60.00 0.65
1208100 2026-04-15 09:38:00 2026-04-15 09:37:58 Stelmat001 023 R 131.40 20.44 2672.20 18105.860 0.440 0.440 60.00 0.99
1208099 2026-04-15 09:37:22 2026-04-15 09:37:18 Stelmat001 022 T 132.00 3.50 417.10 6398.210 0.080 0.080 60.00 0.90
1208098 2026-04-15 09:37:21 2026-04-15 09:37:18 Stelmat001 021 S 132.50 5.99 583.50 4709.320 0.110 0.110 60.00 0.74
1208097 2026-04-15 09:37:21 2026-04-15 09:37:18 Stelmat001 020 R 131.90 2.68 263.90 454.220 0.040 0.040 60.00 0.75
1208096 2026-04-15 09:35:55 2026-04-15 09:35:50 Stelmat001 018 T 145.50 12.40 979.70 12113.530 0.170 0.170 59.90 0.54
1208095 2026-04-15 09:35:55 2026-04-15 09:35:50 Stelmat001 062 T 132.00 3.74 280.50 4542.230 0.040 0.040 60.00 0.57
1208094 2026-04-15 09:35:54 2026-04-15 09:35:50 Stelmat001 017 S 131.70 12.37 543.60 7035.770 0.100 0.100 59.90 0.33
1208093 2026-04-15 09:35:54 2026-04-15 09:35:50 Stelmat001 061 S 131.80 6.33 767.10 8316.800 0.130 0.130 59.90 0.92
1208092 2026-04-15 09:35:53 2026-04-15 09:35:50 Stelmat001 016 R 131.80 12.47 1462.80 16452.970 0.260 0.260 59.90 0.89
1208091 2026-04-15 09:35:53 2026-04-15 09:35:50 Stelmat001 060 R 132.60 2.69 90.90 466.900 0.020 0.020 59.90 0.25
1208090 2026-04-15 09:33:13 2026-04-15 09:33:08 Stelmat001 012 T 132.70 7.70 336.20 3623.460 0.060 0.060 60.00 0.33
1208089 2026-04-15 09:33:13 2026-04-15 09:33:08 Stelmat001 011 S 132.20 3.52 315.10 5532.040 0.050 0.050 60.00 0.68
1208088 2026-04-15 09:33:12 2026-04-15 09:33:08 Stelmat001 010 R 132.10 3.70 360.00 4230.820 0.070 0.070 59.90 0.74
1208087 2026-04-15 09:33:07 2026-04-15 09:33:03 Stelmat001 034 T 131.90 2.98 43.10 421.220 0.010 0.010 60.00 0.11
1208086 2026-04-15 09:33:06 2026-04-15 09:33:03 Stelmat001 033 S 132.30 2.83 194.60 557.140 0.080 0.080 60.00 0.52
1208085 2026-04-15 09:33:06 2026-04-15 09:33:03 Stelmat001 032 R 145.00 1.48 84.60 588.990 0.020 0.020 60.00 0.39
1208084 2026-04-15 09:29:28 2026-04-15 09:29:27 Stelmat002 102 S 132.56 42.47 14.80 25776.754 2.422 2.422 59.99 0.88
1208083 2026-04-15 09:29:25 2026-04-15 09:29:24 Stelmat002 101 R 132.49 15.65 4.85 27412.607 1.240 1.240 59.99 0.78
1208082 2026-04-15 09:28:15 2026-04-15 09:28:11 Stelmat001 065 T 132.40 3.51 415.50 2178.030 0.060 0.060 60.00 0.89
1208081 2026-04-15 09:28:15 2026-04-15 09:28:11 Stelmat001 064 S 146.20 6.93 553.60 3370.080 0.090 0.090 59.90 0.55
1208080 2026-04-15 09:28:14 2026-04-15 09:28:11 Stelmat001 063 R 132.40 2.90 300.50 1807.990 0.050 0.050 59.90 0.78
1208079 2026-04-15 09:28:00 2026-04-15 09:27:55 Stelmat001 025 T 133.00 4.26 237.60 963.510 0.040 0.040 60.00 0.42
1208078 2026-04-15 09:27:59 2026-04-15 09:27:55 Stelmat001 024 S 132.30 5.41 439.80 3430.280 0.070 0.070 60.00 0.61
1208077 2026-04-15 09:27:59 2026-04-15 09:27:55 Stelmat001 023 R 132.30 19.06 2495.50 18105.420 0.420 0.420 59.90 0.99
1208076 2026-04-15 09:27:20 2026-04-15 09:27:15 Stelmat001 022 T 132.40 3.85 462.10 6398.130 0.080 0.080 59.90 0.91
1208075 2026-04-15 09:27:19 2026-04-15 09:27:15 Stelmat001 021 S 132.80 6.70 701.50 4709.210 0.100 0.100 59.90 0.79
1208074 2026-04-15 09:27:19 2026-04-15 09:27:15 Stelmat001 020 R 132.30 2.62 254.20 454.180 0.040 0.040 59.90 0.73
1208073 2026-04-15 09:25:55 2026-04-15 09:25:52 Stelmat001 018 T 145.70 13.24 1039.50 12113.360 0.170 0.170 59.90 0.54
1208072 2026-04-15 09:25:54 2026-04-15 09:25:52 Stelmat001 062 T 132.10 3.33 260.40 4542.190 0.040 0.040 60.00 0.59
1208071 2026-04-15 09:25:54 2026-04-15 09:25:52 Stelmat001 017 S 132.10 13.24 619.30 7035.670 0.100 0.100 59.90 0.35
1208070 2026-04-15 09:25:54 2026-04-15 09:25:52 Stelmat001 061 S 132.20 6.26 759.80 8316.670 0.130 0.130 60.00 0.92
1208069 2026-04-15 09:25:53 2026-04-15 09:25:52 Stelmat001 016 R 131.90 13.17 1566.90 16452.710 0.250 0.250 59.90 0.90
1208068 2026-04-15 09:25:53 2026-04-15 09:25:52 Stelmat001 060 R 132.90 2.95 113.70 466.880 0.020 0.020 59.90 0.29
1208067 2026-04-15 09:23:13 2026-04-15 09:23:11 Stelmat001 012 T 130.70 7.76 351.50 3623.400 0.060 0.060 59.90 0.35
1208066 2026-04-15 09:23:12 2026-04-15 09:23:11 Stelmat001 011 S 130.00 3.33 288.00 5531.990 0.050 0.050 59.90 0.66
1208065 2026-04-15 09:23:12 2026-04-15 09:23:11 Stelmat001 010 R 129.90 4.01 368.60 4230.750 0.070 0.070 59.90 0.71
1208064 2026-04-15 09:19:25 2026-04-15 09:19:24 Stelmat002 102 S 130.69 45.27 15.71 25774.332 2.027 2.027 60.03 0.88
1208063 2026-04-15 09:19:22 2026-04-15 09:19:22 Stelmat002 101 R 130.55 22.17 7.54 27411.367 1.355 1.355 60.03 0.87
1208062 2026-04-15 09:18:13 2026-04-15 09:18:08 Stelmat001 065 T 130.30 2.84 334.10 2177.970 0.050 0.050 60.00 0.90
1208061 2026-04-15 09:18:12 2026-04-15 09:18:08 Stelmat001 064 S 144.00 7.03 551.90 3369.990 0.090 0.090 60.00 0.54
1208060 2026-04-15 09:18:12 2026-04-15 09:18:08 Stelmat001 063 R 130.40 2.89 291.40 1807.940 0.050 0.050 60.00 0.77
1208059 2026-04-15 09:18:00 2026-04-15 09:17:58 Stelmat001 025 T 131.20 4.32 238.60 963.470 0.040 0.040 60.00 0.42
1208058 2026-04-15 09:17:59 2026-04-15 09:17:58 Stelmat001 024 S 130.50 4.85 404.30 3430.210 0.070 0.070 60.00 0.64
1208057 2026-04-15 09:17:59 2026-04-15 09:17:58 Stelmat001 023 R 130.50 19.26 2489.70 18105.000 0.420 0.420 60.00 0.99
1208056 2026-04-15 09:17:20 2026-04-15 09:17:18 Stelmat001 022 T 130.90 3.99 481.10 6398.050 0.080 0.080 60.00 0.92
1208055 2026-04-15 09:17:19 2026-04-15 09:17:18 Stelmat001 021 S 131.20 6.32 611.10 4709.110 0.110 0.110 60.00 0.74
1208054 2026-04-15 09:17:19 2026-04-15 09:17:18 Stelmat001 020 R 130.70 2.79 265.40 454.140 0.040 0.040 60.00 0.73
1208053 2026-04-15 09:15:55 2026-04-15 09:15:50 Stelmat001 018 T 144.20 11.60 917.70 12113.190 0.150 0.150 60.00 0.55
1208052 2026-04-15 09:15:54 2026-04-15 09:15:50 Stelmat001 062 T 130.80 3.91 291.20 4542.150 0.050 0.050 59.90 0.57
1208051 2026-04-15 09:15:54 2026-04-15 09:15:50 Stelmat001 017 S 130.60 11.60 486.10 7035.570 0.080 0.080 59.90 0.32
1208050 2026-04-15 09:15:54 2026-04-15 09:15:50 Stelmat001 061 S 130.70 6.47 777.00 8316.540 0.120 0.120 59.90 0.92
1208049 2026-04-15 09:15:53 2026-04-15 09:15:50 Stelmat001 016 R 130.70 11.68 1350.90 16452.460 0.230 0.230 59.90 0.89
1208048 2026-04-15 09:15:53 2026-04-15 09:15:50 Stelmat001 060 R 131.50 2.75 95.70 466.860 0.020 0.020 59.90 0.26
1208047 2026-04-15 09:13:13 2026-04-15 09:13:09 Stelmat001 012 T 131.70 8.00 368.60 3623.340 0.060 0.060 60.00 0.35
1208046 2026-04-15 09:13:12 2026-04-15 09:13:09 Stelmat001 011 S 131.10 3.40 295.20 5531.940 0.050 0.050 60.00 0.66
1208045 2026-04-15 09:13:12 2026-04-15 09:13:09 Stelmat001 010 R 131.00 4.07 451.40 4230.680 0.080 0.080 59.90 0.85
1208044 2026-04-15 09:13:07 2026-04-15 09:13:03 Stelmat001 034 T 130.90 2.84 40.50 421.210 0.020 0.020 59.90 0.11
1208043 2026-04-15 09:13:07 2026-04-15 09:13:03 Stelmat001 033 S 131.40 2.97 221.90 557.060 0.070 0.070 59.90 0.57
1208042 2026-04-15 09:13:06 2026-04-15 09:13:03 Stelmat001 032 R 143.90 1.76 75.10 588.970 0.030 0.030 59.90 0.30
1208041 2026-04-15 09:09:22 2026-04-15 09:09:22 Stelmat002 102 S 131.14 34.56 11.86 25772.305 2.110 2.110 60.03 0.87
1208040 2026-04-15 09:09:20 2026-04-15 09:09:19 Stelmat002 101 R 131.04 27.42 9.79 27410.012 1.274 1.274 60.03 0.90
1208039 2026-04-15 09:08:13 2026-04-15 09:08:11 Stelmat001 065 T 131.10 2.84 335.70 2177.920 0.060 0.060 59.90 0.90
1208038 2026-04-15 09:08:12 2026-04-15 09:08:11 Stelmat001 064 S 144.70 7.00 551.40 3369.900 0.100 0.100 59.90 0.54
1208037 2026-04-15 09:08:12 2026-04-15 09:08:11 Stelmat001 063 R 130.90 2.75 284.80 1807.890 0.050 0.050 59.90 0.79
1208036 2026-04-15 09:08:00 2026-04-15 09:07:55 Stelmat001 025 T 131.70 4.30 238.40 963.430 0.040 0.040 60.00 0.42
1208035 2026-04-15 09:07:59 2026-04-15 09:07:55 Stelmat001 024 S 131.10 5.05 414.40 3430.140 0.070 0.070 60.00 0.63
1208034 2026-04-15 09:07:58 2026-04-15 09:07:55 Stelmat001 023 R 130.90 19.93 2575.20 18104.580 0.420 0.420 60.00 0.99
1208033 2026-04-15 09:07:20 2026-04-15 09:07:16 Stelmat001 022 T 131.20 3.22 360.20 6397.970 0.060 0.060 59.90 0.85
1208032 2026-04-15 09:07:19 2026-04-15 09:07:16 Stelmat001 021 S 131.60 5.94 543.60 4709.000 0.100 0.100 60.00 0.70
1208031 2026-04-15 09:07:18 2026-04-15 09:07:16 Stelmat001 020 R 131.00 2.40 226.20 454.100 0.040 0.040 60.00 0.72
1208030 2026-04-15 09:05:55 2026-04-15 09:05:52 Stelmat001 018 T 144.80 11.76 931.20 12113.040 0.160 0.160 60.00 0.55
1208029 2026-04-15 09:05:54 2026-04-15 09:05:52 Stelmat001 062 T 131.30 3.36 259.90 4542.100 0.050 0.050 59.90 0.59
1208028 2026-04-15 09:05:54 2026-04-15 09:05:52 Stelmat001 017 S 131.00 11.77 505.40 7035.490 0.090 0.090 60.00 0.33
1208027 2026-04-15 09:05:54 2026-04-15 09:05:52 Stelmat001 061 S 131.20 6.44 774.80 8316.420 0.130 0.130 59.90 0.92
1208026 2026-04-15 09:05:53 2026-04-15 09:05:52 Stelmat001 016 R 131.20 11.88 1380.80 16452.230 0.230 0.230 60.00 0.89
1208025 2026-04-15 09:05:53 2026-04-15 09:05:52 Stelmat001 060 R 132.00 3.01 111.50 466.840 0.020 0.020 60.00 0.28
1208024 2026-04-15 09:03:12 2026-04-15 09:03:07 Stelmat001 012 T 131.30 7.84 348.00 3623.280 0.060 0.060 60.00 0.34
1208023 2026-04-15 09:03:11 2026-04-15 09:03:07 Stelmat001 011 S 130.80 3.43 302.10 5531.890 0.050 0.050 60.00 0.67
1208022 2026-04-15 09:03:10 2026-04-15 09:03:07 Stelmat001 010 R 130.50 4.23 448.60 4230.600 0.070 0.070 60.00 0.81
1208021 2026-04-15 08:59:20 2026-04-15 08:59:19 Stelmat002 102 S 130.46 38.14 12.61 25770.195 2.439 2.439 60.04 0.84
1208020 2026-04-15 08:59:17 2026-04-15 08:59:16 Stelmat002 101 R 130.35 31.50 11.30 27408.738 1.547 1.547 60.04 0.92
1208019 2026-04-15 08:58:13 2026-04-15 08:58:08 Stelmat001 065 T 130.20 2.83 334.00 2177.860 0.050 0.050 60.00 0.91
1208018 2026-04-15 08:58:12 2026-04-15 08:58:08 Stelmat001 064 S 143.90 7.05 553.30 3369.800 0.090 0.090 60.00 0.55
1208017 2026-04-15 08:58:12 2026-04-15 08:58:08 Stelmat001 063 R 130.00 2.77 281.80 1807.840 0.040 0.040 60.00 0.78
1208016 2026-04-15 08:58:00 2026-04-15 08:57:58 Stelmat001 025 T 130.90 4.32 239.10 963.390 0.040 0.040 59.90 0.42
1208015 2026-04-15 08:57:59 2026-04-15 08:57:58 Stelmat001 024 S 130.10 4.92 398.60 3430.070 0.070 0.070 59.90 0.62
1208014 2026-04-15 08:57:58 2026-04-15 08:57:58 Stelmat001 023 R 129.90 19.75 2543.00 18104.160 0.430 0.430 60.00 0.99
1208013 2026-04-15 08:57:19 2026-04-15 08:57:14 Stelmat001 022 T 130.40 3.16 349.20 6397.910 0.070 0.070 60.00 0.85
1208012 2026-04-15 08:57:18 2026-04-15 08:57:14 Stelmat001 021 S 130.90 5.48 509.30 4708.900 0.090 0.090 60.00 0.71
1208011 2026-04-15 08:57:17 2026-04-15 08:57:14 Stelmat001 020 R 130.10 2.65 241.10 454.060 0.040 0.040 60.00 0.70
1208010 2026-04-15 08:55:54 2026-04-15 08:55:50 Stelmat001 018 T 143.80 12.58 980.90 12112.880 0.170 0.170 59.90 0.54
1208009 2026-04-15 08:55:54 2026-04-15 08:55:50 Stelmat001 062 T 130.30 4.15 304.30 4542.050 0.050 0.050 60.00 0.56
1208008 2026-04-15 08:55:54 2026-04-15 08:55:50 Stelmat001 017 S 130.00 12.55 557.00 7035.400 0.100 0.100 59.90 0.34
1208007 2026-04-15 08:55:54 2026-04-15 08:55:50 Stelmat001 061 S 130.10 6.52 779.90 8316.290 0.120 0.120 60.00 0.92
1208006 2026-04-15 08:55:53 2026-04-15 08:55:50 Stelmat001 016 R 130.20 12.66 1481.50 16452.000 0.270 0.270 60.00 0.90
1208005 2026-04-15 08:55:53 2026-04-15 08:55:50 Stelmat001 060 R 131.10 3.04 113.20 466.820 0.010 0.010 59.90 0.28
1208004 2026-04-15 08:53:12 2026-04-15 08:53:09 Stelmat001 012 T 130.60 7.38 343.30 3623.220 0.050 0.050 60.00 0.36
1208003 2026-04-15 08:53:11 2026-04-15 08:53:09 Stelmat001 011 S 130.10 3.29 276.90 5531.840 0.050 0.050 60.00 0.65
1208002 2026-04-15 08:53:10 2026-04-15 08:53:09 Stelmat001 010 R 129.80 3.94 418.40 4230.530 0.070 0.070 60.00 0.82
1208001 2026-04-15 08:53:07 2026-04-15 08:53:02 Stelmat001 034 T 129.80 3.44 36.60 421.190 0.010 0.010 60.00 0.08
1208000 2026-04-15 08:53:07 2026-04-15 08:53:02 Stelmat001 033 S 130.20 3.31 223.20 556.990 0.070 0.070 60.00 0.52
1207999 2026-04-15 08:53:06 2026-04-15 08:53:02 Stelmat001 032 R 142.50 1.45 82.60 588.940 0.030 0.030 59.90 0.40
1207998 2026-04-15 08:49:16 2026-04-15 08:49:16 Stelmat002 102 S 130.36 36.86 13.01 25767.756 1.920 1.920 60.03 0.90
1207997 2026-04-15 08:49:14 2026-04-15 08:49:13 Stelmat002 101 R 130.23 23.28 8.41 27407.191 1.168 1.168 60.03 0.93
1207996 2026-04-15 08:48:13 2026-04-15 08:48:11 Stelmat001 065 T 130.10 2.83 333.30 2177.810 0.060 0.060 59.90 0.91
1207995 2026-04-15 08:48:12 2026-04-15 08:48:11 Stelmat001 064 S 143.70 7.05 551.90 3369.710 0.090 0.090 60.00 0.55
1207994 2026-04-15 08:48:12 2026-04-15 08:48:11 Stelmat001 063 R 129.90 2.74 280.70 1807.800 0.050 0.050 59.90 0.79
1207993 2026-04-15 08:48:00 2026-04-15 08:47:55 Stelmat001 025 T 130.80 4.33 239.30 963.350 0.040 0.040 59.90 0.42
1207992 2026-04-15 08:47:59 2026-04-15 08:47:55 Stelmat001 024 S 130.20 5.81 446.40 3430.000 0.070 0.070 60.00 0.59
1207991 2026-04-15 08:47:58 2026-04-15 08:47:55 Stelmat001 023 R 129.90 19.35 2489.20 18103.730 0.420 0.420 60.00 0.99
1207990 2026-04-15 08:47:19 2026-04-15 08:47:16 Stelmat001 022 T 130.30 3.67 421.30 6397.840 0.070 0.070 60.00 0.88
1207989 2026-04-15 08:47:18 2026-04-15 08:47:16 Stelmat001 021 S 130.60 6.24 623.60 4708.810 0.110 0.110 60.00 0.76
1207988 2026-04-15 08:47:17 2026-04-15 08:47:16 Stelmat001 020 R 129.90 2.13 211.60 454.020 0.040 0.040 60.00 0.77
1207987 2026-04-15 08:45:54 2026-04-15 08:45:52 Stelmat001 018 T 143.30 12.07 947.50 12112.710 0.150 0.150 59.90 0.55
1207986 2026-04-15 08:45:54 2026-04-15 08:45:52 Stelmat001 062 T 130.00 3.51 259.10 4542.000 0.050 0.050 59.90 0.57
1207985 2026-04-15 08:45:54 2026-04-15 08:45:52 Stelmat001 017 S 129.60 12.07 526.50 7035.300 0.070 0.070 59.90 0.34
1207984 2026-04-15 08:45:54 2026-04-15 08:45:52 Stelmat001 061 S 129.80 5.70 695.30 8316.170 0.120 0.120 59.90 0.94
1207983 2026-04-15 08:45:53 2026-04-15 08:45:52 Stelmat001 016 R 129.90 12.16 1421.50 16451.730 0.210 0.210 59.90 0.90
1207982 2026-04-15 08:45:53 2026-04-15 08:45:52 Stelmat001 060 R 130.60 3.08 114.40 466.810 0.020 0.020 59.90 0.28
1207981 2026-04-15 08:43:12 2026-04-15 08:43:07 Stelmat001 012 T 131.10 7.08 335.00 3623.170 0.070 0.070 60.00 0.36
1207980 2026-04-15 08:43:11 2026-04-15 08:43:07 Stelmat001 011 S 130.80 3.29 280.60 5531.790 0.040 0.040 60.00 0.65
1207979 2026-04-15 08:43:10 2026-04-15 08:43:07 Stelmat001 010 R 130.40 3.10 345.80 4230.460 0.060 0.060 60.00 0.86
1207978 2026-04-15 08:39:14 2026-04-15 08:39:14 Stelmat002 102 S 131.22 32.82 10.99 25765.836 2.065 2.065 60.02 0.85
1207977 2026-04-15 08:39:11 2026-04-15 08:39:11 Stelmat002 101 R 131.18 17.50 6.30 27406.023 1.199 1.199 60.01 0.91
1207976 2026-04-15 08:38:13 2026-04-15 08:38:08 Stelmat001 065 T 131.20 2.80 333.50 2177.750 0.050 0.050 60.00 0.91
1207975 2026-04-15 08:38:12 2026-04-15 08:38:08 Stelmat001 064 S 144.80 6.99 552.10 3369.620 0.090 0.090 60.00 0.55
1207974 2026-04-15 08:38:11 2026-04-15 08:38:08 Stelmat001 063 R 131.00 2.73 284.50 1807.750 0.050 0.050 60.00 0.80
1207973 2026-04-15 08:37:58 2026-04-15 08:37:53 Stelmat001 025 T 131.80 4.30 238.30 963.310 0.040 0.040 60.00 0.42
1207972 2026-04-15 08:37:57 2026-04-15 08:37:53 Stelmat001 024 S 131.30 5.21 425.90 3429.930 0.070 0.070 60.00 0.62
1207971 2026-04-15 08:37:56 2026-04-15 08:37:53 Stelmat001 023 R 131.10 19.23 2495.20 18103.310 0.420 0.420 60.00 0.99
1207970 2026-04-15 08:37:18 2026-04-15 08:37:15 Stelmat001 022 T 131.20 3.35 394.10 6397.770 0.060 0.060 60.00 0.90
1207969 2026-04-15 08:37:18 2026-04-15 08:37:15 Stelmat001 021 S 131.50 6.01 613.50 4708.700 0.100 0.100 60.00 0.78
1207968 2026-04-15 08:37:17 2026-04-15 08:37:15 Stelmat001 020 R 131.00 2.13 199.70 453.980 0.030 0.030 60.00 0.72
1207967 2026-04-15 08:35:54 2026-04-15 08:35:50 Stelmat001 018 T 144.50 12.32 970.00 12112.560 0.150 0.150 60.00 0.55
1207966 2026-04-15 08:35:54 2026-04-15 08:35:49 Stelmat001 062 T 131.00 3.92 289.00 4541.950 0.050 0.050 59.90 0.56
1207965 2026-04-15 08:35:54 2026-04-15 08:35:50 Stelmat001 017 S 130.70 12.29 547.00 7035.230 0.090 0.090 60.00 0.34
1207964 2026-04-15 08:35:53 2026-04-15 08:35:49 Stelmat001 061 S 130.90 6.36 763.10 8316.050 0.130 0.130 60.00 0.92
1207963 2026-04-15 08:35:53 2026-04-15 08:35:50 Stelmat001 016 R 130.80 12.56 1481.60 16451.520 0.240 0.240 60.00 0.90
1207962 2026-04-15 08:35:53 2026-04-15 08:35:49 Stelmat001 060 R 131.60 2.20 76.70 466.790 0.010 0.010 60.00 0.27
1207961 2026-04-15 08:33:12 2026-04-15 08:33:09 Stelmat001 012 T 131.30 7.83 384.90 3623.100 0.060 0.060 60.00 0.37
1207960 2026-04-15 08:33:11 2026-04-15 08:33:09 Stelmat001 011 S 130.90 3.40 294.50 5531.750 0.050 0.050 60.00 0.66
1207959 2026-04-15 08:33:10 2026-04-15 08:33:09 Stelmat001 010 R 130.60 2.66 314.40 4230.400 0.050 0.050 60.00 0.90
1207958 2026-04-15 08:33:07 2026-04-15 08:33:03 Stelmat001 034 T 130.60 3.64 59.20 421.180 0.010 0.010 60.00 0.12
1207957 2026-04-15 08:33:06 2026-04-15 08:33:03 Stelmat001 033 S 130.90 3.44 230.80 556.920 0.080 0.080 60.00 0.51
1207956 2026-04-15 08:33:06 2026-04-15 08:33:03 Stelmat001 032 R 143.40 1.74 101.60 588.910 0.030 0.030 60.00 0.41
1207955 2026-04-15 08:29:12 2026-04-15 08:29:11 Stelmat002 102 S 131.05 33.83 11.55 25763.771 2.033 2.033 60.01 0.87
1207954 2026-04-15 08:29:09 2026-04-15 08:29:09 Stelmat002 101 R 130.93 23.16 8.40 27404.824 1.166 1.166 60.00 0.93
1207953 2026-04-15 08:28:13 2026-04-15 08:28:11 Stelmat001 065 T 131.00 2.75 327.90 2177.700 0.060 0.060 59.90 0.91
1207952 2026-04-15 08:28:12 2026-04-15 08:28:11 Stelmat001 064 S 144.50 7.01 552.20 3369.530 0.090 0.090 59.90 0.55
1207951 2026-04-15 08:28:11 2026-04-15 08:28:11 Stelmat001 063 R 130.80 2.89 294.10 1807.700 0.040 0.040 60.00 0.78
1207950 2026-04-15 08:27:57 2026-04-15 08:27:55 Stelmat001 025 T 131.60 4.30 238.40 963.270 0.040 0.040 60.00 0.42
1207949 2026-04-15 08:27:57 2026-04-15 08:27:55 Stelmat001 024 S 130.90 5.48 446.20 3429.860 0.080 0.080 59.90 0.62
1207948 2026-04-15 08:27:56 2026-04-15 08:27:55 Stelmat001 023 R 130.50 19.28 2491.60 18102.890 0.410 0.410 60.00 0.99
1207947 2026-04-15 08:27:17 2026-04-15 08:27:14 Stelmat001 022 T 131.10 3.05 339.60 6397.710 0.070 0.070 60.00 0.85
1207946 2026-04-15 08:27:16 2026-04-15 08:27:14 Stelmat001 021 S 131.40 5.01 475.20 4708.600 0.080 0.080 59.90 0.72
1207945 2026-04-15 08:27:16 2026-04-15 08:27:14 Stelmat001 020 R 130.80 2.28 214.10 453.950 0.050 0.050 59.90 0.72
1207944 2026-04-15 08:25:54 2026-04-15 08:25:52 Stelmat001 018 T 144.50 11.79 931.70 12112.410 0.160 0.160 60.00 0.55
1207943 2026-04-15 08:25:54 2026-04-15 08:25:52 Stelmat001 062 T 131.00 3.99 292.50 4541.900 0.040 0.040 60.00 0.56
1207942 2026-04-15 08:25:54 2026-04-15 08:25:52 Stelmat001 017 S 130.60 11.80 510.20 7035.140 0.090 0.090 60.00 0.33
1207941 2026-04-15 08:25:53 2026-04-15 08:25:52 Stelmat001 061 S 130.80 6.71 799.60 8315.920 0.140 0.140 60.00 0.91
1207940 2026-04-15 08:25:53 2026-04-15 08:25:52 Stelmat001 016 R 130.80 11.89 1389.70 16451.280 0.230 0.230 60.00 0.89
1207939 2026-04-15 08:25:53 2026-04-15 08:25:52 Stelmat001 060 R 131.70 2.05 65.10 466.780 0.010 0.010 60.00 0.24
1207938 2026-04-15 08:23:11 2026-04-15 08:23:06 Stelmat001 012 T 130.10 8.54 388.00 3623.040 0.060 0.060 60.00 0.35
1207937 2026-04-15 08:23:11 2026-04-15 08:23:06 Stelmat001 011 S 129.70 3.43 293.90 5531.700 0.050 0.050 60.00 0.66
1207936 2026-04-15 08:23:10 2026-04-15 08:23:06 Stelmat001 010 R 129.40 1.98 214.50 4230.350 0.020 0.020 60.00 0.84
1207935 2026-04-15 08:19:10 2026-04-15 08:19:09 Stelmat002 102 S 129.76 33.96 11.59 25761.738 1.804 1.804 59.99 0.88
1207934 2026-04-15 08:19:07 2026-04-15 08:19:06 Stelmat002 101 R 129.61 17.60 6.26 27403.658 1.330 1.330 59.99 0.92
1207933 2026-04-15 08:18:13 2026-04-15 08:18:08 Stelmat001 065 T 129.60 3.44 391.80 2177.640 0.070 0.070 60.00 0.88
1207932 2026-04-15 08:18:12 2026-04-15 08:18:08 Stelmat001 064 S 143.40 7.07 550.70 3369.440 0.100 0.100 59.90 0.54
1207931 2026-04-15 08:18:11 2026-04-15 08:18:08 Stelmat001 063 R 129.50 2.09 114.10 1807.660 0.020 0.020 59.90 0.42
1207930 2026-04-15 08:17:57 2026-04-15 08:17:52 Stelmat001 025 T 130.30 4.34 239.70 963.230 0.040 0.040 60.00 0.42
1207929 2026-04-15 08:17:57 2026-04-15 08:17:52 Stelmat001 024 S 129.50 5.20 416.40 3429.780 0.060 0.060 60.00 0.62
1207928 2026-04-15 08:17:56 2026-04-15 08:17:52 Stelmat001 023 R 129.40 19.84 2545.70 18102.480 0.470 0.470 59.90 0.99
1207927 2026-04-15 08:17:16 2026-04-15 08:17:12 Stelmat001 022 T 129.70 3.43 392.10 6397.640 0.060 0.060 60.00 0.88
1207926 2026-04-15 08:17:15 2026-04-15 08:17:12 Stelmat001 021 S 130.30 6.09 602.30 4708.520 0.090 0.090 59.90 0.76
1207925 2026-04-15 08:17:14 2026-04-15 08:17:12 Stelmat001 020 R 129.50 2.28 220.90 453.900 0.040 0.040 60.00 0.75
1207924 2026-04-15 08:15:54 2026-04-15 08:15:49 Stelmat001 018 T 143.30 10.56 842.80 12112.250 0.150 0.150 60.00 0.56
1207923 2026-04-15 08:15:54 2026-04-15 08:15:49 Stelmat001 062 T 129.70 3.79 284.60 4541.860 0.050 0.050 60.00 0.58
1207922 2026-04-15 08:15:53 2026-04-15 08:15:49 Stelmat001 017 S 129.60 10.58 422.50 7035.050 0.080 0.080 60.00 0.31
1207921 2026-04-15 08:15:53 2026-04-15 08:15:49 Stelmat001 061 S 129.70 6.82 805.40 8315.780 0.140 0.140 60.00 0.91
1207920 2026-04-15 08:15:53 2026-04-15 08:15:49 Stelmat001 016 R 129.50 10.65 1213.20 16451.050 0.220 0.220 60.00 0.88
1207919 2026-04-15 08:15:53 2026-04-15 08:15:49 Stelmat001 060 R 130.50 2.32 80.00 466.770 0.010 0.010 60.00 0.26
1207918 2026-04-15 08:13:11 2026-04-15 08:13:09 Stelmat001 012 T 130.50 8.50 406.30 3622.980 0.060 0.060 59.90 0.37
1207917 2026-04-15 08:13:11 2026-04-15 08:13:09 Stelmat001 011 S 129.80 3.43 307.40 5531.650 0.050 0.050 59.90 0.69
1207916 2026-04-15 08:13:10 2026-04-15 08:13:09 Stelmat001 010 R 129.70 1.58 130.30 4230.330 0.020 0.020 60.00 0.64
1207915 2026-04-15 08:13:07 2026-04-15 08:13:03 Stelmat001 034 T 129.70 3.21 52.00 421.170 0.020 0.020 59.90 0.12
1207914 2026-04-15 08:13:07 2026-04-15 08:13:03 Stelmat001 033 S 130.30 2.97 206.70 556.840 0.070 0.070 60.00 0.53
1207913 2026-04-15 08:13:06 2026-04-15 08:13:03 Stelmat001 032 R 142.60 1.71 93.40 588.880 0.030 0.030 59.90 0.38
1207912 2026-04-15 08:09:07 2026-04-15 08:09:07 Stelmat002 102 S 129.98 38.16 13.61 25759.934 2.270 2.270 60.02 0.92
1207911 2026-04-15 08:09:04 2026-04-15 08:09:04 Stelmat002 101 R 129.86 18.05 6.44 27402.328 0.957 0.957 60.01 0.91
1207910 2026-04-15 08:08:13 2026-04-15 08:08:10 Stelmat001 065 T 129.70 3.45 393.80 2177.570 0.060 0.060 60.00 0.88
1207909 2026-04-15 08:08:12 2026-04-15 08:08:10 Stelmat001 064 S 143.80 7.07 549.50 3369.340 0.090 0.090 59.90 0.54
1207908 2026-04-15 08:08:11 2026-04-15 08:08:10 Stelmat001 063 R 129.60 1.79 96.50 1807.640 0.020 0.020 59.90 0.42
1207907 2026-04-15 08:07:57 2026-04-15 08:07:55 Stelmat001 025 T 130.70 4.35 240.30 963.190 0.040 0.040 60.00 0.42
1207906 2026-04-15 08:07:57 2026-04-15 08:07:55 Stelmat001 024 S 129.60 4.06 341.20 3429.720 0.060 0.060 59.90 0.65
1207905 2026-04-15 08:07:56 2026-04-15 08:07:55 Stelmat001 023 R 129.60 28.14 3628.20 18102.010 0.530 0.530 60.00 1.00
1207904 2026-04-15 08:07:15 2026-04-15 08:07:10 Stelmat001 022 T 129.90 3.23 385.60 6397.580 0.070 0.070 60.00 0.92
1207903 2026-04-15 08:07:14 2026-04-15 08:07:10 Stelmat001 021 S 130.80 5.37 479.80 4708.430 0.090 0.090 60.00 0.68
1207902 2026-04-15 08:07:13 2026-04-15 08:07:10 Stelmat001 020 R 129.80 2.85 253.40 453.860 0.040 0.040 60.00 0.69
1207901 2026-04-15 08:05:54 2026-04-15 08:05:52 Stelmat001 018 T 143.80 11.36 897.20 12112.100 0.170 0.170 59.90 0.55
1207900 2026-04-15 08:05:54 2026-04-15 08:05:52 Stelmat001 062 T 129.70 3.42 251.90 4541.810 0.040 0.040 59.90 0.57
1207899 2026-04-15 08:05:53 2026-04-15 08:05:52 Stelmat001 017 S 129.90 11.41 479.30 7034.970 0.100 0.100 60.00 0.32
1207898 2026-04-15 08:05:53 2026-04-15 08:05:52 Stelmat001 061 S 130.00 7.04 826.20 8315.640 0.130 0.130 60.00 0.90
1207897 2026-04-15 08:05:53 2026-04-15 08:05:52 Stelmat001 016 R 129.60 11.49 1324.50 16450.830 0.260 0.260 59.90 0.89
1207896 2026-04-15 08:05:52 2026-04-15 08:05:52 Stelmat001 060 R 131.00 1.74 61.00 466.760 0.010 0.010 60.00 0.27
1207895 2026-04-15 08:03:11 2026-04-15 08:03:06 Stelmat001 012 T 131.00 7.30 348.50 3622.920 0.060 0.060 60.00 0.36
1207894 2026-04-15 08:03:10 2026-04-15 08:03:06 Stelmat001 011 S 130.10 3.73 327.00 5531.600 0.060 0.060 60.00 0.67
1207893 2026-04-15 08:03:10 2026-04-15 08:03:06 Stelmat001 010 R 130.20 1.30 107.40 4230.310 0.020 0.020 60.00 0.63
1207892 2026-04-15 07:59:05 2026-04-15 07:59:04 Stelmat002 102 S 130.30 46.32 16.10 25757.664 2.502 2.502 60.03 0.89
1207891 2026-04-15 07:59:02 2026-04-15 07:59:02 Stelmat002 101 R 130.16 21.50 7.72 27401.371 1.269 1.269 60.03 0.92
1207890 2026-04-15 07:58:13 2026-04-15 07:58:08 Stelmat001 065 T 129.70 3.46 392.80 2177.510 0.070 0.070 59.90 0.88
1207889 2026-04-15 07:58:12 2026-04-15 07:58:08 Stelmat001 064 S 143.60 7.05 548.90 3369.250 0.090 0.090 60.00 0.54
1207888 2026-04-15 07:58:11 2026-04-15 07:58:08 Stelmat001 063 R 130.00 2.61 272.80 1807.620 0.050 0.050 59.90 0.80
1207887 2026-04-15 07:57:57 2026-04-15 07:57:52 Stelmat001 025 T 130.80 4.36 244.00 963.150 0.040 0.040 60.00 0.43
1207886 2026-04-15 07:57:56 2026-04-15 07:57:52 Stelmat001 024 S 129.50 4.16 352.40 3429.660 0.060 0.060 60.00 0.65
1207885 2026-04-15 07:57:56 2026-04-15 07:57:52 Stelmat001 023 R 130.20 19.37 2494.60 18101.480 0.470 0.470 60.00 0.99
1207884 2026-04-15 07:57:15 2026-04-15 07:57:12 Stelmat001 022 T 130.00 3.04 360.30 6397.510 0.100 0.100 60.00 0.91
1207883 2026-04-15 07:57:14 2026-04-15 07:57:12 Stelmat001 021 S 130.80 5.50 518.10 4708.340 0.080 0.080 60.00 0.72
1207882 2026-04-15 07:57:13 2026-04-15 07:57:12 Stelmat001 020 R 130.30 2.52 230.30 453.820 0.030 0.030 60.00 0.70
1207881 2026-04-15 07:55:54 2026-04-15 07:55:49 Stelmat001 018 T 143.90 12.25 958.10 12111.930 0.170 0.170 60.00 0.54
1207880 2026-04-15 07:55:54 2026-04-15 07:55:49 Stelmat001 062 T 130.10 3.84 283.80 4541.770 0.050 0.050 60.00 0.57
1207879 2026-04-15 07:55:53 2026-04-15 07:55:49 Stelmat001 017 S 130.40 12.30 551.10 7034.870 0.100 0.100 60.00 0.34
1207878 2026-04-15 07:55:53 2026-04-15 07:55:49 Stelmat001 061 S 130.50 6.85 818.20 8315.510 0.140 0.140 60.00 0.91
1207877 2026-04-15 07:55:53 2026-04-15 07:55:49 Stelmat001 016 R 130.00 12.35 1444.70 16450.570 0.260 0.260 60.00 0.90
1207876 2026-04-15 07:55:52 2026-04-15 07:55:49 Stelmat001 060 R 131.20 1.45 40.60 466.750 0.010 0.010 60.00 0.21
1207875 2026-04-15 07:53:09 2026-04-15 07:53:05 Stelmat001 012 T 130.90 6.94 329.60 3622.860 0.050 0.050 60.00 0.36
1207874 2026-04-15 07:53:08 2026-04-15 07:53:05 Stelmat001 011 S 130.10 3.74 316.40 5531.540 0.040 0.040 59.90 0.65
1207873 2026-04-15 07:53:07 2026-04-15 07:53:05 Stelmat001 010 R 130.30 1.30 108.30 4230.290 0.040 0.040 60.00 0.64
1207872 2026-04-15 07:53:07 2026-04-15 07:53:03 Stelmat001 034 T 129.90 2.63 39.50 421.150 0.010 0.010 59.90 0.12
1207871 2026-04-15 07:53:07 2026-04-15 07:53:03 Stelmat001 033 S 130.50 2.52 175.00 556.770 0.060 0.060 60.00 0.53
1207870 2026-04-15 07:53:06 2026-04-15 07:53:03 Stelmat001 032 R 143.10 1.49 84.40 588.850 0.020 0.020 59.90 0.39
1207869 2026-04-15 07:49:02 2026-04-15 07:49:01 Stelmat002 102 S 130.63 45.87 15.94 25755.162 2.350 2.350 60.05 0.89
1207868 2026-04-15 07:48:59 2026-04-15 07:48:58 Stelmat002 101 R 130.53 17.50 6.22 27400.102 0.793 0.793 60.05 0.91
1207867 2026-04-15 07:48:13 2026-04-15 07:48:10 Stelmat001 065 T 130.30 3.47 397.40 2177.440 0.070 0.070 60.00 0.88
1207866 2026-04-15 07:48:12 2026-04-15 07:48:10 Stelmat001 064 S 144.20 7.01 550.20 3369.160 0.090 0.090 60.00 0.54
1207865 2026-04-15 07:48:11 2026-04-15 07:48:10 Stelmat001 063 R 130.50 2.61 275.40 1807.570 0.040 0.040 60.00 0.81
1207864 2026-04-15 07:47:57 2026-04-15 07:47:55 Stelmat001 025 T 131.20 4.33 239.50 963.110 0.040 0.040 60.00 0.42
1207863 2026-04-15 07:47:56 2026-04-15 07:47:55 Stelmat001 024 S 130.30 3.91 329.30 3429.600 0.050 0.050 60.00 0.65
1207862 2026-04-15 07:47:56 2026-04-15 07:47:55 Stelmat001 023 R 130.50 19.51 2505.70 18101.010 0.340 0.340 60.00 0.98
1207861 2026-04-15 07:47:14 2026-04-15 07:47:10 Stelmat001 022 T 130.30 5.81 746.30 6397.410 0.060 0.060 60.00 0.99
1207860 2026-04-15 07:47:14 2026-04-15 07:47:10 Stelmat001 021 S 131.10 5.13 502.20 4708.260 0.090 0.090 60.00 0.75
1207859 2026-04-15 07:47:13 2026-04-15 07:47:10 Stelmat001 020 R 130.60 0.76 53.30 453.790 0.010 0.010 60.00 0.54
1207858 2026-04-15 07:45:54 2026-04-15 07:45:52 Stelmat001 018 T 144.10 12.80 997.90 12111.760 0.160 0.160 60.00 0.54
1207857 2026-04-15 07:45:54 2026-04-15 07:45:51 Stelmat001 062 T 130.50 3.81 279.70 4541.720 0.050 0.050 60.00 0.56
1207856 2026-04-15 07:45:53 2026-04-15 07:45:52 Stelmat001 017 S 130.70 12.84 599.70 7034.770 0.100 0.100 60.00 0.36
1207855 2026-04-15 07:45:53 2026-04-15 07:45:51 Stelmat001 061 S 130.90 6.81 808.90 8315.370 0.130 0.130 60.00 0.91
1207854 2026-04-15 07:45:53 2026-04-15 07:45:52 Stelmat001 016 R 130.30 12.88 1524.00 16450.310 0.240 0.240 60.00 0.91
1207853 2026-04-15 07:45:52 2026-04-15 07:45:51 Stelmat001 060 R 131.30 1.75 56.80 466.740 0.010 0.010 60.00 0.25
1207852 2026-04-15 07:43:22 2026-04-15 07:43:05 Stelmat001 012 T 131.30 6.89 317.70 3622.810 0.050 0.050 60.00 0.35
1207851 2026-04-15 07:43:21 2026-04-15 07:43:05 Stelmat001 011 S 130.50 3.28 294.50 5531.500 0.060 0.060 60.00 0.69
1207850 2026-04-15 07:38:59 2026-04-15 07:38:59 Stelmat002 102 S 130.96 38.98 13.18 25752.812 2.701 2.701 60.02 0.86
1207849 2026-04-15 07:38:57 2026-04-15 07:38:56 Stelmat002 101 R 130.86 20.41 7.39 27399.309 1.366 1.366 60.01 0.92
1207848 2026-04-15 07:38:12 2026-04-15 07:38:08 Stelmat001 065 T 130.60 3.54 413.10 2177.370 0.050 0.050 60.00 0.89
1207847 2026-04-15 07:38:12 2026-04-15 07:38:08 Stelmat001 064 S 144.50 7.00 552.60 3369.070 0.090 0.090 60.00 0.55
1207846 2026-04-15 07:38:11 2026-04-15 07:38:08 Stelmat001 063 R 130.90 2.62 278.20 1807.530 0.050 0.050 60.00 0.81
1207845 2026-04-15 07:37:57 2026-04-15 07:37:53 Stelmat001 025 T 131.50 4.31 239.20 963.070 0.040 0.040 59.90 0.42
1207844 2026-04-15 07:37:56 2026-04-15 07:37:53 Stelmat001 024 S 130.60 3.69 316.30 3429.550 0.060 0.060 60.00 0.66
1207843 2026-04-15 07:37:56 2026-04-15 07:37:53 Stelmat001 023 R 130.80 15.14 1970.00 18100.670 0.320 0.320 59.90 1.00
1207842 2026-04-15 07:37:12 2026-04-15 07:37:07 Stelmat001 022 T 130.80 1.35 117.90 6397.350 0.020 0.020 60.00 0.67
1207841 2026-04-15 07:37:11 2026-04-15 07:37:07 Stelmat001 021 S 131.50 5.45 551.00 4708.170 0.100 0.100 60.00 0.77
1207840 2026-04-15 07:37:11 2026-04-15 07:37:07 Stelmat001 020 R 131.00 0.81 58.70 453.780 0.000 0.000 59.90 0.55
1207839 2026-04-15 07:35:54 2026-04-15 07:35:49 Stelmat001 018 T 144.40 11.98 940.40 12111.600 0.200 0.200 59.90 0.54
1207838 2026-04-15 07:35:54 2026-04-15 07:35:49 Stelmat001 062 T 130.60 3.43 247.60 4541.670 0.040 0.040 60.00 0.55
1207837 2026-04-15 07:35:53 2026-04-15 07:35:49 Stelmat001 017 S 130.80 11.99 537.60 7034.670 0.130 0.130 60.00 0.34
1207836 2026-04-15 07:35:53 2026-04-15 07:35:49 Stelmat001 061 S 130.90 5.80 710.40 8315.240 0.120 0.120 60.00 0.94
1207835 2026-04-15 07:35:52 2026-04-15 07:35:49 Stelmat001 016 R 130.50 12.05 1409.00 16450.070 0.320 0.320 59.90 0.90
1207834 2026-04-15 07:35:52 2026-04-15 07:35:49 Stelmat001 060 R 131.60 1.29 17.30 466.730 0.000 0.000 59.90 0.10
1207833 2026-04-15 07:33:08 2026-04-15 07:33:03 Stelmat001 012 T 130.80 5.93 278.70 3622.760 0.040 0.040 60.00 0.36
1207832 2026-04-15 07:33:07 2026-04-15 07:33:03 Stelmat001 034 T 129.80 2.84 36.60 421.140 0.000 0.000 60.00 0.10
1207831 2026-04-15 07:33:07 2026-04-15 07:33:03 Stelmat001 011 S 130.10 4.28 361.90 5531.440 0.060 0.060 59.90 0.65
1207830 2026-04-15 07:33:07 2026-04-15 07:33:03 Stelmat001 033 S 130.40 2.61 179.40 556.710 0.060 0.060 60.00 0.53
1207829 2026-04-15 07:33:06 2026-04-15 07:33:03 Stelmat001 010 R 130.20 1.15 86.90 4230.250 0.010 0.010 59.90 0.58
1207828 2026-04-15 07:33:06 2026-04-15 07:33:03 Stelmat001 032 R 143.00 1.46 82.50 588.830 0.030 0.030 60.00 0.39
1207827 2026-04-15 07:28:56 2026-04-15 07:28:55 Stelmat002 102 S 130.54 55.65 19.64 25750.111 2.379 2.379 60.04 0.91
1207826 2026-04-15 07:28:53 2026-04-15 07:28:53 Stelmat002 101 R 130.49 22.74 8.22 27397.943 1.199 1.199 60.03 0.92
1207825 2026-04-15 07:28:14 2026-04-15 07:28:08 Stelmat001 065 T 130.00 2.49 249.40 2177.320 0.040 0.040 60.00 0.77
1207824 2026-04-15 07:28:12 2026-04-15 07:28:08 Stelmat001 064 S 143.90 7.05 554.30 3368.980 0.060 0.060 59.90 0.55
1207823 2026-04-15 07:28:11 2026-04-15 07:28:08 Stelmat001 063 R 130.20 2.65 277.70 1807.480 0.020 0.020 60.00 0.80
1207822 2026-04-15 07:27:56 2026-04-15 07:27:51 Stelmat001 025 T 130.80 4.33 239.10 963.030 0.040 0.040 60.00 0.42
1207821 2026-04-15 07:27:55 2026-04-15 07:27:51 Stelmat001 024 S 129.90 4.02 329.10 3429.490 0.050 0.050 60.00 0.63
1207820 2026-04-15 07:27:54 2026-04-15 07:27:51 Stelmat001 023 R 130.10 14.82 1912.30 18100.350 0.320 0.320 59.90 0.99
1207819 2026-04-15 07:27:12 2026-04-15 07:27:10 Stelmat001 022 T 128.60 1.34 118.50 6397.330 0.020 0.020 60.00 0.69
1207818 2026-04-15 07:27:11 2026-04-15 07:27:10 Stelmat001 021 S 129.30 5.59 542.60 4708.070 0.070 0.070 60.00 0.75
1207817 2026-04-15 07:27:11 2026-04-15 07:27:10 Stelmat001 020 R 128.80 0.26 11.90 453.780 0.010 0.010 59.90 0.35
1207816 2026-04-15 07:25:54 2026-04-15 07:25:51 Stelmat001 018 T 142.30 17.42 1263.00 12111.400 0.210 0.210 60.00 0.51
1207815 2026-04-15 07:25:54 2026-04-15 07:25:51 Stelmat001 062 T 128.70 3.47 250.30 4541.630 0.030 0.030 59.90 0.56
1207814 2026-04-15 07:25:53 2026-04-15 07:25:51 Stelmat001 017 S 128.80 17.43 939.30 7034.540 0.160 0.160 60.00 0.42
1207813 2026-04-15 07:25:53 2026-04-15 07:25:51 Stelmat001 061 S 129.00 6.15 738.70 8315.120 0.110 0.110 59.90 0.93
1207812 2026-04-15 07:25:53 2026-04-15 07:25:51 Stelmat001 016 R 128.40 17.50 2100.20 16449.750 0.350 0.350 60.00 0.93
1207811 2026-04-15 07:25:52 2026-04-15 07:25:51 Stelmat001 060 R 129.70 0.86 3.80 466.730 0.000 0.000 60.00 0.03
1207810 2026-04-15 07:23:06 2026-04-15 07:23:01 Stelmat001 012 T 130.00 4.27 200.60 3622.720 0.030 0.030 60.00 0.36
1207809 2026-04-15 07:23:05 2026-04-15 07:23:01 Stelmat001 011 S 129.20 3.03 254.90 5531.380 0.040 0.040 59.90 0.65
1207808 2026-04-15 07:23:04 2026-04-15 07:23:01 Stelmat001 010 R 129.40 1.15 85.00 4230.240 0.020 0.020 59.90 0.57
1207807 2026-04-15 07:18:53 2026-04-15 07:18:53 Stelmat002 102 S 129.68 23.03 8.38 25747.732 0.386 0.386 59.99 0.94
1207806 2026-04-15 07:18:50 2026-04-15 07:18:50 Stelmat002 101 R 129.60 14.91 5.20 27396.744 0.404 0.404 60.00 0.90
1207805 2026-04-15 07:18:12 2026-04-15 07:18:10 Stelmat001 065 T 129.40 2.52 253.70 2177.280 0.050 0.050 59.90 0.78
1207804 2026-04-15 07:18:12 2026-04-15 07:18:10 Stelmat001 064 S 143.30 0.38 15.50 3368.920 0.000 0.000 60.00 0.29
1207803 2026-04-15 07:18:11 2026-04-15 07:18:10 Stelmat001 063 R 129.90 1.98 108.70 1807.460 0.010 0.010 59.90 0.42
1207802 2026-04-15 07:17:56 2026-04-15 07:17:53 Stelmat001 025 T 130.40 4.33 241.40 962.990 0.040 0.040 60.00 0.43
1207801 2026-04-15 07:17:55 2026-04-15 07:17:53 Stelmat001 024 S 129.50 3.66 296.10 3429.440 0.050 0.050 59.90 0.62
1207800 2026-04-15 07:17:54 2026-04-15 07:17:53 Stelmat001 023 R 129.80 14.85 1910.80 18100.030 0.320 0.320 59.90 0.99
1207799 2026-04-15 07:17:12 2026-04-15 07:17:07 Stelmat001 022 T 129.70 1.39 123.90 6397.310 0.040 0.040 60.00 0.69
1207798 2026-04-15 07:17:11 2026-04-15 07:17:07 Stelmat001 021 S 130.30 3.94 389.40 4708.000 0.050 0.050 60.00 0.76
1207797 2026-04-15 07:17:11 2026-04-15 07:17:07 Stelmat001 020 R 130.10 0.25 11.20 453.770 0.000 0.000 59.90 0.35
1207796 2026-04-15 07:15:54 2026-04-15 07:15:49 Stelmat001 018 T 143.80 10.30 833.20 12111.190 0.230 0.230 60.00 0.56
1207795 2026-04-15 07:15:54 2026-04-15 07:15:49 Stelmat001 062 T 130.20 1.70 133.60 4541.600 0.030 0.030 60.00 0.60
1207794 2026-04-15 07:15:53 2026-04-15 07:15:49 Stelmat001 017 S 130.50 10.30 431.00 7034.380 0.170 0.170 60.00 0.32
1207793 2026-04-15 07:15:53 2026-04-15 07:15:49 Stelmat001 061 S 130.60 5.05 631.30 8315.010 0.110 0.110 60.00 0.96
1207792 2026-04-15 07:15:52 2026-04-15 07:15:49 Stelmat001 016 R 130.00 10.37 1205.90 16449.400 0.390 0.390 60.00 0.89
1207791 2026-04-15 07:15:52 2026-04-15 07:15:49 Stelmat001 060 R 131.00 0.99 10.40 466.730 0.000 0.000 60.00 0.08
1207790 2026-04-15 07:13:07 2026-04-15 07:13:03 Stelmat001 034 T 129.70 2.80 7.10 421.140 0.010 0.010 60.00 0.02
1207789 2026-04-15 07:13:07 2026-04-15 07:13:03 Stelmat001 033 S 130.30 2.90 229.20 556.650 0.020 0.020 60.00 0.61
1207788 2026-04-15 07:13:06 2026-04-15 07:13:03 Stelmat001 032 R 143.00 1.47 76.90 588.800 0.030 0.030 60.00 0.37
1207787 2026-04-15 07:13:03 2026-04-15 07:12:58 Stelmat001 012 T 130.70 3.06 164.80 3622.690 0.030 0.030 60.00 0.41
1207786 2026-04-15 07:13:03 2026-04-15 07:12:58 Stelmat001 011 S 130.00 3.13 264.40 5531.340 0.040 0.040 60.00 0.65
1207785 2026-04-15 07:13:02 2026-04-15 07:12:58 Stelmat001 010 R 130.30 1.10 84.70 4230.220 0.010 0.010 60.00 0.59
1207784 2026-04-15 07:08:51 2026-04-15 07:08:50 Stelmat002 102 S 130.37 1.23 0.04 25747.346 0.006 0.006 60.00 0.09
1207783 2026-04-15 07:08:48 2026-04-15 07:08:47 Stelmat002 101 R 130.26 12.75 4.40 27396.340 0.873 0.873 60.01 0.88
1207782 2026-04-15 07:08:12 2026-04-15 07:08:07 Stelmat001 065 T 129.90 2.48 252.60 2177.230 0.040 0.040 60.00 0.78
1207781 2026-04-15 07:08:12 2026-04-15 07:08:07 Stelmat001 064 S 143.80 0.36 14.40 3368.920 0.000 0.000 60.00 0.28
1207780 2026-04-15 07:08:11 2026-04-15 07:08:07 Stelmat001 063 R 130.30 1.44 76.80 1807.450 0.010 0.010 60.00 0.41
1207779 2026-04-15 07:07:55 2026-04-15 07:07:52 Stelmat001 025 T 130.80 4.31 241.70 962.950 0.040 0.040 60.00 0.43
1207778 2026-04-15 07:07:55 2026-04-15 07:07:52 Stelmat001 024 S 130.00 3.37 278.60 3429.390 0.050 0.050 60.00 0.64
1207777 2026-04-15 07:07:54 2026-04-15 07:07:52 Stelmat001 023 R 130.30 14.51 1879.90 18099.710 0.350 0.350 60.00 0.99
1207776 2026-04-15 07:07:12 2026-04-15 07:07:10 Stelmat001 022 T 130.00 1.42 131.00 6397.270 0.050 0.050 60.00 0.71
1207775 2026-04-15 07:07:11 2026-04-15 07:07:10 Stelmat001 021 S 130.60 2.63 225.00 4707.950 0.030 0.030 60.00 0.65
1207774 2026-04-15 07:07:11 2026-04-15 07:07:10 Stelmat001 020 R 130.30 0.24 11.10 453.770 0.000 0.000 60.00 0.35
1207773 2026-04-15 07:05:54 2026-04-15 07:05:51 Stelmat001 018 T 143.70 16.90 1283.60 12110.960 0.180 0.180 60.00 0.53
1207772 2026-04-15 07:05:53 2026-04-15 07:05:51 Stelmat001 062 T 130.10 1.68 132.60 4541.570 0.020 0.020 60.00 0.61
1207771 2026-04-15 07:05:53 2026-04-15 07:05:51 Stelmat001 017 S 130.20 16.89 877.40 7034.210 0.100 0.100 60.00 0.40
1207770 2026-04-15 07:05:53 2026-04-15 07:05:51 Stelmat001 061 S 130.40 5.05 630.80 8314.900 0.100 0.100 60.00 0.96
1207769 2026-04-15 07:05:52 2026-04-15 07:05:51 Stelmat001 016 R 129.80 16.99 2065.70 16449.010 0.260 0.260 60.00 0.94
1207768 2026-04-15 07:05:52 2026-04-15 07:05:51 Stelmat001 060 R 131.00 0.96 9.90 466.730 0.000 0.000 60.00 0.08
1207767 2026-04-15 07:03:03 2026-04-15 07:03:01 Stelmat001 012 T 130.90 3.03 166.70 3622.660 0.030 0.030 60.00 0.42
1207766 2026-04-15 07:03:02 2026-04-15 07:03:01 Stelmat001 011 S 130.20 2.77 244.80 5531.300 0.040 0.040 59.90 0.68
1207765 2026-04-15 07:03:02 2026-04-15 07:03:01 Stelmat001 010 R 130.40 1.09 83.10 4230.210 0.020 0.020 60.00 0.58
1207764 2026-04-15 06:58:48 2026-04-15 06:58:48 Stelmat002 102 S 130.78 1.21 0.04 25747.340 0.008 0.008 60.00 0.09
1207763 2026-04-15 06:58:45 2026-04-15 06:58:45 Stelmat002 101 R 130.64 12.89 4.54 27395.467 1.039 1.039 60.00 0.90
1207762 2026-04-15 06:58:12 2026-04-15 06:58:10 Stelmat001 065 T 130.40 2.36 244.60 2177.190 0.040 0.040 60.00 0.79
1207761 2026-04-15 06:58:12 2026-04-15 06:58:10 Stelmat001 064 S 144.40 0.35 14.20 3368.920 0.010 0.010 60.00 0.28
1207760 2026-04-15 06:58:11 2026-04-15 06:58:10 Stelmat001 063 R 130.30 1.43 75.20 1807.440 0.050 0.050 60.00 0.40
1207759 2026-04-15 06:57:54 2026-04-15 06:57:51 Stelmat001 025 T 130.90 4.30 240.90 962.910 0.040 0.040 60.00 0.43
1207758 2026-04-15 06:57:54 2026-04-15 06:57:51 Stelmat001 024 S 130.50 3.40 283.30 3429.340 0.050 0.050 60.00 0.64
1207757 2026-04-15 06:57:53 2026-04-15 06:57:51 Stelmat001 023 R 130.60 14.95 1944.00 18099.360 0.310 0.310 60.00 1.00
1207756 2026-04-15 06:57:12 2026-04-15 06:57:07 Stelmat001 022 T 130.60 0.52 47.30 6397.220 0.010 0.010 60.00 0.69
1207755 2026-04-15 06:57:11 2026-04-15 06:57:07 Stelmat001 021 S 131.00 2.30 207.80 4707.920 0.020 0.020 59.90 0.69
1207754 2026-04-15 06:57:10 2026-04-15 06:57:07 Stelmat001 020 R 130.60 0.24 11.00 453.770 0.000 0.000 60.00 0.35
1207753 2026-04-15 06:55:54 2026-04-15 06:55:49 Stelmat001 018 T 144.20 8.97 737.60 12110.780 0.120 0.120 59.90 0.57
1207752 2026-04-15 06:55:53 2026-04-15 06:55:49 Stelmat001 062 T 130.60 1.68 132.80 4541.550 0.020 0.020 59.90 0.61
1207751 2026-04-15 06:55:53 2026-04-15 06:55:49 Stelmat001 017 S 130.70 8.79 314.50 7034.110 0.060 0.060 59.90 0.27
1207750 2026-04-15 06:55:53 2026-04-15 06:55:49 Stelmat001 061 S 130.80 5.03 630.50 8314.800 0.110 0.110 59.90 0.96
1207749 2026-04-15 06:55:52 2026-04-15 06:55:49 Stelmat001 016 R 130.50 8.84 991.30 16448.750 0.170 0.170 60.00 0.86
1207748 2026-04-15 06:55:52 2026-04-15 06:55:49 Stelmat001 060 R 131.30 0.36 11.90 466.730 0.000 0.000 59.90 0.25
1207747 2026-04-15 06:53:07 2026-04-15 06:53:03 Stelmat001 034 T 130.60 1.11 1.10 421.130 0.000 0.000 60.00 0.01
1207746 2026-04-15 06:53:07 2026-04-15 06:53:03 Stelmat001 033 S 131.10 0.44 20.70 556.630 0.010 0.010 60.00 0.36
1207745 2026-04-15 06:53:06 2026-04-15 06:53:03 Stelmat001 032 R 143.80 1.18 102.00 588.770 0.030 0.030 60.00 0.60
1207744 2026-04-15 06:53:03 2026-04-15 06:52:58 Stelmat001 012 T 131.30 3.19 173.30 3622.630 0.030 0.030 60.00 0.41
1207743 2026-04-15 06:53:02 2026-04-15 06:52:58 Stelmat001 011 S 130.70 2.58 238.80 5531.260 0.030 0.030 60.00 0.71
1207742 2026-04-15 06:53:02 2026-04-15 06:52:58 Stelmat001 010 R 130.80 1.52 159.20 4230.190 0.030 0.030 60.00 0.80
1207741 2026-04-15 06:48:45 2026-04-15 06:48:44 Stelmat002 102 S 130.98 1.26 0.04 25747.332 0.008 0.008 60.01 0.09
1207740 2026-04-15 06:48:42 2026-04-15 06:48:42 Stelmat002 101 R 130.90 19.27 7.00 27394.428 1.024 1.024 60.01 0.92
1207739 2026-04-15 06:48:12 2026-04-15 06:48:08 Stelmat001 065 T 130.60 2.10 218.40 2177.150 0.020 0.020 60.00 0.80
1207738 2026-04-15 06:48:12 2026-04-15 06:48:08 Stelmat001 064 S 144.20 0.36 14.30 3368.910 0.000 0.000 59.90 0.28
1207737 2026-04-15 06:48:11 2026-04-15 06:48:08 Stelmat001 063 R 130.80 2.30 254.60 1807.390 0.040 0.040 60.00 0.85
1207736 2026-04-15 06:47:53 2026-04-15 06:47:48 Stelmat001 025 T 131.10 4.30 240.60 962.870 0.040 0.040 60.00 0.43
1207735 2026-04-15 06:47:52 2026-04-15 06:47:48 Stelmat001 024 S 130.50 2.99 248.40 3429.290 0.040 0.040 60.00 0.64
1207734 2026-04-15 06:47:52 2026-04-15 06:47:48 Stelmat001 023 R 130.70 14.49 1882.00 18099.050 0.330 0.330 60.00 0.99
1207733 2026-04-15 06:47:12 2026-04-15 06:47:10 Stelmat001 022 T 130.60 0.53 47.40 6397.210 0.030 0.030 60.00 0.68
1207732 2026-04-15 06:47:11 2026-04-15 06:47:10 Stelmat001 021 S 131.00 1.90 179.10 4707.900 0.030 0.030 60.00 0.72
1207731 2026-04-15 06:47:11 2026-04-15 06:47:10 Stelmat001 020 R 130.80 0.24 11.10 453.770 0.000 0.000 60.00 0.36
1207730 2026-04-15 06:45:54 2026-04-15 06:45:51 Stelmat001 018 T 144.20 11.74 935.60 12110.660 0.120 0.120 60.00 0.55
1207729 2026-04-15 06:45:54 2026-04-15 06:45:51 Stelmat001 062 T 130.70 1.70 133.30 4541.530 0.020 0.020 60.00 0.60
1207728 2026-04-15 06:45:53 2026-04-15 06:45:51 Stelmat001 017 S 130.90 11.73 527.70 7034.050 0.050 0.050 60.00 0.34
1207727 2026-04-15 06:45:53 2026-04-15 06:45:51 Stelmat001 061 S 130.90 5.03 630.70 8314.690 0.100 0.100 60.00 0.96
1207726 2026-04-15 06:45:52 2026-04-15 06:45:51 Stelmat001 016 R 130.50 11.80 1394.60 16448.580 0.170 0.170 60.00 0.91
1207725 2026-04-15 06:45:52 2026-04-15 06:45:51 Stelmat001 060 R 131.30 0.37 12.20 466.730 0.010 0.010 60.00 0.25
1207724 2026-04-15 06:43:03 2026-04-15 06:43:00 Stelmat001 012 T 131.20 3.03 164.10 3622.600 0.030 0.030 60.00 0.41
1207723 2026-04-15 06:43:02 2026-04-15 06:43:00 Stelmat001 011 S 130.70 2.39 210.10 5531.230 0.040 0.040 60.00 0.67
1207722 2026-04-15 06:43:02 2026-04-15 06:43:00 Stelmat001 010 R 130.80 1.51 159.30 4230.160 0.030 0.030 60.00 0.81
1207721 2026-04-15 06:38:41 2026-04-15 06:38:41 Stelmat002 102 S 131.15 1.21 0.04 25747.324 0.008 0.008 60.01 0.09
1207720 2026-04-15 06:38:39 2026-04-15 06:38:38 Stelmat002 101 R 131.07 13.72 4.89 27393.404 0.902 0.902 60.01 0.91
1207719 2026-04-15 06:38:12 2026-04-15 06:38:10 Stelmat001 065 T 130.70 1.56 138.50 2177.130 0.030 0.030 60.00 0.68
1207718 2026-04-15 06:38:12 2026-04-15 06:38:10 Stelmat001 064 S 144.50 0.35 14.20 3368.910 0.000 0.000 60.00 0.28
1207717 2026-04-15 06:38:11 2026-04-15 06:38:10 Stelmat001 063 R 130.80 2.29 255.20 1807.350 0.040 0.040 59.90 0.85
1207716 2026-04-15 06:37:53 2026-04-15 06:37:51 Stelmat001 025 T 132.50 4.26 239.00 962.830 0.040 0.040 59.90 0.42
1207715 2026-04-15 06:37:53 2026-04-15 06:37:51 Stelmat001 024 S 131.80 2.94 247.20 3429.250 0.040 0.040 59.90 0.64
1207714 2026-04-15 06:37:52 2026-04-15 06:37:51 Stelmat001 023 R 131.90 23.26 3061.10 18098.720 0.620 0.620 59.90 1.00
1207713 2026-04-15 06:37:12 2026-04-15 06:37:07 Stelmat001 022 T 132.40 0.52 47.20 6397.180 0.010 0.010 60.00 0.69
1207712 2026-04-15 06:37:11 2026-04-15 06:37:07 Stelmat001 021 S 132.90 1.79 129.10 4707.870 0.030 0.030 60.00 0.54
1207711 2026-04-15 06:37:10 2026-04-15 06:37:07 Stelmat001 020 R 132.30 0.23 11.20 453.770 0.000 0.000 60.00 0.36
1207710 2026-04-15 06:35:54 2026-04-15 06:35:49 Stelmat001 018 T 146.10 6.37 535.30 12110.540 0.110 0.110 60.00 0.57
1207709 2026-04-15 06:35:53 2026-04-15 06:35:49 Stelmat001 062 T 132.10 1.69 131.90 4541.510 0.030 0.030 60.00 0.59
1207708 2026-04-15 06:35:53 2026-04-15 06:35:49 Stelmat001 017 S 132.00 6.42 141.90 7034.000 0.040 0.040 60.00 0.17
1207707 2026-04-15 06:35:53 2026-04-15 06:35:49 Stelmat001 061 S 132.00 4.98 630.70 8314.590 0.110 0.110 60.00 0.96
1207706 2026-04-15 06:35:52 2026-04-15 06:35:49 Stelmat001 016 R 132.10 6.51 649.10 16448.410 0.140 0.140 60.00 0.76
1207705 2026-04-15 06:35:52 2026-04-15 06:35:49 Stelmat001 060 R 133.00 0.37 13.00 466.720 0.000 0.000 60.00 0.26
1207704 2026-04-15 06:33:07 2026-04-15 06:33:03 Stelmat001 034 T 133.20 0.87 13.50 421.130 0.010 0.010 59.90 0.12
1207703 2026-04-15 06:33:07 2026-04-15 06:33:03 Stelmat001 033 S 133.80 0.44 21.00 556.620 0.010 0.010 60.00 0.35
1207702 2026-04-15 06:33:06 2026-04-15 06:33:03 Stelmat001 032 R 146.30 0.92 86.30 588.740 0.030 0.030 59.90 0.64
1207701 2026-04-15 06:33:03 2026-04-15 06:32:58 Stelmat001 012 T 134.00 3.01 177.00 3622.570 0.020 0.020 59.90 0.44
1207700 2026-04-15 06:33:02 2026-04-15 06:32:58 Stelmat001 011 S 133.30 2.29 213.30 5531.190 0.030 0.030 59.80 0.70
1207699 2026-04-15 06:33:01 2026-04-15 06:32:58 Stelmat001 010 R 133.00 1.50 161.10 4230.130 0.030 0.030 59.90 0.81
1207698 2026-04-15 06:28:38 2026-04-15 06:28:38 Stelmat002 102 S 132.55 1.25 0.05 25747.316 0.041 0.041 60.02 0.09
1207697 2026-04-15 06:28:36 2026-04-15 06:28:35 Stelmat002 101 R 132.47 14.83 5.34 27392.502 0.723 0.723 60.03 0.91
1207696 2026-04-15 06:28:12 2026-04-15 06:28:07 Stelmat001 065 T 132.20 1.58 139.50 2177.100 0.020 0.020 60.00 0.67
1207695 2026-04-15 06:28:11 2026-04-15 06:28:07 Stelmat001 064 S 146.10 0.35 14.30 3368.910 0.000 0.000 59.90 0.28
1207694 2026-04-15 06:28:11 2026-04-15 06:28:07 Stelmat001 063 R 131.90 2.29 262.40 1807.310 0.040 0.040 60.00 0.87
1207693 2026-04-15 06:27:53 2026-04-15 06:27:50 Stelmat001 025 T 132.90 4.25 239.20 962.790 0.040 0.040 59.90 0.42
1207692 2026-04-15 06:27:52 2026-04-15 06:27:50 Stelmat001 024 S 132.10 2.58 233.20 3429.210 0.040 0.040 59.90 0.68
1207691 2026-04-15 06:27:52 2026-04-15 06:27:50 Stelmat001 023 R 131.80 31.34 4127.00 18098.100 0.680 0.680 59.90 1.00
1207690 2026-04-15 06:27:12 2026-04-15 06:27:09 Stelmat001 022 T 132.30 0.53 47.30 6397.170 0.000 0.000 60.00 0.68
1207689 2026-04-15 06:27:11 2026-04-15 06:27:09 Stelmat001 021 S 132.80 1.80 172.20 4707.840 0.030 0.030 60.00 0.72
1207688 2026-04-15 06:27:10 2026-04-15 06:27:09 Stelmat001 020 R 131.90 0.24 11.10 453.770 0.010 0.010 60.00 0.36
1207687 2026-04-15 06:25:54 2026-04-15 06:25:51 Stelmat001 018 T 146.10 8.21 681.70 12110.430 0.080 0.080 60.00 0.57
1207686 2026-04-15 06:25:53 2026-04-15 06:25:51 Stelmat001 062 T 132.20 1.70 132.80 4541.480 0.020 0.020 60.00 0.59
1207685 2026-04-15 06:25:53 2026-04-15 06:25:51 Stelmat001 017 S 132.00 8.22 268.80 7033.960 0.020 0.020 60.00 0.25
1207684 2026-04-15 06:25:53 2026-04-15 06:25:51 Stelmat001 061 S 132.00 5.01 634.00 8314.480 0.110 0.110 60.00 0.96
1207683 2026-04-15 06:25:52 2026-04-15 06:25:51 Stelmat001 016 R 132.10 8.33 912.20 16448.270 0.100 0.100 60.00 0.83
1207682 2026-04-15 06:25:52 2026-04-15 06:25:51 Stelmat001 060 R 132.90 0.37 12.70 466.720 0.000 0.000 60.00 0.26
1207681 2026-04-15 06:23:03 2026-04-15 06:23:00 Stelmat001 012 T 132.90 3.06 173.40 3622.550 0.030 0.030 59.90 0.43
1207680 2026-04-15 06:23:02 2026-04-15 06:23:00 Stelmat001 011 S 132.20 2.45 217.80 5531.160 0.040 0.040 60.00 0.67
1207679 2026-04-15 06:23:01 2026-04-15 06:23:00 Stelmat001 010 R 132.00 1.57 169.80 4230.100 0.020 0.020 60.00 0.82
1207678 2026-04-15 06:18:36 2026-04-15 06:18:35 Stelmat002 102 S 132.45 6.46 1.82 25747.275 0.037 0.037 59.98 0.71
1207677 2026-04-15 06:18:33 2026-04-15 06:18:33 Stelmat002 101 R 132.41 7.57 2.30 27391.779 0.472 0.472 59.98 0.76
1207676 2026-04-15 06:18:12 2026-04-15 06:18:10 Stelmat001 065 T 132.10 1.66 144.50 2177.080 0.030 0.030 59.90 0.66
1207675 2026-04-15 06:18:11 2026-04-15 06:18:10 Stelmat001 064 S 146.10 0.38 14.80 3368.910 0.010 0.010 60.00 0.27
1207674 2026-04-15 06:18:11 2026-04-15 06:18:10 Stelmat001 063 R 132.20 1.42 75.20 1807.270 0.010 0.010 60.00 0.40
1207673 2026-04-15 06:17:52 2026-04-15 06:17:47 Stelmat001 025 T 132.90 4.29 241.50 962.750 0.010 0.010 59.90 0.42
1207672 2026-04-15 06:17:51 2026-04-15 06:17:47 Stelmat001 024 S 132.20 2.72 240.00 3429.170 0.020 0.020 59.90 0.67
1207671 2026-04-15 06:17:50 2026-04-15 06:17:47 Stelmat001 023 R 132.20 23.10 3046.20 18097.420 0.060 0.060 59.90 1.00
1207670 2026-04-15 06:17:11 2026-04-15 06:17:07 Stelmat001 022 T 132.40 0.50 47.40 6397.170 0.020 0.020 60.00 0.71
1207669 2026-04-15 06:17:11 2026-04-15 06:17:07 Stelmat001 021 S 132.80 2.19 233.60 4707.810 0.020 0.020 60.00 0.80
1207668 2026-04-15 06:17:10 2026-04-15 06:17:07 Stelmat001 020 R 132.50 0.22 11.00 453.760 0.000 0.000 59.90 0.37
1207667 2026-04-15 06:15:53 2026-04-15 06:15:49 Stelmat001 018 T 146.20 0.59 76.10 12110.350 0.050 0.050 60.00 0.89
1207666 2026-04-15 06:15:53 2026-04-15 06:15:48 Stelmat001 062 T 132.40 1.66 131.20 4541.460 0.020 0.020 60.00 0.60
1207665 2026-04-15 06:15:53 2026-04-15 06:15:49 Stelmat001 017 S 132.80 0.67 75.60 7033.940 0.020 0.020 59.90 0.85
1207664 2026-04-15 06:15:52 2026-04-15 06:15:48 Stelmat001 061 S 132.80 4.96 631.20 8314.370 0.100 0.100 60.00 0.96
1207663 2026-04-15 06:15:52 2026-04-15 06:15:49 Stelmat001 016 R 132.50 0.67 12.30 16448.170 0.050 0.050 59.90 0.14
1207662 2026-04-15 06:15:52 2026-04-15 06:15:48 Stelmat001 060 R 133.00 0.36 11.90 466.720 0.000 0.000 60.00 0.25
1207661 2026-04-15 06:13:07 2026-04-15 06:13:03 Stelmat001 034 T 132.60 0.64 52.80 421.120 0.010 0.010 60.00 0.62
1207660 2026-04-15 06:13:07 2026-04-15 06:13:03 Stelmat001 033 S 132.80 0.44 20.90 556.610 0.000 0.000 60.00 0.35
1207659 2026-04-15 06:13:06 2026-04-15 06:13:03 Stelmat001 032 R 146.00 0.50 55.10 588.710 0.020 0.020 60.00 0.75
1207658 2026-04-15 06:13:03 2026-04-15 06:12:58 Stelmat001 012 T 133.00 3.05 177.30 3622.520 0.030 0.030 60.00 0.44
1207657 2026-04-15 06:13:02 2026-04-15 06:12:58 Stelmat001 011 S 132.60 2.31 213.60 5531.120 0.030 0.030 60.00 0.70
1207656 2026-04-15 06:13:01 2026-04-15 06:12:58 Stelmat001 010 R 132.80 1.55 168.20 4230.080 0.030 0.030 60.00 0.82
1207655 2026-04-15 06:08:34 2026-04-15 06:08:33 Stelmat002 102 S 132.67 1.09 0.04 25747.238 0.076 0.076 59.98 0.10
1207654 2026-04-15 06:08:31 2026-04-15 06:08:31 Stelmat002 101 R 132.61 1.31 0.03 27391.307 0.006 0.006 59.98 0.06
1207653 2026-04-15 06:08:12 2026-04-15 06:08:07 Stelmat001 065 T 132.30 1.60 149.80 2177.050 0.020 0.020 59.90 0.71
1207652 2026-04-15 06:08:11 2026-04-15 06:08:07 Stelmat001 064 S 145.90 0.33 13.60 3368.900 0.000 0.000 59.90 0.28
1207651 2026-04-15 06:08:11 2026-04-15 06:08:07 Stelmat001 063 R 132.50 1.42 76.50 1807.260 0.010 0.010 59.90 0.41
1207650 2026-04-15 06:07:49 2026-04-15 06:07:46 Stelmat001 025 T 132.70 0.30 7.70 962.740 0.000 0.000 59.90 0.20
1207649 2026-04-15 06:07:49 2026-04-15 06:07:46 Stelmat001 024 S 132.30 0.92 111.40 3429.150 0.020 0.020 59.90 0.92
1207648 2026-04-15 06:07:48 2026-04-15 06:07:46 Stelmat001 023 R 132.40 0.04 0.90 18097.360 0.000 0.000 60.00 0.15
1207647 2026-04-15 06:07:11 2026-04-15 06:07:09 Stelmat001 022 T 132.40 1.36 115.70 6397.150 0.020 0.020 60.00 0.64
1207646 2026-04-15 06:07:11 2026-04-15 06:07:09 Stelmat001 021 S 132.70 1.42 104.50 4707.790 0.020 0.020 59.90 0.55
1207645 2026-04-15 06:07:10 2026-04-15 06:07:09 Stelmat001 020 R 132.60 0.22 11.00 453.760 0.000 0.000 59.90 0.37
1207644 2026-04-15 06:05:53 2026-04-15 06:05:51 Stelmat001 018 T 145.90 4.88 420.20 12110.300 0.050 0.050 59.90 0.59
1207643 2026-04-15 06:05:53 2026-04-15 06:05:51 Stelmat001 062 T 132.20 1.66 130.30 4541.440 0.020 0.020 59.90 0.59
1207642 2026-04-15 06:05:53 2026-04-15 06:05:51 Stelmat001 017 S 132.50 4.96 64.80 7033.920 0.020 0.020 59.90 0.10
1207641 2026-04-15 06:05:53 2026-04-15 06:05:51 Stelmat001 061 S 132.50 4.91 624.90 8314.270 0.110 0.110 59.80 0.96
1207640 2026-04-15 06:05:52 2026-04-15 06:05:51 Stelmat001 016 R 132.20 4.98 461.30 16448.120 0.050 0.050 59.90 0.70
1207639 2026-04-15 06:05:52 2026-04-15 06:05:51 Stelmat001 060 R 132.80 0.36 12.00 466.720 0.010 0.010 59.90 0.25
1207638 2026-04-15 06:03:03 2026-04-15 06:03:00 Stelmat001 012 T 132.60 3.21 190.40 3622.490 0.030 0.030 59.90 0.45
1207637 2026-04-15 06:03:02 2026-04-15 06:03:00 Stelmat001 011 S 132.30 2.30 206.60 5531.090 0.030 0.030 59.90 0.68
1207636 2026-04-15 06:03:01 2026-04-15 06:03:00 Stelmat001 010 R 132.50 1.54 170.40 4230.050 0.020 0.020 60.00 0.84
1207635 2026-04-15 05:58:33 2026-04-15 05:58:32 Stelmat002 102 S 133.08 1.10 0.04 25747.162 0.006 0.006 60.04 0.09
1207634 2026-04-15 05:58:30 2026-04-15 05:58:29 Stelmat002 101 R 132.96 1.29 0.03 27391.301 0.004 0.004 60.03 0.06
1207633 2026-04-15 05:58:12 2026-04-15 05:58:10 Stelmat001 065 T 132.60 1.61 151.10 2177.030 0.030 0.030 59.90 0.71
1207632 2026-04-15 05:58:11 2026-04-15 05:58:10 Stelmat001 064 S 146.30 0.33 13.00 3368.900 0.000 0.000 60.00 0.27
1207631 2026-04-15 05:58:11 2026-04-15 05:58:10 Stelmat001 063 R 132.90 1.41 76.60 1807.250 0.020 0.020 59.90 0.41
1207630 2026-04-15 05:57:48 2026-04-15 05:57:44 Stelmat001 025 T 133.20 0.29 8.10 962.740 0.000 0.000 60.00 0.21
1207629 2026-04-15 05:57:48 2026-04-15 05:57:44 Stelmat001 024 S 132.70 0.93 113.60 3429.130 0.020 0.020 60.00 0.92
1207628 2026-04-15 05:57:47 2026-04-15 05:57:44 Stelmat001 023 R 133.10 0.05 0.90 18097.360 0.010 0.010 60.00 0.15
1207627 2026-04-15 05:57:11 2026-04-15 05:57:07 Stelmat001 022 T 132.90 1.36 116.30 6397.130 0.020 0.020 60.10 0.64
1207626 2026-04-15 05:57:11 2026-04-15 05:57:07 Stelmat001 021 S 133.10 1.26 92.50 4707.770 0.020 0.020 60.00 0.55
1207625 2026-04-15 05:57:10 2026-04-15 05:57:07 Stelmat001 020 R 133.20 0.23 11.10 453.760 0.000 0.000 60.00 0.37
1207624 2026-04-15 05:55:53 2026-04-15 05:55:49 Stelmat001 018 T 146.40 0.58 76.30 12110.250 0.050 0.050 60.00 0.89
1207623 2026-04-15 05:55:53 2026-04-15 05:55:48 Stelmat001 062 T 132.70 1.66 130.40 4541.420 0.020 0.020 60.00 0.59
1207622 2026-04-15 05:55:53 2026-04-15 05:55:49 Stelmat001 017 S 133.10 0.67 75.90 7033.900 0.010 0.010 60.00 0.86
1207621 2026-04-15 05:55:52 2026-04-15 05:55:48 Stelmat001 061 S 133.10 4.95 631.60 8314.160 0.100 0.100 60.00 0.96
1207620 2026-04-15 05:55:52 2026-04-15 05:55:49 Stelmat001 016 R 132.70 0.67 12.30 16448.070 0.060 0.060 60.00 0.14
1207619 2026-04-15 05:55:52 2026-04-15 05:55:48 Stelmat001 060 R 133.10 0.36 11.70 466.710 0.000 0.000 60.00 0.24
1207618 2026-04-15 05:53:07 2026-04-15 05:53:03 Stelmat001 034 T 132.50 0.62 52.70 421.110 0.020 0.020 60.00 0.64
1207617 2026-04-15 05:53:07 2026-04-15 05:53:03 Stelmat001 033 S 132.80 0.44 20.80 556.610 0.010 0.010 60.00 0.36
1207616 2026-04-15 05:53:06 2026-04-15 05:53:03 Stelmat001 032 R 146.20 0.48 55.10 588.690 0.020 0.020 60.00 0.79
1207615 2026-04-15 05:53:02 2026-04-15 05:52:57 Stelmat001 012 T 132.90 3.22 191.70 3622.460 0.030 0.030 60.00 0.45
1207614 2026-04-15 05:53:02 2026-04-15 05:52:57 Stelmat001 011 S 132.50 2.16 198.10 5531.060 0.040 0.040 60.00 0.69
1207613 2026-04-15 05:53:01 2026-04-15 05:52:57 Stelmat001 010 R 132.90 1.04 83.80 4230.030 0.020 0.020 60.00 0.60
1207612 2026-04-15 05:48:31 2026-04-15 05:48:31 Stelmat002 102 S 132.53 1.09 0.04 25747.156 0.078 0.078 60.02 0.10
1207611 2026-04-15 05:48:28 2026-04-15 05:48:28 Stelmat002 101 R 132.45 1.31 0.03 27391.297 0.008 0.008 60.01 0.06
1207610 2026-04-15 05:48:12 2026-04-15 05:48:08 Stelmat001 065 T 132.00 1.63 151.40 2177.000 0.020 0.020 59.90 0.70
1207609 2026-04-15 05:48:11 2026-04-15 05:48:08 Stelmat001 064 S 145.70 0.33 13.30 3368.900 0.000 0.000 60.00 0.27
1207608 2026-04-15 05:48:10 2026-04-15 05:48:08 Stelmat001 063 R 132.40 1.42 76.70 1807.230 0.010 0.010 59.90 0.41
1207607 2026-04-15 05:47:46 2026-04-15 05:47:42 Stelmat001 025 T 132.60 0.30 7.70 962.740 0.010 0.010 60.00 0.20
1207606 2026-04-15 05:47:45 2026-04-15 05:47:42 Stelmat001 024 S 132.10 1.01 119.40 3429.110 0.020 0.020 60.00 0.89
1207605 2026-04-15 05:47:45 2026-04-15 05:47:42 Stelmat001 023 R 132.40 1.41 132.10 18097.350 0.020 0.020 60.00 0.71
1207604 2026-04-15 05:47:11 2026-04-15 05:47:09 Stelmat001 022 T 132.40 1.36 117.40 6397.110 0.020 0.020 60.00 0.65
1207603 2026-04-15 05:47:11 2026-04-15 05:47:09 Stelmat001 021 S 132.60 1.49 154.60 4707.750 0.020 0.020 60.00 0.78
1207602 2026-04-15 05:47:10 2026-04-15 05:47:09 Stelmat001 020 R 132.50 0.22 11.10 453.760 0.000 0.000 60.00 0.37
1207601 2026-04-15 05:45:53 2026-04-15 05:45:51 Stelmat001 018 T 145.90 4.91 422.40 12110.200 0.050 0.050 60.00 0.59
1207600 2026-04-15 05:45:53 2026-04-15 05:45:51 Stelmat001 062 T 132.20 1.67 131.70 4541.400 0.020 0.020 59.90 0.60
1207599 2026-04-15 05:45:53 2026-04-15 05:45:51 Stelmat001 017 S 132.60 5.00 69.30 7033.890 0.020 0.020 59.90 0.10
1207598 2026-04-15 05:45:52 2026-04-15 05:45:51 Stelmat001 061 S 132.60 4.96 630.90 8314.060 0.110 0.110 59.90 0.96
1207597 2026-04-15 05:45:52 2026-04-15 05:45:51 Stelmat001 016 R 132.10 5.02 468.10 16448.010 0.060 0.060 60.00 0.71
1207596 2026-04-15 05:45:52 2026-04-15 05:45:51 Stelmat001 060 R 132.70 0.36 11.90 466.710 0.000 0.000 60.00 0.25
1207595 2026-04-15 05:43:02 2026-04-15 05:43:00 Stelmat001 012 T 133.60 3.11 188.70 3622.430 0.030 0.030 59.90 0.45
1207594 2026-04-15 05:43:02 2026-04-15 05:43:00 Stelmat001 011 S 133.20 2.27 209.30 5531.020 0.030 0.030 60.00 0.69
1207593 2026-04-15 05:43:01 2026-04-15 05:43:00 Stelmat001 010 R 133.50 1.05 84.60 4230.010 0.010 0.010 60.00 0.61
1207592 2026-04-15 05:38:30 2026-04-15 05:38:29 Stelmat002 102 S 133.33 1.10 0.04 25747.078 0.006 0.006 60.01 0.09
1207591 2026-04-15 05:38:27 2026-04-15 05:38:26 Stelmat002 101 R 133.23 1.29 0.03 27391.289 0.006 0.006 60.01 0.06
1207590 2026-04-15 05:38:11 2026-04-15 05:38:06 Stelmat001 065 T 132.70 1.62 151.30 2176.980 0.030 0.030 59.90 0.70
1207589 2026-04-15 05:38:10 2026-04-15 05:38:06 Stelmat001 064 S 146.60 0.33 12.60 3368.900 0.010 0.010 60.00 0.26
1207588 2026-04-15 05:38:09 2026-04-15 05:38:06 Stelmat001 063 R 133.20 1.41 76.70 1807.220 0.010 0.010 59.90 0.41
1207587 2026-04-15 05:37:44 2026-04-15 05:37:40 Stelmat001 025 T 133.40 0.30 8.00 962.730 0.000 0.000 60.00 0.20
1207586 2026-04-15 05:37:43 2026-04-15 05:37:40 Stelmat001 024 S 132.70 0.92 112.10 3429.090 0.010 0.010 60.00 0.92
1207585 2026-04-15 05:37:43 2026-04-15 05:37:40 Stelmat001 023 R 133.20 0.93 74.90 18097.330 0.010 0.010 59.90 0.60
1207584 2026-04-15 05:37:11 2026-04-15 05:37:06 Stelmat001 022 T 132.70 1.39 119.90 6397.090 0.020 0.020 59.90 0.65
1207583 2026-04-15 05:37:10 2026-04-15 05:37:06 Stelmat001 021 S 133.10 1.30 95.50 4707.730 0.020 0.020 59.80 0.55
1207582 2026-04-15 05:37:10 2026-04-15 05:37:06 Stelmat001 020 R 133.10 0.23 11.00 453.760 0.000 0.000 59.90 0.36
1207581 2026-04-15 05:35:53 2026-04-15 05:35:48 Stelmat001 018 T 146.50 0.58 76.10 12110.150 0.060 0.060 60.00 0.89
1207580 2026-04-15 05:35:53 2026-04-15 05:35:48 Stelmat001 062 T 132.60 1.66 129.60 4541.380 0.030 0.030 59.90 0.59
1207579 2026-04-15 05:35:52 2026-04-15 05:35:48 Stelmat001 017 S 133.10 0.67 75.80 7033.870 0.010 0.010 59.90 0.86
1207578 2026-04-15 05:35:52 2026-04-15 05:35:48 Stelmat001 061 S 133.10 4.93 630.20 8313.950 0.100 0.100 59.90 0.96
1207577 2026-04-15 05:35:52 2026-04-15 05:35:48 Stelmat001 016 R 132.60 0.67 12.30 16447.950 0.060 0.060 59.90 0.14
1207576 2026-04-15 05:35:52 2026-04-15 05:35:48 Stelmat001 060 R 133.20 0.37 12.00 466.710 0.000 0.000 60.00 0.25
1207575 2026-04-15 05:33:07 2026-04-15 05:33:03 Stelmat001 034 T 132.90 0.61 52.90 421.090 0.020 0.020 60.00 0.65
1207574 2026-04-15 05:33:07 2026-04-15 05:33:03 Stelmat001 033 S 133.40 0.43 20.90 556.600 0.010 0.010 60.00 0.37
1207573 2026-04-15 05:33:06 2026-04-15 05:33:03 Stelmat001 032 R 146.80 0.47 55.20 588.670 0.020 0.020 60.00 0.81
1207572 2026-04-15 05:33:02 2026-04-15 05:32:57 Stelmat001 012 T 133.40 3.09 186.20 3622.400 0.040 0.040 60.00 0.45
1207571 2026-04-15 05:33:01 2026-04-15 05:32:57 Stelmat001 011 S 133.00 2.15 198.80 5530.990 0.030 0.030 60.00 0.69
1207570 2026-04-15 05:33:01 2026-04-15 05:32:57 Stelmat001 010 R 133.40 1.05 84.20 4230.000 0.020 0.020 60.00 0.60
1207569 2026-04-15 05:28:28 2026-04-15 05:28:28 Stelmat002 102 S 134.51 1.11 0.04 25747.072 0.076 0.076 60.08 0.10
1207568 2026-04-15 05:28:26 2026-04-15 05:28:25 Stelmat002 101 R 134.47 1.33 0.03 27391.283 0.004 0.004 60.08 0.06
1207567 2026-04-15 05:28:11 2026-04-15 05:28:08 Stelmat001 065 T 133.90 1.61 148.40 2176.950 0.020 0.020 60.00 0.69
1207566 2026-04-15 05:28:10 2026-04-15 05:28:08 Stelmat001 064 S 148.00 0.33 13.20 3368.890 0.000 0.000 60.00 0.27
1207565 2026-04-15 05:28:09 2026-04-15 05:28:08 Stelmat001 063 R 134.50 1.40 76.60 1807.210 0.010 0.010 60.00 0.41
1207564 2026-04-15 05:27:42 2026-04-15 05:27:37 Stelmat001 025 T 134.60 0.29 7.40 962.730 0.000 0.000 60.00 0.19
1207563 2026-04-15 05:27:41 2026-04-15 05:27:37 Stelmat001 024 S 133.90 0.94 116.00 3429.080 0.020 0.020 60.00 0.93
1207562 2026-04-15 05:27:40 2026-04-15 05:27:37 Stelmat001 023 R 134.50 0.95 75.70 18097.320 0.020 0.020 60.00 0.59
1207561 2026-04-15 05:27:11 2026-04-15 05:27:09 Stelmat001 022 T 134.00 1.41 124.60 6397.070 0.020 0.020 60.00 0.66
1207560 2026-04-15 05:27:10 2026-04-15 05:27:09 Stelmat001 021 S 134.30 1.48 151.40 4707.710 0.030 0.030 60.00 0.76
1207559 2026-04-15 05:27:10 2026-04-15 05:27:09 Stelmat001 020 R 134.40 0.22 10.80 453.760 0.010 0.010 60.00 0.36
1207558 2026-04-15 05:25:53 2026-04-15 05:25:51 Stelmat001 018 T 147.90 4.80 414.90 12110.090 0.040 0.040 60.00 0.58
1207557 2026-04-15 05:25:53 2026-04-15 05:25:50 Stelmat001 062 T 134.00 1.67 131.90 4541.350 0.020 0.020 60.00 0.59
1207556 2026-04-15 05:25:52 2026-04-15 05:25:51 Stelmat001 017 S 134.50 4.90 65.30 7033.860 0.020 0.020 60.00 0.10
1207555 2026-04-15 05:25:52 2026-04-15 05:25:50 Stelmat001 061 S 134.40 4.89 630.30 8313.850 0.110 0.110 60.00 0.96
1207554 2026-04-15 05:25:52 2026-04-15 05:25:51 Stelmat001 016 R 133.90 4.93 456.10 16447.890 0.040 0.040 60.00 0.69
1207553 2026-04-15 05:25:51 2026-04-15 05:25:50 Stelmat001 060 R 134.50 0.35 12.90 466.710 0.000 0.000 60.00 0.27
1207552 2026-04-15 05:23:02 2026-04-15 05:22:59 Stelmat001 012 T 134.10 3.22 188.90 3622.360 0.030 0.030 60.00 0.44
1207551 2026-04-15 05:23:01 2026-04-15 05:22:59 Stelmat001 011 S 133.70 2.36 213.20 5530.960 0.040 0.040 60.00 0.68
1207550 2026-04-15 05:23:01 2026-04-15 05:22:59 Stelmat001 010 R 134.10 1.10 83.80 4229.980 0.010 0.010 60.00 0.57
1207549 2026-04-15 05:18:27 2026-04-15 05:18:26 Stelmat002 102 S 134.16 1.11 0.04 25746.996 0.053 0.053 59.98 0.09
1207548 2026-04-15 05:18:24 2026-04-15 05:18:24 Stelmat002 101 R 134.08 1.30 0.03 27391.279 0.006 0.006 59.98 0.06
1207547 2026-04-15 05:18:11 2026-04-15 05:18:06 Stelmat001 065 T 133.70 1.62 149.80 2176.930 0.030 0.030 60.00 0.69
1207546 2026-04-15 05:18:10 2026-04-15 05:18:06 Stelmat001 064 S 147.60 0.33 12.60 3368.890 0.000 0.000 59.90 0.26
1207545 2026-04-15 05:18:09 2026-04-15 05:18:06 Stelmat001 063 R 134.20 1.40 76.80 1807.200 0.020 0.020 59.90 0.41
1207544 2026-04-15 05:17:40 2026-04-15 05:17:36 Stelmat001 025 T 134.40 0.29 8.00 962.730 0.000 0.000 60.00 0.20
1207543 2026-04-15 05:17:39 2026-04-15 05:17:36 Stelmat001 024 S 133.90 0.94 115.70 3429.060 0.020 0.020 60.00 0.92
1207542 2026-04-15 05:17:38 2026-04-15 05:17:36 Stelmat001 023 R 134.40 0.93 76.10 18097.300 0.020 0.020 60.00 0.61
1207541 2026-04-15 05:17:11 2026-04-15 05:17:06 Stelmat001 022 T 133.80 1.44 128.70 6397.050 0.020 0.020 59.90 0.67
1207540 2026-04-15 05:17:10 2026-04-15 05:17:06 Stelmat001 021 S 134.20 1.52 157.70 4707.680 0.020 0.020 59.90 0.77
1207539 2026-04-15 05:17:10 2026-04-15 05:17:06 Stelmat001 020 R 134.30 0.23 11.10 453.750 0.000 0.000 60.00 0.36
1207538 2026-04-15 05:15:53 2026-04-15 05:15:48 Stelmat001 018 T 147.90 0.59 77.60 12110.050 0.070 0.070 60.00 0.89
1207537 2026-04-15 05:15:53 2026-04-15 05:15:48 Stelmat001 062 T 133.90 1.65 129.50 4541.330 0.020 0.020 60.00 0.58
1207536 2026-04-15 05:15:52 2026-04-15 05:15:48 Stelmat001 017 S 134.50 0.67 77.30 7033.840 0.020 0.020 60.00 0.85
1207535 2026-04-15 05:15:52 2026-04-15 05:15:48 Stelmat001 061 S 134.40 4.91 632.40 8313.740 0.100 0.100 60.00 0.96
1207534 2026-04-15 05:15:52 2026-04-15 05:15:48 Stelmat001 016 R 133.90 0.68 12.50 16447.850 0.070 0.070 60.00 0.14
1207533 2026-04-15 05:15:51 2026-04-15 05:15:48 Stelmat001 060 R 134.50 0.36 12.20 466.710 0.010 0.010 60.00 0.25
1207532 2026-04-15 05:13:07 2026-04-15 05:13:03 Stelmat001 034 T 133.60 0.63 54.20 421.070 0.020 0.020 59.90 0.64
1207531 2026-04-15 05:13:07 2026-04-15 05:13:03 Stelmat001 033 S 134.10 0.44 21.10 556.590 0.000 0.000 59.90 0.36
1207530 2026-04-15 05:13:06 2026-04-15 05:13:03 Stelmat001 032 R 147.60 0.49 56.20 588.650 0.010 0.010 59.90 0.77
1207529 2026-04-15 05:13:02 2026-04-15 05:12:57 Stelmat001 012 T 134.30 3.11 190.40 3622.330 0.030 0.030 59.90 0.46
1207528 2026-04-15 05:13:01 2026-04-15 05:12:57 Stelmat001 011 S 133.80 2.11 202.00 5530.920 0.030 0.030 59.90 0.72
1207527 2026-04-15 05:13:00 2026-04-15 05:12:57 Stelmat001 010 R 134.20 1.05 85.90 4229.970 0.010 0.010 60.00 0.61
1207526 2026-04-15 05:08:26 2026-04-15 05:08:25 Stelmat002 102 S 134.12 6.91 2.01 25746.943 0.050 0.050 60.02 0.73
1207525 2026-04-15 05:08:23 2026-04-15 05:08:22 Stelmat002 101 R 134.03 1.41 0.03 27391.273 0.005 0.005 60.01 0.06
1207524 2026-04-15 05:08:10 2026-04-15 05:08:08 Stelmat001 065 T 133.70 1.69 151.70 2176.900 0.020 0.020 60.00 0.67
1207523 2026-04-15 05:08:10 2026-04-15 05:08:08 Stelmat001 064 S 147.60 0.35 14.40 3368.890 0.000 0.000 60.00 0.28
1207522 2026-04-15 05:08:09 2026-04-15 05:08:08 Stelmat001 063 R 134.10 1.40 76.60 1807.180 0.010 0.010 60.00 0.41
1207521 2026-04-15 05:07:38 2026-04-15 05:07:34 Stelmat001 025 T 134.20 0.31 6.40 962.730 0.000 0.000 59.90 0.15
1207520 2026-04-15 05:07:38 2026-04-15 05:07:34 Stelmat001 024 S 133.60 1.01 118.50 3429.040 0.020 0.020 60.00 0.88
1207519 2026-04-15 05:07:37 2026-04-15 05:07:34 Stelmat001 023 R 133.90 1.48 137.90 18097.280 0.010 0.010 60.00 0.69
1207518 2026-04-15 05:07:11 2026-04-15 05:07:09 Stelmat001 022 T 133.90 0.53 47.70 6397.030 0.000 0.000 60.00 0.68
1207517 2026-04-15 05:07:10 2026-04-15 05:07:09 Stelmat001 021 S 134.20 1.40 95.10 4707.660 0.020 0.020 60.00 0.51
1207516 2026-04-15 05:07:10 2026-04-15 05:07:09 Stelmat001 020 R 134.10 0.23 11.10 453.750 0.000 0.000 60.00 0.35
1207515 2026-04-15 05:05:53 2026-04-15 05:05:51 Stelmat001 018 T 147.50 0.59 77.60 12109.980 0.040 0.040 59.90 0.89
1207514 2026-04-15 05:05:53 2026-04-15 05:05:50 Stelmat001 062 T 133.60 1.66 129.80 4541.310 0.020 0.020 59.90 0.58
1207513 2026-04-15 05:05:52 2026-04-15 05:05:51 Stelmat001 017 S 134.10 0.73 77.30 7033.820 0.010 0.010 59.90 0.79
1207512 2026-04-15 05:05:52 2026-04-15 05:05:50 Stelmat001 061 S 134.00 4.90 630.20 8313.640 0.110 0.110 59.90 0.96
1207511 2026-04-15 05:05:52 2026-04-15 05:05:51 Stelmat001 016 R 133.60 0.69 20.90 16447.780 0.040 0.040 59.90 0.23
1207510 2026-04-15 05:05:51 2026-04-15 05:05:50 Stelmat001 060 R 134.20 0.36 12.10 466.700 0.000 0.000 59.90 0.25
1207509 2026-04-15 05:03:02 2026-04-15 05:02:59 Stelmat001 012 T 134.10 3.19 196.20 3622.300 0.030 0.030 59.90 0.46
1207508 2026-04-15 05:03:01 2026-04-15 05:02:59 Stelmat001 011 S 133.80 2.23 203.30 5530.890 0.030 0.030 59.90 0.68
1207507 2026-04-15 05:03:00 2026-04-15 05:02:59 Stelmat001 010 R 134.10 1.04 83.40 4229.960 0.020 0.020 59.90 0.60
1207506 2026-04-15 04:58:24 2026-04-15 04:58:24 Stelmat002 102 S 134.26 1.11 0.04 25746.893 0.096 0.096 60.02 0.10
1207505 2026-04-15 04:58:21 2026-04-15 04:58:21 Stelmat002 101 R 134.20 1.33 0.03 27391.268 0.004 0.004 60.01 0.06
1207504 2026-04-15 04:58:10 2026-04-15 04:58:06 Stelmat001 065 T 133.70 1.62 151.30 2176.880 0.030 0.030 60.00 0.70
1207503 2026-04-15 04:58:10 2026-04-15 04:58:06 Stelmat001 064 S 147.80 0.32 13.40 3368.890 0.000 0.000 59.90 0.28
1207502 2026-04-15 04:58:09 2026-04-15 04:58:06 Stelmat001 063 R 134.30 1.40 76.90 1807.170 0.010 0.010 60.00 0.41
1207501 2026-04-15 04:57:38 2026-04-15 04:57:36 Stelmat001 025 T 134.40 0.29 7.50 962.730 0.000 0.000 60.00 0.19
1207500 2026-04-15 04:57:38 2026-04-15 04:57:36 Stelmat001 024 S 133.70 0.98 117.50 3429.020 0.020 0.020 60.00 0.90
1207499 2026-04-15 04:57:37 2026-04-15 04:57:36 Stelmat001 023 R 134.20 0.04 0.90 18097.270 0.000 0.000 60.00 0.15
1207498 2026-04-15 04:57:11 2026-04-15 04:57:06 Stelmat001 022 T 133.90 0.51 47.50 6397.030 0.010 0.010 60.00 0.70
1207497 2026-04-15 04:57:10 2026-04-15 04:57:06 Stelmat001 021 S 134.30 1.31 95.50 4707.640 0.020 0.020 59.90 0.54
1207496 2026-04-15 04:57:09 2026-04-15 04:57:06 Stelmat001 020 R 134.30 0.22 11.20 453.750 0.000 0.000 60.00 0.37
1207495 2026-04-15 04:55:53 2026-04-15 04:55:48 Stelmat001 018 T 147.70 5.50 478.70 12109.940 0.040 0.040 59.90 0.59
1207494 2026-04-15 04:55:53 2026-04-15 04:55:48 Stelmat001 062 T 133.70 1.66 131.00 4541.290 0.020 0.020 59.90 0.59
1207493 2026-04-15 04:55:52 2026-04-15 04:55:48 Stelmat001 017 S 134.20 5.59 103.30 7033.810 0.020 0.020 60.00 0.14
1207492 2026-04-15 04:55:52 2026-04-15 04:55:48 Stelmat001 061 S 134.20 4.90 630.60 8313.530 0.100 0.100 59.90 0.96
1207491 2026-04-15 04:55:51 2026-04-15 04:55:48 Stelmat001 016 R 133.70 5.61 552.30 16447.740 0.050 0.050 59.90 0.74
1207490 2026-04-15 04:55:51 2026-04-15 04:55:48 Stelmat001 060 R 134.40 0.36 12.60 466.700 0.000 0.000 59.90 0.26
1207489 2026-04-15 04:53:07 2026-04-15 04:53:03 Stelmat001 034 T 133.60 0.64 54.10 421.050 0.010 0.010 60.00 0.63
1207488 2026-04-15 04:53:07 2026-04-15 04:53:03 Stelmat001 033 S 134.10 0.45 21.00 556.590 0.010 0.010 60.00 0.35
1207487 2026-04-15 04:53:06 2026-04-15 04:53:03 Stelmat001 032 R 147.50 0.50 56.00 588.640 0.020 0.020 59.90 0.75
1207486 2026-04-15 04:53:02 2026-04-15 04:52:57 Stelmat001 012 T 134.30 3.12 183.90 3622.270 0.030 0.030 60.00 0.44
1207485 2026-04-15 04:53:01 2026-04-15 04:52:57 Stelmat001 011 S 133.80 2.22 208.00 5530.860 0.040 0.040 60.00 0.70
1207484 2026-04-15 04:53:00 2026-04-15 04:52:57 Stelmat001 010 R 134.20 1.08 82.80 4229.940 0.010 0.010 60.00 0.57
1207483 2026-04-15 04:48:23 2026-04-15 04:48:22 Stelmat002 102 S 134.17 1.11 0.04 25746.797 0.010 0.010 59.98 0.09
1207482 2026-04-15 04:48:20 2026-04-15 04:48:19 Stelmat002 101 R 134.11 1.30 0.03 27391.264 0.008 0.008 59.98 0.06
1207481 2026-04-15 04:48:10 2026-04-15 04:48:08 Stelmat001 065 T 133.60 1.66 161.70 2176.850 0.020 0.020 59.90 0.73
1207480 2026-04-15 04:48:10 2026-04-15 04:48:08 Stelmat001 064 S 147.70 0.33 12.60 3368.890 0.010 0.010 59.90 0.26
1207479 2026-04-15 04:48:09 2026-04-15 04:48:08 Stelmat001 063 R 134.20 1.40 76.60 1807.160 0.010 0.010 59.90 0.41
1207478 2026-04-15 04:47:38 2026-04-15 04:47:34 Stelmat001 025 T 134.50 0.29 8.10 962.730 0.000 0.000 60.00 0.20
1207477 2026-04-15 04:47:37 2026-04-15 04:47:34 Stelmat001 024 S 133.80 0.93 114.80 3429.000 0.020 0.020 60.00 0.92
1207476 2026-04-15 04:47:37 2026-04-15 04:47:34 Stelmat001 023 R 134.30 0.05 0.90 18097.270 0.000 0.000 60.00 0.15
1207475 2026-04-15 04:47:11 2026-04-15 04:47:08 Stelmat001 022 T 134.00 0.50 47.20 6397.020 0.010 0.010 60.00 0.70
1207474 2026-04-15 04:47:10 2026-04-15 04:47:08 Stelmat001 021 S 134.50 1.29 94.40 4707.620 0.020 0.020 60.00 0.54
1207473 2026-04-15 04:47:09 2026-04-15 04:47:08 Stelmat001 020 R 134.40 0.23 11.00 453.750 0.000 0.000 60.00 0.36
1207472 2026-04-15 04:45:53 2026-04-15 04:45:51 Stelmat001 018 T 147.90 0.59 77.50 12109.900 0.070 0.070 60.00 0.89
1207471 2026-04-15 04:45:53 2026-04-15 04:45:50 Stelmat001 062 T 133.80 1.66 129.60 4541.270 0.030 0.030 60.00 0.58
1207470 2026-04-15 04:45:52 2026-04-15 04:45:51 Stelmat001 017 S 134.40 0.67 77.30 7033.790 0.020 0.020 60.00 0.85
1207469 2026-04-15 04:45:52 2026-04-15 04:45:50 Stelmat001 061 S 134.30 4.89 630.40 8313.430 0.110 0.110 60.00 0.96
1207468 2026-04-15 04:45:52 2026-04-15 04:45:51 Stelmat001 016 R 133.90 0.68 12.50 16447.690 0.080 0.080 60.00 0.14
1207467 2026-04-15 04:45:51 2026-04-15 04:45:50 Stelmat001 060 R 134.50 0.36 12.50 466.700 0.000 0.000 60.00 0.26
1207466 2026-04-15 04:43:02 2026-04-15 04:42:59 Stelmat001 012 T 134.30 3.11 191.40 3622.240 0.030 0.030 59.90 0.46
1207465 2026-04-15 04:43:01 2026-04-15 04:42:59 Stelmat001 011 S 133.70 2.21 206.60 5530.820 0.030 0.030 60.00 0.70
1207464 2026-04-15 04:43:00 2026-04-15 04:42:59 Stelmat001 010 R 134.20 1.02 81.90 4229.930 0.020 0.020 59.90 0.60
1207463 2026-04-15 04:38:21 2026-04-15 04:38:21 Stelmat002 102 S 134.09 1.10 0.04 25746.787 1.295 1.295 60.00 0.10
1207462 2026-04-15 04:38:19 2026-04-15 04:38:18 Stelmat002 101 R 133.99 1.32 0.03 27391.256 0.004 0.004 60.01 0.06
1207461 2026-04-15 04:38:10 2026-04-15 04:38:05 Stelmat001 065 T 133.60 1.63 151.80 2176.830 0.030 0.030 60.00 0.70
1207460 2026-04-15 04:38:10 2026-04-15 04:38:05 Stelmat001 064 S 147.80 0.33 13.30 3368.880 0.000 0.000 60.00 0.27
1207459 2026-04-15 04:38:09 2026-04-15 04:38:05 Stelmat001 063 R 134.10 1.40 76.60 1807.150 0.020 0.020 60.00 0.41
1207458 2026-04-15 04:37:36 2026-04-15 04:37:31 Stelmat001 025 T 134.40 0.29 7.40 962.730 0.000 0.000 60.00 0.19
1207457 2026-04-15 04:37:35 2026-04-15 04:37:31 Stelmat001 024 S 133.60 1.00 119.90 3428.980 0.020 0.020 60.00 0.89
1207456 2026-04-15 04:37:35 2026-04-15 04:37:31 Stelmat001 023 R 134.00 1.41 131.20 18097.270 0.020 0.020 60.00 0.69
1207455 2026-04-15 04:37:11 2026-04-15 04:37:06 Stelmat001 022 T 133.80 0.50 47.20 6397.010 0.010 0.010 60.00 0.70
1207454 2026-04-15 04:37:10 2026-04-15 04:37:06 Stelmat001 021 S 134.30 1.49 150.10 4707.600 0.020 0.020 60.00 0.75
1207453 2026-04-15 04:37:09 2026-04-15 04:37:06 Stelmat001 020 R 134.10 0.23 11.10 453.750 0.010 0.010 60.00 0.37
1207452 2026-04-15 04:35:53 2026-04-15 04:35:48 Stelmat001 018 T 147.70 4.63 400.40 12109.830 0.140 0.140 59.90 0.59
1207451 2026-04-15 04:35:53 2026-04-15 04:35:48 Stelmat001 062 T 133.70 1.65 130.50 4541.240 0.020 0.020 60.00 0.59
1207450 2026-04-15 04:35:52 2026-04-15 04:35:48 Stelmat001 017 S 134.20 4.75 57.90 7033.770 0.080 0.080 60.00 0.09
1207449 2026-04-15 04:35:52 2026-04-15 04:35:48 Stelmat001 061 S 134.20 4.89 628.60 8313.320 0.100 0.100 60.00 0.96
1207448 2026-04-15 04:35:51 2026-04-15 04:35:48 Stelmat001 016 R 133.60 4.77 436.90 16447.610 0.200 0.200 60.00 0.69
1207447 2026-04-15 04:35:51 2026-04-15 04:35:48 Stelmat001 060 R 134.40 0.37 12.10 466.700 0.000 0.000 60.00 0.25
1207446 2026-04-15 04:33:07 2026-04-15 04:33:03 Stelmat001 034 T 133.50 0.64 54.00 421.040 0.020 0.020 59.90 0.63
1207445 2026-04-15 04:33:07 2026-04-15 04:33:03 Stelmat001 033 S 134.00 0.45 21.00 556.580 0.010 0.010 60.00 0.35
1207444 2026-04-15 04:33:06 2026-04-15 04:33:03 Stelmat001 032 R 147.30 0.50 56.00 588.620 0.020 0.020 60.00 0.75
1207443 2026-04-15 04:33:01 2026-04-15 04:32:56 Stelmat001 012 T 134.20 3.15 186.10 3622.210 0.030 0.030 60.00 0.44
1207442 2026-04-15 04:33:01 2026-04-15 04:32:56 Stelmat001 011 S 133.60 2.20 206.60 5530.790 0.040 0.040 60.00 0.70
1207441 2026-04-15 04:33:00 2026-04-15 04:32:56 Stelmat001 010 R 134.00 1.48 157.40 4229.910 0.030 0.030 60.00 0.79
1207440 2026-04-15 04:28:18 2026-04-15 04:28:18 Stelmat002 102 S 133.02 63.35 23.68 25745.492 0.295 0.295 60.01 0.93
1207439 2026-04-15 04:28:16 2026-04-15 04:28:15 Stelmat002 101 R 132.93 1.93 0.04 27391.252 0.006 0.006 60.00 0.05
1207438 2026-04-15 04:28:10 2026-04-15 04:28:08 Stelmat001 065 T 132.60 1.77 151.40 2176.800 0.020 0.020 59.90 0.64
1207437 2026-04-15 04:28:10 2026-04-15 04:28:08 Stelmat001 064 S 146.60 0.40 14.60 3368.880 0.000 0.000 59.90 0.25
1207436 2026-04-15 04:28:09 2026-04-15 04:28:08 Stelmat001 063 R 133.20 1.41 78.40 1807.130 0.010 0.010 59.90 0.42
1207435 2026-04-15 04:27:34 2026-04-15 04:27:29 Stelmat001 025 T 134.10 0.38 6.70 962.730 0.010 0.010 59.90 0.13
1207434 2026-04-15 04:27:33 2026-04-15 04:27:29 Stelmat001 024 S 133.30 1.03 116.20 3428.960 0.020 0.020 59.90 0.84
1207433 2026-04-15 04:27:32 2026-04-15 04:27:29 Stelmat001 023 R 133.80 1.02 75.20 18097.250 0.010 0.010 59.90 0.55
1207432 2026-04-15 04:27:11 2026-04-15 04:27:08 Stelmat001 022 T 133.60 0.59 47.40 6397.000 0.010 0.010 60.00 0.60
1207431 2026-04-15 04:27:10 2026-04-15 04:27:08 Stelmat001 021 S 134.10 1.50 94.70 4707.580 0.020 0.020 60.00 0.47
1207430 2026-04-15 04:27:09 2026-04-15 04:27:08 Stelmat001 020 R 134.00 0.25 11.20 453.740 0.000 0.000 59.90 0.33
1207429 2026-04-15 04:25:53 2026-04-15 04:25:50 Stelmat001 018 T 147.60 5.23 428.50 12109.690 0.030 0.030 60.00 0.56
1207428 2026-04-15 04:25:53 2026-04-15 04:25:50 Stelmat001 062 T 133.50 1.71 133.60 4541.220 0.020 0.020 60.00 0.59
1207427 2026-04-15 04:25:52 2026-04-15 04:25:50 Stelmat001 017 S 134.00 5.27 79.10 7033.690 0.010 0.010 59.90 0.11
1207426 2026-04-15 04:25:52 2026-04-15 04:25:50 Stelmat001 061 S 134.00 4.91 630.00 8313.220 0.110 0.110 60.00 0.96
1207425 2026-04-15 04:25:51 2026-04-15 04:25:50 Stelmat001 060 R 134.30 0.37 13.20 466.700 0.010 0.010 60.00 0.26
1207424 2026-04-15 04:25:51 2026-04-15 04:25:50 Stelmat001 016 R 133.60 5.27 482.70 16447.410 0.030 0.030 59.90 0.69
1207423 2026-04-15 04:23:01 2026-04-15 04:22:59 Stelmat001 012 T 134.20 3.17 194.10 3622.180 0.030 0.030 60.00 0.46
1207422 2026-04-15 04:23:01 2026-04-15 04:22:59 Stelmat001 011 S 133.70 2.28 205.80 5530.750 0.030 0.030 60.00 0.67
1207421 2026-04-15 04:23:00 2026-04-15 04:22:59 Stelmat001 010 R 134.00 1.47 157.10 4229.880 0.020 0.020 60.00 0.80
1207420 2026-04-15 04:18:17 2026-04-15 04:18:16 Stelmat002 102 S 134.03 1.11 0.04 25745.197 0.056 0.056 60.06 0.09
1207419 2026-04-15 04:18:14 2026-04-15 04:18:13 Stelmat002 101 R 133.92 1.30 0.03 27391.246 0.006 0.006 60.06 0.06
1207418 2026-04-15 04:18:10 2026-04-15 04:18:05 Stelmat001 065 T 133.40 1.61 148.50 2176.780 0.030 0.030 60.00 0.69
1207417 2026-04-15 04:18:09 2026-04-15 04:18:05 Stelmat001 064 S 147.60 0.33 12.70 3368.880 0.000 0.000 60.00 0.26
1207416 2026-04-15 04:18:09 2026-04-15 04:18:05 Stelmat001 063 R 134.00 1.40 76.90 1807.120 0.050 0.050 60.00 0.41
1207415 2026-04-15 04:17:34 2026-04-15 04:17:31 Stelmat001 025 T 134.10 0.29 7.40 962.720 0.000 0.000 60.00 0.19
1207414 2026-04-15 04:17:33 2026-04-15 04:17:31 Stelmat001 024 S 133.40 0.93 115.30 3428.940 0.020 0.020 60.00 0.93
1207413 2026-04-15 04:17:32 2026-04-15 04:17:31 Stelmat001 023 R 133.90 0.97 75.50 18097.240 0.020 0.020 60.00 0.58
1207412 2026-04-15 04:17:10 2026-04-15 04:17:05 Stelmat001 022 T 133.60 1.37 116.80 6396.990 0.020 0.020 60.00 0.64
1207411 2026-04-15 04:17:10 2026-04-15 04:17:05 Stelmat001 021 S 134.00 1.53 156.00 4707.560 0.030 0.030 60.00 0.76
1207410 2026-04-15 04:17:09 2026-04-15 04:17:05 Stelmat001 020 R 134.00 0.22 11.00 453.740 0.000 0.000 60.00 0.37
1207409 2026-04-15 04:15:53 2026-04-15 04:15:48 Stelmat001 018 T 147.30 4.69 406.00 12109.660 0.040 0.040 60.00 0.59
1207408 2026-04-15 04:15:53 2026-04-15 04:15:48 Stelmat001 062 T 133.40 1.66 130.60 4541.200 0.020 0.020 59.90 0.59
1207407 2026-04-15 04:15:52 2026-04-15 04:15:48 Stelmat001 017 S 133.90 4.81 61.60 7033.680 0.010 0.010 59.90 0.10
1207406 2026-04-15 04:15:52 2026-04-15 04:15:48 Stelmat001 061 S 133.90 4.90 629.70 8313.110 0.100 0.100 59.90 0.96
1207405 2026-04-15 04:15:51 2026-04-15 04:15:48 Stelmat001 016 R 133.40 4.82 445.30 16447.380 0.040 0.040 60.00 0.69
1207404 2026-04-15 04:15:51 2026-04-15 04:15:48 Stelmat001 060 R 134.10 0.35 12.60 466.690 0.000 0.000 59.90 0.27
1207403 2026-04-15 04:13:07 2026-04-15 04:13:03 Stelmat001 034 T 133.00 0.62 53.60 421.020 0.020 0.020 59.90 0.65
1207402 2026-04-15 04:13:07 2026-04-15 04:13:03 Stelmat001 033 S 133.50 0.43 21.00 556.570 0.010 0.010 59.90 0.36
1207401 2026-04-15 04:13:06 2026-04-15 04:13:03 Stelmat001 032 R 146.80 0.49 55.80 588.600 0.020 0.020 59.80 0.78
1207400 2026-04-15 04:13:01 2026-04-15 04:12:56 Stelmat001 012 T 133.60 3.09 182.90 3622.150 0.040 0.040 59.80 0.44
1207399 2026-04-15 04:13:00 2026-04-15 04:12:56 Stelmat001 011 S 133.10 2.30 220.60 5530.720 0.030 0.030 59.80 0.72
1207398 2026-04-15 04:13:00 2026-04-15 04:12:56 Stelmat001 010 R 133.50 1.51 159.70 4229.860 0.030 0.030 59.90 0.79
1207397 2026-04-15 04:08:15 2026-04-15 04:08:15 Stelmat002 102 S 133.65 1.10 0.04 25745.141 0.047 0.047 59.96 0.09
1207396 2026-04-15 04:08:13 2026-04-15 04:08:12 Stelmat002 101 R 133.55 1.29 0.03 27391.240 0.004 0.004 59.96 0.06
1207395 2026-04-15 04:08:10 2026-04-15 04:08:08 Stelmat001 065 T 133.10 1.61 148.90 2176.750 0.020 0.020 59.90 0.69
1207394 2026-04-15 04:08:09 2026-04-15 04:08:08 Stelmat001 064 S 146.90 0.34 12.70 3368.880 0.010 0.010 59.90 0.26
1207393 2026-04-15 04:08:09 2026-04-15 04:08:08 Stelmat001 063 R 133.60 2.32 269.00 1807.070 0.040 0.040 59.80 0.87
1207392 2026-04-15 04:07:34 2026-04-15 04:07:29 Stelmat001 025 T 132.00 0.30 8.10 962.720 0.000 0.000 59.90 0.21
1207391 2026-04-15 04:07:33 2026-04-15 04:07:29 Stelmat001 024 S 131.40 0.91 109.70 3428.920 0.020 0.020 59.90 0.92
1207390 2026-04-15 04:07:32 2026-04-15 04:07:29 Stelmat001 023 R 131.90 0.95 75.40 18097.220 0.010 0.010 59.90 0.60
1207389 2026-04-15 04:07:10 2026-04-15 04:07:08 Stelmat001 022 T 131.50 1.35 115.60 6396.970 0.020 0.020 59.90 0.65
1207388 2026-04-15 04:07:10 2026-04-15 04:07:08 Stelmat001 021 S 131.80 2.05 214.70 4707.530 0.030 0.030 59.90 0.80
1207387 2026-04-15 04:07:09 2026-04-15 04:07:08 Stelmat001 020 R 131.90 0.23 11.00 453.740 0.000 0.000 59.90 0.37
1207386 2026-04-15 04:05:53 2026-04-15 04:05:50 Stelmat001 062 T 131.20 1.68 130.40 4541.180 0.020 0.020 59.80 0.59
1207385 2026-04-15 04:05:53 2026-04-15 04:05:50 Stelmat001 018 T 144.90 0.58 74.40 12109.620 0.050 0.050 59.90 0.89
1207384 2026-04-15 04:05:52 2026-04-15 04:05:50 Stelmat001 061 S 131.70 4.99 630.60 8313.010 0.110 0.110 59.80 0.96
1207383 2026-04-15 04:05:52 2026-04-15 04:05:50 Stelmat001 017 S 131.80 0.66 74.10 7033.670 0.020 0.020 59.90 0.86
1207382 2026-04-15 04:05:51 2026-04-15 04:05:50 Stelmat001 016 R 131.20 0.66 12.00 16447.340 0.060 0.060 59.90 0.14
1207381 2026-04-15 04:05:51 2026-04-15 04:05:50 Stelmat001 060 R 131.80 0.37 11.40 466.690 0.000 0.000 59.80 0.24
1207380 2026-04-15 04:03:01 2026-04-15 04:02:59 Stelmat001 012 T 131.70 3.03 177.20 3622.110 0.030 0.030 59.80 0.44
1207379 2026-04-15 04:03:00 2026-04-15 04:02:59 Stelmat001 011 S 131.20 2.38 218.20 5530.690 0.040 0.040 59.90 0.70
1207378 2026-04-15 04:03:00 2026-04-15 04:02:59 Stelmat001 010 R 131.60 1.50 162.20 4229.830 0.030 0.030 59.90 0.82
1207377 2026-04-15 03:58:14 2026-04-15 03:58:13 Stelmat002 102 S 132.18 5.88 1.67 25745.094 0.016 0.016 60.01 0.71
1207376 2026-04-15 03:58:11 2026-04-15 03:58:11 Stelmat002 101 R 132.13 1.34 0.03 27391.236 0.006 0.006 60.00 0.06
1207375 2026-04-15 03:58:10 2026-04-15 03:58:07 Stelmat001 065 T 131.70 1.66 148.30 2176.730 0.030 0.030 59.90 0.68
1207374 2026-04-15 03:58:09 2026-04-15 03:58:07 Stelmat001 064 S 145.50 0.35 14.40 3368.870 0.000 0.000 60.00 0.28
1207373 2026-04-15 03:58:09 2026-04-15 03:58:07 Stelmat001 063 R 132.10 2.30 262.10 1807.030 0.040 0.040 60.00 0.86
1207372 2026-04-15 03:57:31 2026-04-15 03:57:27 Stelmat001 025 T 132.50 0.30 8.10 962.720 0.000 0.000 60.00 0.20
1207371 2026-04-15 03:57:31 2026-04-15 03:57:27 Stelmat001 024 S 131.70 0.93 112.10 3428.900 0.020 0.020 60.00 0.92
1207370 2026-04-15 03:57:30 2026-04-15 03:57:27 Stelmat001 023 R 132.30 1.42 133.70 18097.210 0.020 0.020 60.00 0.71
1207369 2026-04-15 03:57:10 2026-04-15 03:57:05 Stelmat001 022 T 131.80 1.36 117.00 6396.950 0.020 0.020 60.00 0.65
1207368 2026-04-15 03:57:10 2026-04-15 03:57:05 Stelmat001 021 S 132.30 1.38 99.10 4707.500 0.020 0.020 59.90 0.54
1207367 2026-04-15 03:57:09 2026-04-15 03:57:05 Stelmat001 020 R 132.20 0.23 11.10 453.740 0.000 0.000 60.00 0.37
1207366 2026-04-15 03:55:53 2026-04-15 03:55:48 Stelmat001 018 T 145.50 0.58 75.10 12109.570 0.050 0.050 60.00 0.89
1207365 2026-04-15 03:55:53 2026-04-15 03:55:48 Stelmat001 062 T 131.60 1.69 130.80 4541.160 0.030 0.030 59.90 0.59
1207364 2026-04-15 03:55:52 2026-04-15 03:55:48 Stelmat001 061 S 132.20 4.97 630.50 8312.900 0.110 0.110 60.00 0.96
1207363 2026-04-15 03:55:52 2026-04-15 03:55:48 Stelmat001 017 S 132.30 0.66 74.70 7033.650 0.010 0.010 59.90 0.86
1207362 2026-04-15 03:55:51 2026-04-15 03:55:48 Stelmat001 016 R 131.60 0.66 12.10 16447.280 0.040 0.040 60.00 0.14
1207361 2026-04-15 03:55:51 2026-04-15 03:55:48 Stelmat001 060 R 132.40 0.36 11.40 466.690 0.000 0.000 59.90 0.24
1207360 2026-04-15 03:53:07 2026-04-15 03:53:03 Stelmat001 034 T 131.60 0.60 51.90 421.000 0.020 0.020 60.00 0.65
1207359 2026-04-15 03:53:07 2026-04-15 03:53:03 Stelmat001 033 S 132.10 0.43 20.60 556.560 0.000 0.000 60.00 0.37
1207358 2026-04-15 03:53:06 2026-04-15 03:53:03 Stelmat001 032 R 145.40 0.47 54.50 588.580 0.020 0.020 60.00 0.81
1207357 2026-04-15 03:53:01 2026-04-15 03:52:56 Stelmat001 012 T 132.20 3.07 180.90 3622.080 0.030 0.030 60.00 0.45
1207356 2026-04-15 03:53:00 2026-04-15 03:52:56 Stelmat001 011 S 131.70 2.26 211.10 5530.650 0.040 0.040 60.00 0.71
1207355 2026-04-15 03:52:59 2026-04-15 03:52:56 Stelmat001 010 R 132.10 1.55 167.20 4229.800 0.030 0.030 60.00 0.82
1207354 2026-04-15 03:48:13 2026-04-15 03:48:12 Stelmat002 102 S 132.20 1.09 0.04 25745.078 0.058 0.058 60.01 0.10
1207353 2026-04-15 03:48:10 2026-04-15 03:48:09 Stelmat002 101 R 132.08 1.30 0.03 27391.230 0.005 0.005 60.00 0.06
1207352 2026-04-15 03:48:09 2026-04-15 03:48:04 Stelmat001 065 T 131.60 1.63 149.10 2176.700 0.020 0.020 59.90 0.69
1207351 2026-04-15 03:48:08 2026-04-15 03:48:04 Stelmat001 064 S 145.50 0.34 13.30 3368.870 0.000 0.000 60.00 0.27
1207350 2026-04-15 03:48:08 2026-04-15 03:48:04 Stelmat001 063 R 132.20 2.29 262.40 1806.990 0.040 0.040 60.00 0.87
1207349 2026-04-15 03:47:31 2026-04-15 03:47:29 Stelmat001 025 T 132.40 0.29 7.60 962.720 0.000 0.000 59.90 0.20
1207348 2026-04-15 03:47:31 2026-04-15 03:47:29 Stelmat001 024 S 131.60 0.93 112.80 3428.880 0.020 0.020 60.00 0.92
1207347 2026-04-15 03:47:30 2026-04-15 03:47:29 Stelmat001 023 R 132.20 1.00 76.50 18097.190 0.010 0.010 60.00 0.58
1207346 2026-04-15 03:47:10 2026-04-15 03:47:08 Stelmat001 022 T 131.60 1.36 118.30 6396.930 0.020 0.020 59.90 0.66
1207345 2026-04-15 03:47:10 2026-04-15 03:47:08 Stelmat001 021 S 132.20 1.14 79.10 4707.480 0.010 0.010 60.00 0.52
1207344 2026-04-15 03:47:09 2026-04-15 03:47:08 Stelmat001 020 R 132.20 0.22 11.00 453.740 0.010 0.010 59.90 0.37
1207343 2026-04-15 03:45:53 2026-04-15 03:45:50 Stelmat001 062 T 131.60 1.68 132.10 4541.130 0.020 0.020 60.00 0.60
1207342 2026-04-15 03:45:53 2026-04-15 03:45:50 Stelmat001 018 T 145.50 6.23 536.90 12109.520 0.030 0.030 59.90 0.59